<?xml version="1.0" encoding="UTF-8" standalone="yes"?>
<gpx
 xmlns="http://www.topografix.com/GPX/1/1"
 creator="OziExplorer Version 3956f - http://www.oziexplorer.com"
 version="1.1"
 xmlns:xsi="http://www.w3.org/2001/XMLSchema-instance"
 xsi:schemaLocation="http://www.topografix.com/GPX/1/1 http://www.topografix.com/GPX/1/1/gpx.xsd">
<metadata>
 <time>2022-12-14T10:44:48Z</time>
 <bounds minlat="30.919560" minlon="35.194330" maxlat="31.055850" maxlon="35.368590"/>
</metadata>
<wpt lat="31.0548500" lon="35.1943800">
 <time>2022-12-14T12:44:25.036Z</time>
 <name>Start</name>
 <sym>Flag, Red</sym>
</wpt>
<wpt lat="30.9331900" lon="35.2427400">
 <time>2022-12-14T12:44:25.058Z</time>
 <name>Vodopad</name>
 <sym>Flag, Red</sym>
</wpt>
<wpt lat="30.9561200" lon="35.3638800">
 <time>2022-12-14T12:44:25.059Z</time>
 <name>Ein Plotir</name>
 <sym>Flag, Red</sym>
</wpt>
<wpt lat="30.9409000" lon="35.3681200">
 <time>2022-12-14T12:44:25.059Z</time>
 <name>Finish</name>
 <sym>Flag, Red</sym>
</wpt>
<wpt lat="30.9597100" lon="35.2372800">
 <time>2022-12-14T12:44:25.061Z</time>
 <name>Tatspit</name>
 <sym>Flag, Red</sym>
</wpt>
<wpt lat="30.9482200" lon="35.2381300">
 <time>2022-12-14T12:44:25.062Z</time>
 <name>Tatspit</name>
 <sym>Flag, Red</sym>
</wpt>
<wpt lat="30.9567500" lon="35.2096600">
 <time>2022-12-14T12:44:25.063Z</time>
 <name>Tatspit</name>
 <sym>Flag, Red</sym>
</wpt>
<wpt lat="30.9511200" lon="35.2201100">
 <time>2022-12-14T12:44:25.063Z</time>
 <name>Tatspit</name>
 <sym>Flag, Red</sym>
</wpt>
<wpt lat="30.9265500" lon="35.2631800">
 <time>2022-12-14T12:44:25.064Z</time>
 <name>Tatspit</name>
 <sym>Flag, Red</sym>
</wpt>
<wpt lat="30.9229000" lon="35.2859800">
 <time>2022-12-14T12:44:25.065Z</time>
 <name>Haris</name>
 <sym>Flag, Red</sym>
</wpt>
<wpt lat="31.0047400" lon="35.2744100">
 <time>2022-12-14T12:44:25.066Z</time>
 <name>Doroga</name>
 <sym>Flag, Red</sym>
</wpt>
<wpt lat="30.9507600" lon="35.2269700">
 <time>2022-12-14T12:44:25.067Z</time>
 <name>Tatspit</name>
 <sym>Flag, Red</sym>
</wpt>
<wpt lat="31.0091700" lon="35.2886700">
 <time>2022-12-14T12:44:25.067Z</time>
 <name>Gevey Peres</name>
 <sym>Flag, Red</sym>
</wpt>
<trk>
 <name>PeresZinVKrHaris60km.500m</name>
 <desc>PeresZinVKrHaris60km.500m</desc>
<trkseg>
<trkpt lat="31.0548600" lon="35.1943300">
<ele>392.779999</ele>
<time>2022-12-14T12:44:25.067Z</time>
</trkpt>
<trkpt lat="31.0554200" lon="35.1947100">
<ele>393.449982</ele>
<time>2022-12-14T12:44:25.067Z</time>
</trkpt>
<trkpt lat="31.0554000" lon="35.1949300">
<ele>394.880005</ele>
<time>2022-12-14T12:44:25.067Z</time>
</trkpt>
<trkpt lat="31.0555400" lon="35.1951400">
<ele>397.899994</ele>
<time>2022-12-14T12:44:25.067Z</time>
</trkpt>
<trkpt lat="31.0558500" lon="35.1953500">
<ele>397.110016</ele>
<time>2022-12-14T12:44:25.067Z</time>
</trkpt>
<trkpt lat="31.0558500" lon="35.1954600">
<ele>397.179993</ele>
<time>2022-12-14T12:44:25.067Z</time>
</trkpt>
<trkpt lat="31.0556300" lon="35.1960300">
<ele>394.169983</ele>
<time>2022-12-14T12:44:25.067Z</time>
</trkpt>
<trkpt lat="31.0556400" lon="35.1960400">
<ele>394.249969</ele>
<time>2022-12-14T12:44:25.067Z</time>
</trkpt>
<trkpt lat="31.0556400" lon="35.1960400">
<ele>394.249969</ele>
<time>2022-12-14T12:44:25.067Z</time>
</trkpt>
<trkpt lat="31.0556300" lon="35.1960900">
<ele>393.900024</ele>
<time>2022-12-14T12:44:25.067Z</time>
</trkpt>
<trkpt lat="31.0555000" lon="35.1964000">
<ele>392.759979</ele>
<time>2022-12-14T12:44:25.067Z</time>
</trkpt>
<trkpt lat="31.0554800" lon="35.1964600">
<ele>392.470001</ele>
<time>2022-12-14T12:44:25.067Z</time>
</trkpt>
<trkpt lat="31.0554000" lon="35.1966400">
<ele>391.540009</ele>
<time>2022-12-14T12:44:25.067Z</time>
</trkpt>
<trkpt lat="31.0553400" lon="35.1967700">
<ele>390.940002</ele>
<time>2022-12-14T12:44:25.067Z</time>
</trkpt>
<trkpt lat="31.0552600" lon="35.1969600">
<ele>389.799988</ele>
<time>2022-12-14T12:44:25.067Z</time>
</trkpt>
<trkpt lat="31.0551500" lon="35.1972200">
<ele>388.699982</ele>
<time>2022-12-14T12:44:25.067Z</time>
</trkpt>
<trkpt lat="31.0550200" lon="35.1975200">
<ele>388.500000</ele>
<time>2022-12-14T12:44:25.067Z</time>
</trkpt>
<trkpt lat="31.0549900" lon="35.1975800">
<ele>388.399994</ele>
<time>2022-12-14T12:44:25.067Z</time>
</trkpt>
<trkpt lat="31.0547500" lon="35.1981600">
<ele>388.920013</ele>
<time>2022-12-14T12:44:25.067Z</time>
</trkpt>
<trkpt lat="31.0546700" lon="35.1983200">
<ele>390.820007</ele>
<time>2022-12-14T12:44:25.067Z</time>
</trkpt>
<trkpt lat="31.0545400" lon="35.1986100">
<ele>393.650024</ele>
<time>2022-12-14T12:44:25.067Z</time>
</trkpt>
<trkpt lat="31.0544900" lon="35.1987400">
<ele>394.299988</ele>
<time>2022-12-14T12:44:25.067Z</time>
</trkpt>
<trkpt lat="31.0544700" lon="35.1987900">
<ele>394.549988</ele>
<time>2022-12-14T12:44:25.067Z</time>
</trkpt>
<trkpt lat="31.0543800" lon="35.1989900">
<ele>395.809998</ele>
<time>2022-12-14T12:44:25.067Z</time>
</trkpt>
<trkpt lat="31.0543700" lon="35.1990300">
<ele>396.149994</ele>
<time>2022-12-14T12:44:25.067Z</time>
</trkpt>
<trkpt lat="31.0543200" lon="35.1991400">
<ele>397.209991</ele>
<time>2022-12-14T12:44:25.067Z</time>
</trkpt>
<trkpt lat="31.0543100" lon="35.1991800">
<ele>397.559998</ele>
<time>2022-12-14T12:44:25.067Z</time>
</trkpt>
<trkpt lat="31.0542500" lon="35.1993200">
<ele>398.419983</ele>
<time>2022-12-14T12:44:25.067Z</time>
</trkpt>
<trkpt lat="31.0542200" lon="35.1993800">
<ele>398.720001</ele>
<time>2022-12-14T12:44:25.067Z</time>
</trkpt>
<trkpt lat="31.0541700" lon="35.1994900">
<ele>399.009979</ele>
<time>2022-12-14T12:44:25.067Z</time>
</trkpt>
<trkpt lat="31.0541100" lon="35.1996200">
<ele>397.779999</ele>
<time>2022-12-14T12:44:25.067Z</time>
</trkpt>
<trkpt lat="31.0540800" lon="35.1996900">
<ele>397.130005</ele>
<time>2022-12-14T12:44:25.067Z</time>
</trkpt>
<trkpt lat="31.0540500" lon="35.1997600">
<ele>396.689972</ele>
<time>2022-12-14T12:44:25.067Z</time>
</trkpt>
<trkpt lat="31.0539100" lon="35.2000800">
<ele>395.089996</ele>
<time>2022-12-14T12:44:25.067Z</time>
</trkpt>
<trkpt lat="31.0538900" lon="35.2001200">
<ele>394.890015</ele>
<time>2022-12-14T12:44:25.067Z</time>
</trkpt>
<trkpt lat="31.0537500" lon="35.2004600">
<ele>397.639984</ele>
<time>2022-12-14T12:44:25.067Z</time>
</trkpt>
<trkpt lat="31.0535400" lon="35.2009200">
<ele>397.540009</ele>
<time>2022-12-14T12:44:25.067Z</time>
</trkpt>
<trkpt lat="31.0534700" lon="35.2011000">
<ele>397.440002</ele>
<time>2022-12-14T12:44:25.067Z</time>
</trkpt>
<trkpt lat="31.0533900" lon="35.2012600">
<ele>397.570007</ele>
<time>2022-12-14T12:44:25.067Z</time>
</trkpt>
<trkpt lat="31.0532500" lon="35.2015900">
<ele>399.029999</ele>
<time>2022-12-14T12:44:25.067Z</time>
</trkpt>
<trkpt lat="31.0532300" lon="35.2016200">
<ele>399.359985</ele>
<time>2022-12-14T12:44:25.067Z</time>
</trkpt>
<trkpt lat="31.0531400" lon="35.2019300">
<ele>401.070007</ele>
<time>2022-12-14T12:44:25.067Z</time>
</trkpt>
<trkpt lat="31.0530300" lon="35.2023200">
<ele>395.040009</ele>
<time>2022-12-14T12:44:25.067Z</time>
</trkpt>
<trkpt lat="31.0530000" lon="35.2024100">
<ele>395.050018</ele>
<time>2022-12-14T12:44:25.067Z</time>
</trkpt>
<trkpt lat="31.0529400" lon="35.2026100">
<ele>394.690002</ele>
<time>2022-12-14T12:44:25.067Z</time>
</trkpt>
<trkpt lat="31.0529100" lon="35.2026500">
<ele>394.750000</ele>
<time>2022-12-14T12:44:25.067Z</time>
</trkpt>
<trkpt lat="31.0528500" lon="35.2027200">
<ele>394.839996</ele>
<time>2022-12-14T12:44:25.067Z</time>
</trkpt>
<trkpt lat="31.0528200" lon="35.2027500">
<ele>394.880005</ele>
<time>2022-12-14T12:44:25.067Z</time>
</trkpt>
<trkpt lat="31.0527200" lon="35.2028000">
<ele>393.619995</ele>
<time>2022-12-14T12:44:25.067Z</time>
</trkpt>
<trkpt lat="31.0526500" lon="35.2028200">
<ele>391.930023</ele>
<time>2022-12-14T12:44:25.067Z</time>
</trkpt>
<trkpt lat="31.0522800" lon="35.2029600">
<ele>388.680023</ele>
<time>2022-12-14T12:44:25.067Z</time>
</trkpt>
<trkpt lat="31.0521700" lon="35.2030500">
<ele>389.360016</ele>
<time>2022-12-14T12:44:25.067Z</time>
</trkpt>
<trkpt lat="31.0521200" lon="35.2030800">
<ele>390.550018</ele>
<time>2022-12-14T12:44:25.067Z</time>
</trkpt>
<trkpt lat="31.0519800" lon="35.2031400">
<ele>394.330017</ele>
<time>2022-12-14T12:44:25.067Z</time>
</trkpt>
<trkpt lat="31.0519400" lon="35.2031400">
<ele>395.360016</ele>
<time>2022-12-14T12:44:25.067Z</time>
</trkpt>
<trkpt lat="31.0518600" lon="35.2031100">
<ele>396.229980</ele>
<time>2022-12-14T12:44:25.067Z</time>
</trkpt>
<trkpt lat="31.0516100" lon="35.2030000">
<ele>399.119995</ele>
<time>2022-12-14T12:44:25.067Z</time>
</trkpt>
<trkpt lat="31.0515100" lon="35.2029600">
<ele>399.269989</ele>
<time>2022-12-14T12:44:25.067Z</time>
</trkpt>
<trkpt lat="31.0513500" lon="35.2029000">
<ele>397.880005</ele>
<time>2022-12-14T12:44:25.067Z</time>
</trkpt>
<trkpt lat="31.0510100" lon="35.2027700">
<ele>393.890015</ele>
<time>2022-12-14T12:44:25.067Z</time>
</trkpt>
<trkpt lat="31.0509700" lon="35.2027500">
<ele>394.179993</ele>
<time>2022-12-14T12:44:25.067Z</time>
</trkpt>
<trkpt lat="31.0506200" lon="35.2026200">
<ele>391.230011</ele>
<time>2022-12-14T12:44:25.067Z</time>
</trkpt>
<trkpt lat="31.0505400" lon="35.2025800">
<ele>390.300018</ele>
<time>2022-12-14T12:44:25.067Z</time>
</trkpt>
<trkpt lat="31.0503700" lon="35.2025200">
<ele>385.800018</ele>
<time>2022-12-14T12:44:25.067Z</time>
</trkpt>
<trkpt lat="31.0501200" lon="35.2024200">
<ele>381.950012</ele>
<time>2022-12-14T12:44:25.067Z</time>
</trkpt>
<trkpt lat="31.0500300" lon="35.2023900">
<ele>380.160004</ele>
<time>2022-12-14T12:44:25.067Z</time>
</trkpt>
<trkpt lat="31.0499000" lon="35.2023400">
<ele>379.640015</ele>
<time>2022-12-14T12:44:25.067Z</time>
</trkpt>
<trkpt lat="31.0497600" lon="35.2022900">
<ele>381.170013</ele>
<time>2022-12-14T12:44:25.067Z</time>
</trkpt>
<trkpt lat="31.0496300" lon="35.2022300">
<ele>379.990021</ele>
<time>2022-12-14T12:44:25.067Z</time>
</trkpt>
<trkpt lat="31.0493600" lon="35.2021300">
<ele>375.199982</ele>
<time>2022-12-14T12:44:25.067Z</time>
</trkpt>
<trkpt lat="31.0490900" lon="35.2020200">
<ele>379.449982</ele>
<time>2022-12-14T12:44:25.067Z</time>
</trkpt>
<trkpt lat="31.0488200" lon="35.2019200">
<ele>381.579987</ele>
<time>2022-12-14T12:44:25.067Z</time>
</trkpt>
<trkpt lat="31.0486400" lon="35.2018500">
<ele>379.420013</ele>
<time>2022-12-14T12:44:25.067Z</time>
</trkpt>
<trkpt lat="31.0482000" lon="35.2016800">
<ele>381.730011</ele>
<time>2022-12-14T12:44:25.067Z</time>
</trkpt>
<trkpt lat="31.0477700" lon="35.2015100">
<ele>385.649994</ele>
<time>2022-12-14T12:44:25.067Z</time>
</trkpt>
<trkpt lat="31.0473200" lon="35.2013500">
<ele>398.589996</ele>
<time>2022-12-14T12:44:25.067Z</time>
</trkpt>
<trkpt lat="31.0471100" lon="35.2012900">
<ele>401.510010</ele>
<time>2022-12-14T12:44:25.067Z</time>
</trkpt>
<trkpt lat="31.0470400" lon="35.2012700">
<ele>402.240021</ele>
<time>2022-12-14T12:44:25.067Z</time>
</trkpt>
<trkpt lat="31.0470400" lon="35.2012700">
<ele>402.240021</ele>
<time>2022-12-14T12:44:25.067Z</time>
</trkpt>
<trkpt lat="31.0470400" lon="35.2012700">
<ele>402.240021</ele>
<time>2022-12-14T12:44:25.067Z</time>
</trkpt>
<trkpt lat="31.0467900" lon="35.2012500">
<ele>404.059998</ele>
<time>2022-12-14T12:44:25.067Z</time>
</trkpt>
<trkpt lat="31.0467900" lon="35.2012500">
<ele>404.059998</ele>
<time>2022-12-14T12:44:25.067Z</time>
</trkpt>
<trkpt lat="31.0467300" lon="35.2015800">
<ele>402.720001</ele>
<time>2022-12-14T12:44:25.067Z</time>
</trkpt>
<trkpt lat="31.0467400" lon="35.2015800">
<ele>402.790009</ele>
<time>2022-12-14T12:44:25.067Z</time>
</trkpt>
<trkpt lat="31.0467400" lon="35.2015800">
<ele>402.790009</ele>
<time>2022-12-14T12:44:25.067Z</time>
</trkpt>
<trkpt lat="31.0467400" lon="35.2016000">
<ele>402.559998</ele>
<time>2022-12-14T12:44:25.067Z</time>
</trkpt>
<trkpt lat="31.0467000" lon="35.2017200">
<ele>400.849976</ele>
<time>2022-12-14T12:44:25.067Z</time>
</trkpt>
<trkpt lat="31.0467000" lon="35.2017400">
<ele>400.660004</ele>
<time>2022-12-14T12:44:25.067Z</time>
</trkpt>
<trkpt lat="31.0467000" lon="35.2017600">
<ele>400.470001</ele>
<time>2022-12-14T12:44:25.067Z</time>
</trkpt>
<trkpt lat="31.0466900" lon="35.2018300">
<ele>399.640015</ele>
<time>2022-12-14T12:44:25.067Z</time>
</trkpt>
<trkpt lat="31.0466800" lon="35.2019300">
<ele>398.440002</ele>
<time>2022-12-14T12:44:25.067Z</time>
</trkpt>
<trkpt lat="31.0466600" lon="35.2020900">
<ele>396.919983</ele>
<time>2022-12-14T12:44:25.067Z</time>
</trkpt>
<trkpt lat="31.0466500" lon="35.2021400">
<ele>396.510010</ele>
<time>2022-12-14T12:44:25.067Z</time>
</trkpt>
<trkpt lat="31.0466500" lon="35.2023400">
<ele>395.520020</ele>
<time>2022-12-14T12:44:25.067Z</time>
</trkpt>
<trkpt lat="31.0466500" lon="35.2024200">
<ele>395.230011</ele>
<time>2022-12-14T12:44:25.067Z</time>
</trkpt>
<trkpt lat="31.0466500" lon="35.2025200">
<ele>394.920013</ele>
<time>2022-12-14T12:44:25.067Z</time>
</trkpt>
<trkpt lat="31.0466400" lon="35.2025800">
<ele>394.790009</ele>
<time>2022-12-14T12:44:25.067Z</time>
</trkpt>
<trkpt lat="31.0466300" lon="35.2027300">
<ele>394.429993</ele>
<time>2022-12-14T12:44:25.067Z</time>
</trkpt>
<trkpt lat="31.0466100" lon="35.2028900">
<ele>392.529999</ele>
<time>2022-12-14T12:44:25.067Z</time>
</trkpt>
<trkpt lat="31.0466000" lon="35.2029500">
<ele>391.619995</ele>
<time>2022-12-14T12:44:25.067Z</time>
</trkpt>
<trkpt lat="31.0465800" lon="35.2029800">
<ele>390.980011</ele>
<time>2022-12-14T12:44:25.067Z</time>
</trkpt>
<trkpt lat="31.0465400" lon="35.2029800">
<ele>390.470001</ele>
<time>2022-12-14T12:44:25.067Z</time>
</trkpt>
<trkpt lat="31.0465000" lon="35.2029700">
<ele>390.059998</ele>
<time>2022-12-14T12:44:25.067Z</time>
</trkpt>
<trkpt lat="31.0464300" lon="35.2029500">
<ele>389.320007</ele>
<time>2022-12-14T12:44:25.067Z</time>
</trkpt>
<trkpt lat="31.0463200" lon="35.2029800">
<ele>389.419983</ele>
<time>2022-12-14T12:44:25.067Z</time>
</trkpt>
<trkpt lat="31.0462900" lon="35.2029900">
<ele>389.710022</ele>
<time>2022-12-14T12:44:25.067Z</time>
</trkpt>
<trkpt lat="31.0460000" lon="35.2029900">
<ele>392.649994</ele>
<time>2022-12-14T12:44:25.067Z</time>
</trkpt>
<trkpt lat="31.0457500" lon="35.2029900">
<ele>394.020020</ele>
<time>2022-12-14T12:44:25.067Z</time>
</trkpt>
<trkpt lat="31.0455800" lon="35.2030500">
<ele>394.809998</ele>
<time>2022-12-14T12:44:25.067Z</time>
</trkpt>
<trkpt lat="31.0455400" lon="35.2031800">
<ele>395.279999</ele>
<time>2022-12-14T12:44:25.067Z</time>
</trkpt>
<trkpt lat="31.0455400" lon="35.2032500">
<ele>395.530029</ele>
<time>2022-12-14T12:44:25.067Z</time>
</trkpt>
<trkpt lat="31.0455300" lon="35.2034500">
<ele>396.109985</ele>
<time>2022-12-14T12:44:25.067Z</time>
</trkpt>
<trkpt lat="31.0455200" lon="35.2037700">
<ele>396.560028</ele>
<time>2022-12-14T12:44:25.067Z</time>
</trkpt>
<trkpt lat="31.0455000" lon="35.2040800">
<ele>396.399994</ele>
<time>2022-12-14T12:44:25.067Z</time>
</trkpt>
<trkpt lat="31.0455000" lon="35.2041200">
<ele>396.399994</ele>
<time>2022-12-14T12:44:25.067Z</time>
</trkpt>
<trkpt lat="31.0454900" lon="35.2043500">
<ele>396.449982</ele>
<time>2022-12-14T12:44:25.067Z</time>
</trkpt>
<trkpt lat="31.0454900" lon="35.2043900">
<ele>396.479980</ele>
<time>2022-12-14T12:44:25.067Z</time>
</trkpt>
<trkpt lat="31.0454800" lon="35.2044500">
<ele>396.510010</ele>
<time>2022-12-14T12:44:25.067Z</time>
</trkpt>
<trkpt lat="31.0454800" lon="35.2046900">
<ele>398.700012</ele>
<time>2022-12-14T12:44:25.067Z</time>
</trkpt>
<trkpt lat="31.0454800" lon="35.2047200">
<ele>398.980011</ele>
<time>2022-12-14T12:44:25.067Z</time>
</trkpt>
<trkpt lat="31.0454700" lon="35.2049100">
<ele>402.800018</ele>
<time>2022-12-14T12:44:25.067Z</time>
</trkpt>
<trkpt lat="31.0454700" lon="35.2049500">
<ele>403.610016</ele>
<time>2022-12-14T12:44:25.067Z</time>
</trkpt>
<trkpt lat="31.0454500" lon="35.2050900">
<ele>405.330017</ele>
<time>2022-12-14T12:44:25.067Z</time>
</trkpt>
<trkpt lat="31.0454500" lon="35.2051200">
<ele>405.519989</ele>
<time>2022-12-14T12:44:25.067Z</time>
</trkpt>
<trkpt lat="31.0454400" lon="35.2052400">
<ele>406.409973</ele>
<time>2022-12-14T12:44:25.067Z</time>
</trkpt>
<trkpt lat="31.0454300" lon="35.2053300">
<ele>406.600006</ele>
<time>2022-12-14T12:44:25.067Z</time>
</trkpt>
<trkpt lat="31.0454200" lon="35.2053800">
<ele>406.579987</ele>
<time>2022-12-14T12:44:25.067Z</time>
</trkpt>
<trkpt lat="31.0454200" lon="35.2055400">
<ele>405.989990</ele>
<time>2022-12-14T12:44:25.067Z</time>
</trkpt>
<trkpt lat="31.0454100" lon="35.2058100">
<ele>404.269989</ele>
<time>2022-12-14T12:44:25.067Z</time>
</trkpt>
<trkpt lat="31.0454100" lon="35.2058500">
<ele>404.029999</ele>
<time>2022-12-14T12:44:25.067Z</time>
</trkpt>
<trkpt lat="31.0454000" lon="35.2061900">
<ele>403.369995</ele>
<time>2022-12-14T12:44:25.067Z</time>
</trkpt>
<trkpt lat="31.0453900" lon="35.2065300">
<ele>404.709991</ele>
<time>2022-12-14T12:44:25.067Z</time>
</trkpt>
<trkpt lat="31.0453900" lon="35.2065800">
<ele>404.970001</ele>
<time>2022-12-14T12:44:25.067Z</time>
</trkpt>
<trkpt lat="31.0453800" lon="35.2067100">
<ele>405.580017</ele>
<time>2022-12-14T12:44:25.067Z</time>
</trkpt>
<trkpt lat="31.0453700" lon="35.2067900">
<ele>405.920013</ele>
<time>2022-12-14T12:44:25.067Z</time>
</trkpt>
<trkpt lat="31.0453700" lon="35.2069800">
<ele>406.920013</ele>
<time>2022-12-14T12:44:25.067Z</time>
</trkpt>
<trkpt lat="31.0453700" lon="35.2073000">
<ele>409.040009</ele>
<time>2022-12-14T12:44:25.067Z</time>
</trkpt>
<trkpt lat="31.0453700" lon="35.2073400">
<ele>409.230011</ele>
<time>2022-12-14T12:44:25.067Z</time>
</trkpt>
<trkpt lat="31.0453600" lon="35.2076300">
<ele>410.819977</ele>
<time>2022-12-14T12:44:25.067Z</time>
</trkpt>
<trkpt lat="31.0453600" lon="35.2076600">
<ele>411.039978</ele>
<time>2022-12-14T12:44:25.067Z</time>
</trkpt>
<trkpt lat="31.0453500" lon="35.2078900">
<ele>411.779999</ele>
<time>2022-12-14T12:44:25.067Z</time>
</trkpt>
<trkpt lat="31.0453400" lon="35.2079700">
<ele>411.670013</ele>
<time>2022-12-14T12:44:25.067Z</time>
</trkpt>
<trkpt lat="31.0453300" lon="35.2081700">
<ele>412.050018</ele>
<time>2022-12-14T12:44:25.067Z</time>
</trkpt>
<trkpt lat="31.0453200" lon="35.2083400">
<ele>412.640015</ele>
<time>2022-12-14T12:44:25.067Z</time>
</trkpt>
<trkpt lat="31.0453200" lon="35.2084100">
<ele>412.929993</ele>
<time>2022-12-14T12:44:25.067Z</time>
</trkpt>
<trkpt lat="31.0453200" lon="35.2085900">
<ele>413.670013</ele>
<time>2022-12-14T12:44:25.067Z</time>
</trkpt>
<trkpt lat="31.0453200" lon="35.2087000">
<ele>414.179993</ele>
<time>2022-12-14T12:44:25.067Z</time>
</trkpt>
<trkpt lat="31.0453200" lon="35.2088000">
<ele>414.649994</ele>
<time>2022-12-14T12:44:25.067Z</time>
</trkpt>
<trkpt lat="31.0453100" lon="35.2089700">
<ele>415.950012</ele>
<time>2022-12-14T12:44:25.067Z</time>
</trkpt>
<trkpt lat="31.0453000" lon="35.2091400">
<ele>418.099976</ele>
<time>2022-12-14T12:44:25.067Z</time>
</trkpt>
<trkpt lat="31.0452800" lon="35.2092400">
<ele>418.579987</ele>
<time>2022-12-14T12:44:25.067Z</time>
</trkpt>
<trkpt lat="31.0452800" lon="35.2093600">
<ele>419.450012</ele>
<time>2022-12-14T12:44:25.067Z</time>
</trkpt>
<trkpt lat="31.0452700" lon="35.2094200">
<ele>419.630005</ele>
<time>2022-12-14T12:44:25.067Z</time>
</trkpt>
<trkpt lat="31.0452500" lon="35.2096700">
<ele>420.839996</ele>
<time>2022-12-14T12:44:25.067Z</time>
</trkpt>
<trkpt lat="31.0452500" lon="35.2097000">
<ele>421.049988</ele>
<time>2022-12-14T12:44:25.067Z</time>
</trkpt>
<trkpt lat="31.0452300" lon="35.2099400">
<ele>419.970001</ele>
<time>2022-12-14T12:44:25.067Z</time>
</trkpt>
<trkpt lat="31.0452300" lon="35.2099800">
<ele>419.859985</ele>
<time>2022-12-14T12:44:25.067Z</time>
</trkpt>
<trkpt lat="31.0452200" lon="35.2103000">
<ele>418.170013</ele>
<time>2022-12-14T12:44:25.067Z</time>
</trkpt>
<trkpt lat="31.0452100" lon="35.2106300">
<ele>418.239990</ele>
<time>2022-12-14T12:44:25.067Z</time>
</trkpt>
<trkpt lat="31.0451900" lon="35.2108200">
<ele>417.470001</ele>
<time>2022-12-14T12:44:25.067Z</time>
</trkpt>
<trkpt lat="31.0451900" lon="35.2110700">
<ele>417.700012</ele>
<time>2022-12-14T12:44:25.067Z</time>
</trkpt>
<trkpt lat="31.0451900" lon="35.2112300">
<ele>417.580017</ele>
<time>2022-12-14T12:44:25.067Z</time>
</trkpt>
<trkpt lat="31.0451800" lon="35.2114800">
<ele>416.760010</ele>
<time>2022-12-14T12:44:25.067Z</time>
</trkpt>
<trkpt lat="31.0451700" lon="35.2116100">
<ele>415.940002</ele>
<time>2022-12-14T12:44:25.067Z</time>
</trkpt>
<trkpt lat="31.0451700" lon="35.2118200">
<ele>413.739990</ele>
<time>2022-12-14T12:44:25.067Z</time>
</trkpt>
<trkpt lat="31.0451700" lon="35.2118900">
<ele>412.889984</ele>
<time>2022-12-14T12:44:25.067Z</time>
</trkpt>
<trkpt lat="31.0451600" lon="35.2120200">
<ele>411.490021</ele>
<time>2022-12-14T12:44:25.067Z</time>
</trkpt>
<trkpt lat="31.0451500" lon="35.2123000">
<ele>409.489990</ele>
<time>2022-12-14T12:44:25.067Z</time>
</trkpt>
<trkpt lat="31.0451500" lon="35.2124400">
<ele>409.260010</ele>
<time>2022-12-14T12:44:25.067Z</time>
</trkpt>
<trkpt lat="31.0451400" lon="35.2129100">
<ele>407.540009</ele>
<time>2022-12-14T12:44:25.067Z</time>
</trkpt>
<trkpt lat="31.0451400" lon="35.2130900">
<ele>406.879974</ele>
<time>2022-12-14T12:44:25.067Z</time>
</trkpt>
<trkpt lat="31.0451400" lon="35.2132100">
<ele>406.440002</ele>
<time>2022-12-14T12:44:25.067Z</time>
</trkpt>
<trkpt lat="31.0451300" lon="35.2134300">
<ele>406.060028</ele>
<time>2022-12-14T12:44:25.067Z</time>
</trkpt>
<trkpt lat="31.0451200" lon="35.2138800">
<ele>405.590027</ele>
<time>2022-12-14T12:44:25.067Z</time>
</trkpt>
<trkpt lat="31.0451000" lon="35.2142800">
<ele>406.339996</ele>
<time>2022-12-14T12:44:25.067Z</time>
</trkpt>
<trkpt lat="31.0451000" lon="35.2144400">
<ele>407.330017</ele>
<time>2022-12-14T12:44:25.067Z</time>
</trkpt>
<trkpt lat="31.0450900" lon="35.2146300">
<ele>408.660004</ele>
<time>2022-12-14T12:44:25.067Z</time>
</trkpt>
<trkpt lat="31.0450900" lon="35.2146700">
<ele>408.949982</ele>
<time>2022-12-14T12:44:25.067Z</time>
</trkpt>
<trkpt lat="31.0450800" lon="35.2149300">
<ele>411.100006</ele>
<time>2022-12-14T12:44:25.067Z</time>
</trkpt>
<trkpt lat="31.0450800" lon="35.2151700">
<ele>412.679993</ele>
<time>2022-12-14T12:44:25.067Z</time>
</trkpt>
<trkpt lat="31.0450700" lon="35.2152100">
<ele>412.889984</ele>
<time>2022-12-14T12:44:25.067Z</time>
</trkpt>
<trkpt lat="31.0450600" lon="35.2153400">
<ele>413.489990</ele>
<time>2022-12-14T12:44:25.067Z</time>
</trkpt>
<trkpt lat="31.0450600" lon="35.2154400">
<ele>413.930023</ele>
<time>2022-12-14T12:44:25.067Z</time>
</trkpt>
<trkpt lat="31.0450500" lon="35.2156100">
<ele>414.720001</ele>
<time>2022-12-14T12:44:25.067Z</time>
</trkpt>
<trkpt lat="31.0450400" lon="35.2158000">
<ele>415.919983</ele>
<time>2022-12-14T12:44:25.067Z</time>
</trkpt>
<trkpt lat="31.0450300" lon="35.2158300">
<ele>416.089996</ele>
<time>2022-12-14T12:44:25.067Z</time>
</trkpt>
<trkpt lat="31.0450300" lon="35.2160300">
<ele>416.029999</ele>
<time>2022-12-14T12:44:25.067Z</time>
</trkpt>
<trkpt lat="31.0450300" lon="35.2162500">
<ele>415.950012</ele>
<time>2022-12-14T12:44:25.067Z</time>
</trkpt>
<trkpt lat="31.0450300" lon="35.2162800">
<ele>415.929993</ele>
<time>2022-12-14T12:44:25.067Z</time>
</trkpt>
<trkpt lat="31.0450300" lon="35.2163900">
<ele>415.900024</ele>
<time>2022-12-14T12:44:25.067Z</time>
</trkpt>
<trkpt lat="31.0450200" lon="35.2165000">
<ele>416.839996</ele>
<time>2022-12-14T12:44:25.067Z</time>
</trkpt>
<trkpt lat="31.0450300" lon="35.2165200">
<ele>417.040009</ele>
<time>2022-12-14T12:44:25.067Z</time>
</trkpt>
<trkpt lat="31.0450300" lon="35.2166500">
<ele>418.179993</ele>
<time>2022-12-14T12:44:25.067Z</time>
</trkpt>
<trkpt lat="31.0450200" lon="35.2166800">
<ele>418.500000</ele>
<time>2022-12-14T12:44:25.067Z</time>
</trkpt>
<trkpt lat="31.0450200" lon="35.2168100">
<ele>421.309998</ele>
<time>2022-12-14T12:44:25.067Z</time>
</trkpt>
<trkpt lat="31.0450200" lon="35.2168800">
<ele>422.820007</ele>
<time>2022-12-14T12:44:25.067Z</time>
</trkpt>
<trkpt lat="31.0450200" lon="35.2169600">
<ele>424.500000</ele>
<time>2022-12-14T12:44:25.067Z</time>
</trkpt>
<trkpt lat="31.0450100" lon="35.2170400">
<ele>425.840027</ele>
<time>2022-12-14T12:44:25.067Z</time>
</trkpt>
<trkpt lat="31.0450000" lon="35.2170800">
<ele>426.440002</ele>
<time>2022-12-14T12:44:25.067Z</time>
</trkpt>
<trkpt lat="31.0450000" lon="35.2171800">
<ele>428.239990</ele>
<time>2022-12-14T12:44:25.067Z</time>
</trkpt>
<trkpt lat="31.0449900" lon="35.2173100">
<ele>429.909973</ele>
<time>2022-12-14T12:44:25.067Z</time>
</trkpt>
<trkpt lat="31.0449900" lon="35.2173800">
<ele>430.670013</ele>
<time>2022-12-14T12:44:25.067Z</time>
</trkpt>
<trkpt lat="31.0449800" lon="35.2174900">
<ele>431.820007</ele>
<time>2022-12-14T12:44:25.067Z</time>
</trkpt>
<trkpt lat="31.0449800" lon="35.2175200">
<ele>431.929993</ele>
<time>2022-12-14T12:44:25.067Z</time>
</trkpt>
<trkpt lat="31.0449700" lon="35.2177200">
<ele>431.889984</ele>
<time>2022-12-14T12:44:25.067Z</time>
</trkpt>
<trkpt lat="31.0449500" lon="35.2179300">
<ele>431.820007</ele>
<time>2022-12-14T12:44:25.067Z</time>
</trkpt>
<trkpt lat="31.0449400" lon="35.2181800">
<ele>430.949982</ele>
<time>2022-12-14T12:44:25.067Z</time>
</trkpt>
<trkpt lat="31.0449400" lon="35.2183600">
<ele>429.839996</ele>
<time>2022-12-14T12:44:25.067Z</time>
</trkpt>
<trkpt lat="31.0449300" lon="35.2184600">
<ele>429.399994</ele>
<time>2022-12-14T12:44:25.067Z</time>
</trkpt>
<trkpt lat="31.0449300" lon="35.2185400">
<ele>429.180023</ele>
<time>2022-12-14T12:44:25.067Z</time>
</trkpt>
<trkpt lat="31.0449400" lon="35.2187800">
<ele>429.880005</ele>
<time>2022-12-14T12:44:25.067Z</time>
</trkpt>
<trkpt lat="31.0449300" lon="35.2190600">
<ele>431.020020</ele>
<time>2022-12-14T12:44:25.067Z</time>
</trkpt>
<trkpt lat="31.0449300" lon="35.2190900">
<ele>431.150024</ele>
<time>2022-12-14T12:44:25.067Z</time>
</trkpt>
<trkpt lat="31.0449300" lon="35.2193300">
<ele>431.060028</ele>
<time>2022-12-14T12:44:25.067Z</time>
</trkpt>
<trkpt lat="31.0449300" lon="35.2194000">
<ele>430.869995</ele>
<time>2022-12-14T12:44:25.067Z</time>
</trkpt>
<trkpt lat="31.0449200" lon="35.2196600">
<ele>432.820007</ele>
<time>2022-12-14T12:44:25.067Z</time>
</trkpt>
<trkpt lat="31.0449200" lon="35.2197200">
<ele>433.399994</ele>
<time>2022-12-14T12:44:25.067Z</time>
</trkpt>
<trkpt lat="31.0449100" lon="35.2199300">
<ele>435.349976</ele>
<time>2022-12-14T12:44:25.067Z</time>
</trkpt>
<trkpt lat="31.0449100" lon="35.2199700">
<ele>435.739990</ele>
<time>2022-12-14T12:44:25.067Z</time>
</trkpt>
<trkpt lat="31.0449100" lon="35.2199700">
<ele>435.739990</ele>
<time>2022-12-14T12:44:25.067Z</time>
</trkpt>
<trkpt lat="31.0449300" lon="35.2199700">
<ele>435.949982</ele>
<time>2022-12-14T12:44:25.067Z</time>
</trkpt>
<trkpt lat="31.0449000" lon="35.2203500">
<ele>439.250000</ele>
<time>2022-12-14T12:44:25.067Z</time>
</trkpt>
<trkpt lat="31.0448900" lon="35.2208300">
<ele>443.589996</ele>
<time>2022-12-14T12:44:25.067Z</time>
</trkpt>
<trkpt lat="31.0448600" lon="35.2213000">
<ele>448.019989</ele>
<time>2022-12-14T12:44:25.067Z</time>
</trkpt>
<trkpt lat="31.0448600" lon="35.2219400">
<ele>446.009979</ele>
<time>2022-12-14T12:44:25.067Z</time>
</trkpt>
<trkpt lat="31.0448500" lon="35.2225700">
<ele>438.160004</ele>
<time>2022-12-14T12:44:25.067Z</time>
</trkpt>
<trkpt lat="31.0448100" lon="35.2233300">
<ele>431.660004</ele>
<time>2022-12-14T12:44:25.067Z</time>
</trkpt>
<trkpt lat="31.0448400" lon="35.2240200">
<ele>429.130005</ele>
<time>2022-12-14T12:44:25.067Z</time>
</trkpt>
<trkpt lat="31.0447800" lon="35.2248500">
<ele>423.480011</ele>
<time>2022-12-14T12:44:25.067Z</time>
</trkpt>
<trkpt lat="31.0447800" lon="35.2248500">
<ele>423.480011</ele>
<time>2022-12-14T12:44:25.067Z</time>
</trkpt>
<trkpt lat="31.0447500" lon="35.2251700">
<ele>422.119995</ele>
<time>2022-12-14T12:44:25.067Z</time>
</trkpt>
<trkpt lat="31.0449400" lon="35.2253700">
<ele>421.739990</ele>
<time>2022-12-14T12:44:25.067Z</time>
</trkpt>
<trkpt lat="31.0447300" lon="35.2257100">
<ele>421.989990</ele>
<time>2022-12-14T12:44:25.067Z</time>
</trkpt>
<trkpt lat="31.0447200" lon="35.2262400">
<ele>415.650024</ele>
<time>2022-12-14T12:44:25.067Z</time>
</trkpt>
<trkpt lat="31.0447000" lon="35.2267600">
<ele>404.540009</ele>
<time>2022-12-14T12:44:25.067Z</time>
</trkpt>
<trkpt lat="31.0446900" lon="35.2272900">
<ele>403.159973</ele>
<time>2022-12-14T12:44:25.067Z</time>
</trkpt>
<trkpt lat="31.0446700" lon="35.2278100">
<ele>412.260010</ele>
<time>2022-12-14T12:44:25.067Z</time>
</trkpt>
<trkpt lat="31.0446600" lon="35.2283400">
<ele>403.089996</ele>
<time>2022-12-14T12:44:25.067Z</time>
</trkpt>
<trkpt lat="31.0446400" lon="35.2288600">
<ele>395.470001</ele>
<time>2022-12-14T12:44:25.067Z</time>
</trkpt>
<trkpt lat="31.0446300" lon="35.2293900">
<ele>382.239990</ele>
<time>2022-12-14T12:44:25.067Z</time>
</trkpt>
<trkpt lat="31.0446000" lon="35.2300100">
<ele>371.500000</ele>
<time>2022-12-14T12:44:25.067Z</time>
</trkpt>
<trkpt lat="31.0445700" lon="35.2306300">
<ele>364.509979</ele>
<time>2022-12-14T12:44:25.067Z</time>
</trkpt>
<trkpt lat="31.0445400" lon="35.2312600">
<ele>361.250000</ele>
<time>2022-12-14T12:44:25.067Z</time>
</trkpt>
<trkpt lat="31.0445100" lon="35.2318800">
<ele>358.769989</ele>
<time>2022-12-14T12:44:25.067Z</time>
</trkpt>
<trkpt lat="31.0444800" lon="35.2325000">
<ele>356.380005</ele>
<time>2022-12-14T12:44:25.067Z</time>
</trkpt>
<trkpt lat="31.0445000" lon="35.2325100">
<ele>356.589996</ele>
<time>2022-12-14T12:44:25.067Z</time>
</trkpt>
<trkpt lat="31.0445000" lon="35.2325100">
<ele>356.589996</ele>
<time>2022-12-14T12:44:25.067Z</time>
</trkpt>
<trkpt lat="31.0444900" lon="35.2326100">
<ele>356.360016</ele>
<time>2022-12-14T12:44:25.067Z</time>
</trkpt>
<trkpt lat="31.0444900" lon="35.2327000">
<ele>356.260010</ele>
<time>2022-12-14T12:44:25.067Z</time>
</trkpt>
<trkpt lat="31.0444700" lon="35.2331800">
<ele>352.460022</ele>
<time>2022-12-14T12:44:25.067Z</time>
</trkpt>
<trkpt lat="31.0444700" lon="35.2332400">
<ele>352.240021</ele>
<time>2022-12-14T12:44:25.067Z</time>
</trkpt>
<trkpt lat="31.0444700" lon="35.2333600">
<ele>351.910004</ele>
<time>2022-12-14T12:44:25.067Z</time>
</trkpt>
<trkpt lat="31.0444700" lon="35.2334700">
<ele>351.910004</ele>
<time>2022-12-14T12:44:25.067Z</time>
</trkpt>
<trkpt lat="31.0444800" lon="35.2336800">
<ele>352.120026</ele>
<time>2022-12-14T12:44:25.067Z</time>
</trkpt>
<trkpt lat="31.0444800" lon="35.2337200">
<ele>352.259979</ele>
<time>2022-12-14T12:44:25.067Z</time>
</trkpt>
<trkpt lat="31.0444800" lon="35.2337200">
<ele>352.259979</ele>
<time>2022-12-14T12:44:25.067Z</time>
</trkpt>
<trkpt lat="31.0444800" lon="35.2337200">
<ele>352.259979</ele>
<time>2022-12-14T12:44:25.067Z</time>
</trkpt>
<trkpt lat="31.0444800" lon="35.2337200">
<ele>352.259979</ele>
<time>2022-12-14T12:44:25.067Z</time>
</trkpt>
<trkpt lat="31.0444800" lon="35.2337200">
<ele>352.259979</ele>
<time>2022-12-14T12:44:25.067Z</time>
</trkpt>
<trkpt lat="31.0444800" lon="35.2337200">
<ele>352.259979</ele>
<time>2022-12-14T12:44:25.067Z</time>
</trkpt>
<trkpt lat="31.0444800" lon="35.2337200">
<ele>352.259979</ele>
<time>2022-12-14T12:44:25.067Z</time>
</trkpt>
<trkpt lat="31.0444800" lon="35.2337200">
<ele>352.259979</ele>
<time>2022-12-14T12:44:25.067Z</time>
</trkpt>
<trkpt lat="31.0444800" lon="35.2337200">
<ele>352.259979</ele>
<time>2022-12-14T12:44:25.067Z</time>
</trkpt>
<trkpt lat="31.0444800" lon="35.2337200">
<ele>352.259979</ele>
<time>2022-12-14T12:44:25.067Z</time>
</trkpt>
<trkpt lat="31.0444800" lon="35.2337300">
<ele>352.299988</ele>
<time>2022-12-14T12:44:25.067Z</time>
</trkpt>
<trkpt lat="31.0444900" lon="35.2337400">
<ele>352.299988</ele>
<time>2022-12-14T12:44:25.067Z</time>
</trkpt>
<trkpt lat="31.0445400" lon="35.2338200">
<ele>352.410004</ele>
<time>2022-12-14T12:44:25.067Z</time>
</trkpt>
<trkpt lat="31.0445600" lon="35.2338400">
<ele>352.410004</ele>
<time>2022-12-14T12:44:25.067Z</time>
</trkpt>
<trkpt lat="31.0446600" lon="35.2339700">
<ele>352.869995</ele>
<time>2022-12-14T12:44:25.067Z</time>
</trkpt>
<trkpt lat="31.0447600" lon="35.2340500">
<ele>352.479980</ele>
<time>2022-12-14T12:44:25.067Z</time>
</trkpt>
<trkpt lat="31.0448100" lon="35.2340800">
<ele>351.799988</ele>
<time>2022-12-14T12:44:25.067Z</time>
</trkpt>
<trkpt lat="31.0449100" lon="35.2341700">
<ele>350.660004</ele>
<time>2022-12-14T12:44:25.067Z</time>
</trkpt>
<trkpt lat="31.0449600" lon="35.2342200">
<ele>350.429993</ele>
<time>2022-12-14T12:44:25.067Z</time>
</trkpt>
<trkpt lat="31.0451700" lon="35.2344100">
<ele>348.980011</ele>
<time>2022-12-14T12:44:25.067Z</time>
</trkpt>
<trkpt lat="31.0453000" lon="35.2346400">
<ele>348.180023</ele>
<time>2022-12-14T12:44:25.067Z</time>
</trkpt>
<trkpt lat="31.0453200" lon="35.2346700">
<ele>348.130005</ele>
<time>2022-12-14T12:44:25.067Z</time>
</trkpt>
<trkpt lat="31.0454500" lon="35.2349400">
<ele>346.029999</ele>
<time>2022-12-14T12:44:25.067Z</time>
</trkpt>
<trkpt lat="31.0454900" lon="35.2350600">
<ele>345.010010</ele>
<time>2022-12-14T12:44:25.067Z</time>
</trkpt>
<trkpt lat="31.0455100" lon="35.2351100">
<ele>344.489990</ele>
<time>2022-12-14T12:44:25.067Z</time>
</trkpt>
<trkpt lat="31.0455400" lon="35.2351900">
<ele>343.630005</ele>
<time>2022-12-14T12:44:25.067Z</time>
</trkpt>
<trkpt lat="31.0455500" lon="35.2352300">
<ele>343.290009</ele>
<time>2022-12-14T12:44:25.067Z</time>
</trkpt>
<trkpt lat="31.0455700" lon="35.2352800">
<ele>343.109985</ele>
<time>2022-12-14T12:44:25.067Z</time>
</trkpt>
<trkpt lat="31.0455800" lon="35.2353200">
<ele>343.300018</ele>
<time>2022-12-14T12:44:25.067Z</time>
</trkpt>
<trkpt lat="31.0456000" lon="35.2354100">
<ele>343.640015</ele>
<time>2022-12-14T12:44:25.067Z</time>
</trkpt>
<trkpt lat="31.0456300" lon="35.2355600">
<ele>343.949982</ele>
<time>2022-12-14T12:44:25.067Z</time>
</trkpt>
<trkpt lat="31.0456900" lon="35.2359400">
<ele>340.220001</ele>
<time>2022-12-14T12:44:25.067Z</time>
</trkpt>
<trkpt lat="31.0457000" lon="35.2360500">
<ele>339.470001</ele>
<time>2022-12-14T12:44:25.067Z</time>
</trkpt>
<trkpt lat="31.0456800" lon="35.2362700">
<ele>338.779999</ele>
<time>2022-12-14T12:44:25.067Z</time>
</trkpt>
<trkpt lat="31.0456400" lon="35.2364900">
<ele>337.570007</ele>
<time>2022-12-14T12:44:25.067Z</time>
</trkpt>
<trkpt lat="31.0455600" lon="35.2367700">
<ele>336.209991</ele>
<time>2022-12-14T12:44:25.067Z</time>
</trkpt>
<trkpt lat="31.0454800" lon="35.2369300">
<ele>338.139984</ele>
<time>2022-12-14T12:44:25.067Z</time>
</trkpt>
<trkpt lat="31.0454500" lon="35.2369700">
<ele>338.590027</ele>
<time>2022-12-14T12:44:25.067Z</time>
</trkpt>
<trkpt lat="31.0452800" lon="35.2371900">
<ele>339.889984</ele>
<time>2022-12-14T12:44:25.067Z</time>
</trkpt>
<trkpt lat="31.0452500" lon="35.2372300">
<ele>340.139984</ele>
<time>2022-12-14T12:44:25.067Z</time>
</trkpt>
<trkpt lat="31.0450900" lon="35.2374500">
<ele>338.989990</ele>
<time>2022-12-14T12:44:25.067Z</time>
</trkpt>
<trkpt lat="31.0449300" lon="35.2376400">
<ele>339.639984</ele>
<time>2022-12-14T12:44:25.067Z</time>
</trkpt>
<trkpt lat="31.0449000" lon="35.2376800">
<ele>340.550018</ele>
<time>2022-12-14T12:44:25.067Z</time>
</trkpt>
<trkpt lat="31.0447100" lon="35.2379300">
<ele>344.059998</ele>
<time>2022-12-14T12:44:25.067Z</time>
</trkpt>
<trkpt lat="31.0444600" lon="35.2381800">
<ele>345.809998</ele>
<time>2022-12-14T12:44:25.067Z</time>
</trkpt>
<trkpt lat="31.0442500" lon="35.2383400">
<ele>343.970001</ele>
<time>2022-12-14T12:44:25.067Z</time>
</trkpt>
<trkpt lat="31.0442200" lon="35.2383700">
<ele>343.970001</ele>
<time>2022-12-14T12:44:25.067Z</time>
</trkpt>
<trkpt lat="31.0441100" lon="35.2385000">
<ele>344.470001</ele>
<time>2022-12-14T12:44:25.067Z</time>
</trkpt>
<trkpt lat="31.0440900" lon="35.2385400">
<ele>344.750000</ele>
<time>2022-12-14T12:44:25.067Z</time>
</trkpt>
<trkpt lat="31.0439100" lon="35.2388000">
<ele>347.500031</ele>
<time>2022-12-14T12:44:25.067Z</time>
</trkpt>
<trkpt lat="31.0437200" lon="35.2390800">
<ele>345.510010</ele>
<time>2022-12-14T12:44:25.067Z</time>
</trkpt>
<trkpt lat="31.0436000" lon="35.2391800">
<ele>342.809998</ele>
<time>2022-12-14T12:44:25.067Z</time>
</trkpt>
<trkpt lat="31.0434900" lon="35.2392400">
<ele>340.760010</ele>
<time>2022-12-14T12:44:25.067Z</time>
</trkpt>
<trkpt lat="31.0433100" lon="35.2394300">
<ele>339.159973</ele>
<time>2022-12-14T12:44:25.067Z</time>
</trkpt>
<trkpt lat="31.0431600" lon="35.2396500">
<ele>340.040009</ele>
<time>2022-12-14T12:44:25.067Z</time>
</trkpt>
<trkpt lat="31.0429300" lon="35.2400300">
<ele>344.389984</ele>
<time>2022-12-14T12:44:25.067Z</time>
</trkpt>
<trkpt lat="31.0428000" lon="35.2402900">
<ele>343.640015</ele>
<time>2022-12-14T12:44:25.067Z</time>
</trkpt>
<trkpt lat="31.0427300" lon="35.2404600">
<ele>343.750000</ele>
<time>2022-12-14T12:44:25.067Z</time>
</trkpt>
<trkpt lat="31.0425800" lon="35.2408500">
<ele>339.989990</ele>
<time>2022-12-14T12:44:25.067Z</time>
</trkpt>
<trkpt lat="31.0424700" lon="35.2413000">
<ele>337.250000</ele>
<time>2022-12-14T12:44:25.067Z</time>
</trkpt>
<trkpt lat="31.0423900" lon="35.2417600">
<ele>337.659973</ele>
<time>2022-12-14T12:44:25.067Z</time>
</trkpt>
<trkpt lat="31.0423700" lon="35.2418800">
<ele>337.229980</ele>
<time>2022-12-14T12:44:25.067Z</time>
</trkpt>
<trkpt lat="31.0423600" lon="35.2420100">
<ele>337.119995</ele>
<time>2022-12-14T12:44:25.067Z</time>
</trkpt>
<trkpt lat="31.0423400" lon="35.2422000">
<ele>337.390015</ele>
<time>2022-12-14T12:44:25.067Z</time>
</trkpt>
<trkpt lat="31.0423100" lon="35.2428500">
<ele>336.399994</ele>
<time>2022-12-14T12:44:25.067Z</time>
</trkpt>
<trkpt lat="31.0423100" lon="35.2429100">
<ele>336.250000</ele>
<time>2022-12-14T12:44:25.067Z</time>
</trkpt>
<trkpt lat="31.0422800" lon="35.2434000">
<ele>332.300018</ele>
<time>2022-12-14T12:44:25.067Z</time>
</trkpt>
<trkpt lat="31.0422800" lon="35.2434600">
<ele>331.790009</ele>
<time>2022-12-14T12:44:25.067Z</time>
</trkpt>
<trkpt lat="31.0422700" lon="35.2435200">
<ele>330.880005</ele>
<time>2022-12-14T12:44:25.067Z</time>
</trkpt>
<trkpt lat="31.0422500" lon="35.2437200">
<ele>328.850006</ele>
<time>2022-12-14T12:44:25.067Z</time>
</trkpt>
<trkpt lat="31.0422100" lon="35.2439200">
<ele>327.339996</ele>
<time>2022-12-14T12:44:25.067Z</time>
</trkpt>
<trkpt lat="31.0421400" lon="35.2443200">
<ele>329.609985</ele>
<time>2022-12-14T12:44:25.067Z</time>
</trkpt>
<trkpt lat="31.0421200" lon="35.2444400">
<ele>329.880005</ele>
<time>2022-12-14T12:44:25.067Z</time>
</trkpt>
<trkpt lat="31.0421000" lon="35.2446900">
<ele>334.669983</ele>
<time>2022-12-14T12:44:25.067Z</time>
</trkpt>
<trkpt lat="31.0420700" lon="35.2451800">
<ele>338.590027</ele>
<time>2022-12-14T12:44:25.067Z</time>
</trkpt>
<trkpt lat="31.0419900" lon="35.2456400">
<ele>337.630005</ele>
<time>2022-12-14T12:44:25.067Z</time>
</trkpt>
<trkpt lat="31.0418900" lon="35.2460000">
<ele>334.520020</ele>
<time>2022-12-14T12:44:25.067Z</time>
</trkpt>
<trkpt lat="31.0418300" lon="35.2462200">
<ele>332.219971</ele>
<time>2022-12-14T12:44:25.067Z</time>
</trkpt>
<trkpt lat="31.0417700" lon="35.2464300">
<ele>330.959991</ele>
<time>2022-12-14T12:44:25.067Z</time>
</trkpt>
<trkpt lat="31.0417500" lon="35.2465400">
<ele>330.779999</ele>
<time>2022-12-14T12:44:25.067Z</time>
</trkpt>
<trkpt lat="31.0417300" lon="35.2467600">
<ele>331.050018</ele>
<time>2022-12-14T12:44:25.067Z</time>
</trkpt>
<trkpt lat="31.0417700" lon="35.2471100">
<ele>332.000000</ele>
<time>2022-12-14T12:44:25.067Z</time>
</trkpt>
<trkpt lat="31.0418400" lon="35.2474700">
<ele>331.579987</ele>
<time>2022-12-14T12:44:25.067Z</time>
</trkpt>
<trkpt lat="31.0418500" lon="35.2475200">
<ele>331.639984</ele>
<time>2022-12-14T12:44:25.067Z</time>
</trkpt>
<trkpt lat="31.0418800" lon="35.2477200">
<ele>331.830017</ele>
<time>2022-12-14T12:44:25.067Z</time>
</trkpt>
<trkpt lat="31.0419400" lon="35.2480300">
<ele>332.059998</ele>
<time>2022-12-14T12:44:25.067Z</time>
</trkpt>
<trkpt lat="31.0420900" lon="35.2482500">
<ele>332.119995</ele>
<time>2022-12-14T12:44:25.067Z</time>
</trkpt>
<trkpt lat="31.0422700" lon="35.2483100">
<ele>330.839996</ele>
<time>2022-12-14T12:44:25.067Z</time>
</trkpt>
<trkpt lat="31.0423200" lon="35.2483100">
<ele>330.489990</ele>
<time>2022-12-14T12:44:25.067Z</time>
</trkpt>
<trkpt lat="31.0426500" lon="35.2482600">
<ele>327.380005</ele>
<time>2022-12-14T12:44:25.067Z</time>
</trkpt>
<trkpt lat="31.0428600" lon="35.2482200">
<ele>326.579987</ele>
<time>2022-12-14T12:44:25.067Z</time>
</trkpt>
<trkpt lat="31.0430100" lon="35.2481900">
<ele>328.280029</ele>
<time>2022-12-14T12:44:25.067Z</time>
</trkpt>
<trkpt lat="31.0430900" lon="35.2481900">
<ele>329.980011</ele>
<time>2022-12-14T12:44:25.067Z</time>
</trkpt>
<trkpt lat="31.0432800" lon="35.2482600">
<ele>335.739990</ele>
<time>2022-12-14T12:44:25.067Z</time>
</trkpt>
<trkpt lat="31.0433400" lon="35.2483700">
<ele>335.320007</ele>
<time>2022-12-14T12:44:25.067Z</time>
</trkpt>
<trkpt lat="31.0433600" lon="35.2484300">
<ele>334.559998</ele>
<time>2022-12-14T12:44:25.067Z</time>
</trkpt>
<trkpt lat="31.0433600" lon="35.2486900">
<ele>328.660004</ele>
<time>2022-12-14T12:44:25.067Z</time>
</trkpt>
<trkpt lat="31.0433100" lon="35.2488800">
<ele>323.889984</ele>
<time>2022-12-14T12:44:25.067Z</time>
</trkpt>
<trkpt lat="31.0432900" lon="35.2489400">
<ele>323.359985</ele>
<time>2022-12-14T12:44:25.067Z</time>
</trkpt>
<trkpt lat="31.0432100" lon="35.2491700">
<ele>323.809998</ele>
<time>2022-12-14T12:44:25.067Z</time>
</trkpt>
<trkpt lat="31.0431900" lon="35.2493000">
<ele>325.570007</ele>
<time>2022-12-14T12:44:25.067Z</time>
</trkpt>
<trkpt lat="31.0432500" lon="35.2494900">
<ele>325.519989</ele>
<time>2022-12-14T12:44:25.067Z</time>
</trkpt>
<trkpt lat="31.0433700" lon="35.2495800">
<ele>323.319977</ele>
<time>2022-12-14T12:44:25.067Z</time>
</trkpt>
<trkpt lat="31.0434600" lon="35.2496400">
<ele>323.510010</ele>
<time>2022-12-14T12:44:25.067Z</time>
</trkpt>
<trkpt lat="31.0436000" lon="35.2497200">
<ele>322.169983</ele>
<time>2022-12-14T12:44:25.067Z</time>
</trkpt>
<trkpt lat="31.0437700" lon="35.2498800">
<ele>325.589996</ele>
<time>2022-12-14T12:44:25.067Z</time>
</trkpt>
<trkpt lat="31.0438700" lon="35.2499500">
<ele>326.829987</ele>
<time>2022-12-14T12:44:25.067Z</time>
</trkpt>
<trkpt lat="31.0439200" lon="35.2499700">
<ele>327.019989</ele>
<time>2022-12-14T12:44:25.067Z</time>
</trkpt>
<trkpt lat="31.0440100" lon="35.2500000">
<ele>326.999969</ele>
<time>2022-12-14T12:44:25.067Z</time>
</trkpt>
<trkpt lat="31.0441000" lon="35.2500100">
<ele>327.089996</ele>
<time>2022-12-14T12:44:25.067Z</time>
</trkpt>
<trkpt lat="31.0441400" lon="35.2500200">
<ele>327.160004</ele>
<time>2022-12-14T12:44:25.067Z</time>
</trkpt>
<trkpt lat="31.0442300" lon="35.2500700">
<ele>327.389984</ele>
<time>2022-12-14T12:44:25.067Z</time>
</trkpt>
<trkpt lat="31.0443100" lon="35.2502300">
<ele>326.610016</ele>
<time>2022-12-14T12:44:25.067Z</time>
</trkpt>
<trkpt lat="31.0443700" lon="35.2504000">
<ele>324.779999</ele>
<time>2022-12-14T12:44:25.067Z</time>
</trkpt>
<trkpt lat="31.0444200" lon="35.2505000">
<ele>323.570007</ele>
<time>2022-12-14T12:44:25.067Z</time>
</trkpt>
<trkpt lat="31.0444500" lon="35.2505500">
<ele>323.040009</ele>
<time>2022-12-14T12:44:25.067Z</time>
</trkpt>
<trkpt lat="31.0445600" lon="35.2507400">
<ele>322.750000</ele>
<time>2022-12-14T12:44:25.067Z</time>
</trkpt>
<trkpt lat="31.0445900" lon="35.2508500">
<ele>322.379974</ele>
<time>2022-12-14T12:44:25.067Z</time>
</trkpt>
<trkpt lat="31.0446300" lon="35.2510600">
<ele>321.040009</ele>
<time>2022-12-14T12:44:25.067Z</time>
</trkpt>
<trkpt lat="31.0446400" lon="35.2511300">
<ele>320.919983</ele>
<time>2022-12-14T12:44:25.067Z</time>
</trkpt>
<trkpt lat="31.0446400" lon="35.2512900">
<ele>321.839996</ele>
<time>2022-12-14T12:44:25.067Z</time>
</trkpt>
<trkpt lat="31.0446200" lon="35.2513400">
<ele>321.959991</ele>
<time>2022-12-14T12:44:25.067Z</time>
</trkpt>
<trkpt lat="31.0445800" lon="35.2514800">
<ele>321.649994</ele>
<time>2022-12-14T12:44:25.067Z</time>
</trkpt>
<trkpt lat="31.0445500" lon="35.2515600">
<ele>321.139984</ele>
<time>2022-12-14T12:44:25.067Z</time>
</trkpt>
<trkpt lat="31.0444700" lon="35.2517000">
<ele>319.930023</ele>
<time>2022-12-14T12:44:25.067Z</time>
</trkpt>
<trkpt lat="31.0444300" lon="35.2517600">
<ele>319.100006</ele>
<time>2022-12-14T12:44:25.067Z</time>
</trkpt>
<trkpt lat="31.0443800" lon="35.2518000">
<ele>318.000000</ele>
<time>2022-12-14T12:44:25.067Z</time>
</trkpt>
<trkpt lat="31.0442200" lon="35.2518800">
<ele>314.610016</ele>
<time>2022-12-14T12:44:25.067Z</time>
</trkpt>
<trkpt lat="31.0441700" lon="35.2519100">
<ele>313.429993</ele>
<time>2022-12-14T12:44:25.067Z</time>
</trkpt>
<trkpt lat="31.0440600" lon="35.2520600">
<ele>314.920013</ele>
<time>2022-12-14T12:44:25.067Z</time>
</trkpt>
<trkpt lat="31.0440300" lon="35.2521100">
<ele>315.380005</ele>
<time>2022-12-14T12:44:25.067Z</time>
</trkpt>
<trkpt lat="31.0440200" lon="35.2522900">
<ele>316.360016</ele>
<time>2022-12-14T12:44:25.067Z</time>
</trkpt>
<trkpt lat="31.0440500" lon="35.2524100">
<ele>317.069977</ele>
<time>2022-12-14T12:44:25.067Z</time>
</trkpt>
<trkpt lat="31.0441000" lon="35.2525900">
<ele>318.009979</ele>
<time>2022-12-14T12:44:25.067Z</time>
</trkpt>
<trkpt lat="31.0441100" lon="35.2526600">
<ele>318.250000</ele>
<time>2022-12-14T12:44:25.067Z</time>
</trkpt>
<trkpt lat="31.0441200" lon="35.2527900">
<ele>318.589996</ele>
<time>2022-12-14T12:44:25.067Z</time>
</trkpt>
<trkpt lat="31.0441000" lon="35.2529100">
<ele>317.799988</ele>
<time>2022-12-14T12:44:25.067Z</time>
</trkpt>
<trkpt lat="31.0440200" lon="35.2533200">
<ele>313.640015</ele>
<time>2022-12-14T12:44:25.067Z</time>
</trkpt>
<trkpt lat="31.0440000" lon="35.2533700">
<ele>313.080017</ele>
<time>2022-12-14T12:44:25.067Z</time>
</trkpt>
<trkpt lat="31.0439100" lon="35.2535600">
<ele>311.380005</ele>
<time>2022-12-14T12:44:25.067Z</time>
</trkpt>
<trkpt lat="31.0438200" lon="35.2537300">
<ele>310.470001</ele>
<time>2022-12-14T12:44:25.067Z</time>
</trkpt>
<trkpt lat="31.0437700" lon="35.2538700">
<ele>309.669983</ele>
<time>2022-12-14T12:44:25.067Z</time>
</trkpt>
<trkpt lat="31.0437600" lon="35.2539200">
<ele>309.479980</ele>
<time>2022-12-14T12:44:25.067Z</time>
</trkpt>
<trkpt lat="31.0437400" lon="35.2541300">
<ele>309.059998</ele>
<time>2022-12-14T12:44:25.067Z</time>
</trkpt>
<trkpt lat="31.0437400" lon="35.2542300">
<ele>309.000000</ele>
<time>2022-12-14T12:44:25.067Z</time>
</trkpt>
<trkpt lat="31.0437700" lon="35.2544400">
<ele>309.000000</ele>
<time>2022-12-14T12:44:25.067Z</time>
</trkpt>
<trkpt lat="31.0438600" lon="35.2547700">
<ele>307.260010</ele>
<time>2022-12-14T12:44:25.067Z</time>
</trkpt>
<trkpt lat="31.0439800" lon="35.2550200">
<ele>308.959991</ele>
<time>2022-12-14T12:44:25.067Z</time>
</trkpt>
<trkpt lat="31.0440000" lon="35.2550700">
<ele>309.049988</ele>
<time>2022-12-14T12:44:25.067Z</time>
</trkpt>
<trkpt lat="31.0440100" lon="35.2551100">
<ele>309.009979</ele>
<time>2022-12-14T12:44:25.067Z</time>
</trkpt>
<trkpt lat="31.0440100" lon="35.2552000">
<ele>308.770020</ele>
<time>2022-12-14T12:44:25.067Z</time>
</trkpt>
<trkpt lat="31.0440100" lon="35.2552500">
<ele>308.640015</ele>
<time>2022-12-14T12:44:25.067Z</time>
</trkpt>
<trkpt lat="31.0439800" lon="35.2554500">
<ele>309.510010</ele>
<time>2022-12-14T12:44:25.067Z</time>
</trkpt>
<trkpt lat="31.0439600" lon="35.2555500">
<ele>310.200012</ele>
<time>2022-12-14T12:44:25.067Z</time>
</trkpt>
<trkpt lat="31.0438600" lon="35.2558700">
<ele>311.260010</ele>
<time>2022-12-14T12:44:25.067Z</time>
</trkpt>
<trkpt lat="31.0438400" lon="35.2559400">
<ele>311.769989</ele>
<time>2022-12-14T12:44:25.067Z</time>
</trkpt>
<trkpt lat="31.0438400" lon="35.2559500">
<ele>311.839996</ele>
<time>2022-12-14T12:44:25.067Z</time>
</trkpt>
<trkpt lat="31.0438400" lon="35.2559400">
<ele>311.769989</ele>
<time>2022-12-14T12:44:25.067Z</time>
</trkpt>
<trkpt lat="31.0438200" lon="35.2559500">
<ele>311.839996</ele>
<time>2022-12-14T12:44:25.067Z</time>
</trkpt>
<trkpt lat="31.0438100" lon="35.2559500">
<ele>311.839996</ele>
<time>2022-12-14T12:44:25.067Z</time>
</trkpt>
<trkpt lat="31.0437300" lon="35.2559700">
<ele>311.980011</ele>
<time>2022-12-14T12:44:25.067Z</time>
</trkpt>
<trkpt lat="31.0437000" lon="35.2559800">
<ele>312.059998</ele>
<time>2022-12-14T12:44:25.067Z</time>
</trkpt>
<trkpt lat="31.0435600" lon="35.2559600">
<ele>311.459991</ele>
<time>2022-12-14T12:44:25.067Z</time>
</trkpt>
<trkpt lat="31.0434900" lon="35.2559500">
<ele>310.779999</ele>
<time>2022-12-14T12:44:25.067Z</time>
</trkpt>
<trkpt lat="31.0433300" lon="35.2559400">
<ele>309.360016</ele>
<time>2022-12-14T12:44:25.067Z</time>
</trkpt>
<trkpt lat="31.0432900" lon="35.2559500">
<ele>309.070007</ele>
<time>2022-12-14T12:44:25.067Z</time>
</trkpt>
<trkpt lat="31.0432400" lon="35.2559600">
<ele>308.660004</ele>
<time>2022-12-14T12:44:25.067Z</time>
</trkpt>
<trkpt lat="31.0431400" lon="35.2560300">
<ele>307.529999</ele>
<time>2022-12-14T12:44:25.067Z</time>
</trkpt>
<trkpt lat="31.0430600" lon="35.2561300">
<ele>306.200012</ele>
<time>2022-12-14T12:44:25.067Z</time>
</trkpt>
<trkpt lat="31.0430300" lon="35.2561900">
<ele>306.699982</ele>
<time>2022-12-14T12:44:25.067Z</time>
</trkpt>
<trkpt lat="31.0429100" lon="35.2564200">
<ele>307.929993</ele>
<time>2022-12-14T12:44:25.067Z</time>
</trkpt>
<trkpt lat="31.0428700" lon="35.2565200">
<ele>307.369995</ele>
<time>2022-12-14T12:44:25.067Z</time>
</trkpt>
<trkpt lat="31.0428200" lon="35.2566300">
<ele>306.059998</ele>
<time>2022-12-14T12:44:25.067Z</time>
</trkpt>
<trkpt lat="31.0427900" lon="35.2567400">
<ele>306.000000</ele>
<time>2022-12-14T12:44:25.067Z</time>
</trkpt>
<trkpt lat="31.0427700" lon="35.2568400">
<ele>306.829987</ele>
<time>2022-12-14T12:44:25.067Z</time>
</trkpt>
<trkpt lat="31.0427300" lon="35.2570100">
<ele>308.690002</ele>
<time>2022-12-14T12:44:25.067Z</time>
</trkpt>
<trkpt lat="31.0427100" lon="35.2570500">
<ele>309.089996</ele>
<time>2022-12-14T12:44:25.067Z</time>
</trkpt>
<trkpt lat="31.0426500" lon="35.2571900">
<ele>310.260010</ele>
<time>2022-12-14T12:44:25.067Z</time>
</trkpt>
<trkpt lat="31.0426400" lon="35.2572200">
<ele>310.489990</ele>
<time>2022-12-14T12:44:25.067Z</time>
</trkpt>
<trkpt lat="31.0425300" lon="35.2573900">
<ele>312.209991</ele>
<time>2022-12-14T12:44:25.067Z</time>
</trkpt>
<trkpt lat="31.0424900" lon="35.2574400">
<ele>312.889984</ele>
<time>2022-12-14T12:44:25.067Z</time>
</trkpt>
<trkpt lat="31.0424300" lon="35.2575300">
<ele>314.130005</ele>
<time>2022-12-14T12:44:25.067Z</time>
</trkpt>
<trkpt lat="31.0423000" lon="35.2577300">
<ele>316.959991</ele>
<time>2022-12-14T12:44:25.067Z</time>
</trkpt>
<trkpt lat="31.0422900" lon="35.2577500">
<ele>317.299988</ele>
<time>2022-12-14T12:44:25.067Z</time>
</trkpt>
<trkpt lat="31.0422400" lon="35.2578300">
<ele>318.320007</ele>
<time>2022-12-14T12:44:25.067Z</time>
</trkpt>
<trkpt lat="31.0421900" lon="35.2579100">
<ele>318.600006</ele>
<time>2022-12-14T12:44:25.067Z</time>
</trkpt>
<trkpt lat="31.0421300" lon="35.2579800">
<ele>318.609985</ele>
<time>2022-12-14T12:44:25.067Z</time>
</trkpt>
<trkpt lat="31.0419600" lon="35.2581300">
<ele>317.870026</ele>
<time>2022-12-14T12:44:25.067Z</time>
</trkpt>
<trkpt lat="31.0417900" lon="35.2582300">
<ele>315.579987</ele>
<time>2022-12-14T12:44:25.067Z</time>
</trkpt>
<trkpt lat="31.0416700" lon="35.2583300">
<ele>315.950012</ele>
<time>2022-12-14T12:44:25.067Z</time>
</trkpt>
<trkpt lat="31.0415800" lon="35.2584000">
<ele>316.509979</ele>
<time>2022-12-14T12:44:25.067Z</time>
</trkpt>
<trkpt lat="31.0414200" lon="35.2584900">
<ele>315.250000</ele>
<time>2022-12-14T12:44:25.067Z</time>
</trkpt>
<trkpt lat="31.0413600" lon="35.2585200">
<ele>314.519989</ele>
<time>2022-12-14T12:44:25.067Z</time>
</trkpt>
<trkpt lat="31.0413100" lon="35.2585600">
<ele>314.029999</ele>
<time>2022-12-14T12:44:25.067Z</time>
</trkpt>
<trkpt lat="31.0412000" lon="35.2586500">
<ele>313.120026</ele>
<time>2022-12-14T12:44:25.067Z</time>
</trkpt>
<trkpt lat="31.0411200" lon="35.2587700">
<ele>311.410004</ele>
<time>2022-12-14T12:44:25.067Z</time>
</trkpt>
<trkpt lat="31.0410400" lon="35.2589000">
<ele>311.179993</ele>
<time>2022-12-14T12:44:25.067Z</time>
</trkpt>
<trkpt lat="31.0409600" lon="35.2590600">
<ele>313.920013</ele>
<time>2022-12-14T12:44:25.067Z</time>
</trkpt>
<trkpt lat="31.0409300" lon="35.2591000">
<ele>314.429993</ele>
<time>2022-12-14T12:44:25.067Z</time>
</trkpt>
<trkpt lat="31.0409000" lon="35.2591300">
<ele>314.740021</ele>
<time>2022-12-14T12:44:25.067Z</time>
</trkpt>
<trkpt lat="31.0408400" lon="35.2591900">
<ele>315.170013</ele>
<time>2022-12-14T12:44:25.067Z</time>
</trkpt>
<trkpt lat="31.0406900" lon="35.2593000">
<ele>315.730011</ele>
<time>2022-12-14T12:44:25.067Z</time>
</trkpt>
<trkpt lat="31.0406300" lon="35.2593300">
<ele>315.619995</ele>
<time>2022-12-14T12:44:25.067Z</time>
</trkpt>
<trkpt lat="31.0404800" lon="35.2594000">
<ele>314.069977</ele>
<time>2022-12-14T12:44:25.067Z</time>
</trkpt>
<trkpt lat="31.0403700" lon="35.2594400">
<ele>312.339996</ele>
<time>2022-12-14T12:44:25.067Z</time>
</trkpt>
<trkpt lat="31.0402700" lon="35.2595200">
<ele>311.540009</ele>
<time>2022-12-14T12:44:25.067Z</time>
</trkpt>
<trkpt lat="31.0401800" lon="35.2595900">
<ele>312.049988</ele>
<time>2022-12-14T12:44:25.067Z</time>
</trkpt>
<trkpt lat="31.0401000" lon="35.2596500">
<ele>312.480011</ele>
<time>2022-12-14T12:44:25.067Z</time>
</trkpt>
<trkpt lat="31.0400600" lon="35.2597200">
<ele>312.980011</ele>
<time>2022-12-14T12:44:25.067Z</time>
</trkpt>
<trkpt lat="31.0400300" lon="35.2597800">
<ele>313.649994</ele>
<time>2022-12-14T12:44:25.067Z</time>
</trkpt>
<trkpt lat="31.0400200" lon="35.2598300">
<ele>314.190002</ele>
<time>2022-12-14T12:44:25.067Z</time>
</trkpt>
<trkpt lat="31.0400100" lon="35.2598400">
<ele>314.289978</ele>
<time>2022-12-14T12:44:25.067Z</time>
</trkpt>
<trkpt lat="31.0400100" lon="35.2598700">
<ele>314.620026</ele>
<time>2022-12-14T12:44:25.067Z</time>
</trkpt>
<trkpt lat="31.0399900" lon="35.2599400">
<ele>315.319977</ele>
<time>2022-12-14T12:44:25.067Z</time>
</trkpt>
<trkpt lat="31.0399800" lon="35.2599900">
<ele>315.820007</ele>
<time>2022-12-14T12:44:25.067Z</time>
</trkpt>
<trkpt lat="31.0399800" lon="35.2600600">
<ele>316.360016</ele>
<time>2022-12-14T12:44:25.067Z</time>
</trkpt>
<trkpt lat="31.0399900" lon="35.2601600">
<ele>317.119995</ele>
<time>2022-12-14T12:44:25.067Z</time>
</trkpt>
<trkpt lat="31.0400900" lon="35.2602500">
<ele>319.290009</ele>
<time>2022-12-14T12:44:25.067Z</time>
</trkpt>
<trkpt lat="31.0401100" lon="35.2602500">
<ele>319.619995</ele>
<time>2022-12-14T12:44:25.067Z</time>
</trkpt>
<trkpt lat="31.0402700" lon="35.2602700">
<ele>322.700012</ele>
<time>2022-12-14T12:44:25.067Z</time>
</trkpt>
<trkpt lat="31.0402900" lon="35.2602700">
<ele>323.100006</ele>
<time>2022-12-14T12:44:25.067Z</time>
</trkpt>
<trkpt lat="31.0403500" lon="35.2602900">
<ele>324.779999</ele>
<time>2022-12-14T12:44:25.067Z</time>
</trkpt>
<trkpt lat="31.0403800" lon="35.2603100">
<ele>325.730011</ele>
<time>2022-12-14T12:44:25.067Z</time>
</trkpt>
<trkpt lat="31.0404400" lon="35.2603300">
<ele>327.190002</ele>
<time>2022-12-14T12:44:25.067Z</time>
</trkpt>
<trkpt lat="31.0405000" lon="35.2603800">
<ele>328.830017</ele>
<time>2022-12-14T12:44:25.067Z</time>
</trkpt>
<trkpt lat="31.0405400" lon="35.2604100">
<ele>329.720001</ele>
<time>2022-12-14T12:44:25.067Z</time>
</trkpt>
<trkpt lat="31.0405900" lon="35.2604400">
<ele>330.330017</ele>
<time>2022-12-14T12:44:25.067Z</time>
</trkpt>
<trkpt lat="31.0406100" lon="35.2604500">
<ele>330.529999</ele>
<time>2022-12-14T12:44:25.067Z</time>
</trkpt>
<trkpt lat="31.0406100" lon="35.2604500">
<ele>330.529999</ele>
<time>2022-12-14T12:44:25.067Z</time>
</trkpt>
<trkpt lat="31.0406300" lon="35.2604700">
<ele>330.859985</ele>
<time>2022-12-14T12:44:25.067Z</time>
</trkpt>
<trkpt lat="31.0406400" lon="35.2604800">
<ele>331.040009</ele>
<time>2022-12-14T12:44:25.067Z</time>
</trkpt>
<trkpt lat="31.0406500" lon="35.2604800">
<ele>331.109985</ele>
<time>2022-12-14T12:44:25.067Z</time>
</trkpt>
<trkpt lat="31.0406800" lon="35.2605000">
<ele>331.589996</ele>
<time>2022-12-14T12:44:25.067Z</time>
</trkpt>
<trkpt lat="31.0407200" lon="35.2604900">
<ele>331.749969</ele>
<time>2022-12-14T12:44:25.067Z</time>
</trkpt>
<trkpt lat="31.0407300" lon="35.2604900">
<ele>331.820007</ele>
<time>2022-12-14T12:44:25.067Z</time>
</trkpt>
<trkpt lat="31.0407900" lon="35.2605000">
<ele>332.459991</ele>
<time>2022-12-14T12:44:25.067Z</time>
</trkpt>
<trkpt lat="31.0408200" lon="35.2605200">
<ele>333.110016</ele>
<time>2022-12-14T12:44:25.067Z</time>
</trkpt>
<trkpt lat="31.0408300" lon="35.2605200">
<ele>333.200012</ele>
<time>2022-12-14T12:44:25.067Z</time>
</trkpt>
<trkpt lat="31.0409000" lon="35.2606000">
<ele>333.840027</ele>
<time>2022-12-14T12:44:25.067Z</time>
</trkpt>
<trkpt lat="31.0409000" lon="35.2606000">
<ele>333.840027</ele>
<time>2022-12-14T12:44:25.067Z</time>
</trkpt>
<trkpt lat="31.0409000" lon="35.2606100">
<ele>333.910004</ele>
<time>2022-12-14T12:44:25.067Z</time>
</trkpt>
<trkpt lat="31.0409000" lon="35.2606400">
<ele>334.130005</ele>
<time>2022-12-14T12:44:25.067Z</time>
</trkpt>
<trkpt lat="31.0409100" lon="35.2607000">
<ele>334.489990</ele>
<time>2022-12-14T12:44:25.067Z</time>
</trkpt>
<trkpt lat="31.0409200" lon="35.2607600">
<ele>334.850006</ele>
<time>2022-12-14T12:44:25.067Z</time>
</trkpt>
<trkpt lat="31.0409100" lon="35.2609100">
<ele>335.519989</ele>
<time>2022-12-14T12:44:25.067Z</time>
</trkpt>
<trkpt lat="31.0409100" lon="35.2609300">
<ele>335.540009</ele>
<time>2022-12-14T12:44:25.067Z</time>
</trkpt>
<trkpt lat="31.0408900" lon="35.2611000">
<ele>335.790009</ele>
<time>2022-12-14T12:44:25.067Z</time>
</trkpt>
<trkpt lat="31.0409000" lon="35.2611800">
<ele>335.689972</ele>
<time>2022-12-14T12:44:25.067Z</time>
</trkpt>
<trkpt lat="31.0409100" lon="35.2613100">
<ele>335.600006</ele>
<time>2022-12-14T12:44:25.067Z</time>
</trkpt>
<trkpt lat="31.0409200" lon="35.2614300">
<ele>336.360016</ele>
<time>2022-12-14T12:44:25.067Z</time>
</trkpt>
<trkpt lat="31.0409300" lon="35.2615100">
<ele>337.880005</ele>
<time>2022-12-14T12:44:25.067Z</time>
</trkpt>
<trkpt lat="31.0409300" lon="35.2615400">
<ele>338.420013</ele>
<time>2022-12-14T12:44:25.067Z</time>
</trkpt>
<trkpt lat="31.0409300" lon="35.2615700">
<ele>338.959991</ele>
<time>2022-12-14T12:44:25.067Z</time>
</trkpt>
<trkpt lat="31.0409300" lon="35.2616400">
<ele>340.220001</ele>
<time>2022-12-14T12:44:25.067Z</time>
</trkpt>
<trkpt lat="31.0409200" lon="35.2617400">
<ele>341.839996</ele>
<time>2022-12-14T12:44:25.067Z</time>
</trkpt>
<trkpt lat="31.0409100" lon="35.2617700">
<ele>342.250000</ele>
<time>2022-12-14T12:44:25.067Z</time>
</trkpt>
<trkpt lat="31.0408700" lon="35.2619200">
<ele>344.149994</ele>
<time>2022-12-14T12:44:25.067Z</time>
</trkpt>
<trkpt lat="31.0407800" lon="35.2620600">
<ele>344.670013</ele>
<time>2022-12-14T12:44:25.067Z</time>
</trkpt>
<trkpt lat="31.0407700" lon="35.2620800">
<ele>344.779999</ele>
<time>2022-12-14T12:44:25.067Z</time>
</trkpt>
<trkpt lat="31.0406400" lon="35.2622100">
<ele>344.779999</ele>
<time>2022-12-14T12:44:25.067Z</time>
</trkpt>
<trkpt lat="31.0405200" lon="35.2623200">
<ele>345.290009</ele>
<time>2022-12-14T12:44:25.067Z</time>
</trkpt>
<trkpt lat="31.0405000" lon="35.2623400">
<ele>345.350006</ele>
<time>2022-12-14T12:44:25.067Z</time>
</trkpt>
<trkpt lat="31.0403600" lon="35.2624800">
<ele>345.220001</ele>
<time>2022-12-14T12:44:25.067Z</time>
</trkpt>
<trkpt lat="31.0403500" lon="35.2625100">
<ele>345.419983</ele>
<time>2022-12-14T12:44:25.067Z</time>
</trkpt>
<trkpt lat="31.0402600" lon="35.2626600">
<ele>345.440002</ele>
<time>2022-12-14T12:44:25.067Z</time>
</trkpt>
<trkpt lat="31.0402200" lon="35.2628500">
<ele>346.170013</ele>
<time>2022-12-14T12:44:25.067Z</time>
</trkpt>
<trkpt lat="31.0402400" lon="35.2630800">
<ele>347.250000</ele>
<time>2022-12-14T12:44:25.067Z</time>
</trkpt>
<trkpt lat="31.0403100" lon="35.2633400">
<ele>349.689972</ele>
<time>2022-12-14T12:44:25.067Z</time>
</trkpt>
<trkpt lat="31.0403400" lon="35.2633900">
<ele>350.250000</ele>
<time>2022-12-14T12:44:25.067Z</time>
</trkpt>
<trkpt lat="31.0403700" lon="35.2634400">
<ele>350.739990</ele>
<time>2022-12-14T12:44:25.067Z</time>
</trkpt>
<trkpt lat="31.0404500" lon="35.2635400">
<ele>351.799988</ele>
<time>2022-12-14T12:44:25.067Z</time>
</trkpt>
<trkpt lat="31.0404900" lon="35.2635900">
<ele>352.169983</ele>
<time>2022-12-14T12:44:25.067Z</time>
</trkpt>
<trkpt lat="31.0406000" lon="35.2637600">
<ele>351.950012</ele>
<time>2022-12-14T12:44:25.067Z</time>
</trkpt>
<trkpt lat="31.0406200" lon="35.2638300">
<ele>351.380005</ele>
<time>2022-12-14T12:44:25.067Z</time>
</trkpt>
<trkpt lat="31.0406100" lon="35.2638900">
<ele>350.580017</ele>
<time>2022-12-14T12:44:25.067Z</time>
</trkpt>
<trkpt lat="31.0405500" lon="35.2640700">
<ele>347.979980</ele>
<time>2022-12-14T12:44:25.067Z</time>
</trkpt>
<trkpt lat="31.0405400" lon="35.2641200">
<ele>347.360016</ele>
<time>2022-12-14T12:44:25.067Z</time>
</trkpt>
<trkpt lat="31.0405300" lon="35.2641600">
<ele>346.880005</ele>
<time>2022-12-14T12:44:25.067Z</time>
</trkpt>
<trkpt lat="31.0405200" lon="35.2642500">
<ele>347.010010</ele>
<time>2022-12-14T12:44:25.067Z</time>
</trkpt>
<trkpt lat="31.0405300" lon="35.2643300">
<ele>347.350006</ele>
<time>2022-12-14T12:44:25.067Z</time>
</trkpt>
<trkpt lat="31.0405400" lon="35.2643700">
<ele>347.580017</ele>
<time>2022-12-14T12:44:25.067Z</time>
</trkpt>
<trkpt lat="31.0405800" lon="35.2645600">
<ele>348.440002</ele>
<time>2022-12-14T12:44:25.067Z</time>
</trkpt>
<trkpt lat="31.0405900" lon="35.2646200">
<ele>348.619995</ele>
<time>2022-12-14T12:44:25.067Z</time>
</trkpt>
<trkpt lat="31.0406500" lon="35.2647800">
<ele>349.210022</ele>
<time>2022-12-14T12:44:25.067Z</time>
</trkpt>
<trkpt lat="31.0407300" lon="35.2649300">
<ele>349.170013</ele>
<time>2022-12-14T12:44:25.067Z</time>
</trkpt>
<trkpt lat="31.0408300" lon="35.2651000">
<ele>348.879974</ele>
<time>2022-12-14T12:44:25.067Z</time>
</trkpt>
<trkpt lat="31.0409000" lon="35.2652200">
<ele>348.010010</ele>
<time>2022-12-14T12:44:25.067Z</time>
</trkpt>
<trkpt lat="31.0409600" lon="35.2653500">
<ele>346.680023</ele>
<time>2022-12-14T12:44:25.067Z</time>
</trkpt>
<trkpt lat="31.0411000" lon="35.2656000">
<ele>344.790009</ele>
<time>2022-12-14T12:44:25.067Z</time>
</trkpt>
<trkpt lat="31.0411500" lon="35.2656500">
<ele>344.899994</ele>
<time>2022-12-14T12:44:25.067Z</time>
</trkpt>
<trkpt lat="31.0412700" lon="35.2658300">
<ele>345.709991</ele>
<time>2022-12-14T12:44:25.067Z</time>
</trkpt>
<trkpt lat="31.0412900" lon="35.2659000">
<ele>346.770020</ele>
<time>2022-12-14T12:44:25.067Z</time>
</trkpt>
<trkpt lat="31.0413000" lon="35.2659800">
<ele>348.029999</ele>
<time>2022-12-14T12:44:25.067Z</time>
</trkpt>
<trkpt lat="31.0412900" lon="35.2660700">
<ele>348.919983</ele>
<time>2022-12-14T12:44:25.067Z</time>
</trkpt>
<trkpt lat="31.0412100" lon="35.2662100">
<ele>347.859985</ele>
<time>2022-12-14T12:44:25.067Z</time>
</trkpt>
<trkpt lat="31.0411500" lon="35.2662600">
<ele>346.470001</ele>
<time>2022-12-14T12:44:25.067Z</time>
</trkpt>
<trkpt lat="31.0410500" lon="35.2663300">
<ele>345.019989</ele>
<time>2022-12-14T12:44:25.067Z</time>
</trkpt>
<trkpt lat="31.0409600" lon="35.2664200">
<ele>343.750000</ele>
<time>2022-12-14T12:44:25.067Z</time>
</trkpt>
<trkpt lat="31.0409100" lon="35.2664700">
<ele>342.790009</ele>
<time>2022-12-14T12:44:25.067Z</time>
</trkpt>
<trkpt lat="31.0408400" lon="35.2665700">
<ele>341.760010</ele>
<time>2022-12-14T12:44:25.067Z</time>
</trkpt>
<trkpt lat="31.0407400" lon="35.2667300">
<ele>341.509979</ele>
<time>2022-12-14T12:44:25.067Z</time>
</trkpt>
<trkpt lat="31.0407100" lon="35.2668600">
<ele>340.940002</ele>
<time>2022-12-14T12:44:25.067Z</time>
</trkpt>
<trkpt lat="31.0406900" lon="35.2670500">
<ele>340.260010</ele>
<time>2022-12-14T12:44:25.067Z</time>
</trkpt>
<trkpt lat="31.0406500" lon="35.2671900">
<ele>339.440002</ele>
<time>2022-12-14T12:44:25.067Z</time>
</trkpt>
<trkpt lat="31.0405700" lon="35.2673000">
<ele>337.929993</ele>
<time>2022-12-14T12:44:25.067Z</time>
</trkpt>
<trkpt lat="31.0405200" lon="35.2674200">
<ele>336.450012</ele>
<time>2022-12-14T12:44:25.067Z</time>
</trkpt>
<trkpt lat="31.0404900" lon="35.2676200">
<ele>335.579987</ele>
<time>2022-12-14T12:44:25.067Z</time>
</trkpt>
<trkpt lat="31.0404900" lon="35.2677000">
<ele>335.579987</ele>
<time>2022-12-14T12:44:25.067Z</time>
</trkpt>
<trkpt lat="31.0404900" lon="35.2677700">
<ele>335.579987</ele>
<time>2022-12-14T12:44:25.067Z</time>
</trkpt>
<trkpt lat="31.0404900" lon="35.2678600">
<ele>336.110016</ele>
<time>2022-12-14T12:44:25.067Z</time>
</trkpt>
<trkpt lat="31.0405000" lon="35.2680200">
<ele>337.369995</ele>
<time>2022-12-14T12:44:25.067Z</time>
</trkpt>
<trkpt lat="31.0404700" lon="35.2681000">
<ele>337.209991</ele>
<time>2022-12-14T12:44:25.067Z</time>
</trkpt>
<trkpt lat="31.0404400" lon="35.2681800">
<ele>337.170013</ele>
<time>2022-12-14T12:44:25.067Z</time>
</trkpt>
<trkpt lat="31.0403400" lon="35.2682900">
<ele>335.910004</ele>
<time>2022-12-14T12:44:25.067Z</time>
</trkpt>
<trkpt lat="31.0402600" lon="35.2684900">
<ele>336.299988</ele>
<time>2022-12-14T12:44:25.067Z</time>
</trkpt>
<trkpt lat="31.0402200" lon="35.2686400">
<ele>336.629974</ele>
<time>2022-12-14T12:44:25.067Z</time>
</trkpt>
<trkpt lat="31.0401400" lon="35.2687600">
<ele>334.799988</ele>
<time>2022-12-14T12:44:25.067Z</time>
</trkpt>
<trkpt lat="31.0399800" lon="35.2688700">
<ele>330.779999</ele>
<time>2022-12-14T12:44:25.067Z</time>
</trkpt>
<trkpt lat="31.0399100" lon="35.2690100">
<ele>329.589996</ele>
<time>2022-12-14T12:44:25.067Z</time>
</trkpt>
<trkpt lat="31.0398900" lon="35.2691300">
<ele>328.940002</ele>
<time>2022-12-14T12:44:25.067Z</time>
</trkpt>
<trkpt lat="31.0398800" lon="35.2692000">
<ele>328.759979</ele>
<time>2022-12-14T12:44:25.067Z</time>
</trkpt>
<trkpt lat="31.0398600" lon="35.2692700">
<ele>328.679993</ele>
<time>2022-12-14T12:44:25.067Z</time>
</trkpt>
<trkpt lat="31.0398000" lon="35.2694000">
<ele>328.440002</ele>
<time>2022-12-14T12:44:25.067Z</time>
</trkpt>
<trkpt lat="31.0397100" lon="35.2695300">
<ele>329.640015</ele>
<time>2022-12-14T12:44:25.067Z</time>
</trkpt>
<trkpt lat="31.0396600" lon="35.2695900">
<ele>330.010010</ele>
<time>2022-12-14T12:44:25.067Z</time>
</trkpt>
<trkpt lat="31.0396000" lon="35.2696500">
<ele>330.029999</ele>
<time>2022-12-14T12:44:25.067Z</time>
</trkpt>
<trkpt lat="31.0394800" lon="35.2697300">
<ele>328.889984</ele>
<time>2022-12-14T12:44:25.067Z</time>
</trkpt>
<trkpt lat="31.0393600" lon="35.2698400">
<ele>328.690002</ele>
<time>2022-12-14T12:44:25.067Z</time>
</trkpt>
<trkpt lat="31.0393300" lon="35.2698700">
<ele>328.549988</ele>
<time>2022-12-14T12:44:25.067Z</time>
</trkpt>
<trkpt lat="31.0392800" lon="35.2699300">
<ele>328.190002</ele>
<time>2022-12-14T12:44:25.067Z</time>
</trkpt>
<trkpt lat="31.0392000" lon="35.2700600">
<ele>326.650024</ele>
<time>2022-12-14T12:44:25.067Z</time>
</trkpt>
<trkpt lat="31.0390800" lon="35.2702300">
<ele>324.389984</ele>
<time>2022-12-14T12:44:25.067Z</time>
</trkpt>
<trkpt lat="31.0390700" lon="35.2702700">
<ele>324.299988</ele>
<time>2022-12-14T12:44:25.067Z</time>
</trkpt>
<trkpt lat="31.0390700" lon="35.2703300">
<ele>324.259979</ele>
<time>2022-12-14T12:44:25.067Z</time>
</trkpt>
<trkpt lat="31.0390800" lon="35.2703800">
<ele>324.210022</ele>
<time>2022-12-14T12:44:25.067Z</time>
</trkpt>
<trkpt lat="31.0391300" lon="35.2704500">
<ele>323.910004</ele>
<time>2022-12-14T12:44:25.067Z</time>
</trkpt>
<trkpt lat="31.0392100" lon="35.2705100">
<ele>324.179993</ele>
<time>2022-12-14T12:44:25.067Z</time>
</trkpt>
<trkpt lat="31.0392400" lon="35.2705500">
<ele>324.380005</ele>
<time>2022-12-14T12:44:25.067Z</time>
</trkpt>
<trkpt lat="31.0392800" lon="35.2705800">
<ele>324.649994</ele>
<time>2022-12-14T12:44:25.067Z</time>
</trkpt>
<trkpt lat="31.0393700" lon="35.2706600">
<ele>324.880005</ele>
<time>2022-12-14T12:44:25.067Z</time>
</trkpt>
<trkpt lat="31.0394400" lon="35.2707800">
<ele>323.889984</ele>
<time>2022-12-14T12:44:25.067Z</time>
</trkpt>
<trkpt lat="31.0394700" lon="35.2708600">
<ele>322.880005</ele>
<time>2022-12-14T12:44:25.067Z</time>
</trkpt>
<trkpt lat="31.0394900" lon="35.2709500">
<ele>321.489990</ele>
<time>2022-12-14T12:44:25.067Z</time>
</trkpt>
<trkpt lat="31.0394900" lon="35.2711200">
<ele>318.330017</ele>
<time>2022-12-14T12:44:25.067Z</time>
</trkpt>
<trkpt lat="31.0395100" lon="35.2711900">
<ele>317.220001</ele>
<time>2022-12-14T12:44:25.067Z</time>
</trkpt>
<trkpt lat="31.0395400" lon="35.2713500">
<ele>314.440002</ele>
<time>2022-12-14T12:44:25.067Z</time>
</trkpt>
<trkpt lat="31.0395700" lon="35.2714300">
<ele>312.799988</ele>
<time>2022-12-14T12:44:25.067Z</time>
</trkpt>
<trkpt lat="31.0396100" lon="35.2715100">
<ele>310.880005</ele>
<time>2022-12-14T12:44:25.067Z</time>
</trkpt>
<trkpt lat="31.0396400" lon="35.2715900">
<ele>308.830017</ele>
<time>2022-12-14T12:44:25.067Z</time>
</trkpt>
<trkpt lat="31.0397200" lon="35.2717100">
<ele>306.369995</ele>
<time>2022-12-14T12:44:25.067Z</time>
</trkpt>
<trkpt lat="31.0398500" lon="35.2718000">
<ele>306.220001</ele>
<time>2022-12-14T12:44:25.067Z</time>
</trkpt>
<trkpt lat="31.0399800" lon="35.2718800">
<ele>306.500000</ele>
<time>2022-12-14T12:44:25.067Z</time>
</trkpt>
<trkpt lat="31.0400900" lon="35.2719500">
<ele>305.300018</ele>
<time>2022-12-14T12:44:25.067Z</time>
</trkpt>
<trkpt lat="31.0402200" lon="35.2720100">
<ele>303.890015</ele>
<time>2022-12-14T12:44:25.067Z</time>
</trkpt>
<trkpt lat="31.0402900" lon="35.2720300">
<ele>303.279999</ele>
<time>2022-12-14T12:44:25.067Z</time>
</trkpt>
<trkpt lat="31.0403600" lon="35.2720700">
<ele>302.369995</ele>
<time>2022-12-14T12:44:25.067Z</time>
</trkpt>
<trkpt lat="31.0404900" lon="35.2721800">
<ele>300.130005</ele>
<time>2022-12-14T12:44:25.067Z</time>
</trkpt>
<trkpt lat="31.0405600" lon="35.2722900">
<ele>297.500000</ele>
<time>2022-12-14T12:44:25.067Z</time>
</trkpt>
<trkpt lat="31.0405700" lon="35.2723700">
<ele>295.679993</ele>
<time>2022-12-14T12:44:25.067Z</time>
</trkpt>
<trkpt lat="31.0405900" lon="35.2724200">
<ele>294.389984</ele>
<time>2022-12-14T12:44:25.067Z</time>
</trkpt>
<trkpt lat="31.0405900" lon="35.2724700">
<ele>293.290009</ele>
<time>2022-12-14T12:44:25.067Z</time>
</trkpt>
<trkpt lat="31.0406000" lon="35.2725300">
<ele>292.029999</ele>
<time>2022-12-14T12:44:25.067Z</time>
</trkpt>
<trkpt lat="31.0406100" lon="35.2725900">
<ele>290.980011</ele>
<time>2022-12-14T12:44:25.067Z</time>
</trkpt>
<trkpt lat="31.0406100" lon="35.2726500">
<ele>290.029999</ele>
<time>2022-12-14T12:44:25.067Z</time>
</trkpt>
<trkpt lat="31.0406100" lon="35.2727600">
<ele>288.279999</ele>
<time>2022-12-14T12:44:25.067Z</time>
</trkpt>
<trkpt lat="31.0406100" lon="35.2728100">
<ele>287.809998</ele>
<time>2022-12-14T12:44:25.067Z</time>
</trkpt>
<trkpt lat="31.0405900" lon="35.2728600">
<ele>287.480011</ele>
<time>2022-12-14T12:44:25.067Z</time>
</trkpt>
<trkpt lat="31.0405600" lon="35.2729600">
<ele>286.709991</ele>
<time>2022-12-14T12:44:25.067Z</time>
</trkpt>
<trkpt lat="31.0405400" lon="35.2730100">
<ele>286.440002</ele>
<time>2022-12-14T12:44:25.067Z</time>
</trkpt>
<trkpt lat="31.0405000" lon="35.2730500">
<ele>286.440002</ele>
<time>2022-12-14T12:44:25.067Z</time>
</trkpt>
<trkpt lat="31.0404200" lon="35.2731100">
<ele>287.380005</ele>
<time>2022-12-14T12:44:25.067Z</time>
</trkpt>
<trkpt lat="31.0403400" lon="35.2731400">
<ele>287.660004</ele>
<time>2022-12-14T12:44:25.067Z</time>
</trkpt>
<trkpt lat="31.0402600" lon="35.2731800">
<ele>287.720001</ele>
<time>2022-12-14T12:44:25.067Z</time>
</trkpt>
<trkpt lat="31.0401900" lon="35.2732200">
<ele>288.110016</ele>
<time>2022-12-14T12:44:25.067Z</time>
</trkpt>
<trkpt lat="31.0401500" lon="35.2732500">
<ele>288.170013</ele>
<time>2022-12-14T12:44:25.067Z</time>
</trkpt>
<trkpt lat="31.0401200" lon="35.2732800">
<ele>288.089996</ele>
<time>2022-12-14T12:44:25.067Z</time>
</trkpt>
<trkpt lat="31.0400900" lon="35.2733700">
<ele>287.669983</ele>
<time>2022-12-14T12:44:25.067Z</time>
</trkpt>
<trkpt lat="31.0400900" lon="35.2734200">
<ele>287.669983</ele>
<time>2022-12-14T12:44:25.067Z</time>
</trkpt>
<trkpt lat="31.0400800" lon="35.2734700">
<ele>287.649994</ele>
<time>2022-12-14T12:44:25.067Z</time>
</trkpt>
<trkpt lat="31.0400500" lon="35.2736700">
<ele>287.609985</ele>
<time>2022-12-14T12:44:25.067Z</time>
</trkpt>
<trkpt lat="31.0400400" lon="35.2737200">
<ele>287.739990</ele>
<time>2022-12-14T12:44:25.067Z</time>
</trkpt>
<trkpt lat="31.0400000" lon="35.2739600">
<ele>287.489990</ele>
<time>2022-12-14T12:44:25.067Z</time>
</trkpt>
<trkpt lat="31.0400000" lon="35.2740000">
<ele>287.199982</ele>
<time>2022-12-14T12:44:25.067Z</time>
</trkpt>
<trkpt lat="31.0399600" lon="35.2741800">
<ele>286.179993</ele>
<time>2022-12-14T12:44:25.067Z</time>
</trkpt>
<trkpt lat="31.0399500" lon="35.2742300">
<ele>286.809998</ele>
<time>2022-12-14T12:44:25.067Z</time>
</trkpt>
<trkpt lat="31.0399200" lon="35.2743400">
<ele>287.679993</ele>
<time>2022-12-14T12:44:25.067Z</time>
</trkpt>
<trkpt lat="31.0399000" lon="35.2743900">
<ele>287.700012</ele>
<time>2022-12-14T12:44:25.067Z</time>
</trkpt>
<trkpt lat="31.0398700" lon="35.2744300">
<ele>287.190002</ele>
<time>2022-12-14T12:44:25.067Z</time>
</trkpt>
<trkpt lat="31.0397200" lon="35.2745700">
<ele>285.730011</ele>
<time>2022-12-14T12:44:25.067Z</time>
</trkpt>
<trkpt lat="31.0396800" lon="35.2746000">
<ele>286.559998</ele>
<time>2022-12-14T12:44:25.067Z</time>
</trkpt>
<trkpt lat="31.0395500" lon="35.2746900">
<ele>288.520020</ele>
<time>2022-12-14T12:44:25.067Z</time>
</trkpt>
<trkpt lat="31.0395100" lon="35.2747200">
<ele>288.970001</ele>
<time>2022-12-14T12:44:25.067Z</time>
</trkpt>
<trkpt lat="31.0394300" lon="35.2747700">
<ele>289.169983</ele>
<time>2022-12-14T12:44:25.067Z</time>
</trkpt>
<trkpt lat="31.0393400" lon="35.2748200">
<ele>288.309998</ele>
<time>2022-12-14T12:44:25.067Z</time>
</trkpt>
<trkpt lat="31.0393000" lon="35.2748700">
<ele>287.949982</ele>
<time>2022-12-14T12:44:25.067Z</time>
</trkpt>
<trkpt lat="31.0392800" lon="35.2749000">
<ele>287.750000</ele>
<time>2022-12-14T12:44:25.067Z</time>
</trkpt>
<trkpt lat="31.0392500" lon="35.2749800">
<ele>287.459991</ele>
<time>2022-12-14T12:44:25.067Z</time>
</trkpt>
<trkpt lat="31.0391400" lon="35.2751300">
<ele>287.489990</ele>
<time>2022-12-14T12:44:25.067Z</time>
</trkpt>
<trkpt lat="31.0390600" lon="35.2751800">
<ele>286.940002</ele>
<time>2022-12-14T12:44:25.067Z</time>
</trkpt>
<trkpt lat="31.0390200" lon="35.2752100">
<ele>286.639984</ele>
<time>2022-12-14T12:44:25.067Z</time>
</trkpt>
<trkpt lat="31.0390000" lon="35.2752300">
<ele>286.519989</ele>
<time>2022-12-14T12:44:25.067Z</time>
</trkpt>
<trkpt lat="31.0389800" lon="35.2752800">
<ele>286.660004</ele>
<time>2022-12-14T12:44:25.067Z</time>
</trkpt>
<trkpt lat="31.0389600" lon="35.2753400">
<ele>286.950012</ele>
<time>2022-12-14T12:44:25.067Z</time>
</trkpt>
<trkpt lat="31.0389600" lon="35.2753700">
<ele>287.279999</ele>
<time>2022-12-14T12:44:25.067Z</time>
</trkpt>
<trkpt lat="31.0389500" lon="35.2754700">
<ele>288.179993</ele>
<time>2022-12-14T12:44:25.067Z</time>
</trkpt>
<trkpt lat="31.0389400" lon="35.2755000">
<ele>288.320007</ele>
<time>2022-12-14T12:44:25.067Z</time>
</trkpt>
<trkpt lat="31.0389300" lon="35.2755500">
<ele>288.679993</ele>
<time>2022-12-14T12:44:25.067Z</time>
</trkpt>
<trkpt lat="31.0389200" lon="35.2755800">
<ele>289.109985</ele>
<time>2022-12-14T12:44:25.067Z</time>
</trkpt>
<trkpt lat="31.0389100" lon="35.2756200">
<ele>289.809998</ele>
<time>2022-12-14T12:44:25.067Z</time>
</trkpt>
<trkpt lat="31.0389000" lon="35.2756600">
<ele>290.490021</ele>
<time>2022-12-14T12:44:25.067Z</time>
</trkpt>
<trkpt lat="31.0388600" lon="35.2757300">
<ele>291.119995</ele>
<time>2022-12-14T12:44:25.067Z</time>
</trkpt>
<trkpt lat="31.0388300" lon="35.2757700">
<ele>291.240021</ele>
<time>2022-12-14T12:44:25.067Z</time>
</trkpt>
<trkpt lat="31.0387800" lon="35.2758500">
<ele>291.440002</ele>
<time>2022-12-14T12:44:25.067Z</time>
</trkpt>
<trkpt lat="31.0387700" lon="35.2758700">
<ele>291.399994</ele>
<time>2022-12-14T12:44:25.067Z</time>
</trkpt>
<trkpt lat="31.0387500" lon="35.2759600">
<ele>291.869995</ele>
<time>2022-12-14T12:44:25.067Z</time>
</trkpt>
<trkpt lat="31.0387600" lon="35.2759900">
<ele>292.440002</ele>
<time>2022-12-14T12:44:25.067Z</time>
</trkpt>
<trkpt lat="31.0387900" lon="35.2760900">
<ele>294.279999</ele>
<time>2022-12-14T12:44:25.067Z</time>
</trkpt>
<trkpt lat="31.0388000" lon="35.2761800">
<ele>295.260010</ele>
<time>2022-12-14T12:44:25.067Z</time>
</trkpt>
<trkpt lat="31.0388200" lon="35.2762400">
<ele>296.190002</ele>
<time>2022-12-14T12:44:25.067Z</time>
</trkpt>
<trkpt lat="31.0388200" lon="35.2762700">
<ele>296.410004</ele>
<time>2022-12-14T12:44:25.067Z</time>
</trkpt>
<trkpt lat="31.0388300" lon="35.2764100">
<ele>297.739990</ele>
<time>2022-12-14T12:44:25.067Z</time>
</trkpt>
<trkpt lat="31.0388200" lon="35.2765100">
<ele>298.570007</ele>
<time>2022-12-14T12:44:25.067Z</time>
</trkpt>
<trkpt lat="31.0388000" lon="35.2765800">
<ele>298.820007</ele>
<time>2022-12-14T12:44:25.067Z</time>
</trkpt>
<trkpt lat="31.0387800" lon="35.2766400">
<ele>298.970001</ele>
<time>2022-12-14T12:44:25.067Z</time>
</trkpt>
<trkpt lat="31.0387600" lon="35.2767200">
<ele>299.289978</ele>
<time>2022-12-14T12:44:25.067Z</time>
</trkpt>
<trkpt lat="31.0387500" lon="35.2767500">
<ele>299.399994</ele>
<time>2022-12-14T12:44:25.067Z</time>
</trkpt>
<trkpt lat="31.0387300" lon="35.2768200">
<ele>299.889984</ele>
<time>2022-12-14T12:44:25.067Z</time>
</trkpt>
<trkpt lat="31.0387100" lon="35.2768800">
<ele>300.459991</ele>
<time>2022-12-14T12:44:25.067Z</time>
</trkpt>
<trkpt lat="31.0386900" lon="35.2769600">
<ele>301.199982</ele>
<time>2022-12-14T12:44:25.067Z</time>
</trkpt>
<trkpt lat="31.0386800" lon="35.2769900">
<ele>301.000000</ele>
<time>2022-12-14T12:44:25.067Z</time>
</trkpt>
<trkpt lat="31.0386500" lon="35.2770600">
<ele>300.610016</ele>
<time>2022-12-14T12:44:25.067Z</time>
</trkpt>
<trkpt lat="31.0386400" lon="35.2771300">
<ele>300.299988</ele>
<time>2022-12-14T12:44:25.067Z</time>
</trkpt>
<trkpt lat="31.0386200" lon="35.2772700">
<ele>299.779999</ele>
<time>2022-12-14T12:44:25.067Z</time>
</trkpt>
<trkpt lat="31.0386200" lon="35.2773800">
<ele>299.359985</ele>
<time>2022-12-14T12:44:25.067Z</time>
</trkpt>
<trkpt lat="31.0386000" lon="35.2774900">
<ele>299.079987</ele>
<time>2022-12-14T12:44:25.067Z</time>
</trkpt>
<trkpt lat="31.0385800" lon="35.2775400">
<ele>298.549988</ele>
<time>2022-12-14T12:44:25.067Z</time>
</trkpt>
<trkpt lat="31.0385100" lon="35.2776900">
<ele>296.880005</ele>
<time>2022-12-14T12:44:25.067Z</time>
</trkpt>
<trkpt lat="31.0384400" lon="35.2777700">
<ele>296.330017</ele>
<time>2022-12-14T12:44:25.067Z</time>
</trkpt>
<trkpt lat="31.0384100" lon="35.2778200">
<ele>295.799988</ele>
<time>2022-12-14T12:44:25.067Z</time>
</trkpt>
<trkpt lat="31.0382600" lon="35.2780400">
<ele>294.269989</ele>
<time>2022-12-14T12:44:25.067Z</time>
</trkpt>
<trkpt lat="31.0382400" lon="35.2780700">
<ele>294.070007</ele>
<time>2022-12-14T12:44:25.067Z</time>
</trkpt>
<trkpt lat="31.0382100" lon="35.2781600">
<ele>292.730011</ele>
<time>2022-12-14T12:44:25.067Z</time>
</trkpt>
<trkpt lat="31.0382000" lon="35.2782800">
<ele>290.490021</ele>
<time>2022-12-14T12:44:25.067Z</time>
</trkpt>
<trkpt lat="31.0382400" lon="35.2784100">
<ele>287.899994</ele>
<time>2022-12-14T12:44:25.067Z</time>
</trkpt>
<trkpt lat="31.0382600" lon="35.2784700">
<ele>286.929993</ele>
<time>2022-12-14T12:44:25.067Z</time>
</trkpt>
<trkpt lat="31.0383300" lon="35.2786000">
<ele>285.119995</ele>
<time>2022-12-14T12:44:25.067Z</time>
</trkpt>
<trkpt lat="31.0383900" lon="35.2787100">
<ele>282.339996</ele>
<time>2022-12-14T12:44:25.067Z</time>
</trkpt>
<trkpt lat="31.0384500" lon="35.2788200">
<ele>280.070007</ele>
<time>2022-12-14T12:44:25.067Z</time>
</trkpt>
<trkpt lat="31.0385300" lon="35.2789600">
<ele>278.130005</ele>
<time>2022-12-14T12:44:25.067Z</time>
</trkpt>
<trkpt lat="31.0385600" lon="35.2790100">
<ele>277.419983</ele>
<time>2022-12-14T12:44:25.067Z</time>
</trkpt>
<trkpt lat="31.0386000" lon="35.2790900">
<ele>276.160004</ele>
<time>2022-12-14T12:44:25.067Z</time>
</trkpt>
<trkpt lat="31.0386100" lon="35.2791400">
<ele>275.390015</ele>
<time>2022-12-14T12:44:25.067Z</time>
</trkpt>
<trkpt lat="31.0386100" lon="35.2791900">
<ele>274.839996</ele>
<time>2022-12-14T12:44:25.067Z</time>
</trkpt>
<trkpt lat="31.0386200" lon="35.2792500">
<ele>274.480011</ele>
<time>2022-12-14T12:44:25.067Z</time>
</trkpt>
<trkpt lat="31.0386500" lon="35.2793700">
<ele>273.750000</ele>
<time>2022-12-14T12:44:25.067Z</time>
</trkpt>
<trkpt lat="31.0386700" lon="35.2795300">
<ele>272.529999</ele>
<time>2022-12-14T12:44:25.067Z</time>
</trkpt>
<trkpt lat="31.0387000" lon="35.2796900">
<ele>271.269989</ele>
<time>2022-12-14T12:44:25.067Z</time>
</trkpt>
<trkpt lat="31.0387700" lon="35.2798600">
<ele>269.720001</ele>
<time>2022-12-14T12:44:25.067Z</time>
</trkpt>
<trkpt lat="31.0388100" lon="35.2799400">
<ele>268.869995</ele>
<time>2022-12-14T12:44:25.067Z</time>
</trkpt>
<trkpt lat="31.0389300" lon="35.2801300">
<ele>266.820007</ele>
<time>2022-12-14T12:44:25.067Z</time>
</trkpt>
<trkpt lat="31.0390300" lon="35.2803200">
<ele>265.440002</ele>
<time>2022-12-14T12:44:25.067Z</time>
</trkpt>
<trkpt lat="31.0390700" lon="35.2804300">
<ele>265.630005</ele>
<time>2022-12-14T12:44:25.067Z</time>
</trkpt>
<trkpt lat="31.0390900" lon="35.2804800">
<ele>265.850006</ele>
<time>2022-12-14T12:44:25.067Z</time>
</trkpt>
<trkpt lat="31.0390500" lon="35.2806400">
<ele>265.850006</ele>
<time>2022-12-14T12:44:25.067Z</time>
</trkpt>
<trkpt lat="31.0390400" lon="35.2807000">
<ele>266.020020</ele>
<time>2022-12-14T12:44:25.067Z</time>
</trkpt>
<trkpt lat="31.0390300" lon="35.2809800">
<ele>266.820007</ele>
<time>2022-12-14T12:44:25.067Z</time>
</trkpt>
<trkpt lat="31.0390700" lon="35.2811900">
<ele>267.930023</ele>
<time>2022-12-14T12:44:25.067Z</time>
</trkpt>
<trkpt lat="31.0390800" lon="35.2812200">
<ele>268.109985</ele>
<time>2022-12-14T12:44:25.067Z</time>
</trkpt>
<trkpt lat="31.0391100" lon="35.2813200">
<ele>268.619995</ele>
<time>2022-12-14T12:44:25.067Z</time>
</trkpt>
<trkpt lat="31.0391400" lon="35.2813900">
<ele>269.209991</ele>
<time>2022-12-14T12:44:25.067Z</time>
</trkpt>
<trkpt lat="31.0392000" lon="35.2815200">
<ele>268.179993</ele>
<time>2022-12-14T12:44:25.067Z</time>
</trkpt>
<trkpt lat="31.0392200" lon="35.2815700">
<ele>267.630005</ele>
<time>2022-12-14T12:44:25.067Z</time>
</trkpt>
<trkpt lat="31.0392600" lon="35.2817800">
<ele>263.949982</ele>
<time>2022-12-14T12:44:25.067Z</time>
</trkpt>
<trkpt lat="31.0392800" lon="35.2820500">
<ele>259.450012</ele>
<time>2022-12-14T12:44:25.067Z</time>
</trkpt>
<trkpt lat="31.0392900" lon="35.2822500">
<ele>258.140015</ele>
<time>2022-12-14T12:44:25.067Z</time>
</trkpt>
<trkpt lat="31.0392800" lon="35.2824700">
<ele>256.769989</ele>
<time>2022-12-14T12:44:25.067Z</time>
</trkpt>
<trkpt lat="31.0392500" lon="35.2826100">
<ele>257.040009</ele>
<time>2022-12-14T12:44:25.067Z</time>
</trkpt>
<trkpt lat="31.0392100" lon="35.2827500">
<ele>257.440002</ele>
<time>2022-12-14T12:44:25.067Z</time>
</trkpt>
<trkpt lat="31.0391900" lon="35.2828200">
<ele>257.679993</ele>
<time>2022-12-14T12:44:25.067Z</time>
</trkpt>
<trkpt lat="31.0391400" lon="35.2829400">
<ele>257.179993</ele>
<time>2022-12-14T12:44:25.067Z</time>
</trkpt>
<trkpt lat="31.0390800" lon="35.2831200">
<ele>255.340012</ele>
<time>2022-12-14T12:44:25.067Z</time>
</trkpt>
<trkpt lat="31.0390700" lon="35.2831800">
<ele>255.179993</ele>
<time>2022-12-14T12:44:25.067Z</time>
</trkpt>
<trkpt lat="31.0390600" lon="35.2832800">
<ele>255.160004</ele>
<time>2022-12-14T12:44:25.067Z</time>
</trkpt>
<trkpt lat="31.0390400" lon="35.2833900">
<ele>254.980011</ele>
<time>2022-12-14T12:44:25.067Z</time>
</trkpt>
<trkpt lat="31.0390200" lon="35.2835100">
<ele>255.009995</ele>
<time>2022-12-14T12:44:25.067Z</time>
</trkpt>
<trkpt lat="31.0390100" lon="35.2835700">
<ele>255.119995</ele>
<time>2022-12-14T12:44:25.067Z</time>
</trkpt>
<trkpt lat="31.0389900" lon="35.2836300">
<ele>255.069992</ele>
<time>2022-12-14T12:44:25.067Z</time>
</trkpt>
<trkpt lat="31.0389700" lon="35.2836800">
<ele>254.769989</ele>
<time>2022-12-14T12:44:25.067Z</time>
</trkpt>
<trkpt lat="31.0389600" lon="35.2837400">
<ele>254.539993</ele>
<time>2022-12-14T12:44:25.067Z</time>
</trkpt>
<trkpt lat="31.0389300" lon="35.2837900">
<ele>253.990005</ele>
<time>2022-12-14T12:44:25.067Z</time>
</trkpt>
<trkpt lat="31.0388900" lon="35.2838500">
<ele>253.160004</ele>
<time>2022-12-14T12:44:25.067Z</time>
</trkpt>
<trkpt lat="31.0388100" lon="35.2839500">
<ele>248.270004</ele>
<time>2022-12-14T12:44:25.067Z</time>
</trkpt>
<trkpt lat="31.0387700" lon="35.2840000">
<ele>245.889999</ele>
<time>2022-12-14T12:44:25.067Z</time>
</trkpt>
<trkpt lat="31.0386400" lon="35.2841400">
<ele>239.279999</ele>
<time>2022-12-14T12:44:25.067Z</time>
</trkpt>
<trkpt lat="31.0385700" lon="35.2842300">
<ele>236.220001</ele>
<time>2022-12-14T12:44:25.067Z</time>
</trkpt>
<trkpt lat="31.0385300" lon="35.2842700">
<ele>234.500000</ele>
<time>2022-12-14T12:44:25.067Z</time>
</trkpt>
<trkpt lat="31.0384600" lon="35.2843500">
<ele>231.470001</ele>
<time>2022-12-14T12:44:25.067Z</time>
</trkpt>
<trkpt lat="31.0384300" lon="35.2844100">
<ele>230.179993</ele>
<time>2022-12-14T12:44:25.067Z</time>
</trkpt>
<trkpt lat="31.0384000" lon="35.2844700">
<ele>229.019989</ele>
<time>2022-12-14T12:44:25.067Z</time>
</trkpt>
<trkpt lat="31.0383700" lon="35.2845300">
<ele>228.119995</ele>
<time>2022-12-14T12:44:25.067Z</time>
</trkpt>
<trkpt lat="31.0383400" lon="35.2846000">
<ele>227.380005</ele>
<time>2022-12-14T12:44:25.067Z</time>
</trkpt>
<trkpt lat="31.0383200" lon="35.2846800">
<ele>227.009995</ele>
<time>2022-12-14T12:44:25.067Z</time>
</trkpt>
<trkpt lat="31.0383000" lon="35.2847700">
<ele>226.089996</ele>
<time>2022-12-14T12:44:25.067Z</time>
</trkpt>
<trkpt lat="31.0383000" lon="35.2849300">
<ele>225.720001</ele>
<time>2022-12-14T12:44:25.067Z</time>
</trkpt>
<trkpt lat="31.0383300" lon="35.2850500">
<ele>226.320007</ele>
<time>2022-12-14T12:44:25.067Z</time>
</trkpt>
<trkpt lat="31.0384700" lon="35.2851300">
<ele>228.350006</ele>
<time>2022-12-14T12:44:25.067Z</time>
</trkpt>
<trkpt lat="31.0385700" lon="35.2851700">
<ele>229.559998</ele>
<time>2022-12-14T12:44:25.067Z</time>
</trkpt>
<trkpt lat="31.0386300" lon="35.2851900">
<ele>230.470001</ele>
<time>2022-12-14T12:44:25.067Z</time>
</trkpt>
<trkpt lat="31.0386700" lon="35.2852200">
<ele>231.070007</ele>
<time>2022-12-14T12:44:25.067Z</time>
</trkpt>
<trkpt lat="31.0387200" lon="35.2852600">
<ele>231.860001</ele>
<time>2022-12-14T12:44:25.067Z</time>
</trkpt>
<trkpt lat="31.0387500" lon="35.2852900">
<ele>232.429993</ele>
<time>2022-12-14T12:44:25.067Z</time>
</trkpt>
<trkpt lat="31.0388000" lon="35.2853400">
<ele>233.819992</ele>
<time>2022-12-14T12:44:25.067Z</time>
</trkpt>
<trkpt lat="31.0388200" lon="35.2853700">
<ele>234.349991</ele>
<time>2022-12-14T12:44:25.067Z</time>
</trkpt>
<trkpt lat="31.0388100" lon="35.2854000">
<ele>233.879990</ele>
<time>2022-12-14T12:44:25.067Z</time>
</trkpt>
<trkpt lat="31.0387500" lon="35.2854700">
<ele>231.459991</ele>
<time>2022-12-14T12:44:25.067Z</time>
</trkpt>
<trkpt lat="31.0386800" lon="35.2855300">
<ele>228.639999</ele>
<time>2022-12-14T12:44:25.067Z</time>
</trkpt>
<trkpt lat="31.0385900" lon="35.2855800">
<ele>225.610001</ele>
<time>2022-12-14T12:44:25.067Z</time>
</trkpt>
<trkpt lat="31.0385500" lon="35.2856000">
<ele>224.959991</ele>
<time>2022-12-14T12:44:25.067Z</time>
</trkpt>
<trkpt lat="31.0384800" lon="35.2856500">
<ele>223.770004</ele>
<time>2022-12-14T12:44:25.067Z</time>
</trkpt>
<trkpt lat="31.0384000" lon="35.2857100">
<ele>222.400009</ele>
<time>2022-12-14T12:44:25.067Z</time>
</trkpt>
<trkpt lat="31.0383600" lon="35.2857500">
<ele>221.679993</ele>
<time>2022-12-14T12:44:25.067Z</time>
</trkpt>
<trkpt lat="31.0382600" lon="35.2858200">
<ele>219.970001</ele>
<time>2022-12-14T12:44:25.067Z</time>
</trkpt>
<trkpt lat="31.0381400" lon="35.2858900">
<ele>217.459991</ele>
<time>2022-12-14T12:44:25.067Z</time>
</trkpt>
<trkpt lat="31.0380900" lon="35.2859200">
<ele>216.289993</ele>
<time>2022-12-14T12:44:25.067Z</time>
</trkpt>
<trkpt lat="31.0380400" lon="35.2859500">
<ele>214.659988</ele>
<time>2022-12-14T12:44:25.067Z</time>
</trkpt>
<trkpt lat="31.0380000" lon="35.2859800">
<ele>212.740005</ele>
<time>2022-12-14T12:44:25.067Z</time>
</trkpt>
<trkpt lat="31.0379600" lon="35.2860100">
<ele>211.139999</ele>
<time>2022-12-14T12:44:25.067Z</time>
</trkpt>
<trkpt lat="31.0378900" lon="35.2860700">
<ele>209.130005</ele>
<time>2022-12-14T12:44:25.067Z</time>
</trkpt>
<trkpt lat="31.0378200" lon="35.2861100">
<ele>207.890015</ele>
<time>2022-12-14T12:44:25.067Z</time>
</trkpt>
<trkpt lat="31.0377800" lon="35.2861900">
<ele>206.759995</ele>
<time>2022-12-14T12:44:25.067Z</time>
</trkpt>
<trkpt lat="31.0377700" lon="35.2862400">
<ele>206.029999</ele>
<time>2022-12-14T12:44:25.067Z</time>
</trkpt>
<trkpt lat="31.0377500" lon="35.2862900">
<ele>204.610001</ele>
<time>2022-12-14T12:44:25.067Z</time>
</trkpt>
<trkpt lat="31.0377200" lon="35.2863300">
<ele>202.710007</ele>
<time>2022-12-14T12:44:25.067Z</time>
</trkpt>
<trkpt lat="31.0377000" lon="35.2863800">
<ele>201.520004</ele>
<time>2022-12-14T12:44:25.067Z</time>
</trkpt>
<trkpt lat="31.0376800" lon="35.2864300">
<ele>200.169998</ele>
<time>2022-12-14T12:44:25.067Z</time>
</trkpt>
<trkpt lat="31.0376600" lon="35.2864800">
<ele>199.150009</ele>
<time>2022-12-14T12:44:25.067Z</time>
</trkpt>
<trkpt lat="31.0376300" lon="35.2865300">
<ele>198.259995</ele>
<time>2022-12-14T12:44:25.067Z</time>
</trkpt>
<trkpt lat="31.0376100" lon="35.2865700">
<ele>198.069992</ele>
<time>2022-12-14T12:44:25.067Z</time>
</trkpt>
<trkpt lat="31.0375600" lon="35.2866500">
<ele>198.669998</ele>
<time>2022-12-14T12:44:25.067Z</time>
</trkpt>
<trkpt lat="31.0375200" lon="35.2867300">
<ele>198.349991</ele>
<time>2022-12-14T12:44:25.067Z</time>
</trkpt>
<trkpt lat="31.0374700" lon="35.2867900">
<ele>196.169998</ele>
<time>2022-12-14T12:44:25.067Z</time>
</trkpt>
<trkpt lat="31.0374300" lon="35.2868600">
<ele>193.860001</ele>
<time>2022-12-14T12:44:25.067Z</time>
</trkpt>
<trkpt lat="31.0373900" lon="35.2869300">
<ele>192.050003</ele>
<time>2022-12-14T12:44:25.067Z</time>
</trkpt>
<trkpt lat="31.0373500" lon="35.2870000">
<ele>190.559998</ele>
<time>2022-12-14T12:44:25.067Z</time>
</trkpt>
<trkpt lat="31.0373200" lon="35.2870400">
<ele>189.699997</ele>
<time>2022-12-14T12:44:25.067Z</time>
</trkpt>
<trkpt lat="31.0372700" lon="35.2871200">
<ele>188.860001</ele>
<time>2022-12-14T12:44:25.067Z</time>
</trkpt>
<trkpt lat="31.0372400" lon="35.2871600">
<ele>188.620010</ele>
<time>2022-12-14T12:44:25.067Z</time>
</trkpt>
<trkpt lat="31.0372100" lon="35.2872000">
<ele>188.399994</ele>
<time>2022-12-14T12:44:25.067Z</time>
</trkpt>
<trkpt lat="31.0371900" lon="35.2872400">
<ele>187.819992</ele>
<time>2022-12-14T12:44:25.067Z</time>
</trkpt>
<trkpt lat="31.0371700" lon="35.2872900">
<ele>186.570007</ele>
<time>2022-12-14T12:44:25.067Z</time>
</trkpt>
<trkpt lat="31.0371500" lon="35.2873300">
<ele>185.470001</ele>
<time>2022-12-14T12:44:25.067Z</time>
</trkpt>
<trkpt lat="31.0371200" lon="35.2874100">
<ele>183.599991</ele>
<time>2022-12-14T12:44:25.067Z</time>
</trkpt>
<trkpt lat="31.0370800" lon="35.2875000">
<ele>181.419998</ele>
<time>2022-12-14T12:44:25.067Z</time>
</trkpt>
<trkpt lat="31.0370500" lon="35.2876000">
<ele>179.389999</ele>
<time>2022-12-14T12:44:25.067Z</time>
</trkpt>
<trkpt lat="31.0370200" lon="35.2876900">
<ele>177.790009</ele>
<time>2022-12-14T12:44:25.067Z</time>
</trkpt>
<trkpt lat="31.0369900" lon="35.2877900">
<ele>176.350006</ele>
<time>2022-12-14T12:44:25.067Z</time>
</trkpt>
<trkpt lat="31.0370100" lon="35.2879100">
<ele>175.059998</ele>
<time>2022-12-14T12:44:25.067Z</time>
</trkpt>
<trkpt lat="31.0370200" lon="35.2879700">
<ele>174.360001</ele>
<time>2022-12-14T12:44:25.067Z</time>
</trkpt>
<trkpt lat="31.0370800" lon="35.2880900">
<ele>172.870010</ele>
<time>2022-12-14T12:44:25.067Z</time>
</trkpt>
<trkpt lat="31.0371400" lon="35.2881800">
<ele>171.099991</ele>
<time>2022-12-14T12:44:25.067Z</time>
</trkpt>
<trkpt lat="31.0371600" lon="35.2882300">
<ele>169.940002</ele>
<time>2022-12-14T12:44:25.067Z</time>
</trkpt>
<trkpt lat="31.0372200" lon="35.2883200">
<ele>167.360001</ele>
<time>2022-12-14T12:44:25.067Z</time>
</trkpt>
<trkpt lat="31.0373000" lon="35.2885000">
<ele>164.659988</ele>
<time>2022-12-14T12:44:25.067Z</time>
</trkpt>
<trkpt lat="31.0373100" lon="35.2885500">
<ele>163.770004</ele>
<time>2022-12-14T12:44:25.067Z</time>
</trkpt>
<trkpt lat="31.0373200" lon="35.2886000">
<ele>162.850006</ele>
<time>2022-12-14T12:44:25.067Z</time>
</trkpt>
<trkpt lat="31.0373400" lon="35.2887100">
<ele>161.559998</ele>
<time>2022-12-14T12:44:25.067Z</time>
</trkpt>
<trkpt lat="31.0373500" lon="35.2888400">
<ele>160.130005</ele>
<time>2022-12-14T12:44:25.067Z</time>
</trkpt>
<trkpt lat="31.0373500" lon="35.2889000">
<ele>159.539993</ele>
<time>2022-12-14T12:44:25.067Z</time>
</trkpt>
<trkpt lat="31.0373500" lon="35.2889600">
<ele>159.130005</ele>
<time>2022-12-14T12:44:25.067Z</time>
</trkpt>
<trkpt lat="31.0373400" lon="35.2890700">
<ele>158.520004</ele>
<time>2022-12-14T12:44:25.067Z</time>
</trkpt>
<trkpt lat="31.0373300" lon="35.2891300">
<ele>158.290009</ele>
<time>2022-12-14T12:44:25.067Z</time>
</trkpt>
<trkpt lat="31.0373300" lon="35.2892300">
<ele>157.290009</ele>
<time>2022-12-14T12:44:25.067Z</time>
</trkpt>
<trkpt lat="31.0373200" lon="35.2893300">
<ele>156.269989</ele>
<time>2022-12-14T12:44:25.067Z</time>
</trkpt>
<trkpt lat="31.0373200" lon="35.2894200">
<ele>155.179993</ele>
<time>2022-12-14T12:44:25.067Z</time>
</trkpt>
<trkpt lat="31.0373100" lon="35.2895000">
<ele>154.770004</ele>
<time>2022-12-14T12:44:25.067Z</time>
</trkpt>
<trkpt lat="31.0373100" lon="35.2895300">
<ele>154.589996</ele>
<time>2022-12-14T12:44:25.067Z</time>
</trkpt>
<trkpt lat="31.0372900" lon="35.2896200">
<ele>154.429993</ele>
<time>2022-12-14T12:44:25.067Z</time>
</trkpt>
<trkpt lat="31.0372600" lon="35.2897100">
<ele>154.399994</ele>
<time>2022-12-14T12:44:25.067Z</time>
</trkpt>
<trkpt lat="31.0372000" lon="35.2897400">
<ele>155.289993</ele>
<time>2022-12-14T12:44:25.067Z</time>
</trkpt>
<trkpt lat="31.0371900" lon="35.2897400">
<ele>155.400009</ele>
<time>2022-12-14T12:44:25.067Z</time>
</trkpt>
<trkpt lat="31.0371300" lon="35.2897300">
<ele>156.010010</ele>
<time>2022-12-14T12:44:25.067Z</time>
</trkpt>
<trkpt lat="31.0371200" lon="35.2897200">
<ele>156.119995</ele>
<time>2022-12-14T12:44:25.067Z</time>
</trkpt>
<trkpt lat="31.0371200" lon="35.2897200">
<ele>156.119995</ele>
<time>2022-12-14T12:44:25.067Z</time>
</trkpt>
<trkpt lat="31.0371100" lon="35.2897100">
<ele>156.320007</ele>
<time>2022-12-14T12:44:25.067Z</time>
</trkpt>
<trkpt lat="31.0370900" lon="35.2896700">
<ele>156.889999</ele>
<time>2022-12-14T12:44:25.067Z</time>
</trkpt>
<trkpt lat="31.0370800" lon="35.2896400">
<ele>157.279999</ele>
<time>2022-12-14T12:44:25.067Z</time>
</trkpt>
<trkpt lat="31.0370900" lon="35.2895600">
<ele>157.869995</ele>
<time>2022-12-14T12:44:25.067Z</time>
</trkpt>
<trkpt lat="31.0370900" lon="35.2895300">
<ele>158.139999</ele>
<time>2022-12-14T12:44:25.067Z</time>
</trkpt>
<trkpt lat="31.0370700" lon="35.2894700">
<ele>158.960007</ele>
<time>2022-12-14T12:44:25.067Z</time>
</trkpt>
<trkpt lat="31.0370700" lon="35.2894600">
<ele>159.049988</ele>
<time>2022-12-14T12:44:25.067Z</time>
</trkpt>
<trkpt lat="31.0370400" lon="35.2894000">
<ele>160.099991</ele>
<time>2022-12-14T12:44:25.067Z</time>
</trkpt>
<trkpt lat="31.0370000" lon="35.2893600">
<ele>161.110001</ele>
<time>2022-12-14T12:44:25.067Z</time>
</trkpt>
<trkpt lat="31.0369800" lon="35.2893400">
<ele>161.619995</ele>
<time>2022-12-14T12:44:25.067Z</time>
</trkpt>
<trkpt lat="31.0369300" lon="35.2893000">
<ele>162.559998</ele>
<time>2022-12-14T12:44:25.067Z</time>
</trkpt>
<trkpt lat="31.0369100" lon="35.2892800">
<ele>162.800003</ele>
<time>2022-12-14T12:44:25.067Z</time>
</trkpt>
<trkpt lat="31.0369100" lon="35.2892800">
<ele>162.800003</ele>
<time>2022-12-14T12:44:25.067Z</time>
</trkpt>
<trkpt lat="31.0368700" lon="35.2892500">
<ele>163.210007</ele>
<time>2022-12-14T12:44:25.067Z</time>
</trkpt>
<trkpt lat="31.0368400" lon="35.2892300">
<ele>163.519989</ele>
<time>2022-12-14T12:44:25.067Z</time>
</trkpt>
<trkpt lat="31.0368200" lon="35.2892200">
<ele>163.699997</ele>
<time>2022-12-14T12:44:25.067Z</time>
</trkpt>
<trkpt lat="31.0367800" lon="35.2892000">
<ele>164.089996</ele>
<time>2022-12-14T12:44:25.067Z</time>
</trkpt>
<trkpt lat="31.0367600" lon="35.2892000">
<ele>164.140015</ele>
<time>2022-12-14T12:44:25.067Z</time>
</trkpt>
<trkpt lat="31.0367200" lon="35.2892000">
<ele>164.250000</ele>
<time>2022-12-14T12:44:25.067Z</time>
</trkpt>
<trkpt lat="31.0366800" lon="35.2892200">
<ele>164.010010</ele>
<time>2022-12-14T12:44:25.067Z</time>
</trkpt>
<trkpt lat="31.0366500" lon="35.2892500">
<ele>163.300003</ele>
<time>2022-12-14T12:44:25.067Z</time>
</trkpt>
<trkpt lat="31.0366300" lon="35.2892800">
<ele>162.510010</ele>
<time>2022-12-14T12:44:25.067Z</time>
</trkpt>
<trkpt lat="31.0366200" lon="35.2893000">
<ele>162.020004</ele>
<time>2022-12-14T12:44:25.067Z</time>
</trkpt>
<trkpt lat="31.0366200" lon="35.2893000">
<ele>162.020004</ele>
<time>2022-12-14T12:44:25.067Z</time>
</trkpt>
<trkpt lat="31.0366200" lon="35.2893000">
<ele>162.020004</ele>
<time>2022-12-14T12:44:25.067Z</time>
</trkpt>
<trkpt lat="31.0366200" lon="35.2893000">
<ele>162.020004</ele>
<time>2022-12-14T12:44:25.067Z</time>
</trkpt>
<trkpt lat="31.0366200" lon="35.2893000">
<ele>162.020004</ele>
<time>2022-12-14T12:44:25.067Z</time>
</trkpt>
<trkpt lat="31.0366200" lon="35.2893000">
<ele>162.020004</ele>
<time>2022-12-14T12:44:25.067Z</time>
</trkpt>
<trkpt lat="31.0366100" lon="35.2893300">
<ele>161.330002</ele>
<time>2022-12-14T12:44:25.067Z</time>
</trkpt>
<trkpt lat="31.0366000" lon="35.2893800">
<ele>160.260010</ele>
<time>2022-12-14T12:44:25.067Z</time>
</trkpt>
<trkpt lat="31.0365800" lon="35.2894800">
<ele>157.940002</ele>
<time>2022-12-14T12:44:25.067Z</time>
</trkpt>
<trkpt lat="31.0365800" lon="35.2895200">
<ele>157.020004</ele>
<time>2022-12-14T12:44:25.067Z</time>
</trkpt>
<trkpt lat="31.0365900" lon="35.2897500">
<ele>152.279999</ele>
<time>2022-12-14T12:44:25.067Z</time>
</trkpt>
<trkpt lat="31.0366000" lon="35.2898400">
<ele>151.770004</ele>
<time>2022-12-14T12:44:25.067Z</time>
</trkpt>
<trkpt lat="31.0366100" lon="35.2898900">
<ele>151.509995</ele>
<time>2022-12-14T12:44:25.067Z</time>
</trkpt>
<trkpt lat="31.0366100" lon="35.2900200">
<ele>150.940002</ele>
<time>2022-12-14T12:44:25.067Z</time>
</trkpt>
<trkpt lat="31.0365900" lon="35.2900600">
<ele>151.160004</ele>
<time>2022-12-14T12:44:25.067Z</time>
</trkpt>
<trkpt lat="31.0365600" lon="35.2901000">
<ele>151.339996</ele>
<time>2022-12-14T12:44:25.067Z</time>
</trkpt>
<trkpt lat="31.0365200" lon="35.2901300">
<ele>151.410004</ele>
<time>2022-12-14T12:44:25.067Z</time>
</trkpt>
<trkpt lat="31.0364300" lon="35.2901800">
<ele>151.440002</ele>
<time>2022-12-14T12:44:25.067Z</time>
</trkpt>
<trkpt lat="31.0363700" lon="35.2902200">
<ele>151.330002</ele>
<time>2022-12-14T12:44:25.067Z</time>
</trkpt>
<trkpt lat="31.0362400" lon="35.2903700">
<ele>151.009995</ele>
<time>2022-12-14T12:44:25.067Z</time>
</trkpt>
<trkpt lat="31.0361900" lon="35.2904900">
<ele>151.639999</ele>
<time>2022-12-14T12:44:25.067Z</time>
</trkpt>
<trkpt lat="31.0361700" lon="35.2906000">
<ele>152.250000</ele>
<time>2022-12-14T12:44:25.067Z</time>
</trkpt>
<trkpt lat="31.0361600" lon="35.2907200">
<ele>152.580002</ele>
<time>2022-12-14T12:44:25.067Z</time>
</trkpt>
<trkpt lat="31.0361400" lon="35.2908500">
<ele>152.510010</ele>
<time>2022-12-14T12:44:25.067Z</time>
</trkpt>
<trkpt lat="31.0361300" lon="35.2909100">
<ele>151.870010</ele>
<time>2022-12-14T12:44:25.067Z</time>
</trkpt>
<trkpt lat="31.0361100" lon="35.2909700">
<ele>150.979996</ele>
<time>2022-12-14T12:44:25.067Z</time>
</trkpt>
<trkpt lat="31.0360400" lon="35.2910600">
<ele>148.319992</ele>
<time>2022-12-14T12:44:25.067Z</time>
</trkpt>
<trkpt lat="31.0359900" lon="35.2910900">
<ele>146.660004</ele>
<time>2022-12-14T12:44:25.067Z</time>
</trkpt>
<trkpt lat="31.0359400" lon="35.2911200">
<ele>145.059998</ele>
<time>2022-12-14T12:44:25.067Z</time>
</trkpt>
<trkpt lat="31.0359000" lon="35.2911500">
<ele>143.889999</ele>
<time>2022-12-14T12:44:25.067Z</time>
</trkpt>
<trkpt lat="31.0358400" lon="35.2912100">
<ele>142.180008</ele>
<time>2022-12-14T12:44:25.067Z</time>
</trkpt>
<trkpt lat="31.0357600" lon="35.2913300">
<ele>140.889999</ele>
<time>2022-12-14T12:44:25.067Z</time>
</trkpt>
<trkpt lat="31.0357200" lon="35.2913800">
<ele>140.350006</ele>
<time>2022-12-14T12:44:25.067Z</time>
</trkpt>
<trkpt lat="31.0356800" lon="35.2914300">
<ele>139.789993</ele>
<time>2022-12-14T12:44:25.067Z</time>
</trkpt>
<trkpt lat="31.0356300" lon="35.2914700">
<ele>139.070007</ele>
<time>2022-12-14T12:44:25.067Z</time>
</trkpt>
<trkpt lat="31.0355200" lon="35.2915300">
<ele>137.490005</ele>
<time>2022-12-14T12:44:25.067Z</time>
</trkpt>
<trkpt lat="31.0354700" lon="35.2915500">
<ele>136.769989</ele>
<time>2022-12-14T12:44:25.067Z</time>
</trkpt>
<trkpt lat="31.0353200" lon="35.2915400">
<ele>134.610001</ele>
<time>2022-12-14T12:44:25.067Z</time>
</trkpt>
<trkpt lat="31.0351900" lon="35.2915300">
<ele>132.729996</ele>
<time>2022-12-14T12:44:25.067Z</time>
</trkpt>
<trkpt lat="31.0350500" lon="35.2915300">
<ele>130.710007</ele>
<time>2022-12-14T12:44:25.067Z</time>
</trkpt>
<trkpt lat="31.0349400" lon="35.2915000">
<ele>130.240005</ele>
<time>2022-12-14T12:44:25.067Z</time>
</trkpt>
<trkpt lat="31.0348300" lon="35.2914400">
<ele>131.020004</ele>
<time>2022-12-14T12:44:25.067Z</time>
</trkpt>
<trkpt lat="31.0347700" lon="35.2914000">
<ele>131.679993</ele>
<time>2022-12-14T12:44:25.067Z</time>
</trkpt>
<trkpt lat="31.0347000" lon="35.2913700">
<ele>132.380005</ele>
<time>2022-12-14T12:44:25.067Z</time>
</trkpt>
<trkpt lat="31.0345900" lon="35.2913400">
<ele>133.779999</ele>
<time>2022-12-14T12:44:25.067Z</time>
</trkpt>
<trkpt lat="31.0343900" lon="35.2913000">
<ele>135.440002</ele>
<time>2022-12-14T12:44:25.067Z</time>
</trkpt>
<trkpt lat="31.0343400" lon="35.2913400">
<ele>134.979996</ele>
<time>2022-12-14T12:44:25.067Z</time>
</trkpt>
<trkpt lat="31.0343300" lon="35.2913700">
<ele>134.720001</ele>
<time>2022-12-14T12:44:25.067Z</time>
</trkpt>
<trkpt lat="31.0343500" lon="35.2914300">
<ele>133.720001</ele>
<time>2022-12-14T12:44:25.067Z</time>
</trkpt>
<trkpt lat="31.0343600" lon="35.2914400">
<ele>133.539993</ele>
<time>2022-12-14T12:44:25.067Z</time>
</trkpt>
<trkpt lat="31.0344600" lon="35.2914900">
<ele>132.690002</ele>
<time>2022-12-14T12:44:25.067Z</time>
</trkpt>
<trkpt lat="31.0344900" lon="35.2915000">
<ele>132.240005</ele>
<time>2022-12-14T12:44:25.067Z</time>
</trkpt>
<trkpt lat="31.0345900" lon="35.2915900">
<ele>129.839996</ele>
<time>2022-12-14T12:44:25.067Z</time>
</trkpt>
<trkpt lat="31.0346100" lon="35.2916400">
<ele>128.870010</ele>
<time>2022-12-14T12:44:25.067Z</time>
</trkpt>
<trkpt lat="31.0346300" lon="35.2916900">
<ele>127.739998</ele>
<time>2022-12-14T12:44:25.067Z</time>
</trkpt>
<trkpt lat="31.0346400" lon="35.2917400">
<ele>126.480003</ele>
<time>2022-12-14T12:44:25.067Z</time>
</trkpt>
<trkpt lat="31.0346600" lon="35.2918000">
<ele>125.019997</ele>
<time>2022-12-14T12:44:25.067Z</time>
</trkpt>
<trkpt lat="31.0346700" lon="35.2918600">
<ele>123.619995</ele>
<time>2022-12-14T12:44:25.067Z</time>
</trkpt>
<trkpt lat="31.0346800" lon="35.2919200">
<ele>122.259995</ele>
<time>2022-12-14T12:44:25.067Z</time>
</trkpt>
<trkpt lat="31.0347400" lon="35.2920200">
<ele>121.040001</ele>
<time>2022-12-14T12:44:25.067Z</time>
</trkpt>
<trkpt lat="31.0348400" lon="35.2921200">
<ele>120.320007</ele>
<time>2022-12-14T12:44:25.067Z</time>
</trkpt>
<trkpt lat="31.0348600" lon="35.2921800">
<ele>119.599998</ele>
<time>2022-12-14T12:44:25.067Z</time>
</trkpt>
<trkpt lat="31.0348300" lon="35.2922300">
<ele>118.779999</ele>
<time>2022-12-14T12:44:25.067Z</time>
</trkpt>
<trkpt lat="31.0347700" lon="35.2922900">
<ele>118.340004</ele>
<time>2022-12-14T12:44:25.067Z</time>
</trkpt>
<trkpt lat="31.0346800" lon="35.2923800">
<ele>117.540001</ele>
<time>2022-12-14T12:44:25.067Z</time>
</trkpt>
<trkpt lat="31.0346400" lon="35.2924100">
<ele>117.109993</ele>
<time>2022-12-14T12:44:25.067Z</time>
</trkpt>
<trkpt lat="31.0345900" lon="35.2924400">
<ele>116.570000</ele>
<time>2022-12-14T12:44:25.067Z</time>
</trkpt>
<trkpt lat="31.0345000" lon="35.2924900">
<ele>115.600006</ele>
<time>2022-12-14T12:44:25.067Z</time>
</trkpt>
<trkpt lat="31.0344500" lon="35.2925200">
<ele>115.129997</ele>
<time>2022-12-14T12:44:25.067Z</time>
</trkpt>
<trkpt lat="31.0344100" lon="35.2925500">
<ele>114.659996</ele>
<time>2022-12-14T12:44:25.067Z</time>
</trkpt>
<trkpt lat="31.0343800" lon="35.2925900">
<ele>114.320000</ele>
<time>2022-12-14T12:44:25.067Z</time>
</trkpt>
<trkpt lat="31.0342800" lon="35.2927200">
<ele>112.959999</ele>
<time>2022-12-14T12:44:25.067Z</time>
</trkpt>
<trkpt lat="31.0342400" lon="35.2927700">
<ele>112.309998</ele>
<time>2022-12-14T12:44:25.067Z</time>
</trkpt>
<trkpt lat="31.0341800" lon="35.2929100">
<ele>112.669998</ele>
<time>2022-12-14T12:44:25.067Z</time>
</trkpt>
<trkpt lat="31.0341600" lon="35.2929600">
<ele>112.809998</ele>
<time>2022-12-14T12:44:25.067Z</time>
</trkpt>
<trkpt lat="31.0341300" lon="35.2930300">
<ele>112.809998</ele>
<time>2022-12-14T12:44:25.067Z</time>
</trkpt>
<trkpt lat="31.0341100" lon="35.2931000">
<ele>112.919998</ele>
<time>2022-12-14T12:44:25.067Z</time>
</trkpt>
<trkpt lat="31.0341000" lon="35.2931800">
<ele>113.320007</ele>
<time>2022-12-14T12:44:25.067Z</time>
</trkpt>
<trkpt lat="31.0340800" lon="35.2932800">
<ele>113.680000</ele>
<time>2022-12-14T12:44:25.067Z</time>
</trkpt>
<trkpt lat="31.0340700" lon="35.2933500">
<ele>113.869995</ele>
<time>2022-12-14T12:44:25.067Z</time>
</trkpt>
<trkpt lat="31.0340400" lon="35.2934300">
<ele>113.070000</ele>
<time>2022-12-14T12:44:25.067Z</time>
</trkpt>
<trkpt lat="31.0340200" lon="35.2934600">
<ele>112.620003</ele>
<time>2022-12-14T12:44:25.067Z</time>
</trkpt>
<trkpt lat="31.0339000" lon="35.2936200">
<ele>110.139999</ele>
<time>2022-12-14T12:44:25.067Z</time>
</trkpt>
<trkpt lat="31.0337800" lon="35.2937400">
<ele>105.669998</ele>
<time>2022-12-14T12:44:25.067Z</time>
</trkpt>
<trkpt lat="31.0337000" lon="35.2938100">
<ele>103.519997</ele>
<time>2022-12-14T12:44:25.067Z</time>
</trkpt>
<trkpt lat="31.0335900" lon="35.2939000">
<ele>101.699997</ele>
<time>2022-12-14T12:44:25.067Z</time>
</trkpt>
<trkpt lat="31.0334800" lon="35.2939800">
<ele>100.110001</ele>
<time>2022-12-14T12:44:25.067Z</time>
</trkpt>
<trkpt lat="31.0334500" lon="35.2940100">
<ele>99.680000</ele>
<time>2022-12-14T12:44:25.067Z</time>
</trkpt>
<trkpt lat="31.0334200" lon="35.2940400">
<ele>99.250000</ele>
<time>2022-12-14T12:44:25.067Z</time>
</trkpt>
<trkpt lat="31.0333300" lon="35.2941100">
<ele>97.950005</ele>
<time>2022-12-14T12:44:25.067Z</time>
</trkpt>
<trkpt lat="31.0333100" lon="35.2941400">
<ele>97.669998</ele>
<time>2022-12-14T12:44:25.067Z</time>
</trkpt>
<trkpt lat="31.0332200" lon="35.2942200">
<ele>96.320000</ele>
<time>2022-12-14T12:44:25.067Z</time>
</trkpt>
<trkpt lat="31.0331800" lon="35.2942500">
<ele>95.599998</ele>
<time>2022-12-14T12:44:25.067Z</time>
</trkpt>
<trkpt lat="31.0331500" lon="35.2942900">
<ele>94.919998</ele>
<time>2022-12-14T12:44:25.067Z</time>
</trkpt>
<trkpt lat="31.0331300" lon="35.2943200">
<ele>94.409996</ele>
<time>2022-12-14T12:44:25.067Z</time>
</trkpt>
<trkpt lat="31.0330200" lon="35.2945300">
<ele>91.400002</ele>
<time>2022-12-14T12:44:25.067Z</time>
</trkpt>
<trkpt lat="31.0329900" lon="35.2945700">
<ele>90.970001</ele>
<time>2022-12-14T12:44:25.067Z</time>
</trkpt>
<trkpt lat="31.0329700" lon="35.2946200">
<ele>90.559998</ele>
<time>2022-12-14T12:44:25.067Z</time>
</trkpt>
<trkpt lat="31.0329300" lon="35.2947100">
<ele>89.710007</ele>
<time>2022-12-14T12:44:25.067Z</time>
</trkpt>
<trkpt lat="31.0329200" lon="35.2947500">
<ele>89.279999</ele>
<time>2022-12-14T12:44:25.067Z</time>
</trkpt>
<trkpt lat="31.0329100" lon="35.2948000">
<ele>88.729996</ele>
<time>2022-12-14T12:44:25.067Z</time>
</trkpt>
<trkpt lat="31.0328900" lon="35.2948900">
<ele>87.760002</ele>
<time>2022-12-14T12:44:25.067Z</time>
</trkpt>
<trkpt lat="31.0328800" lon="35.2949700">
<ele>86.990005</ele>
<time>2022-12-14T12:44:25.067Z</time>
</trkpt>
<trkpt lat="31.0328700" lon="35.2950000">
<ele>86.660004</ele>
<time>2022-12-14T12:44:25.067Z</time>
</trkpt>
<trkpt lat="31.0328600" lon="35.2950300">
<ele>86.469994</ele>
<time>2022-12-14T12:44:25.067Z</time>
</trkpt>
<trkpt lat="31.0328400" lon="35.2950500">
<ele>86.210007</ele>
<time>2022-12-14T12:44:25.067Z</time>
</trkpt>
<trkpt lat="31.0328200" lon="35.2950800">
<ele>85.859993</ele>
<time>2022-12-14T12:44:25.067Z</time>
</trkpt>
<trkpt lat="31.0328000" lon="35.2951400">
<ele>85.270004</ele>
<time>2022-12-14T12:44:25.067Z</time>
</trkpt>
<trkpt lat="31.0328000" lon="35.2952100">
<ele>84.830002</ele>
<time>2022-12-14T12:44:25.067Z</time>
</trkpt>
<trkpt lat="31.0328000" lon="35.2952500">
<ele>84.580002</ele>
<time>2022-12-14T12:44:25.067Z</time>
</trkpt>
<trkpt lat="31.0328000" lon="35.2952900">
<ele>84.360001</ele>
<time>2022-12-14T12:44:25.067Z</time>
</trkpt>
<trkpt lat="31.0327800" lon="35.2953700">
<ele>83.709999</ele>
<time>2022-12-14T12:44:25.067Z</time>
</trkpt>
<trkpt lat="31.0327600" lon="35.2954100">
<ele>83.519997</ele>
<time>2022-12-14T12:44:25.067Z</time>
</trkpt>
<trkpt lat="31.0327400" lon="35.2954700">
<ele>83.310005</ele>
<time>2022-12-14T12:44:25.067Z</time>
</trkpt>
<trkpt lat="31.0327100" lon="35.2955800">
<ele>82.889999</ele>
<time>2022-12-14T12:44:25.067Z</time>
</trkpt>
<trkpt lat="31.0326900" lon="35.2956300">
<ele>82.649994</ele>
<time>2022-12-14T12:44:25.067Z</time>
</trkpt>
<trkpt lat="31.0326800" lon="35.2956800">
<ele>82.390007</ele>
<time>2022-12-14T12:44:25.067Z</time>
</trkpt>
<trkpt lat="31.0326600" lon="35.2957300">
<ele>82.110001</ele>
<time>2022-12-14T12:44:25.067Z</time>
</trkpt>
<trkpt lat="31.0326400" lon="35.2958400">
<ele>81.490005</ele>
<time>2022-12-14T12:44:25.067Z</time>
</trkpt>
<trkpt lat="31.0326200" lon="35.2959500">
<ele>81.310005</ele>
<time>2022-12-14T12:44:25.067Z</time>
</trkpt>
<trkpt lat="31.0326000" lon="35.2960100">
<ele>81.310005</ele>
<time>2022-12-14T12:44:25.067Z</time>
</trkpt>
<trkpt lat="31.0325600" lon="35.2961000">
<ele>81.549995</ele>
<time>2022-12-14T12:44:25.067Z</time>
</trkpt>
<trkpt lat="31.0324800" lon="35.2962300">
<ele>82.580002</ele>
<time>2022-12-14T12:44:25.067Z</time>
</trkpt>
<trkpt lat="31.0324500" lon="35.2962600">
<ele>82.880005</ele>
<time>2022-12-14T12:44:25.067Z</time>
</trkpt>
<trkpt lat="31.0323600" lon="35.2963200">
<ele>83.510002</ele>
<time>2022-12-14T12:44:25.067Z</time>
</trkpt>
<trkpt lat="31.0323000" lon="35.2963400">
<ele>83.800003</ele>
<time>2022-12-14T12:44:25.067Z</time>
</trkpt>
<trkpt lat="31.0321900" lon="35.2963900">
<ele>83.639999</ele>
<time>2022-12-14T12:44:25.067Z</time>
</trkpt>
<trkpt lat="31.0321000" lon="35.2964700">
<ele>82.059998</ele>
<time>2022-12-14T12:44:25.067Z</time>
</trkpt>
<trkpt lat="31.0320200" lon="35.2965700">
<ele>80.809998</ele>
<time>2022-12-14T12:44:25.067Z</time>
</trkpt>
<trkpt lat="31.0319900" lon="35.2966200">
<ele>80.389992</ele>
<time>2022-12-14T12:44:25.067Z</time>
</trkpt>
<trkpt lat="31.0319400" lon="35.2967100">
<ele>79.609993</ele>
<time>2022-12-14T12:44:25.067Z</time>
</trkpt>
<trkpt lat="31.0318700" lon="35.2968500">
<ele>77.519997</ele>
<time>2022-12-14T12:44:25.067Z</time>
</trkpt>
<trkpt lat="31.0317000" lon="35.2970100">
<ele>74.239998</ele>
<time>2022-12-14T12:44:25.067Z</time>
</trkpt>
<trkpt lat="31.0315300" lon="35.2971100">
<ele>72.330002</ele>
<time>2022-12-14T12:44:25.067Z</time>
</trkpt>
<trkpt lat="31.0314300" lon="35.2971600">
<ele>71.049995</ele>
<time>2022-12-14T12:44:25.067Z</time>
</trkpt>
<trkpt lat="31.0313800" lon="35.2971900">
<ele>70.310005</ele>
<time>2022-12-14T12:44:25.067Z</time>
</trkpt>
<trkpt lat="31.0313300" lon="35.2972200">
<ele>69.809998</ele>
<time>2022-12-14T12:44:25.067Z</time>
</trkpt>
<trkpt lat="31.0312700" lon="35.2972800">
<ele>69.449997</ele>
<time>2022-12-14T12:44:25.067Z</time>
</trkpt>
<trkpt lat="31.0312100" lon="35.2973200">
<ele>69.230003</ele>
<time>2022-12-14T12:44:25.067Z</time>
</trkpt>
<trkpt lat="31.0311600" lon="35.2973400">
<ele>69.099998</ele>
<time>2022-12-14T12:44:25.067Z</time>
</trkpt>
<trkpt lat="31.0311100" lon="35.2973600">
<ele>69.000000</ele>
<time>2022-12-14T12:44:25.067Z</time>
</trkpt>
<trkpt lat="31.0309800" lon="35.2974000">
<ele>69.470001</ele>
<time>2022-12-14T12:44:25.067Z</time>
</trkpt>
<trkpt lat="31.0309100" lon="35.2974400">
<ele>69.720001</ele>
<time>2022-12-14T12:44:25.067Z</time>
</trkpt>
<trkpt lat="31.0308500" lon="35.2974700">
<ele>69.940002</ele>
<time>2022-12-14T12:44:25.067Z</time>
</trkpt>
<trkpt lat="31.0307100" lon="35.2975300">
<ele>71.279999</ele>
<time>2022-12-14T12:44:25.067Z</time>
</trkpt>
<trkpt lat="31.0305000" lon="35.2976200">
<ele>72.599998</ele>
<time>2022-12-14T12:44:25.067Z</time>
</trkpt>
<trkpt lat="31.0302600" lon="35.2977300">
<ele>71.550003</ele>
<time>2022-12-14T12:44:25.067Z</time>
</trkpt>
<trkpt lat="31.0300800" lon="35.2978400">
<ele>70.519997</ele>
<time>2022-12-14T12:44:25.067Z</time>
</trkpt>
<trkpt lat="31.0299600" lon="35.2978600">
<ele>70.500000</ele>
<time>2022-12-14T12:44:25.067Z</time>
</trkpt>
<trkpt lat="31.0299400" lon="35.2978800">
<ele>70.459999</ele>
<time>2022-12-14T12:44:25.067Z</time>
</trkpt>
<trkpt lat="31.0298700" lon="35.2980100">
<ele>69.500000</ele>
<time>2022-12-14T12:44:25.067Z</time>
</trkpt>
<trkpt lat="31.0298000" lon="35.2980700">
<ele>69.430000</ele>
<time>2022-12-14T12:44:25.067Z</time>
</trkpt>
<trkpt lat="31.0297400" lon="35.2981300">
<ele>69.849998</ele>
<time>2022-12-14T12:44:25.067Z</time>
</trkpt>
<trkpt lat="31.0295600" lon="35.2983000">
<ele>74.019997</ele>
<time>2022-12-14T12:44:25.067Z</time>
</trkpt>
<trkpt lat="31.0294100" lon="35.2983900">
<ele>77.299995</ele>
<time>2022-12-14T12:44:25.067Z</time>
</trkpt>
<trkpt lat="31.0293600" lon="35.2984100">
<ele>77.500000</ele>
<time>2022-12-14T12:44:25.067Z</time>
</trkpt>
<trkpt lat="31.0292100" lon="35.2984900">
<ele>77.930000</ele>
<time>2022-12-14T12:44:25.067Z</time>
</trkpt>
<trkpt lat="31.0291800" lon="35.2985000">
<ele>77.979996</ele>
<time>2022-12-14T12:44:25.067Z</time>
</trkpt>
<trkpt lat="31.0291000" lon="35.2985300">
<ele>78.239998</ele>
<time>2022-12-14T12:44:25.067Z</time>
</trkpt>
<trkpt lat="31.0290500" lon="35.2985800">
<ele>78.420006</ele>
<time>2022-12-14T12:44:25.067Z</time>
</trkpt>
<trkpt lat="31.0289100" lon="35.2987200">
<ele>76.989998</ele>
<time>2022-12-14T12:44:25.067Z</time>
</trkpt>
<trkpt lat="31.0287700" lon="35.2989100">
<ele>76.800003</ele>
<time>2022-12-14T12:44:25.067Z</time>
</trkpt>
<trkpt lat="31.0287500" lon="35.2989300">
<ele>77.129997</ele>
<time>2022-12-14T12:44:25.067Z</time>
</trkpt>
<trkpt lat="31.0286800" lon="35.2990800">
<ele>77.720001</ele>
<time>2022-12-14T12:44:25.067Z</time>
</trkpt>
<trkpt lat="31.0286800" lon="35.2991100">
<ele>77.470001</ele>
<time>2022-12-14T12:44:25.067Z</time>
</trkpt>
<trkpt lat="31.0286300" lon="35.2992100">
<ele>77.720001</ele>
<time>2022-12-14T12:44:25.067Z</time>
</trkpt>
<trkpt lat="31.0284800" lon="35.2993500">
<ele>78.989998</ele>
<time>2022-12-14T12:44:25.067Z</time>
</trkpt>
<trkpt lat="31.0283500" lon="35.2994200">
<ele>81.709999</ele>
<time>2022-12-14T12:44:25.067Z</time>
</trkpt>
<trkpt lat="31.0282000" lon="35.2993600">
<ele>82.570000</ele>
<time>2022-12-14T12:44:25.067Z</time>
</trkpt>
<trkpt lat="31.0281500" lon="35.2993700">
<ele>82.410004</ele>
<time>2022-12-14T12:44:25.067Z</time>
</trkpt>
<trkpt lat="31.0280900" lon="35.2994100">
<ele>81.699997</ele>
<time>2022-12-14T12:44:25.067Z</time>
</trkpt>
<trkpt lat="31.0280600" lon="35.2994300">
<ele>81.269997</ele>
<time>2022-12-14T12:44:25.067Z</time>
</trkpt>
<trkpt lat="31.0278700" lon="35.2995300">
<ele>78.529999</ele>
<time>2022-12-14T12:44:25.067Z</time>
</trkpt>
<trkpt lat="31.0277700" lon="35.2995700">
<ele>77.120003</ele>
<time>2022-12-14T12:44:25.067Z</time>
</trkpt>
<trkpt lat="31.0275200" lon="35.2996400">
<ele>74.430000</ele>
<time>2022-12-14T12:44:25.067Z</time>
</trkpt>
<trkpt lat="31.0272800" lon="35.2996400">
<ele>73.040001</ele>
<time>2022-12-14T12:44:25.067Z</time>
</trkpt>
<trkpt lat="31.0271400" lon="35.2995400">
<ele>72.060005</ele>
<time>2022-12-14T12:44:25.067Z</time>
</trkpt>
<trkpt lat="31.0271100" lon="35.2995300">
<ele>71.870003</ele>
<time>2022-12-14T12:44:25.067Z</time>
</trkpt>
<trkpt lat="31.0269900" lon="35.2995600">
<ele>71.790001</ele>
<time>2022-12-14T12:44:25.067Z</time>
</trkpt>
<trkpt lat="31.0269600" lon="35.2995800">
<ele>71.980003</ele>
<time>2022-12-14T12:44:25.067Z</time>
</trkpt>
<trkpt lat="31.0268500" lon="35.2997400">
<ele>73.169998</ele>
<time>2022-12-14T12:44:25.067Z</time>
</trkpt>
<trkpt lat="31.0266600" lon="35.3000300">
<ele>74.459999</ele>
<time>2022-12-14T12:44:25.067Z</time>
</trkpt>
<trkpt lat="31.0265000" lon="35.3002800">
<ele>76.020004</ele>
<time>2022-12-14T12:44:25.067Z</time>
</trkpt>
<trkpt lat="31.0264100" lon="35.3004000">
<ele>75.260002</ele>
<time>2022-12-14T12:44:25.067Z</time>
</trkpt>
<trkpt lat="31.0262300" lon="35.3005600">
<ele>74.870003</ele>
<time>2022-12-14T12:44:25.067Z</time>
</trkpt>
<trkpt lat="31.0262000" lon="35.3005800">
<ele>74.660004</ele>
<time>2022-12-14T12:44:25.067Z</time>
</trkpt>
<trkpt lat="31.0260400" lon="35.3006600">
<ele>72.339996</ele>
<time>2022-12-14T12:44:25.067Z</time>
</trkpt>
<trkpt lat="31.0258800" lon="35.3007700">
<ele>69.070000</ele>
<time>2022-12-14T12:44:25.067Z</time>
</trkpt>
<trkpt lat="31.0258500" lon="35.3008100">
<ele>68.379997</ele>
<time>2022-12-14T12:44:25.067Z</time>
</trkpt>
<trkpt lat="31.0257000" lon="35.3009500">
<ele>65.239998</ele>
<time>2022-12-14T12:44:25.067Z</time>
</trkpt>
<trkpt lat="31.0254900" lon="35.3010600">
<ele>62.879997</ele>
<time>2022-12-14T12:44:25.067Z</time>
</trkpt>
<trkpt lat="31.0252700" lon="35.3011800">
<ele>64.279999</ele>
<time>2022-12-14T12:44:25.067Z</time>
</trkpt>
<trkpt lat="31.0252200" lon="35.3012100">
<ele>64.550003</ele>
<time>2022-12-14T12:44:25.067Z</time>
</trkpt>
<trkpt lat="31.0249700" lon="35.3013400">
<ele>64.529999</ele>
<time>2022-12-14T12:44:25.067Z</time>
</trkpt>
<trkpt lat="31.0248200" lon="35.3013900">
<ele>65.300003</ele>
<time>2022-12-14T12:44:25.067Z</time>
</trkpt>
<trkpt lat="31.0247700" lon="35.3014000">
<ele>65.699997</ele>
<time>2022-12-14T12:44:25.067Z</time>
</trkpt>
<trkpt lat="31.0246700" lon="35.3014000">
<ele>66.389999</ele>
<time>2022-12-14T12:44:25.067Z</time>
</trkpt>
<trkpt lat="31.0245200" lon="35.3014100">
<ele>67.370003</ele>
<time>2022-12-14T12:44:25.067Z</time>
</trkpt>
<trkpt lat="31.0244400" lon="35.3014600">
<ele>67.440002</ele>
<time>2022-12-14T12:44:25.067Z</time>
</trkpt>
<trkpt lat="31.0244000" lon="35.3015100">
<ele>66.720001</ele>
<time>2022-12-14T12:44:25.067Z</time>
</trkpt>
<trkpt lat="31.0243700" lon="35.3015500">
<ele>66.190002</ele>
<time>2022-12-14T12:44:25.067Z</time>
</trkpt>
<trkpt lat="31.0242800" lon="35.3017100">
<ele>64.570000</ele>
<time>2022-12-14T12:44:25.067Z</time>
</trkpt>
<trkpt lat="31.0242400" lon="35.3017600">
<ele>63.939999</ele>
<time>2022-12-14T12:44:25.067Z</time>
</trkpt>
<trkpt lat="31.0242100" lon="35.3018000">
<ele>63.429996</ele>
<time>2022-12-14T12:44:25.067Z</time>
</trkpt>
<trkpt lat="31.0241600" lon="35.3018900">
<ele>62.270000</ele>
<time>2022-12-14T12:44:25.067Z</time>
</trkpt>
<trkpt lat="31.0241300" lon="35.3019300">
<ele>61.439999</ele>
<time>2022-12-14T12:44:25.067Z</time>
</trkpt>
<trkpt lat="31.0241000" lon="35.3019700">
<ele>60.550003</ele>
<time>2022-12-14T12:44:25.067Z</time>
</trkpt>
<trkpt lat="31.0240200" lon="35.3020300">
<ele>58.599998</ele>
<time>2022-12-14T12:44:25.067Z</time>
</trkpt>
<trkpt lat="31.0239300" lon="35.3021000">
<ele>56.540001</ele>
<time>2022-12-14T12:44:25.067Z</time>
</trkpt>
<trkpt lat="31.0239000" lon="35.3021500">
<ele>55.690002</ele>
<time>2022-12-14T12:44:25.067Z</time>
</trkpt>
<trkpt lat="31.0238700" lon="35.3022100">
<ele>55.220001</ele>
<time>2022-12-14T12:44:25.067Z</time>
</trkpt>
<trkpt lat="31.0238500" lon="35.3023700">
<ele>54.439999</ele>
<time>2022-12-14T12:44:25.067Z</time>
</trkpt>
<trkpt lat="31.0238600" lon="35.3024600">
<ele>53.760002</ele>
<time>2022-12-14T12:44:25.067Z</time>
</trkpt>
<trkpt lat="31.0238700" lon="35.3025400">
<ele>53.490002</ele>
<time>2022-12-14T12:44:25.067Z</time>
</trkpt>
<trkpt lat="31.0238800" lon="35.3026200">
<ele>53.610001</ele>
<time>2022-12-14T12:44:25.067Z</time>
</trkpt>
<trkpt lat="31.0238800" lon="35.3027000">
<ele>53.899998</ele>
<time>2022-12-14T12:44:25.067Z</time>
</trkpt>
<trkpt lat="31.0238900" lon="35.3027600">
<ele>53.930000</ele>
<time>2022-12-14T12:44:25.067Z</time>
</trkpt>
<trkpt lat="31.0238800" lon="35.3030900">
<ele>51.680000</ele>
<time>2022-12-14T12:44:25.067Z</time>
</trkpt>
<trkpt lat="31.0238900" lon="35.3031600">
<ele>50.079998</ele>
<time>2022-12-14T12:44:25.067Z</time>
</trkpt>
<trkpt lat="31.0238900" lon="35.3032100">
<ele>49.179996</ele>
<time>2022-12-14T12:44:25.067Z</time>
</trkpt>
<trkpt lat="31.0238900" lon="35.3032700">
<ele>48.099998</ele>
<time>2022-12-14T12:44:25.067Z</time>
</trkpt>
<trkpt lat="31.0238700" lon="35.3034200">
<ele>46.189999</ele>
<time>2022-12-14T12:44:25.067Z</time>
</trkpt>
<trkpt lat="31.0238100" lon="35.3036200">
<ele>45.000004</ele>
<time>2022-12-14T12:44:25.067Z</time>
</trkpt>
<trkpt lat="31.0237700" lon="35.3037100">
<ele>45.279999</ele>
<time>2022-12-14T12:44:25.067Z</time>
</trkpt>
<trkpt lat="31.0237100" lon="35.3038600">
<ele>45.500000</ele>
<time>2022-12-14T12:44:25.067Z</time>
</trkpt>
<trkpt lat="31.0236600" lon="35.3040000">
<ele>47.389999</ele>
<time>2022-12-14T12:44:25.067Z</time>
</trkpt>
<trkpt lat="31.0236300" lon="35.3040900">
<ele>48.930000</ele>
<time>2022-12-14T12:44:25.067Z</time>
</trkpt>
<trkpt lat="31.0236300" lon="35.3041400">
<ele>49.090000</ele>
<time>2022-12-14T12:44:25.067Z</time>
</trkpt>
<trkpt lat="31.0236200" lon="35.3041900">
<ele>50.030003</ele>
<time>2022-12-14T12:44:25.067Z</time>
</trkpt>
<trkpt lat="31.0236400" lon="35.3043300">
<ele>51.509998</ele>
<time>2022-12-14T12:44:25.067Z</time>
</trkpt>
<trkpt lat="31.0236500" lon="35.3044200">
<ele>52.500000</ele>
<time>2022-12-14T12:44:25.067Z</time>
</trkpt>
<trkpt lat="31.0236800" lon="35.3045900">
<ele>51.669998</ele>
<time>2022-12-14T12:44:25.067Z</time>
</trkpt>
<trkpt lat="31.0236800" lon="35.3046200">
<ele>51.750000</ele>
<time>2022-12-14T12:44:25.067Z</time>
</trkpt>
<trkpt lat="31.0236600" lon="35.3047800">
<ele>53.209999</ele>
<time>2022-12-14T12:44:25.067Z</time>
</trkpt>
<trkpt lat="31.0236400" lon="35.3048100">
<ele>54.170002</ele>
<time>2022-12-14T12:44:25.067Z</time>
</trkpt>
<trkpt lat="31.0235000" lon="35.3050200">
<ele>58.730000</ele>
<time>2022-12-14T12:44:25.067Z</time>
</trkpt>
<trkpt lat="31.0234800" lon="35.3050500">
<ele>59.650002</ele>
<time>2022-12-14T12:44:25.067Z</time>
</trkpt>
<trkpt lat="31.0233800" lon="35.3052600">
<ele>64.889999</ele>
<time>2022-12-14T12:44:25.067Z</time>
</trkpt>
<trkpt lat="31.0234000" lon="35.3054100">
<ele>67.290001</ele>
<time>2022-12-14T12:44:25.067Z</time>
</trkpt>
<trkpt lat="31.0234400" lon="35.3054800">
<ele>68.000000</ele>
<time>2022-12-14T12:44:25.067Z</time>
</trkpt>
<trkpt lat="31.0235100" lon="35.3055500">
<ele>68.340004</ele>
<time>2022-12-14T12:44:25.067Z</time>
</trkpt>
<trkpt lat="31.0235500" lon="35.3056100">
<ele>68.029999</ele>
<time>2022-12-14T12:44:25.067Z</time>
</trkpt>
<trkpt lat="31.0235600" lon="35.3056400">
<ele>67.979996</ele>
<time>2022-12-14T12:44:25.067Z</time>
</trkpt>
<trkpt lat="31.0235700" lon="35.3056600">
<ele>67.909996</ele>
<time>2022-12-14T12:44:25.067Z</time>
</trkpt>
<trkpt lat="31.0235200" lon="35.3057100">
<ele>68.689995</ele>
<time>2022-12-14T12:44:25.067Z</time>
</trkpt>
<trkpt lat="31.0234600" lon="35.3058500">
<ele>69.419998</ele>
<time>2022-12-14T12:44:25.067Z</time>
</trkpt>
<trkpt lat="31.0234400" lon="35.3060000">
<ele>67.820000</ele>
<time>2022-12-14T12:44:25.067Z</time>
</trkpt>
<trkpt lat="31.0234200" lon="35.3060400">
<ele>67.599998</ele>
<time>2022-12-14T12:44:25.067Z</time>
</trkpt>
<trkpt lat="31.0234100" lon="35.3060600">
<ele>67.500000</ele>
<time>2022-12-14T12:44:25.067Z</time>
</trkpt>
<trkpt lat="31.0233600" lon="35.3061400">
<ele>67.279999</ele>
<time>2022-12-14T12:44:25.067Z</time>
</trkpt>
<trkpt lat="31.0233100" lon="35.3063100">
<ele>65.620003</ele>
<time>2022-12-14T12:44:25.067Z</time>
</trkpt>
<trkpt lat="31.0233200" lon="35.3063400">
<ele>65.389999</ele>
<time>2022-12-14T12:44:25.067Z</time>
</trkpt>
<trkpt lat="31.0233400" lon="35.3063800">
<ele>64.949997</ele>
<time>2022-12-14T12:44:25.067Z</time>
</trkpt>
<trkpt lat="31.0233400" lon="35.3064000">
<ele>64.820000</ele>
<time>2022-12-14T12:44:25.067Z</time>
</trkpt>
<trkpt lat="31.0233600" lon="35.3064400">
<ele>64.260002</ele>
<time>2022-12-14T12:44:25.067Z</time>
</trkpt>
<trkpt lat="31.0233800" lon="35.3065000">
<ele>63.660000</ele>
<time>2022-12-14T12:44:25.067Z</time>
</trkpt>
<trkpt lat="31.0233900" lon="35.3065200">
<ele>63.400002</ele>
<time>2022-12-14T12:44:25.067Z</time>
</trkpt>
<trkpt lat="31.0233900" lon="35.3065400">
<ele>63.340000</ele>
<time>2022-12-14T12:44:25.067Z</time>
</trkpt>
<trkpt lat="31.0233900" lon="35.3066100">
<ele>63.140003</ele>
<time>2022-12-14T12:44:25.067Z</time>
</trkpt>
<trkpt lat="31.0233900" lon="35.3066500">
<ele>63.029999</ele>
<time>2022-12-14T12:44:25.067Z</time>
</trkpt>
<trkpt lat="31.0233900" lon="35.3067300">
<ele>63.029999</ele>
<time>2022-12-14T12:44:25.067Z</time>
</trkpt>
<trkpt lat="31.0233900" lon="35.3067500">
<ele>63.039997</ele>
<time>2022-12-14T12:44:25.067Z</time>
</trkpt>
<trkpt lat="31.0233900" lon="35.3067800">
<ele>63.060001</ele>
<time>2022-12-14T12:44:25.067Z</time>
</trkpt>
<trkpt lat="31.0234000" lon="35.3068100">
<ele>62.920002</ele>
<time>2022-12-14T12:44:25.067Z</time>
</trkpt>
<trkpt lat="31.0234000" lon="35.3068600">
<ele>62.969997</ele>
<time>2022-12-14T12:44:25.067Z</time>
</trkpt>
<trkpt lat="31.0233800" lon="35.3069800">
<ele>63.480000</ele>
<time>2022-12-14T12:44:25.067Z</time>
</trkpt>
<trkpt lat="31.0233600" lon="35.3071300">
<ele>64.349998</ele>
<time>2022-12-14T12:44:25.067Z</time>
</trkpt>
<trkpt lat="31.0233500" lon="35.3072000">
<ele>64.740005</ele>
<time>2022-12-14T12:44:25.067Z</time>
</trkpt>
<trkpt lat="31.0233500" lon="35.3072000">
<ele>64.740005</ele>
<time>2022-12-14T12:44:25.067Z</time>
</trkpt>
<trkpt lat="31.0233500" lon="35.3072000">
<ele>64.740005</ele>
<time>2022-12-14T12:44:25.067Z</time>
</trkpt>
<trkpt lat="31.0233500" lon="35.3072000">
<ele>64.740005</ele>
<time>2022-12-14T12:44:25.067Z</time>
</trkpt>
<trkpt lat="31.0233500" lon="35.3072000">
<ele>64.740005</ele>
<time>2022-12-14T12:44:25.067Z</time>
</trkpt>
<trkpt lat="31.0233500" lon="35.3072000">
<ele>64.740005</ele>
<time>2022-12-14T12:44:25.067Z</time>
</trkpt>
<trkpt lat="31.0233500" lon="35.3072000">
<ele>64.740005</ele>
<time>2022-12-14T12:44:25.067Z</time>
</trkpt>
<trkpt lat="31.0233500" lon="35.3072000">
<ele>64.740005</ele>
<time>2022-12-14T12:44:25.067Z</time>
</trkpt>
<trkpt lat="31.0233500" lon="35.3072100">
<ele>64.769997</ele>
<time>2022-12-14T12:44:25.067Z</time>
</trkpt>
<trkpt lat="31.0233500" lon="35.3072200">
<ele>64.810005</ele>
<time>2022-12-14T12:44:25.067Z</time>
</trkpt>
<trkpt lat="31.0233400" lon="35.3073000">
<ele>65.200005</ele>
<time>2022-12-14T12:44:25.067Z</time>
</trkpt>
<trkpt lat="31.0233400" lon="35.3073500">
<ele>65.379997</ele>
<time>2022-12-14T12:44:25.067Z</time>
</trkpt>
<trkpt lat="31.0233600" lon="35.3073900">
<ele>65.259995</ele>
<time>2022-12-14T12:44:25.067Z</time>
</trkpt>
<trkpt lat="31.0233700" lon="35.3074600">
<ele>65.349998</ele>
<time>2022-12-14T12:44:25.067Z</time>
</trkpt>
<trkpt lat="31.0233700" lon="35.3075500">
<ele>65.449997</ele>
<time>2022-12-14T12:44:25.067Z</time>
</trkpt>
<trkpt lat="31.0233500" lon="35.3075900">
<ele>65.739998</ele>
<time>2022-12-14T12:44:25.067Z</time>
</trkpt>
<trkpt lat="31.0233300" lon="35.3076200">
<ele>65.930000</ele>
<time>2022-12-14T12:44:25.067Z</time>
</trkpt>
<trkpt lat="31.0233000" lon="35.3076500">
<ele>65.279999</ele>
<time>2022-12-14T12:44:25.067Z</time>
</trkpt>
<trkpt lat="31.0232700" lon="35.3076800">
<ele>64.629997</ele>
<time>2022-12-14T12:44:25.067Z</time>
</trkpt>
<trkpt lat="31.0231800" lon="35.3077500">
<ele>62.690002</ele>
<time>2022-12-14T12:44:25.067Z</time>
</trkpt>
<trkpt lat="31.0231300" lon="35.3077800">
<ele>61.590000</ele>
<time>2022-12-14T12:44:25.067Z</time>
</trkpt>
<trkpt lat="31.0230900" lon="35.3078000">
<ele>60.560001</ele>
<time>2022-12-14T12:44:25.067Z</time>
</trkpt>
<trkpt lat="31.0229800" lon="35.3077900">
<ele>57.740002</ele>
<time>2022-12-14T12:44:25.067Z</time>
</trkpt>
<trkpt lat="31.0228800" lon="35.3077500">
<ele>54.879997</ele>
<time>2022-12-14T12:44:25.067Z</time>
</trkpt>
<trkpt lat="31.0227800" lon="35.3076600">
<ele>51.640003</ele>
<time>2022-12-14T12:44:25.067Z</time>
</trkpt>
<trkpt lat="31.0226800" lon="35.3075500">
<ele>50.350002</ele>
<time>2022-12-14T12:44:25.067Z</time>
</trkpt>
<trkpt lat="31.0226400" lon="35.3074900">
<ele>49.939999</ele>
<time>2022-12-14T12:44:25.067Z</time>
</trkpt>
<trkpt lat="31.0225900" lon="35.3074300">
<ele>49.139999</ele>
<time>2022-12-14T12:44:25.067Z</time>
</trkpt>
<trkpt lat="31.0225500" lon="35.3073600">
<ele>48.350002</ele>
<time>2022-12-14T12:44:25.067Z</time>
</trkpt>
<trkpt lat="31.0225000" lon="35.3073000">
<ele>47.559998</ele>
<time>2022-12-14T12:44:25.067Z</time>
</trkpt>
<trkpt lat="31.0223500" lon="35.3071000">
<ele>45.540001</ele>
<time>2022-12-14T12:44:25.067Z</time>
</trkpt>
<trkpt lat="31.0222900" lon="35.3070400">
<ele>44.599998</ele>
<time>2022-12-14T12:44:25.067Z</time>
</trkpt>
<trkpt lat="31.0222300" lon="35.3070000">
<ele>43.669998</ele>
<time>2022-12-14T12:44:25.067Z</time>
</trkpt>
<trkpt lat="31.0220900" lon="35.3069300">
<ele>42.919998</ele>
<time>2022-12-14T12:44:25.067Z</time>
</trkpt>
<trkpt lat="31.0220200" lon="35.3069200">
<ele>42.849998</ele>
<time>2022-12-14T12:44:25.067Z</time>
</trkpt>
<trkpt lat="31.0219400" lon="35.3069100">
<ele>42.759998</ele>
<time>2022-12-14T12:44:25.067Z</time>
</trkpt>
<trkpt lat="31.0218100" lon="35.3068700">
<ele>42.849998</ele>
<time>2022-12-14T12:44:25.067Z</time>
</trkpt>
<trkpt lat="31.0217500" lon="35.3068500">
<ele>43.030003</ele>
<time>2022-12-14T12:44:25.067Z</time>
</trkpt>
<trkpt lat="31.0216800" lon="35.3068300">
<ele>43.350002</ele>
<time>2022-12-14T12:44:25.067Z</time>
</trkpt>
<trkpt lat="31.0215600" lon="35.3067900">
<ele>42.740002</ele>
<time>2022-12-14T12:44:25.067Z</time>
</trkpt>
<trkpt lat="31.0213600" lon="35.3067300">
<ele>40.869999</ele>
<time>2022-12-14T12:44:25.067Z</time>
</trkpt>
<trkpt lat="31.0211900" lon="35.3066500">
<ele>38.910000</ele>
<time>2022-12-14T12:44:25.067Z</time>
</trkpt>
<trkpt lat="31.0211500" lon="35.3066200">
<ele>38.590000</ele>
<time>2022-12-14T12:44:25.067Z</time>
</trkpt>
<trkpt lat="31.0210000" lon="35.3065200">
<ele>39.119999</ele>
<time>2022-12-14T12:44:25.067Z</time>
</trkpt>
<trkpt lat="31.0209400" lon="35.3065000">
<ele>39.459999</ele>
<time>2022-12-14T12:44:25.067Z</time>
</trkpt>
<trkpt lat="31.0209100" lon="35.3065000">
<ele>39.610001</ele>
<time>2022-12-14T12:44:25.067Z</time>
</trkpt>
<trkpt lat="31.0207600" lon="35.3065200">
<ele>40.280003</ele>
<time>2022-12-14T12:44:25.067Z</time>
</trkpt>
<trkpt lat="31.0206100" lon="35.3065200">
<ele>40.849998</ele>
<time>2022-12-14T12:44:25.067Z</time>
</trkpt>
<trkpt lat="31.0205600" lon="35.3065100">
<ele>41.110001</ele>
<time>2022-12-14T12:44:25.067Z</time>
</trkpt>
<trkpt lat="31.0205100" lon="35.3065000">
<ele>40.939999</ele>
<time>2022-12-14T12:44:25.067Z</time>
</trkpt>
<trkpt lat="31.0203400" lon="35.3063500">
<ele>40.869999</ele>
<time>2022-12-14T12:44:25.067Z</time>
</trkpt>
<trkpt lat="31.0203000" lon="35.3063100">
<ele>41.009998</ele>
<time>2022-12-14T12:44:25.067Z</time>
</trkpt>
<trkpt lat="31.0200900" lon="35.3061500">
<ele>40.549999</ele>
<time>2022-12-14T12:44:25.067Z</time>
</trkpt>
<trkpt lat="31.0200000" lon="35.3060500">
<ele>41.759998</ele>
<time>2022-12-14T12:44:25.067Z</time>
</trkpt>
<trkpt lat="31.0199200" lon="35.3059500">
<ele>43.780003</ele>
<time>2022-12-14T12:44:25.067Z</time>
</trkpt>
<trkpt lat="31.0198900" lon="35.3059200">
<ele>44.320004</ele>
<time>2022-12-14T12:44:25.067Z</time>
</trkpt>
<trkpt lat="31.0197300" lon="35.3058400">
<ele>44.889999</ele>
<time>2022-12-14T12:44:25.067Z</time>
</trkpt>
<trkpt lat="31.0196300" lon="35.3058200">
<ele>44.739998</ele>
<time>2022-12-14T12:44:25.067Z</time>
</trkpt>
<trkpt lat="31.0195400" lon="35.3057700">
<ele>45.439999</ele>
<time>2022-12-14T12:44:25.067Z</time>
</trkpt>
<trkpt lat="31.0194600" lon="35.3057100">
<ele>46.270000</ele>
<time>2022-12-14T12:44:25.067Z</time>
</trkpt>
<trkpt lat="31.0193700" lon="35.3056700">
<ele>46.199997</ele>
<time>2022-12-14T12:44:25.067Z</time>
</trkpt>
<trkpt lat="31.0192100" lon="35.3056700">
<ele>44.240002</ele>
<time>2022-12-14T12:44:25.067Z</time>
</trkpt>
<trkpt lat="31.0189900" lon="35.3056200">
<ele>44.459999</ele>
<time>2022-12-14T12:44:25.067Z</time>
</trkpt>
<trkpt lat="31.0187400" lon="35.3055200">
<ele>43.239998</ele>
<time>2022-12-14T12:44:25.067Z</time>
</trkpt>
<trkpt lat="31.0186900" lon="35.3055000">
<ele>42.740002</ele>
<time>2022-12-14T12:44:25.067Z</time>
</trkpt>
<trkpt lat="31.0185500" lon="35.3054400">
<ele>41.720001</ele>
<time>2022-12-14T12:44:25.067Z</time>
</trkpt>
<trkpt lat="31.0184400" lon="35.3053900">
<ele>41.190002</ele>
<time>2022-12-14T12:44:25.067Z</time>
</trkpt>
<trkpt lat="31.0183800" lon="35.3053600">
<ele>40.860001</ele>
<time>2022-12-14T12:44:25.067Z</time>
</trkpt>
<trkpt lat="31.0183100" lon="35.3053200">
<ele>40.470001</ele>
<time>2022-12-14T12:44:25.067Z</time>
</trkpt>
<trkpt lat="31.0182500" lon="35.3052800">
<ele>40.090000</ele>
<time>2022-12-14T12:44:25.067Z</time>
</trkpt>
<trkpt lat="31.0181800" lon="35.3052600">
<ele>39.470001</ele>
<time>2022-12-14T12:44:25.067Z</time>
</trkpt>
<trkpt lat="31.0180400" lon="35.3052200">
<ele>38.049999</ele>
<time>2022-12-14T12:44:25.067Z</time>
</trkpt>
<trkpt lat="31.0179100" lon="35.3052000">
<ele>36.849998</ele>
<time>2022-12-14T12:44:25.067Z</time>
</trkpt>
<trkpt lat="31.0176600" lon="35.3051100">
<ele>35.270000</ele>
<time>2022-12-14T12:44:25.067Z</time>
</trkpt>
<trkpt lat="31.0174200" lon="35.3050300">
<ele>34.799999</ele>
<time>2022-12-14T12:44:25.067Z</time>
</trkpt>
<trkpt lat="31.0173200" lon="35.3049800">
<ele>35.990002</ele>
<time>2022-12-14T12:44:25.067Z</time>
</trkpt>
<trkpt lat="31.0172800" lon="35.3049500">
<ele>36.450001</ele>
<time>2022-12-14T12:44:25.067Z</time>
</trkpt>
<trkpt lat="31.0170600" lon="35.3047600">
<ele>35.250000</ele>
<time>2022-12-14T12:44:25.067Z</time>
</trkpt>
<trkpt lat="31.0169500" lon="35.3046700">
<ele>34.060001</ele>
<time>2022-12-14T12:44:25.067Z</time>
</trkpt>
<trkpt lat="31.0167800" lon="35.3045200">
<ele>32.820000</ele>
<time>2022-12-14T12:44:25.067Z</time>
</trkpt>
<trkpt lat="31.0166800" lon="35.3044700">
<ele>32.100002</ele>
<time>2022-12-14T12:44:25.067Z</time>
</trkpt>
<trkpt lat="31.0165500" lon="35.3044100">
<ele>31.950001</ele>
<time>2022-12-14T12:44:25.067Z</time>
</trkpt>
<trkpt lat="31.0162700" lon="35.3042500">
<ele>32.420002</ele>
<time>2022-12-14T12:44:25.067Z</time>
</trkpt>
<trkpt lat="31.0161300" lon="35.3041600">
<ele>33.139999</ele>
<time>2022-12-14T12:44:25.067Z</time>
</trkpt>
<trkpt lat="31.0160100" lon="35.3041100">
<ele>33.029999</ele>
<time>2022-12-14T12:44:25.067Z</time>
</trkpt>
<trkpt lat="31.0159500" lon="35.3040900">
<ele>32.990002</ele>
<time>2022-12-14T12:44:25.067Z</time>
</trkpt>
<trkpt lat="31.0158800" lon="35.3040800">
<ele>32.790001</ele>
<time>2022-12-14T12:44:25.067Z</time>
</trkpt>
<trkpt lat="31.0158500" lon="35.3040800">
<ele>32.639999</ele>
<time>2022-12-14T12:44:25.067Z</time>
</trkpt>
<trkpt lat="31.0158000" lon="35.3041100">
<ele>32.520000</ele>
<time>2022-12-14T12:44:25.067Z</time>
</trkpt>
<trkpt lat="31.0157700" lon="35.3041300">
<ele>32.600002</ele>
<time>2022-12-14T12:44:25.067Z</time>
</trkpt>
<trkpt lat="31.0157000" lon="35.3041800">
<ele>32.680000</ele>
<time>2022-12-14T12:44:25.067Z</time>
</trkpt>
<trkpt lat="31.0156300" lon="35.3042400">
<ele>32.490002</ele>
<time>2022-12-14T12:44:25.067Z</time>
</trkpt>
<trkpt lat="31.0155700" lon="35.3042700">
<ele>32.600002</ele>
<time>2022-12-14T12:44:25.067Z</time>
</trkpt>
<trkpt lat="31.0155100" lon="35.3042900">
<ele>32.900002</ele>
<time>2022-12-14T12:44:25.067Z</time>
</trkpt>
<trkpt lat="31.0154600" lon="35.3042900">
<ele>33.520000</ele>
<time>2022-12-14T12:44:25.067Z</time>
</trkpt>
<trkpt lat="31.0153300" lon="35.3042500">
<ele>35.880001</ele>
<time>2022-12-14T12:44:25.067Z</time>
</trkpt>
<trkpt lat="31.0153000" lon="35.3042300">
<ele>36.600002</ele>
<time>2022-12-14T12:44:25.067Z</time>
</trkpt>
<trkpt lat="31.0152200" lon="35.3041900">
<ele>37.860001</ele>
<time>2022-12-14T12:44:25.067Z</time>
</trkpt>
<trkpt lat="31.0151200" lon="35.3041800">
<ele>38.439999</ele>
<time>2022-12-14T12:44:25.067Z</time>
</trkpt>
<trkpt lat="31.0150400" lon="35.3041700">
<ele>38.840000</ele>
<time>2022-12-14T12:44:25.067Z</time>
</trkpt>
<trkpt lat="31.0150100" lon="35.3041900">
<ele>38.869999</ele>
<time>2022-12-14T12:44:25.067Z</time>
</trkpt>
<trkpt lat="31.0149700" lon="35.3042200">
<ele>38.889999</ele>
<time>2022-12-14T12:44:25.067Z</time>
</trkpt>
<trkpt lat="31.0149600" lon="35.3042300">
<ele>38.900002</ele>
<time>2022-12-14T12:44:25.067Z</time>
</trkpt>
<trkpt lat="31.0149100" lon="35.3042400">
<ele>39.080002</ele>
<time>2022-12-14T12:44:25.067Z</time>
</trkpt>
<trkpt lat="31.0148800" lon="35.3042300">
<ele>39.169998</ele>
<time>2022-12-14T12:44:25.067Z</time>
</trkpt>
<trkpt lat="31.0148500" lon="35.3042100">
<ele>39.180000</ele>
<time>2022-12-14T12:44:25.067Z</time>
</trkpt>
<trkpt lat="31.0148100" lon="35.3041800">
<ele>39.080002</ele>
<time>2022-12-14T12:44:25.067Z</time>
</trkpt>
<trkpt lat="31.0147100" lon="35.3041200">
<ele>38.770000</ele>
<time>2022-12-14T12:44:25.067Z</time>
</trkpt>
<trkpt lat="31.0146500" lon="35.3041000">
<ele>37.579998</ele>
<time>2022-12-14T12:44:25.067Z</time>
</trkpt>
<trkpt lat="31.0145300" lon="35.3040600">
<ele>35.010002</ele>
<time>2022-12-14T12:44:25.067Z</time>
</trkpt>
<trkpt lat="31.0144700" lon="35.3040400">
<ele>33.630001</ele>
<time>2022-12-14T12:44:25.067Z</time>
</trkpt>
<trkpt lat="31.0144000" lon="35.3040000">
<ele>31.869999</ele>
<time>2022-12-14T12:44:25.067Z</time>
</trkpt>
<trkpt lat="31.0142800" lon="35.3039000">
<ele>29.070000</ele>
<time>2022-12-14T12:44:25.067Z</time>
</trkpt>
<trkpt lat="31.0140300" lon="35.3037100">
<ele>25.520000</ele>
<time>2022-12-14T12:44:25.067Z</time>
</trkpt>
<trkpt lat="31.0138400" lon="35.3036000">
<ele>24.010000</ele>
<time>2022-12-14T12:44:25.067Z</time>
</trkpt>
<trkpt lat="31.0137100" lon="35.3035600">
<ele>24.119999</ele>
<time>2022-12-14T12:44:25.067Z</time>
</trkpt>
<trkpt lat="31.0134300" lon="35.3035400">
<ele>24.260000</ele>
<time>2022-12-14T12:44:25.067Z</time>
</trkpt>
<trkpt lat="31.0133900" lon="35.3035300">
<ele>24.290001</ele>
<time>2022-12-14T12:44:25.067Z</time>
</trkpt>
<trkpt lat="31.0131700" lon="35.3034800">
<ele>21.809999</ele>
<time>2022-12-14T12:44:25.067Z</time>
</trkpt>
<trkpt lat="31.0130700" lon="35.3034500">
<ele>20.389999</ele>
<time>2022-12-14T12:44:25.067Z</time>
</trkpt>
<trkpt lat="31.0129300" lon="35.3034100">
<ele>18.760000</ele>
<time>2022-12-14T12:44:25.067Z</time>
</trkpt>
<trkpt lat="31.0128800" lon="35.3033900">
<ele>18.190001</ele>
<time>2022-12-14T12:44:25.067Z</time>
</trkpt>
<trkpt lat="31.0128400" lon="35.3033800">
<ele>17.690001</ele>
<time>2022-12-14T12:44:25.067Z</time>
</trkpt>
<trkpt lat="31.0125800" lon="35.3033000">
<ele>14.240001</ele>
<time>2022-12-14T12:44:25.067Z</time>
</trkpt>
<trkpt lat="31.0125300" lon="35.3032900">
<ele>13.570000</ele>
<time>2022-12-14T12:44:25.067Z</time>
</trkpt>
<trkpt lat="31.0124800" lon="35.3032700">
<ele>13.300000</ele>
<time>2022-12-14T12:44:25.067Z</time>
</trkpt>
<trkpt lat="31.0123500" lon="35.3031800">
<ele>14.090000</ele>
<time>2022-12-14T12:44:25.067Z</time>
</trkpt>
<trkpt lat="31.0122500" lon="35.3031100">
<ele>14.700001</ele>
<time>2022-12-14T12:44:25.067Z</time>
</trkpt>
<trkpt lat="31.0121900" lon="35.3030700">
<ele>14.960000</ele>
<time>2022-12-14T12:44:25.067Z</time>
</trkpt>
<trkpt lat="31.0120800" lon="35.3029800">
<ele>14.460000</ele>
<time>2022-12-14T12:44:25.067Z</time>
</trkpt>
<trkpt lat="31.0119700" lon="35.3029000">
<ele>13.880000</ele>
<time>2022-12-14T12:44:25.067Z</time>
</trkpt>
<trkpt lat="31.0118400" lon="35.3028100">
<ele>12.610000</ele>
<time>2022-12-14T12:44:25.067Z</time>
</trkpt>
<trkpt lat="31.0117200" lon="35.3027300">
<ele>10.970000</ele>
<time>2022-12-14T12:44:25.067Z</time>
</trkpt>
<trkpt lat="31.0116600" lon="35.3027000">
<ele>10.349999</ele>
<time>2022-12-14T12:44:25.067Z</time>
</trkpt>
<trkpt lat="31.0115500" lon="35.3026700">
<ele>8.710000</ele>
<time>2022-12-14T12:44:25.067Z</time>
</trkpt>
<trkpt lat="31.0114900" lon="35.3026600">
<ele>7.880000</ele>
<time>2022-12-14T12:44:25.067Z</time>
</trkpt>
<trkpt lat="31.0110900" lon="35.3025600">
<ele>7.600000</ele>
<time>2022-12-14T12:44:25.067Z</time>
</trkpt>
<trkpt lat="31.0109300" lon="35.3025200">
<ele>7.950000</ele>
<time>2022-12-14T12:44:25.067Z</time>
</trkpt>
<trkpt lat="31.0108300" lon="35.3025000">
<ele>7.950000</ele>
<time>2022-12-14T12:44:25.067Z</time>
</trkpt>
<trkpt lat="31.0106500" lon="35.3024500">
<ele>5.600000</ele>
<time>2022-12-14T12:44:25.067Z</time>
</trkpt>
<trkpt lat="31.0104700" lon="35.3024100">
<ele>4.640000</ele>
<time>2022-12-14T12:44:25.067Z</time>
</trkpt>
<trkpt lat="31.0101700" lon="35.3023300">
<ele>6.690000</ele>
<time>2022-12-14T12:44:25.067Z</time>
</trkpt>
<trkpt lat="31.0098300" lon="35.3021800">
<ele>10.270000</ele>
<time>2022-12-14T12:44:25.067Z</time>
</trkpt>
<trkpt lat="31.0097800" lon="35.3021500">
<ele>10.620000</ele>
<time>2022-12-14T12:44:25.067Z</time>
</trkpt>
<trkpt lat="31.0095300" lon="35.3019600">
<ele>9.680000</ele>
<time>2022-12-14T12:44:25.067Z</time>
</trkpt>
<trkpt lat="31.0094600" lon="35.3018800">
<ele>8.830000</ele>
<time>2022-12-14T12:44:25.067Z</time>
</trkpt>
<trkpt lat="31.0093900" lon="35.3017300">
<ele>9.300000</ele>
<time>2022-12-14T12:44:25.067Z</time>
</trkpt>
<trkpt lat="31.0093700" lon="35.3016800">
<ele>9.620000</ele>
<time>2022-12-14T12:44:25.067Z</time>
</trkpt>
<trkpt lat="31.0093200" lon="35.3014600">
<ele>11.450000</ele>
<time>2022-12-14T12:44:25.067Z</time>
</trkpt>
<trkpt lat="31.0093100" lon="35.3013400">
<ele>12.740001</ele>
<time>2022-12-14T12:44:25.067Z</time>
</trkpt>
<trkpt lat="31.0093100" lon="35.3012100">
<ele>14.630000</ele>
<time>2022-12-14T12:44:25.067Z</time>
</trkpt>
<trkpt lat="31.0093400" lon="35.3010200">
<ele>17.150000</ele>
<time>2022-12-14T12:44:25.067Z</time>
</trkpt>
<trkpt lat="31.0093400" lon="35.3009900">
<ele>17.370001</ele>
<time>2022-12-14T12:44:25.067Z</time>
</trkpt>
<trkpt lat="31.0093700" lon="35.3008300">
<ele>18.959999</ele>
<time>2022-12-14T12:44:25.067Z</time>
</trkpt>
<trkpt lat="31.0094100" lon="35.3006100">
<ele>21.920000</ele>
<time>2022-12-14T12:44:25.067Z</time>
</trkpt>
<trkpt lat="31.0094200" lon="35.3005600">
<ele>22.600000</ele>
<time>2022-12-14T12:44:25.067Z</time>
</trkpt>
<trkpt lat="31.0095000" lon="35.3004500">
<ele>22.900000</ele>
<time>2022-12-14T12:44:25.067Z</time>
</trkpt>
<trkpt lat="31.0096000" lon="35.3003200">
<ele>23.190001</ele>
<time>2022-12-14T12:44:25.067Z</time>
</trkpt>
<trkpt lat="31.0096200" lon="35.3003000">
<ele>23.289999</ele>
<time>2022-12-14T12:44:25.067Z</time>
</trkpt>
<trkpt lat="31.0096700" lon="35.3002300">
<ele>23.380001</ele>
<time>2022-12-14T12:44:25.067Z</time>
</trkpt>
<trkpt lat="31.0097600" lon="35.3001500">
<ele>23.230001</ele>
<time>2022-12-14T12:44:25.067Z</time>
</trkpt>
<trkpt lat="31.0099100" lon="35.3000000">
<ele>21.999998</ele>
<time>2022-12-14T12:44:25.067Z</time>
</trkpt>
<trkpt lat="31.0100100" lon="35.2998100">
<ele>22.709999</ele>
<time>2022-12-14T12:44:25.067Z</time>
</trkpt>
<trkpt lat="31.0100300" lon="35.2997300">
<ele>23.080000</ele>
<time>2022-12-14T12:44:25.067Z</time>
</trkpt>
<trkpt lat="31.0100600" lon="35.2995400">
<ele>24.160000</ele>
<time>2022-12-14T12:44:25.067Z</time>
</trkpt>
<trkpt lat="31.0100600" lon="35.2994600">
<ele>24.570000</ele>
<time>2022-12-14T12:44:25.067Z</time>
</trkpt>
<trkpt lat="31.0100200" lon="35.2992900">
<ele>24.140001</ele>
<time>2022-12-14T12:44:25.067Z</time>
</trkpt>
<trkpt lat="31.0099400" lon="35.2991400">
<ele>23.779999</ele>
<time>2022-12-14T12:44:25.067Z</time>
</trkpt>
<trkpt lat="31.0099200" lon="35.2991100">
<ele>23.709999</ele>
<time>2022-12-14T12:44:25.067Z</time>
</trkpt>
<trkpt lat="31.0097600" lon="35.2989200">
<ele>23.139999</ele>
<time>2022-12-14T12:44:25.067Z</time>
</trkpt>
<trkpt lat="31.0097400" lon="35.2988900">
<ele>23.059999</ele>
<time>2022-12-14T12:44:25.067Z</time>
</trkpt>
<trkpt lat="31.0096900" lon="35.2987000">
<ele>22.360001</ele>
<time>2022-12-14T12:44:25.067Z</time>
</trkpt>
<trkpt lat="31.0097200" lon="35.2985100">
<ele>23.099998</ele>
<time>2022-12-14T12:44:25.067Z</time>
</trkpt>
<trkpt lat="31.0097700" lon="35.2984000">
<ele>24.230000</ele>
<time>2022-12-14T12:44:25.067Z</time>
</trkpt>
<trkpt lat="31.0098100" lon="35.2983300">
<ele>24.650000</ele>
<time>2022-12-14T12:44:25.067Z</time>
</trkpt>
<trkpt lat="31.0098700" lon="35.2982100">
<ele>23.400000</ele>
<time>2022-12-14T12:44:25.067Z</time>
</trkpt>
<trkpt lat="31.0099000" lon="35.2981300">
<ele>22.839998</ele>
<time>2022-12-14T12:44:25.067Z</time>
</trkpt>
<trkpt lat="31.0099200" lon="35.2978800">
<ele>20.080000</ele>
<time>2022-12-14T12:44:25.067Z</time>
</trkpt>
<trkpt lat="31.0098900" lon="35.2976600">
<ele>17.670000</ele>
<time>2022-12-14T12:44:25.067Z</time>
</trkpt>
<trkpt lat="31.0098800" lon="35.2976100">
<ele>17.280001</ele>
<time>2022-12-14T12:44:25.067Z</time>
</trkpt>
<trkpt lat="31.0098700" lon="35.2975600">
<ele>16.910000</ele>
<time>2022-12-14T12:44:25.067Z</time>
</trkpt>
<trkpt lat="31.0098600" lon="35.2974700">
<ele>16.230000</ele>
<time>2022-12-14T12:44:25.067Z</time>
</trkpt>
<trkpt lat="31.0098600" lon="35.2974300">
<ele>15.880000</ele>
<time>2022-12-14T12:44:25.067Z</time>
</trkpt>
<trkpt lat="31.0098700" lon="35.2973100">
<ele>14.740001</ele>
<time>2022-12-14T12:44:25.067Z</time>
</trkpt>
<trkpt lat="31.0098500" lon="35.2972600">
<ele>14.410000</ele>
<time>2022-12-14T12:44:25.067Z</time>
</trkpt>
<trkpt lat="31.0098200" lon="35.2972000">
<ele>14.450001</ele>
<time>2022-12-14T12:44:25.067Z</time>
</trkpt>
<trkpt lat="31.0097900" lon="35.2971500">
<ele>15.100000</ele>
<time>2022-12-14T12:44:25.067Z</time>
</trkpt>
<trkpt lat="31.0097200" lon="35.2970700">
<ele>16.680000</ele>
<time>2022-12-14T12:44:25.067Z</time>
</trkpt>
<trkpt lat="31.0096100" lon="35.2970200">
<ele>19.280001</ele>
<time>2022-12-14T12:44:25.067Z</time>
</trkpt>
<trkpt lat="31.0095600" lon="35.2970100">
<ele>20.380001</ele>
<time>2022-12-14T12:44:25.067Z</time>
</trkpt>
<trkpt lat="31.0094900" lon="35.2970100">
<ele>21.719999</ele>
<time>2022-12-14T12:44:25.067Z</time>
</trkpt>
<trkpt lat="31.0094100" lon="35.2969700">
<ele>23.340000</ele>
<time>2022-12-14T12:44:25.067Z</time>
</trkpt>
<trkpt lat="31.0093800" lon="35.2969700">
<ele>23.240000</ele>
<time>2022-12-14T12:44:25.067Z</time>
</trkpt>
<trkpt lat="31.0092300" lon="35.2969800">
<ele>22.559999</ele>
<time>2022-12-14T12:44:25.067Z</time>
</trkpt>
<trkpt lat="31.0090400" lon="35.2969600">
<ele>21.400002</ele>
<time>2022-12-14T12:44:25.067Z</time>
</trkpt>
<trkpt lat="31.0089900" lon="35.2969300">
<ele>21.290001</ele>
<time>2022-12-14T12:44:25.067Z</time>
</trkpt>
<trkpt lat="31.0089000" lon="35.2968200">
<ele>21.500000</ele>
<time>2022-12-14T12:44:25.067Z</time>
</trkpt>
<trkpt lat="31.0088300" lon="35.2966700">
<ele>21.700001</ele>
<time>2022-12-14T12:44:25.067Z</time>
</trkpt>
<trkpt lat="31.0088300" lon="35.2966300">
<ele>21.730000</ele>
<time>2022-12-14T12:44:25.067Z</time>
</trkpt>
<trkpt lat="31.0088500" lon="35.2964300">
<ele>22.160002</ele>
<time>2022-12-14T12:44:25.067Z</time>
</trkpt>
<trkpt lat="31.0089000" lon="35.2962200">
<ele>24.010000</ele>
<time>2022-12-14T12:44:25.067Z</time>
</trkpt>
<trkpt lat="31.0089100" lon="35.2961700">
<ele>24.549999</ele>
<time>2022-12-14T12:44:25.067Z</time>
</trkpt>
<trkpt lat="31.0089200" lon="35.2960800">
<ele>25.219999</ele>
<time>2022-12-14T12:44:25.067Z</time>
</trkpt>
<trkpt lat="31.0089200" lon="35.2959900">
<ele>25.510000</ele>
<time>2022-12-14T12:44:25.067Z</time>
</trkpt>
<trkpt lat="31.0088900" lon="35.2957500">
<ele>25.930000</ele>
<time>2022-12-14T12:44:25.067Z</time>
</trkpt>
<trkpt lat="31.0088600" lon="35.2956300">
<ele>26.390001</ele>
<time>2022-12-14T12:44:25.067Z</time>
</trkpt>
<trkpt lat="31.0088200" lon="35.2954900">
<ele>26.670000</ele>
<time>2022-12-14T12:44:25.067Z</time>
</trkpt>
<trkpt lat="31.0087900" lon="35.2954300">
<ele>26.350000</ele>
<time>2022-12-14T12:44:25.067Z</time>
</trkpt>
<trkpt lat="31.0086500" lon="35.2950700">
<ele>25.290001</ele>
<time>2022-12-14T12:44:25.067Z</time>
</trkpt>
<trkpt lat="31.0086000" lon="35.2948800">
<ele>24.699999</ele>
<time>2022-12-14T12:44:25.067Z</time>
</trkpt>
<trkpt lat="31.0085600" lon="35.2947600">
<ele>23.549999</ele>
<time>2022-12-14T12:44:25.067Z</time>
</trkpt>
<trkpt lat="31.0085400" lon="35.2946900">
<ele>22.839998</ele>
<time>2022-12-14T12:44:25.067Z</time>
</trkpt>
<trkpt lat="31.0085200" lon="35.2946300">
<ele>22.039999</ele>
<time>2022-12-14T12:44:25.067Z</time>
</trkpt>
<trkpt lat="31.0084700" lon="35.2943600">
<ele>18.119999</ele>
<time>2022-12-14T12:44:25.067Z</time>
</trkpt>
<trkpt lat="31.0084700" lon="35.2942800">
<ele>16.400000</ele>
<time>2022-12-14T12:44:25.067Z</time>
</trkpt>
<trkpt lat="31.0084900" lon="35.2942000">
<ele>15.010000</ele>
<time>2022-12-14T12:44:25.067Z</time>
</trkpt>
<trkpt lat="31.0085100" lon="35.2941300">
<ele>13.719999</ele>
<time>2022-12-14T12:44:25.067Z</time>
</trkpt>
<trkpt lat="31.0085300" lon="35.2940600">
<ele>12.370000</ele>
<time>2022-12-14T12:44:25.067Z</time>
</trkpt>
<trkpt lat="31.0085500" lon="35.2939900">
<ele>10.950000</ele>
<time>2022-12-14T12:44:25.067Z</time>
</trkpt>
<trkpt lat="31.0085700" lon="35.2939300">
<ele>9.700000</ele>
<time>2022-12-14T12:44:25.067Z</time>
</trkpt>
<trkpt lat="31.0085700" lon="35.2937900">
<ele>6.670000</ele>
<time>2022-12-14T12:44:25.067Z</time>
</trkpt>
<trkpt lat="31.0085500" lon="35.2936500">
<ele>3.780000</ele>
<time>2022-12-14T12:44:25.067Z</time>
</trkpt>
<trkpt lat="31.0084700" lon="35.2935200">
<ele>1.690000</ele>
<time>2022-12-14T12:44:25.067Z</time>
</trkpt>
<trkpt lat="31.0084200" lon="35.2934700">
<ele>0.970000</ele>
<time>2022-12-14T12:44:25.067Z</time>
</trkpt>
<trkpt lat="31.0083800" lon="35.2934200">
<ele>0.250000</ele>
<time>2022-12-14T12:44:25.067Z</time>
</trkpt>
<trkpt lat="31.0083000" lon="35.2933200">
<ele>-0.820000</ele>
<time>2022-12-14T12:44:25.067Z</time>
</trkpt>
<trkpt lat="31.0082700" lon="35.2932700">
<ele>-1.120000</ele>
<time>2022-12-14T12:44:25.067Z</time>
</trkpt>
<trkpt lat="31.0082100" lon="35.2930500">
<ele>-2.810000</ele>
<time>2022-12-14T12:44:25.067Z</time>
</trkpt>
<trkpt lat="31.0082400" lon="35.2928100">
<ele>-4.790000</ele>
<time>2022-12-14T12:44:25.067Z</time>
</trkpt>
<trkpt lat="31.0082600" lon="35.2927600">
<ele>-5.620000</ele>
<time>2022-12-14T12:44:25.067Z</time>
</trkpt>
<trkpt lat="31.0083200" lon="35.2925900">
<ele>-8.770000</ele>
<time>2022-12-14T12:44:25.067Z</time>
</trkpt>
<trkpt lat="31.0083800" lon="35.2924600">
<ele>-10.139999</ele>
<time>2022-12-14T12:44:25.067Z</time>
</trkpt>
<trkpt lat="31.0083900" lon="35.2924300">
<ele>-10.250000</ele>
<time>2022-12-14T12:44:25.067Z</time>
</trkpt>
<trkpt lat="31.0084000" lon="35.2924000">
<ele>-10.360001</ele>
<time>2022-12-14T12:44:25.067Z</time>
</trkpt>
<trkpt lat="31.0084200" lon="35.2923400">
<ele>-10.580000</ele>
<time>2022-12-14T12:44:25.067Z</time>
</trkpt>
<trkpt lat="31.0084300" lon="35.2922700">
<ele>-10.830001</ele>
<time>2022-12-14T12:44:25.067Z</time>
</trkpt>
<trkpt lat="31.0084300" lon="35.2922000">
<ele>-10.920000</ele>
<time>2022-12-14T12:44:25.067Z</time>
</trkpt>
<trkpt lat="31.0084300" lon="35.2921600">
<ele>-10.780000</ele>
<time>2022-12-14T12:44:25.067Z</time>
</trkpt>
<trkpt lat="31.0084600" lon="35.2921200">
<ele>-10.630000</ele>
<time>2022-12-14T12:44:25.067Z</time>
</trkpt>
<trkpt lat="31.0084700" lon="35.2920900">
<ele>-10.520000</ele>
<time>2022-12-14T12:44:25.067Z</time>
</trkpt>
<trkpt lat="31.0084800" lon="35.2920600">
<ele>-10.420000</ele>
<time>2022-12-14T12:44:25.067Z</time>
</trkpt>
<trkpt lat="31.0085000" lon="35.2920300">
<ele>-10.309999</ele>
<time>2022-12-14T12:44:25.067Z</time>
</trkpt>
<trkpt lat="31.0085300" lon="35.2919100">
<ele>-10.000000</ele>
<time>2022-12-14T12:44:25.067Z</time>
</trkpt>
<trkpt lat="31.0085800" lon="35.2918000">
<ele>-10.000000</ele>
<time>2022-12-14T12:44:25.067Z</time>
</trkpt>
<trkpt lat="31.0086200" lon="35.2917000">
<ele>-9.840000</ele>
<time>2022-12-14T12:44:25.067Z</time>
</trkpt>
<trkpt lat="31.0086600" lon="35.2915400">
<ele>-9.200000</ele>
<time>2022-12-14T12:44:25.067Z</time>
</trkpt>
<trkpt lat="31.0086900" lon="35.2915100">
<ele>-8.740000</ele>
<time>2022-12-14T12:44:25.067Z</time>
</trkpt>
<trkpt lat="31.0087100" lon="35.2915000">
<ele>-8.430000</ele>
<time>2022-12-14T12:44:25.067Z</time>
</trkpt>
<trkpt lat="31.0088100" lon="35.2914800">
<ele>-6.900000</ele>
<time>2022-12-14T12:44:25.067Z</time>
</trkpt>
<trkpt lat="31.0089100" lon="35.2913800">
<ele>-5.780000</ele>
<time>2022-12-14T12:44:25.067Z</time>
</trkpt>
<trkpt lat="31.0089400" lon="35.2913500">
<ele>-5.780000</ele>
<time>2022-12-14T12:44:25.067Z</time>
</trkpt>
<trkpt lat="31.0089900" lon="35.2913200">
<ele>-5.420000</ele>
<time>2022-12-14T12:44:25.067Z</time>
</trkpt>
<trkpt lat="31.0090200" lon="35.2913200">
<ele>-4.880000</ele>
<time>2022-12-14T12:44:25.067Z</time>
</trkpt>
<trkpt lat="31.0090500" lon="35.2913000">
<ele>-4.700000</ele>
<time>2022-12-14T12:44:25.067Z</time>
</trkpt>
<trkpt lat="31.0091000" lon="35.2912200">
<ele>-5.240000</ele>
<time>2022-12-14T12:44:25.067Z</time>
</trkpt>
<trkpt lat="31.0091200" lon="35.2911800">
<ele>-5.600000</ele>
<time>2022-12-14T12:44:25.067Z</time>
</trkpt>
<trkpt lat="31.0091400" lon="35.2910800">
<ele>-7.120000</ele>
<time>2022-12-14T12:44:25.067Z</time>
</trkpt>
<trkpt lat="31.0091500" lon="35.2910300">
<ele>-8.000000</ele>
<time>2022-12-14T12:44:25.067Z</time>
</trkpt>
<trkpt lat="31.0091600" lon="35.2909100">
<ele>-10.410000</ele>
<time>2022-12-14T12:44:25.067Z</time>
</trkpt>
<trkpt lat="31.0092100" lon="35.2907300">
<ele>-11.750000</ele>
<time>2022-12-14T12:44:25.067Z</time>
</trkpt>
<trkpt lat="31.0092400" lon="35.2906900">
<ele>-11.460000</ele>
<time>2022-12-14T12:44:25.067Z</time>
</trkpt>
<trkpt lat="31.0093400" lon="35.2905700">
<ele>-10.450001</ele>
<time>2022-12-14T12:44:25.067Z</time>
</trkpt>
<trkpt lat="31.0094000" lon="35.2904400">
<ele>-9.640000</ele>
<time>2022-12-14T12:44:25.067Z</time>
</trkpt>
<trkpt lat="31.0094000" lon="35.2903900">
<ele>-9.640000</ele>
<time>2022-12-14T12:44:25.067Z</time>
</trkpt>
<trkpt lat="31.0094100" lon="35.2901400">
<ele>-10.430000</ele>
<time>2022-12-14T12:44:25.067Z</time>
</trkpt>
<trkpt lat="31.0094100" lon="35.2899000">
<ele>-12.139999</ele>
<time>2022-12-14T12:44:25.067Z</time>
</trkpt>
<trkpt lat="31.0094200" lon="35.2898500">
<ele>-12.389999</ele>
<time>2022-12-14T12:44:25.067Z</time>
</trkpt>
<trkpt lat="31.0094600" lon="35.2896800">
<ele>-13.180000</ele>
<time>2022-12-14T12:44:25.067Z</time>
</trkpt>
<trkpt lat="31.0094800" lon="35.2895800">
<ele>-13.960000</ele>
<time>2022-12-14T12:44:25.067Z</time>
</trkpt>
<trkpt lat="31.0094800" lon="35.2895300">
<ele>-14.520000</ele>
<time>2022-12-14T12:44:25.067Z</time>
</trkpt>
<trkpt lat="31.0095000" lon="35.2893500">
<ele>-17.920000</ele>
<time>2022-12-14T12:44:25.067Z</time>
</trkpt>
<trkpt lat="31.0095300" lon="35.2892600">
<ele>-20.080000</ele>
<time>2022-12-14T12:44:25.067Z</time>
</trkpt>
<trkpt lat="31.0095800" lon="35.2891500">
<ele>-22.650000</ele>
<time>2022-12-14T12:44:25.067Z</time>
</trkpt>
<trkpt lat="31.0095800" lon="35.2891500">
<ele>-22.650000</ele>
<time>2022-12-14T12:44:25.067Z</time>
</trkpt>
<trkpt lat="31.0095800" lon="35.2891500">
<ele>-22.650000</ele>
<time>2022-12-14T12:44:25.067Z</time>
</trkpt>
<trkpt lat="31.0095800" lon="35.2891500">
<ele>-22.650000</ele>
<time>2022-12-14T12:44:25.067Z</time>
</trkpt>
<trkpt lat="31.0097300" lon="35.2889500">
<ele>-28.439999</ele>
<time>2022-12-14T12:44:25.067Z</time>
</trkpt>
<trkpt lat="31.0094100" lon="35.2888500">
<ele>-33.419998</ele>
<time>2022-12-14T12:44:25.067Z</time>
</trkpt>
<trkpt lat="31.0093600" lon="35.2888800">
<ele>-32.810001</ele>
<time>2022-12-14T12:44:25.067Z</time>
</trkpt>
<trkpt lat="31.0093400" lon="35.2889000">
<ele>-32.310001</ele>
<time>2022-12-14T12:44:25.067Z</time>
</trkpt>
<trkpt lat="31.0093400" lon="35.2889000">
<ele>-32.310001</ele>
<time>2022-12-14T12:44:25.067Z</time>
</trkpt>
<trkpt lat="31.0093600" lon="35.2888800">
<ele>-32.810001</ele>
<time>2022-12-14T12:44:25.067Z</time>
</trkpt>
<trkpt lat="31.0094100" lon="35.2888500">
<ele>-33.419998</ele>
<time>2022-12-14T12:44:25.067Z</time>
</trkpt>
<trkpt lat="31.0097300" lon="35.2889500">
<ele>-28.439999</ele>
<time>2022-12-14T12:44:25.067Z</time>
</trkpt>
<trkpt lat="31.0098800" lon="35.2890100">
<ele>-23.360001</ele>
<time>2022-12-14T12:44:25.067Z</time>
</trkpt>
<trkpt lat="31.0100900" lon="35.2892300">
<ele>-11.929999</ele>
<time>2022-12-14T12:44:25.067Z</time>
</trkpt>
<trkpt lat="31.0101600" lon="35.2892800">
<ele>-9.730000</ele>
<time>2022-12-14T12:44:25.067Z</time>
</trkpt>
<trkpt lat="31.0101600" lon="35.2892900">
<ele>-9.520000</ele>
<time>2022-12-14T12:44:25.067Z</time>
</trkpt>
<trkpt lat="31.0101600" lon="35.2892900">
<ele>-9.520000</ele>
<time>2022-12-14T12:44:25.067Z</time>
</trkpt>
<trkpt lat="31.0102400" lon="35.2892600">
<ele>-8.910000</ele>
<time>2022-12-14T12:44:25.067Z</time>
</trkpt>
<trkpt lat="31.0102900" lon="35.2892400">
<ele>-8.780000</ele>
<time>2022-12-14T12:44:25.067Z</time>
</trkpt>
<trkpt lat="31.0103300" lon="35.2892400">
<ele>-9.110000</ele>
<time>2022-12-14T12:44:25.067Z</time>
</trkpt>
<trkpt lat="31.0104400" lon="35.2892800">
<ele>-9.370000</ele>
<time>2022-12-14T12:44:25.067Z</time>
</trkpt>
<trkpt lat="31.0105400" lon="35.2893300">
<ele>-9.500000</ele>
<time>2022-12-14T12:44:25.067Z</time>
</trkpt>
<trkpt lat="31.0105800" lon="35.2893000">
<ele>-10.290000</ele>
<time>2022-12-14T12:44:25.067Z</time>
</trkpt>
<trkpt lat="31.0106100" lon="35.2892600">
<ele>-11.050000</ele>
<time>2022-12-14T12:44:25.067Z</time>
</trkpt>
<trkpt lat="31.0107000" lon="35.2891600">
<ele>-12.620000</ele>
<time>2022-12-14T12:44:25.067Z</time>
</trkpt>
<trkpt lat="31.0107500" lon="35.2890200">
<ele>-14.809999</ele>
<time>2022-12-14T12:44:25.067Z</time>
</trkpt>
<trkpt lat="31.0107600" lon="35.2889000">
<ele>-16.580000</ele>
<time>2022-12-14T12:44:25.067Z</time>
</trkpt>
<trkpt lat="31.0107100" lon="35.2887300">
<ele>-16.490000</ele>
<time>2022-12-14T12:44:25.067Z</time>
</trkpt>
<trkpt lat="31.0106800" lon="35.2885800">
<ele>-16.450001</ele>
<time>2022-12-14T12:44:25.067Z</time>
</trkpt>
<trkpt lat="31.0106300" lon="35.2883900">
<ele>-16.309999</ele>
<time>2022-12-14T12:44:25.067Z</time>
</trkpt>
<trkpt lat="31.0106100" lon="35.2883200">
<ele>-16.459999</ele>
<time>2022-12-14T12:44:25.067Z</time>
</trkpt>
<trkpt lat="31.0105800" lon="35.2882300">
<ele>-17.110001</ele>
<time>2022-12-14T12:44:25.067Z</time>
</trkpt>
<trkpt lat="31.0105400" lon="35.2880700">
<ele>-18.070000</ele>
<time>2022-12-14T12:44:25.067Z</time>
</trkpt>
<trkpt lat="31.0104700" lon="35.2879400">
<ele>-18.490000</ele>
<time>2022-12-14T12:44:25.067Z</time>
</trkpt>
<trkpt lat="31.0104400" lon="35.2878700">
<ele>-18.550001</ele>
<time>2022-12-14T12:44:25.067Z</time>
</trkpt>
<trkpt lat="31.0104100" lon="35.2877600">
<ele>-18.459999</ele>
<time>2022-12-14T12:44:25.067Z</time>
</trkpt>
<trkpt lat="31.0103500" lon="35.2875900">
<ele>-18.059999</ele>
<time>2022-12-14T12:44:25.067Z</time>
</trkpt>
<trkpt lat="31.0103400" lon="35.2874100">
<ele>-16.480000</ele>
<time>2022-12-14T12:44:25.067Z</time>
</trkpt>
<trkpt lat="31.0103600" lon="35.2872700">
<ele>-14.389999</ele>
<time>2022-12-14T12:44:25.067Z</time>
</trkpt>
<trkpt lat="31.0103700" lon="35.2872200">
<ele>-13.660000</ele>
<time>2022-12-14T12:44:25.067Z</time>
</trkpt>
<trkpt lat="31.0104100" lon="35.2870800">
<ele>-13.010000</ele>
<time>2022-12-14T12:44:25.067Z</time>
</trkpt>
<trkpt lat="31.0104200" lon="35.2869100">
<ele>-12.120000</ele>
<time>2022-12-14T12:44:25.067Z</time>
</trkpt>
<trkpt lat="31.0103900" lon="35.2868900">
<ele>-11.929999</ele>
<time>2022-12-14T12:44:25.067Z</time>
</trkpt>
<trkpt lat="31.0103500" lon="35.2868800">
<ele>-11.820000</ele>
<time>2022-12-14T12:44:25.067Z</time>
</trkpt>
<trkpt lat="31.0102900" lon="35.2869100">
<ele>-12.360001</ele>
<time>2022-12-14T12:44:25.067Z</time>
</trkpt>
<trkpt lat="31.0102600" lon="35.2869200">
<ele>-12.500000</ele>
<time>2022-12-14T12:44:25.067Z</time>
</trkpt>
<trkpt lat="31.0102400" lon="35.2869200">
<ele>-12.440000</ele>
<time>2022-12-14T12:44:25.067Z</time>
</trkpt>
<trkpt lat="31.0102000" lon="35.2869200">
<ele>-12.300000</ele>
<time>2022-12-14T12:44:25.067Z</time>
</trkpt>
<trkpt lat="31.0101700" lon="35.2869100">
<ele>-12.040000</ele>
<time>2022-12-14T12:44:25.067Z</time>
</trkpt>
<trkpt lat="31.0101200" lon="35.2868900">
<ele>-11.560000</ele>
<time>2022-12-14T12:44:25.067Z</time>
</trkpt>
<trkpt lat="31.0101000" lon="35.2868700">
<ele>-11.190000</ele>
<time>2022-12-14T12:44:25.067Z</time>
</trkpt>
<trkpt lat="31.0100700" lon="35.2868500">
<ele>-10.809999</ele>
<time>2022-12-14T12:44:25.067Z</time>
</trkpt>
<trkpt lat="31.0100300" lon="35.2868100">
<ele>-10.120000</ele>
<time>2022-12-14T12:44:25.067Z</time>
</trkpt>
<trkpt lat="31.0100000" lon="35.2867800">
<ele>-9.630000</ele>
<time>2022-12-14T12:44:25.067Z</time>
</trkpt>
<trkpt lat="31.0099300" lon="35.2867000">
<ele>-8.670000</ele>
<time>2022-12-14T12:44:25.067Z</time>
</trkpt>
<trkpt lat="31.0099100" lon="35.2866600">
<ele>-8.300000</ele>
<time>2022-12-14T12:44:25.067Z</time>
</trkpt>
<trkpt lat="31.0098900" lon="35.2865800">
<ele>-8.080000</ele>
<time>2022-12-14T12:44:25.067Z</time>
</trkpt>
<trkpt lat="31.0098800" lon="35.2864600">
<ele>-7.690000</ele>
<time>2022-12-14T12:44:25.067Z</time>
</trkpt>
<trkpt lat="31.0098700" lon="35.2864200">
<ele>-7.580000</ele>
<time>2022-12-14T12:44:25.067Z</time>
</trkpt>
<trkpt lat="31.0098100" lon="35.2862700">
<ele>-6.240000</ele>
<time>2022-12-14T12:44:25.067Z</time>
</trkpt>
<trkpt lat="31.0097900" lon="35.2862500">
<ele>-6.000000</ele>
<time>2022-12-14T12:44:25.067Z</time>
</trkpt>
<trkpt lat="31.0097200" lon="35.2861500">
<ele>-4.580000</ele>
<time>2022-12-14T12:44:25.067Z</time>
</trkpt>
<trkpt lat="31.0097000" lon="35.2861200">
<ele>-4.370000</ele>
<time>2022-12-14T12:44:25.067Z</time>
</trkpt>
<trkpt lat="31.0096900" lon="35.2861000">
<ele>-4.150000</ele>
<time>2022-12-14T12:44:25.067Z</time>
</trkpt>
<trkpt lat="31.0095700" lon="35.2860000">
<ele>-3.860000</ele>
<time>2022-12-14T12:44:25.067Z</time>
</trkpt>
<trkpt lat="31.0094700" lon="35.2859400">
<ele>-4.200000</ele>
<time>2022-12-14T12:44:25.067Z</time>
</trkpt>
<trkpt lat="31.0093500" lon="35.2859000">
<ele>-5.060000</ele>
<time>2022-12-14T12:44:25.067Z</time>
</trkpt>
<trkpt lat="31.0092500" lon="35.2859300">
<ele>-6.740000</ele>
<time>2022-12-14T12:44:25.067Z</time>
</trkpt>
<trkpt lat="31.0091300" lon="35.2859200">
<ele>-7.680000</ele>
<time>2022-12-14T12:44:25.067Z</time>
</trkpt>
<trkpt lat="31.0089800" lon="35.2858200">
<ele>-5.830000</ele>
<time>2022-12-14T12:44:25.067Z</time>
</trkpt>
<trkpt lat="31.0088200" lon="35.2856800">
<ele>-5.420000</ele>
<time>2022-12-14T12:44:25.067Z</time>
</trkpt>
<trkpt lat="31.0086700" lon="35.2856400">
<ele>-6.490000</ele>
<time>2022-12-14T12:44:25.067Z</time>
</trkpt>
<trkpt lat="31.0086400" lon="35.2856400">
<ele>-6.750000</ele>
<time>2022-12-14T12:44:25.067Z</time>
</trkpt>
<trkpt lat="31.0085600" lon="35.2856300">
<ele>-6.550000</ele>
<time>2022-12-14T12:44:25.067Z</time>
</trkpt>
<trkpt lat="31.0084700" lon="35.2856000">
<ele>-5.640000</ele>
<time>2022-12-14T12:44:25.067Z</time>
</trkpt>
<trkpt lat="31.0084200" lon="35.2855900">
<ele>-5.110000</ele>
<time>2022-12-14T12:44:25.067Z</time>
</trkpt>
<trkpt lat="31.0082900" lon="35.2856200">
<ele>-4.340000</ele>
<time>2022-12-14T12:44:25.067Z</time>
</trkpt>
<trkpt lat="31.0082100" lon="35.2856500">
<ele>-4.390000</ele>
<time>2022-12-14T12:44:25.067Z</time>
</trkpt>
<trkpt lat="31.0079900" lon="35.2857000">
<ele>-4.210000</ele>
<time>2022-12-14T12:44:25.067Z</time>
</trkpt>
<trkpt lat="31.0078200" lon="35.2857900">
<ele>-4.550000</ele>
<time>2022-12-14T12:44:25.067Z</time>
</trkpt>
<trkpt lat="31.0075600" lon="35.2858800">
<ele>-6.460000</ele>
<time>2022-12-14T12:44:25.067Z</time>
</trkpt>
<trkpt lat="31.0074800" lon="35.2858900">
<ele>-7.190000</ele>
<time>2022-12-14T12:44:25.067Z</time>
</trkpt>
<trkpt lat="31.0073600" lon="35.2858900">
<ele>-8.320000</ele>
<time>2022-12-14T12:44:25.067Z</time>
</trkpt>
<trkpt lat="31.0072100" lon="35.2858800">
<ele>-9.500000</ele>
<time>2022-12-14T12:44:25.067Z</time>
</trkpt>
<trkpt lat="31.0071800" lon="35.2858900">
<ele>-9.580000</ele>
<time>2022-12-14T12:44:25.067Z</time>
</trkpt>
<trkpt lat="31.0071800" lon="35.2858900">
<ele>-9.580000</ele>
<time>2022-12-14T12:44:25.067Z</time>
</trkpt>
<trkpt lat="31.0071900" lon="35.2859000">
<ele>-9.690000</ele>
<time>2022-12-14T12:44:25.067Z</time>
</trkpt>
<trkpt lat="31.0071200" lon="35.2859400">
<ele>-10.009999</ele>
<time>2022-12-14T12:44:25.067Z</time>
</trkpt>
<trkpt lat="31.0069200" lon="35.2859700">
<ele>-9.590000</ele>
<time>2022-12-14T12:44:25.067Z</time>
</trkpt>
<trkpt lat="31.0068300" lon="35.2860600">
<ele>-8.910000</ele>
<time>2022-12-14T12:44:25.067Z</time>
</trkpt>
<trkpt lat="31.0068000" lon="35.2860500">
<ele>-8.370000</ele>
<time>2022-12-14T12:44:25.067Z</time>
</trkpt>
<trkpt lat="31.0067000" lon="35.2860400">
<ele>-6.740000</ele>
<time>2022-12-14T12:44:25.067Z</time>
</trkpt>
<trkpt lat="31.0066000" lon="35.2859900">
<ele>-5.450000</ele>
<time>2022-12-14T12:44:25.067Z</time>
</trkpt>
<trkpt lat="31.0065000" lon="35.2859200">
<ele>-4.340000</ele>
<time>2022-12-14T12:44:25.067Z</time>
</trkpt>
<trkpt lat="31.0064000" lon="35.2858900">
<ele>-3.650000</ele>
<time>2022-12-14T12:44:25.067Z</time>
</trkpt>
<trkpt lat="31.0062500" lon="35.2859000">
<ele>-3.360000</ele>
<time>2022-12-14T12:44:25.067Z</time>
</trkpt>
<trkpt lat="31.0061800" lon="35.2859000">
<ele>-3.180000</ele>
<time>2022-12-14T12:44:25.067Z</time>
</trkpt>
<trkpt lat="31.0060900" lon="35.2858700">
<ele>-3.200000</ele>
<time>2022-12-14T12:44:25.067Z</time>
</trkpt>
<trkpt lat="31.0060300" lon="35.2858100">
<ele>-4.100000</ele>
<time>2022-12-14T12:44:25.067Z</time>
</trkpt>
<trkpt lat="31.0059400" lon="35.2857000">
<ele>-5.990000</ele>
<time>2022-12-14T12:44:25.067Z</time>
</trkpt>
<trkpt lat="31.0058000" lon="35.2856100">
<ele>-8.180000</ele>
<time>2022-12-14T12:44:25.067Z</time>
</trkpt>
<trkpt lat="31.0057500" lon="35.2854900">
<ele>-10.610000</ele>
<time>2022-12-14T12:44:25.067Z</time>
</trkpt>
<trkpt lat="31.0057000" lon="35.2854100">
<ele>-12.770000</ele>
<time>2022-12-14T12:44:25.067Z</time>
</trkpt>
<trkpt lat="31.0056400" lon="35.2853400">
<ele>-14.820000</ele>
<time>2022-12-14T12:44:25.067Z</time>
</trkpt>
<trkpt lat="31.0058200" lon="35.2853600">
<ele>-11.730000</ele>
<time>2022-12-14T12:44:25.067Z</time>
</trkpt>
<trkpt lat="31.0059200" lon="35.2852600">
<ele>-12.240001</ele>
<time>2022-12-14T12:44:25.067Z</time>
</trkpt>
<trkpt lat="31.0060900" lon="35.2849500">
<ele>-12.999999</ele>
<time>2022-12-14T12:44:25.067Z</time>
</trkpt>
<trkpt lat="31.0061900" lon="35.2846900">
<ele>-14.840000</ele>
<time>2022-12-14T12:44:25.067Z</time>
</trkpt>
<trkpt lat="31.0064900" lon="35.2841800">
<ele>-15.379999</ele>
<time>2022-12-14T12:44:25.067Z</time>
</trkpt>
<trkpt lat="31.0065600" lon="35.2838900">
<ele>-17.760000</ele>
<time>2022-12-14T12:44:25.067Z</time>
</trkpt>
<trkpt lat="31.0067000" lon="35.2837500">
<ele>-17.340000</ele>
<time>2022-12-14T12:44:25.067Z</time>
</trkpt>
<trkpt lat="31.0067800" lon="35.2837100">
<ele>-16.100000</ele>
<time>2022-12-14T12:44:25.067Z</time>
</trkpt>
<trkpt lat="31.0069500" lon="35.2837000">
<ele>-12.940000</ele>
<time>2022-12-14T12:44:25.067Z</time>
</trkpt>
<trkpt lat="31.0072700" lon="35.2838300">
<ele>-5.500000</ele>
<time>2022-12-14T12:44:25.067Z</time>
</trkpt>
<trkpt lat="31.0074100" lon="35.2838400">
<ele>-2.030000</ele>
<time>2022-12-14T12:44:25.067Z</time>
</trkpt>
<trkpt lat="31.0078600" lon="35.2837300">
<ele>-0.370000</ele>
<time>2022-12-14T12:44:25.067Z</time>
</trkpt>
<trkpt lat="31.0081000" lon="35.2838100">
<ele>-1.310000</ele>
<time>2022-12-14T12:44:25.067Z</time>
</trkpt>
<trkpt lat="31.0083300" lon="35.2839600">
<ele>0.760000</ele>
<time>2022-12-14T12:44:25.067Z</time>
</trkpt>
<trkpt lat="31.0084600" lon="35.2839800">
<ele>-1.000000</ele>
<time>2022-12-14T12:44:25.067Z</time>
</trkpt>
<trkpt lat="31.0085900" lon="35.2839500">
<ele>-3.870000</ele>
<time>2022-12-14T12:44:25.067Z</time>
</trkpt>
<trkpt lat="31.0088000" lon="35.2837900">
<ele>-11.070000</ele>
<time>2022-12-14T12:44:25.067Z</time>
</trkpt>
<trkpt lat="31.0089200" lon="35.2837600">
<ele>-13.330000</ele>
<time>2022-12-14T12:44:25.067Z</time>
</trkpt>
<trkpt lat="31.0093400" lon="35.2837700">
<ele>-10.250000</ele>
<time>2022-12-14T12:44:25.067Z</time>
</trkpt>
<trkpt lat="31.0096300" lon="35.2836900">
<ele>-10.540000</ele>
<time>2022-12-14T12:44:25.067Z</time>
</trkpt>
<trkpt lat="31.0098100" lon="35.2837700">
<ele>-7.760000</ele>
<time>2022-12-14T12:44:25.067Z</time>
</trkpt>
<trkpt lat="31.0099800" lon="35.2837700">
<ele>-7.590000</ele>
<time>2022-12-14T12:44:25.067Z</time>
</trkpt>
<trkpt lat="31.0101500" lon="35.2836800">
<ele>-7.760000</ele>
<time>2022-12-14T12:44:25.067Z</time>
</trkpt>
<trkpt lat="31.0102300" lon="35.2835800">
<ele>-9.680000</ele>
<time>2022-12-14T12:44:25.067Z</time>
</trkpt>
<trkpt lat="31.0102700" lon="35.2835200">
<ele>-9.770000</ele>
<time>2022-12-14T12:44:25.067Z</time>
</trkpt>
<trkpt lat="31.0102200" lon="35.2834000">
<ele>-11.880000</ele>
<time>2022-12-14T12:44:25.067Z</time>
</trkpt>
<trkpt lat="31.0103300" lon="35.2832300">
<ele>-12.440000</ele>
<time>2022-12-14T12:44:25.067Z</time>
</trkpt>
<trkpt lat="31.0106300" lon="35.2830400">
<ele>-15.580000</ele>
<time>2022-12-14T12:44:25.067Z</time>
</trkpt>
<trkpt lat="31.0106800" lon="35.2829100">
<ele>-16.600000</ele>
<time>2022-12-14T12:44:25.067Z</time>
</trkpt>
<trkpt lat="31.0106900" lon="35.2827700">
<ele>-17.260000</ele>
<time>2022-12-14T12:44:25.067Z</time>
</trkpt>
<trkpt lat="31.0104700" lon="35.2822900">
<ele>-3.080000</ele>
<time>2022-12-14T12:44:25.067Z</time>
</trkpt>
<trkpt lat="31.0104300" lon="35.2822200">
<ele>-1.520000</ele>
<time>2022-12-14T12:44:25.067Z</time>
</trkpt>
<trkpt lat="31.0103600" lon="35.2821900">
<ele>-0.880000</ele>
<time>2022-12-14T12:44:25.067Z</time>
</trkpt>
<trkpt lat="31.0099900" lon="35.2821800">
<ele>-1.510000</ele>
<time>2022-12-14T12:44:25.067Z</time>
</trkpt>
<trkpt lat="31.0097700" lon="35.2821200">
<ele>-0.370000</ele>
<time>2022-12-14T12:44:25.067Z</time>
</trkpt>
<trkpt lat="31.0092500" lon="35.2821600">
<ele>-2.480000</ele>
<time>2022-12-14T12:44:25.067Z</time>
</trkpt>
<trkpt lat="31.0088600" lon="35.2820400">
<ele>-2.620000</ele>
<time>2022-12-14T12:44:25.067Z</time>
</trkpt>
<trkpt lat="31.0084200" lon="35.2819900">
<ele>-5.460000</ele>
<time>2022-12-14T12:44:25.067Z</time>
</trkpt>
<trkpt lat="31.0080400" lon="35.2819100">
<ele>-7.490000</ele>
<time>2022-12-14T12:44:25.067Z</time>
</trkpt>
<trkpt lat="31.0078400" lon="35.2818300">
<ele>-8.330000</ele>
<time>2022-12-14T12:44:25.067Z</time>
</trkpt>
<trkpt lat="31.0075700" lon="35.2816600">
<ele>-10.059999</ele>
<time>2022-12-14T12:44:25.067Z</time>
</trkpt>
<trkpt lat="31.0074700" lon="35.2815400">
<ele>-11.080001</ele>
<time>2022-12-14T12:44:25.067Z</time>
</trkpt>
<trkpt lat="31.0074000" lon="35.2809900">
<ele>-15.750000</ele>
<time>2022-12-14T12:44:25.067Z</time>
</trkpt>
<trkpt lat="31.0072800" lon="35.2807700">
<ele>-17.540001</ele>
<time>2022-12-14T12:44:25.067Z</time>
</trkpt>
<trkpt lat="31.0074100" lon="35.2805500">
<ele>-16.000000</ele>
<time>2022-12-14T12:44:25.067Z</time>
</trkpt>
<trkpt lat="31.0074100" lon="35.2802300">
<ele>-17.320000</ele>
<time>2022-12-14T12:44:25.067Z</time>
</trkpt>
<trkpt lat="31.0074400" lon="35.2794500">
<ele>-16.600000</ele>
<time>2022-12-14T12:44:25.067Z</time>
</trkpt>
<trkpt lat="31.0076700" lon="35.2788000">
<ele>-16.980000</ele>
<time>2022-12-14T12:44:25.067Z</time>
</trkpt>
<trkpt lat="31.0077700" lon="35.2783400">
<ele>-19.650002</ele>
<time>2022-12-14T12:44:25.067Z</time>
</trkpt>
<trkpt lat="31.0078900" lon="35.2780700">
<ele>-16.170000</ele>
<time>2022-12-14T12:44:25.067Z</time>
</trkpt>
<trkpt lat="31.0080700" lon="35.2774800">
<ele>-9.540000</ele>
<time>2022-12-14T12:44:25.067Z</time>
</trkpt>
<trkpt lat="31.0081700" lon="35.2773800">
<ele>-8.080000</ele>
<time>2022-12-14T12:44:25.067Z</time>
</trkpt>
<trkpt lat="31.0085000" lon="35.2772500">
<ele>-7.980000</ele>
<time>2022-12-14T12:44:25.067Z</time>
</trkpt>
<trkpt lat="31.0088000" lon="35.2771000">
<ele>-5.420000</ele>
<time>2022-12-14T12:44:25.067Z</time>
</trkpt>
<trkpt lat="31.0090400" lon="35.2768000">
<ele>-5.200000</ele>
<time>2022-12-14T12:44:25.067Z</time>
</trkpt>
<trkpt lat="31.0091900" lon="35.2763800">
<ele>1.610000</ele>
<time>2022-12-14T12:44:25.067Z</time>
</trkpt>
<trkpt lat="31.0093700" lon="35.2761700">
<ele>1.510000</ele>
<time>2022-12-14T12:44:25.067Z</time>
</trkpt>
<trkpt lat="31.0094300" lon="35.2760500">
<ele>2.740000</ele>
<time>2022-12-14T12:44:25.067Z</time>
</trkpt>
<trkpt lat="31.0094300" lon="35.2759100">
<ele>7.700000</ele>
<time>2022-12-14T12:44:25.067Z</time>
</trkpt>
<trkpt lat="31.0093400" lon="35.2754300">
<ele>20.889999</ele>
<time>2022-12-14T12:44:25.067Z</time>
</trkpt>
<trkpt lat="31.0094000" lon="35.2752200">
<ele>22.709999</ele>
<time>2022-12-14T12:44:25.067Z</time>
</trkpt>
<trkpt lat="31.0094000" lon="35.2752200">
<ele>22.709999</ele>
<time>2022-12-14T12:44:25.067Z</time>
</trkpt>
<trkpt lat="31.0094000" lon="35.2751700">
<ele>23.219999</ele>
<time>2022-12-14T12:44:25.067Z</time>
</trkpt>
<trkpt lat="31.0093700" lon="35.2751000">
<ele>24.619999</ele>
<time>2022-12-14T12:44:25.067Z</time>
</trkpt>
<trkpt lat="31.0089500" lon="35.2746800">
<ele>34.970001</ele>
<time>2022-12-14T12:44:25.067Z</time>
</trkpt>
<trkpt lat="31.0088500" lon="35.2746300">
<ele>37.309998</ele>
<time>2022-12-14T12:44:25.067Z</time>
</trkpt>
<trkpt lat="31.0086200" lon="35.2745900">
<ele>44.739998</ele>
<time>2022-12-14T12:44:25.067Z</time>
</trkpt>
<trkpt lat="31.0084300" lon="35.2747200">
<ele>49.239998</ele>
<time>2022-12-14T12:44:25.067Z</time>
</trkpt>
<trkpt lat="31.0083500" lon="35.2748200">
<ele>49.230000</ele>
<time>2022-12-14T12:44:25.067Z</time>
</trkpt>
<trkpt lat="31.0081000" lon="35.2749600">
<ele>51.060001</ele>
<time>2022-12-14T12:44:25.067Z</time>
</trkpt>
<trkpt lat="31.0077900" lon="35.2753100">
<ele>57.619999</ele>
<time>2022-12-14T12:44:25.067Z</time>
</trkpt>
<trkpt lat="31.0076300" lon="35.2754500">
<ele>58.480000</ele>
<time>2022-12-14T12:44:25.067Z</time>
</trkpt>
<trkpt lat="31.0074700" lon="35.2755500">
<ele>62.010002</ele>
<time>2022-12-14T12:44:25.067Z</time>
</trkpt>
<trkpt lat="31.0072900" lon="35.2755300">
<ele>61.880001</ele>
<time>2022-12-14T12:44:25.067Z</time>
</trkpt>
<trkpt lat="31.0068200" lon="35.2752900">
<ele>56.529999</ele>
<time>2022-12-14T12:44:25.067Z</time>
</trkpt>
<trkpt lat="31.0062500" lon="35.2751400">
<ele>52.739998</ele>
<time>2022-12-14T12:44:25.067Z</time>
</trkpt>
<trkpt lat="31.0058500" lon="35.2749700">
<ele>53.279999</ele>
<time>2022-12-14T12:44:25.067Z</time>
</trkpt>
<trkpt lat="31.0056200" lon="35.2749200">
<ele>52.590000</ele>
<time>2022-12-14T12:44:25.067Z</time>
</trkpt>
<trkpt lat="31.0053000" lon="35.2748000">
<ele>52.720001</ele>
<time>2022-12-14T12:44:25.067Z</time>
</trkpt>
<trkpt lat="31.0048800" lon="35.2746800">
<ele>54.450001</ele>
<time>2022-12-14T12:44:25.067Z</time>
</trkpt>
<trkpt lat="31.0047500" lon="35.2745600">
<ele>54.430000</ele>
<time>2022-12-14T12:44:25.067Z</time>
</trkpt>
<trkpt lat="31.0047000" lon="35.2744800">
<ele>54.040001</ele>
<time>2022-12-14T12:44:25.067Z</time>
</trkpt>
<trkpt lat="31.0046000" lon="35.2743200">
<ele>53.760002</ele>
<time>2022-12-14T12:44:25.067Z</time>
</trkpt>
<trkpt lat="31.0044800" lon="35.2741100">
<ele>54.180000</ele>
<time>2022-12-14T12:44:25.067Z</time>
</trkpt>
<trkpt lat="31.0044500" lon="35.2740300">
<ele>54.480000</ele>
<time>2022-12-14T12:44:25.067Z</time>
</trkpt>
<trkpt lat="31.0044100" lon="35.2738500">
<ele>54.000000</ele>
<time>2022-12-14T12:44:25.067Z</time>
</trkpt>
<trkpt lat="31.0044000" lon="35.2737700">
<ele>52.850002</ele>
<time>2022-12-14T12:44:25.067Z</time>
</trkpt>
<trkpt lat="31.0044100" lon="35.2736000">
<ele>50.880001</ele>
<time>2022-12-14T12:44:25.067Z</time>
</trkpt>
<trkpt lat="31.0044600" lon="35.2733400">
<ele>50.889999</ele>
<time>2022-12-14T12:44:25.067Z</time>
</trkpt>
<trkpt lat="31.0044900" lon="35.2733400">
<ele>50.689999</ele>
<time>2022-12-14T12:44:25.067Z</time>
</trkpt>
<trkpt lat="31.0044900" lon="35.2733400">
<ele>50.689999</ele>
<time>2022-12-14T12:44:25.067Z</time>
</trkpt>
<trkpt lat="31.0044900" lon="35.2732900">
<ele>50.829998</ele>
<time>2022-12-14T12:44:25.067Z</time>
</trkpt>
<trkpt lat="31.0045000" lon="35.2732500">
<ele>50.900002</ele>
<time>2022-12-14T12:44:25.067Z</time>
</trkpt>
<trkpt lat="31.0045500" lon="35.2728000">
<ele>50.889999</ele>
<time>2022-12-14T12:44:25.067Z</time>
</trkpt>
<trkpt lat="31.0045500" lon="35.2727500">
<ele>50.859997</ele>
<time>2022-12-14T12:44:25.067Z</time>
</trkpt>
<trkpt lat="31.0045100" lon="35.2726000">
<ele>51.290001</ele>
<time>2022-12-14T12:44:25.067Z</time>
</trkpt>
<trkpt lat="31.0044000" lon="35.2725000">
<ele>51.999996</ele>
<time>2022-12-14T12:44:25.067Z</time>
</trkpt>
<trkpt lat="31.0042100" lon="35.2724900">
<ele>52.030003</ele>
<time>2022-12-14T12:44:25.067Z</time>
</trkpt>
<trkpt lat="31.0041700" lon="35.2725000">
<ele>51.999996</ele>
<time>2022-12-14T12:44:25.067Z</time>
</trkpt>
<trkpt lat="31.0040200" lon="35.2725600">
<ele>51.959999</ele>
<time>2022-12-14T12:44:25.067Z</time>
</trkpt>
<trkpt lat="31.0039900" lon="35.2725700">
<ele>51.829998</ele>
<time>2022-12-14T12:44:25.067Z</time>
</trkpt>
<trkpt lat="31.0037800" lon="35.2726000">
<ele>51.730000</ele>
<time>2022-12-14T12:44:25.067Z</time>
</trkpt>
<trkpt lat="31.0036200" lon="35.2725800">
<ele>52.810001</ele>
<time>2022-12-14T12:44:25.067Z</time>
</trkpt>
<trkpt lat="31.0035500" lon="35.2725600">
<ele>53.139999</ele>
<time>2022-12-14T12:44:25.067Z</time>
</trkpt>
<trkpt lat="31.0034500" lon="35.2725300">
<ele>53.570000</ele>
<time>2022-12-14T12:44:25.067Z</time>
</trkpt>
<trkpt lat="31.0033500" lon="35.2725000">
<ele>54.000000</ele>
<time>2022-12-14T12:44:25.067Z</time>
</trkpt>
<trkpt lat="31.0031200" lon="35.2724100">
<ele>55.990002</ele>
<time>2022-12-14T12:44:25.067Z</time>
</trkpt>
<trkpt lat="31.0029700" lon="35.2723700">
<ele>56.689999</ele>
<time>2022-12-14T12:44:25.067Z</time>
</trkpt>
<trkpt lat="31.0029000" lon="35.2723400">
<ele>57.150002</ele>
<time>2022-12-14T12:44:25.067Z</time>
</trkpt>
<trkpt lat="31.0028300" lon="35.2723100">
<ele>57.779999</ele>
<time>2022-12-14T12:44:25.067Z</time>
</trkpt>
<trkpt lat="31.0026900" lon="35.2722700">
<ele>58.169998</ele>
<time>2022-12-14T12:44:25.067Z</time>
</trkpt>
<trkpt lat="31.0025700" lon="35.2722200">
<ele>57.770000</ele>
<time>2022-12-14T12:44:25.067Z</time>
</trkpt>
<trkpt lat="31.0024000" lon="35.2721400">
<ele>56.510002</ele>
<time>2022-12-14T12:44:25.067Z</time>
</trkpt>
<trkpt lat="31.0023600" lon="35.2721300">
<ele>56.150002</ele>
<time>2022-12-14T12:44:25.067Z</time>
</trkpt>
<trkpt lat="31.0022800" lon="35.2720900">
<ele>55.579998</ele>
<time>2022-12-14T12:44:25.067Z</time>
</trkpt>
<trkpt lat="31.0021900" lon="35.2720400">
<ele>55.240002</ele>
<time>2022-12-14T12:44:25.067Z</time>
</trkpt>
<trkpt lat="31.0021400" lon="35.2720100">
<ele>55.220001</ele>
<time>2022-12-14T12:44:25.067Z</time>
</trkpt>
<trkpt lat="31.0020900" lon="35.2719800">
<ele>55.039997</ele>
<time>2022-12-14T12:44:25.067Z</time>
</trkpt>
<trkpt lat="31.0019900" lon="35.2718800">
<ele>54.250000</ele>
<time>2022-12-14T12:44:25.067Z</time>
</trkpt>
<trkpt lat="31.0019600" lon="35.2718200">
<ele>53.760002</ele>
<time>2022-12-14T12:44:25.067Z</time>
</trkpt>
<trkpt lat="31.0019200" lon="35.2717600">
<ele>53.010002</ele>
<time>2022-12-14T12:44:25.067Z</time>
</trkpt>
<trkpt lat="31.0018800" lon="35.2717000">
<ele>52.219997</ele>
<time>2022-12-14T12:44:25.067Z</time>
</trkpt>
<trkpt lat="31.0018000" lon="35.2715600">
<ele>49.779999</ele>
<time>2022-12-14T12:44:25.067Z</time>
</trkpt>
<trkpt lat="31.0017200" lon="35.2714200">
<ele>47.649998</ele>
<time>2022-12-14T12:44:25.067Z</time>
</trkpt>
<trkpt lat="31.0016700" lon="35.2713600">
<ele>47.540001</ele>
<time>2022-12-14T12:44:25.067Z</time>
</trkpt>
<trkpt lat="31.0016200" lon="35.2713000">
<ele>48.770000</ele>
<time>2022-12-14T12:44:25.067Z</time>
</trkpt>
<trkpt lat="31.0015200" lon="35.2712200">
<ele>50.570004</ele>
<time>2022-12-14T12:44:25.067Z</time>
</trkpt>
<trkpt lat="31.0014700" lon="35.2712000">
<ele>51.110001</ele>
<time>2022-12-14T12:44:25.067Z</time>
</trkpt>
<trkpt lat="31.0013200" lon="35.2711500">
<ele>51.089996</ele>
<time>2022-12-14T12:44:25.067Z</time>
</trkpt>
<trkpt lat="31.0011000" lon="35.2711500">
<ele>47.429996</ele>
<time>2022-12-14T12:44:25.067Z</time>
</trkpt>
<trkpt lat="31.0009900" lon="35.2711800">
<ele>47.639999</ele>
<time>2022-12-14T12:44:25.067Z</time>
</trkpt>
<trkpt lat="31.0009400" lon="35.2712000">
<ele>47.590004</ele>
<time>2022-12-14T12:44:25.067Z</time>
</trkpt>
<trkpt lat="31.0008500" lon="35.2712400">
<ele>47.150002</ele>
<time>2022-12-14T12:44:25.067Z</time>
</trkpt>
<trkpt lat="31.0005100" lon="35.2713400">
<ele>42.490002</ele>
<time>2022-12-14T12:44:25.067Z</time>
</trkpt>
<trkpt lat="31.0004600" lon="35.2713500">
<ele>42.580002</ele>
<time>2022-12-14T12:44:25.067Z</time>
</trkpt>
<trkpt lat="31.0003300" lon="35.2713700">
<ele>42.889999</ele>
<time>2022-12-14T12:44:25.067Z</time>
</trkpt>
<trkpt lat="31.0002600" lon="35.2713800">
<ele>42.910000</ele>
<time>2022-12-14T12:44:25.067Z</time>
</trkpt>
<trkpt lat="31.0001900" lon="35.2713700">
<ele>42.520000</ele>
<time>2022-12-14T12:44:25.067Z</time>
</trkpt>
<trkpt lat="31.0000400" lon="35.2713500">
<ele>41.910000</ele>
<time>2022-12-14T12:44:25.067Z</time>
</trkpt>
<trkpt lat="30.9999000" lon="35.2713100">
<ele>43.910000</ele>
<time>2022-12-14T12:44:25.067Z</time>
</trkpt>
<trkpt lat="30.9997400" lon="35.2712300">
<ele>48.810001</ele>
<time>2022-12-14T12:44:25.067Z</time>
</trkpt>
<trkpt lat="30.9997100" lon="35.2712100">
<ele>49.789997</ele>
<time>2022-12-14T12:44:25.067Z</time>
</trkpt>
<trkpt lat="30.9996800" lon="35.2711800">
<ele>50.650002</ele>
<time>2022-12-14T12:44:25.067Z</time>
</trkpt>
<trkpt lat="30.9996400" lon="35.2711500">
<ele>51.360001</ele>
<time>2022-12-14T12:44:25.067Z</time>
</trkpt>
<trkpt lat="30.9996000" lon="35.2710800">
<ele>52.170002</ele>
<time>2022-12-14T12:44:25.067Z</time>
</trkpt>
<trkpt lat="30.9995900" lon="35.2710700">
<ele>52.119999</ele>
<time>2022-12-14T12:44:25.067Z</time>
</trkpt>
<trkpt lat="30.9995600" lon="35.2710100">
<ele>52.040001</ele>
<time>2022-12-14T12:44:25.067Z</time>
</trkpt>
<trkpt lat="30.9995300" lon="35.2709500">
<ele>52.020000</ele>
<time>2022-12-14T12:44:25.067Z</time>
</trkpt>
<trkpt lat="30.9995100" lon="35.2708900">
<ele>52.079998</ele>
<time>2022-12-14T12:44:25.067Z</time>
</trkpt>
<trkpt lat="30.9994800" lon="35.2708100">
<ele>51.799999</ele>
<time>2022-12-14T12:44:25.067Z</time>
</trkpt>
<trkpt lat="30.9994100" lon="35.2706500">
<ele>49.190002</ele>
<time>2022-12-14T12:44:25.067Z</time>
</trkpt>
<trkpt lat="30.9993500" lon="35.2705100">
<ele>47.340000</ele>
<time>2022-12-14T12:44:25.067Z</time>
</trkpt>
<trkpt lat="30.9992200" lon="35.2703900">
<ele>46.850002</ele>
<time>2022-12-14T12:44:25.067Z</time>
</trkpt>
<trkpt lat="30.9991200" lon="35.2703300">
<ele>47.370003</ele>
<time>2022-12-14T12:44:25.067Z</time>
</trkpt>
<trkpt lat="30.9990500" lon="35.2703000">
<ele>47.869999</ele>
<time>2022-12-14T12:44:25.067Z</time>
</trkpt>
<trkpt lat="30.9988400" lon="35.2702500">
<ele>47.840000</ele>
<time>2022-12-14T12:44:25.067Z</time>
</trkpt>
<trkpt lat="30.9986500" lon="35.2702300">
<ele>42.950001</ele>
<time>2022-12-14T12:44:25.067Z</time>
</trkpt>
<trkpt lat="30.9985400" lon="35.2702200">
<ele>41.130001</ele>
<time>2022-12-14T12:44:25.067Z</time>
</trkpt>
<trkpt lat="30.9984200" lon="35.2702100">
<ele>39.820004</ele>
<time>2022-12-14T12:44:25.067Z</time>
</trkpt>
<trkpt lat="30.9983600" lon="35.2702000">
<ele>39.010002</ele>
<time>2022-12-14T12:44:25.067Z</time>
</trkpt>
<trkpt lat="30.9981800" lon="35.2701400">
<ele>37.029999</ele>
<time>2022-12-14T12:44:25.067Z</time>
</trkpt>
<trkpt lat="30.9981300" lon="35.2701200">
<ele>36.459999</ele>
<time>2022-12-14T12:44:25.067Z</time>
</trkpt>
<trkpt lat="30.9979000" lon="35.2700100">
<ele>32.230000</ele>
<time>2022-12-14T12:44:25.067Z</time>
</trkpt>
<trkpt lat="30.9977900" lon="35.2699500">
<ele>30.340000</ele>
<time>2022-12-14T12:44:25.067Z</time>
</trkpt>
<trkpt lat="30.9976700" lon="35.2698800">
<ele>31.259998</ele>
<time>2022-12-14T12:44:25.067Z</time>
</trkpt>
<trkpt lat="30.9975100" lon="35.2697500">
<ele>31.449999</ele>
<time>2022-12-14T12:44:25.067Z</time>
</trkpt>
<trkpt lat="30.9973200" lon="35.2696300">
<ele>33.809998</ele>
<time>2022-12-14T12:44:25.067Z</time>
</trkpt>
<trkpt lat="30.9971600" lon="35.2695600">
<ele>35.570000</ele>
<time>2022-12-14T12:44:25.067Z</time>
</trkpt>
<trkpt lat="30.9969800" lon="35.2694800">
<ele>37.450001</ele>
<time>2022-12-14T12:44:25.067Z</time>
</trkpt>
<trkpt lat="30.9968900" lon="35.2694400">
<ele>37.520000</ele>
<time>2022-12-14T12:44:25.067Z</time>
</trkpt>
<trkpt lat="30.9967900" lon="35.2693900">
<ele>37.880001</ele>
<time>2022-12-14T12:44:25.067Z</time>
</trkpt>
<trkpt lat="30.9966900" lon="35.2693400">
<ele>38.240002</ele>
<time>2022-12-14T12:44:25.067Z</time>
</trkpt>
<trkpt lat="30.9965000" lon="35.2692200">
<ele>37.110001</ele>
<time>2022-12-14T12:44:25.067Z</time>
</trkpt>
<trkpt lat="30.9963400" lon="35.2690800">
<ele>34.989998</ele>
<time>2022-12-14T12:44:25.067Z</time>
</trkpt>
<trkpt lat="30.9962700" lon="35.2690200">
<ele>34.290001</ele>
<time>2022-12-14T12:44:25.067Z</time>
</trkpt>
<trkpt lat="30.9961900" lon="35.2689700">
<ele>33.590000</ele>
<time>2022-12-14T12:44:25.067Z</time>
</trkpt>
<trkpt lat="30.9960500" lon="35.2688800">
<ele>30.350000</ele>
<time>2022-12-14T12:44:25.067Z</time>
</trkpt>
<trkpt lat="30.9959800" lon="35.2688500">
<ele>28.330002</ele>
<time>2022-12-14T12:44:25.067Z</time>
</trkpt>
<trkpt lat="30.9958400" lon="35.2688100">
<ele>24.859999</ele>
<time>2022-12-14T12:44:25.067Z</time>
</trkpt>
<trkpt lat="30.9957700" lon="35.2688000">
<ele>22.930000</ele>
<time>2022-12-14T12:44:25.067Z</time>
</trkpt>
<trkpt lat="30.9956000" lon="35.2688000">
<ele>18.230000</ele>
<time>2022-12-14T12:44:25.067Z</time>
</trkpt>
<trkpt lat="30.9954300" lon="35.2688200">
<ele>14.970000</ele>
<time>2022-12-14T12:44:25.067Z</time>
</trkpt>
<trkpt lat="30.9953400" lon="35.2688200">
<ele>13.510000</ele>
<time>2022-12-14T12:44:25.067Z</time>
</trkpt>
<trkpt lat="30.9952600" lon="35.2688200">
<ele>12.820000</ele>
<time>2022-12-14T12:44:25.067Z</time>
</trkpt>
<trkpt lat="30.9951800" lon="35.2688100">
<ele>14.190001</ele>
<time>2022-12-14T12:44:25.067Z</time>
</trkpt>
<trkpt lat="30.9950200" lon="35.2687400">
<ele>16.570000</ele>
<time>2022-12-14T12:44:25.067Z</time>
</trkpt>
<trkpt lat="30.9949500" lon="35.2686900">
<ele>15.540000</ele>
<time>2022-12-14T12:44:25.067Z</time>
</trkpt>
<trkpt lat="30.9948300" lon="35.2685600">
<ele>12.520000</ele>
<time>2022-12-14T12:44:25.067Z</time>
</trkpt>
<trkpt lat="30.9947400" lon="35.2684300">
<ele>12.130000</ele>
<time>2022-12-14T12:44:25.067Z</time>
</trkpt>
<trkpt lat="30.9946900" lon="35.2683900">
<ele>11.830000</ele>
<time>2022-12-14T12:44:25.067Z</time>
</trkpt>
<trkpt lat="30.9945200" lon="35.2683500">
<ele>9.220000</ele>
<time>2022-12-14T12:44:25.067Z</time>
</trkpt>
<trkpt lat="30.9944700" lon="35.2683500">
<ele>8.330000</ele>
<time>2022-12-14T12:44:25.067Z</time>
</trkpt>
<trkpt lat="30.9944200" lon="35.2683500">
<ele>8.870000</ele>
<time>2022-12-14T12:44:25.067Z</time>
</trkpt>
<trkpt lat="30.9943300" lon="35.2683800">
<ele>11.780000</ele>
<time>2022-12-14T12:44:25.067Z</time>
</trkpt>
<trkpt lat="30.9942900" lon="35.2684000">
<ele>12.590000</ele>
<time>2022-12-14T12:44:25.067Z</time>
</trkpt>
<trkpt lat="30.9942200" lon="35.2684500">
<ele>12.780000</ele>
<time>2022-12-14T12:44:25.067Z</time>
</trkpt>
<trkpt lat="30.9941100" lon="35.2685300">
<ele>11.700000</ele>
<time>2022-12-14T12:44:25.067Z</time>
</trkpt>
<trkpt lat="30.9940500" lon="35.2685800">
<ele>11.950000</ele>
<time>2022-12-14T12:44:25.067Z</time>
</trkpt>
<trkpt lat="30.9939700" lon="35.2686300">
<ele>13.900001</ele>
<time>2022-12-14T12:44:25.067Z</time>
</trkpt>
<trkpt lat="30.9938900" lon="35.2686500">
<ele>16.280001</ele>
<time>2022-12-14T12:44:25.067Z</time>
</trkpt>
<trkpt lat="30.9938000" lon="35.2686600">
<ele>14.950000</ele>
<time>2022-12-14T12:44:25.067Z</time>
</trkpt>
<trkpt lat="30.9936200" lon="35.2686700">
<ele>12.820000</ele>
<time>2022-12-14T12:44:25.067Z</time>
</trkpt>
<trkpt lat="30.9935800" lon="35.2686700">
<ele>12.389999</ele>
<time>2022-12-14T12:44:25.067Z</time>
</trkpt>
<trkpt lat="30.9934000" lon="35.2686300">
<ele>11.310000</ele>
<time>2022-12-14T12:44:25.067Z</time>
</trkpt>
<trkpt lat="30.9933200" lon="35.2685600">
<ele>11.180000</ele>
<time>2022-12-14T12:44:25.067Z</time>
</trkpt>
<trkpt lat="30.9932100" lon="35.2683700">
<ele>11.870000</ele>
<time>2022-12-14T12:44:25.067Z</time>
</trkpt>
<trkpt lat="30.9931800" lon="35.2683300">
<ele>11.960000</ele>
<time>2022-12-14T12:44:25.067Z</time>
</trkpt>
<trkpt lat="30.9931400" lon="35.2682900">
<ele>11.470000</ele>
<time>2022-12-14T12:44:25.067Z</time>
</trkpt>
<trkpt lat="30.9930900" lon="35.2682600">
<ele>11.010000</ele>
<time>2022-12-14T12:44:25.067Z</time>
</trkpt>
<trkpt lat="30.9929300" lon="35.2682000">
<ele>8.980000</ele>
<time>2022-12-14T12:44:25.067Z</time>
</trkpt>
<trkpt lat="30.9928000" lon="35.2681900">
<ele>7.590000</ele>
<time>2022-12-14T12:44:25.067Z</time>
</trkpt>
<trkpt lat="30.9927200" lon="35.2681900">
<ele>5.830000</ele>
<time>2022-12-14T12:44:25.067Z</time>
</trkpt>
<trkpt lat="30.9926300" lon="35.2681900">
<ele>3.410000</ele>
<time>2022-12-14T12:44:25.067Z</time>
</trkpt>
<trkpt lat="30.9925400" lon="35.2682000">
<ele>1.200000</ele>
<time>2022-12-14T12:44:25.067Z</time>
</trkpt>
<trkpt lat="30.9924300" lon="35.2682100">
<ele>-0.950000</ele>
<time>2022-12-14T12:44:25.067Z</time>
</trkpt>
<trkpt lat="30.9923300" lon="35.2682300">
<ele>-2.450000</ele>
<time>2022-12-14T12:44:25.067Z</time>
</trkpt>
<trkpt lat="30.9922200" lon="35.2682500">
<ele>-4.250000</ele>
<time>2022-12-14T12:44:25.067Z</time>
</trkpt>
<trkpt lat="30.9921100" lon="35.2682800">
<ele>-6.270000</ele>
<time>2022-12-14T12:44:25.067Z</time>
</trkpt>
<trkpt lat="30.9919900" lon="35.2683000">
<ele>-8.600000</ele>
<time>2022-12-14T12:44:25.067Z</time>
</trkpt>
<trkpt lat="30.9918800" lon="35.2683300">
<ele>-10.230000</ele>
<time>2022-12-14T12:44:25.067Z</time>
</trkpt>
<trkpt lat="30.9917600" lon="35.2683600">
<ele>-11.969999</ele>
<time>2022-12-14T12:44:25.067Z</time>
</trkpt>
<trkpt lat="30.9916400" lon="35.2683800">
<ele>-14.260000</ele>
<time>2022-12-14T12:44:25.067Z</time>
</trkpt>
<trkpt lat="30.9915200" lon="35.2684000">
<ele>-17.500000</ele>
<time>2022-12-14T12:44:25.067Z</time>
</trkpt>
<trkpt lat="30.9912900" lon="35.2684500">
<ele>-21.400002</ele>
<time>2022-12-14T12:44:25.067Z</time>
</trkpt>
<trkpt lat="30.9910500" lon="35.2684900">
<ele>-22.590000</ele>
<time>2022-12-14T12:44:25.067Z</time>
</trkpt>
<trkpt lat="30.9909300" lon="35.2685100">
<ele>-22.960001</ele>
<time>2022-12-14T12:44:25.067Z</time>
</trkpt>
<trkpt lat="30.9908200" lon="35.2685200">
<ele>-23.340000</ele>
<time>2022-12-14T12:44:25.067Z</time>
</trkpt>
<trkpt lat="30.9907200" lon="35.2685400">
<ele>-23.580000</ele>
<time>2022-12-14T12:44:25.067Z</time>
</trkpt>
<trkpt lat="30.9905200" lon="35.2685800">
<ele>-24.680000</ele>
<time>2022-12-14T12:44:25.067Z</time>
</trkpt>
<trkpt lat="30.9904100" lon="35.2686000">
<ele>-25.830000</ele>
<time>2022-12-14T12:44:25.067Z</time>
</trkpt>
<trkpt lat="30.9902000" lon="35.2686500">
<ele>-28.500000</ele>
<time>2022-12-14T12:44:25.067Z</time>
</trkpt>
<trkpt lat="30.9899900" lon="35.2687000">
<ele>-31.900000</ele>
<time>2022-12-14T12:44:25.067Z</time>
</trkpt>
<trkpt lat="30.9898100" lon="35.2687500">
<ele>-30.630001</ele>
<time>2022-12-14T12:44:25.067Z</time>
</trkpt>
<trkpt lat="30.9896400" lon="35.2687900">
<ele>-31.270000</ele>
<time>2022-12-14T12:44:25.067Z</time>
</trkpt>
<trkpt lat="30.9894800" lon="35.2688400">
<ele>-33.189999</ele>
<time>2022-12-14T12:44:25.067Z</time>
</trkpt>
<trkpt lat="30.9894000" lon="35.2688600">
<ele>-33.989998</ele>
<time>2022-12-14T12:44:25.067Z</time>
</trkpt>
<trkpt lat="30.9890900" lon="35.2689400">
<ele>-36.860001</ele>
<time>2022-12-14T12:44:25.067Z</time>
</trkpt>
<trkpt lat="30.9889400" lon="35.2689900">
<ele>-36.430000</ele>
<time>2022-12-14T12:44:25.067Z</time>
</trkpt>
<trkpt lat="30.9887900" lon="35.2690400">
<ele>-37.150002</ele>
<time>2022-12-14T12:44:25.067Z</time>
</trkpt>
<trkpt lat="30.9887200" lon="35.2690700">
<ele>-38.290001</ele>
<time>2022-12-14T12:44:25.067Z</time>
</trkpt>
<trkpt lat="30.9884300" lon="35.2691700">
<ele>-41.869999</ele>
<time>2022-12-14T12:44:25.067Z</time>
</trkpt>
<trkpt lat="30.9883600" lon="35.2691900">
<ele>-42.060001</ele>
<time>2022-12-14T12:44:25.067Z</time>
</trkpt>
<trkpt lat="30.9881500" lon="35.2692700">
<ele>-44.309998</ele>
<time>2022-12-14T12:44:25.067Z</time>
</trkpt>
<trkpt lat="30.9880000" lon="35.2693300">
<ele>-46.450001</ele>
<time>2022-12-14T12:44:25.067Z</time>
</trkpt>
<trkpt lat="30.9877800" lon="35.2694100">
<ele>-48.459999</ele>
<time>2022-12-14T12:44:25.067Z</time>
</trkpt>
<trkpt lat="30.9876200" lon="35.2694700">
<ele>-51.910000</ele>
<time>2022-12-14T12:44:25.067Z</time>
</trkpt>
<trkpt lat="30.9875400" lon="35.2695100">
<ele>-53.150002</ele>
<time>2022-12-14T12:44:25.067Z</time>
</trkpt>
<trkpt lat="30.9873800" lon="35.2695700">
<ele>-50.970001</ele>
<time>2022-12-14T12:44:25.067Z</time>
</trkpt>
<trkpt lat="30.9871400" lon="35.2696600">
<ele>-49.179996</ele>
<time>2022-12-14T12:44:25.067Z</time>
</trkpt>
<trkpt lat="30.9869800" lon="35.2697200">
<ele>-52.230000</ele>
<time>2022-12-14T12:44:25.067Z</time>
</trkpt>
<trkpt lat="30.9868300" lon="35.2697700">
<ele>-53.250000</ele>
<time>2022-12-14T12:44:25.067Z</time>
</trkpt>
<trkpt lat="30.9866900" lon="35.2698100">
<ele>-54.419998</ele>
<time>2022-12-14T12:44:25.067Z</time>
</trkpt>
<trkpt lat="30.9864100" lon="35.2698600">
<ele>-56.380001</ele>
<time>2022-12-14T12:44:25.067Z</time>
</trkpt>
<trkpt lat="30.9862600" lon="35.2698800">
<ele>-59.350002</ele>
<time>2022-12-14T12:44:25.067Z</time>
</trkpt>
<trkpt lat="30.9861900" lon="35.2698900">
<ele>-60.899998</ele>
<time>2022-12-14T12:44:25.067Z</time>
</trkpt>
<trkpt lat="30.9861100" lon="35.2699000">
<ele>-62.630001</ele>
<time>2022-12-14T12:44:25.067Z</time>
</trkpt>
<trkpt lat="30.9857700" lon="35.2699100">
<ele>-58.849998</ele>
<time>2022-12-14T12:44:25.067Z</time>
</trkpt>
<trkpt lat="30.9856800" lon="35.2699100">
<ele>-57.220001</ele>
<time>2022-12-14T12:44:25.067Z</time>
</trkpt>
<trkpt lat="30.9855000" lon="35.2698900">
<ele>-55.110001</ele>
<time>2022-12-14T12:44:25.067Z</time>
</trkpt>
<trkpt lat="30.9853300" lon="35.2698400">
<ele>-55.259998</ele>
<time>2022-12-14T12:44:25.067Z</time>
</trkpt>
<trkpt lat="30.9852400" lon="35.2698000">
<ele>-55.419998</ele>
<time>2022-12-14T12:44:25.067Z</time>
</trkpt>
<trkpt lat="30.9850700" lon="35.2697200">
<ele>-56.789997</ele>
<time>2022-12-14T12:44:25.067Z</time>
</trkpt>
<trkpt lat="30.9849100" lon="35.2696300">
<ele>-58.980000</ele>
<time>2022-12-14T12:44:25.067Z</time>
</trkpt>
<trkpt lat="30.9847600" lon="35.2695500">
<ele>-61.709999</ele>
<time>2022-12-14T12:44:25.067Z</time>
</trkpt>
<trkpt lat="30.9846800" lon="35.2695200">
<ele>-62.589996</ele>
<time>2022-12-14T12:44:25.067Z</time>
</trkpt>
<trkpt lat="30.9845200" lon="35.2694600">
<ele>-63.739998</ele>
<time>2022-12-14T12:44:25.067Z</time>
</trkpt>
<trkpt lat="30.9843700" lon="35.2693900">
<ele>-63.199997</ele>
<time>2022-12-14T12:44:25.067Z</time>
</trkpt>
<trkpt lat="30.9842900" lon="35.2693500">
<ele>-62.049999</ele>
<time>2022-12-14T12:44:25.067Z</time>
</trkpt>
<trkpt lat="30.9840500" lon="35.2692400">
<ele>-60.420002</ele>
<time>2022-12-14T12:44:25.067Z</time>
</trkpt>
<trkpt lat="30.9838700" lon="35.2691600">
<ele>-63.579998</ele>
<time>2022-12-14T12:44:25.067Z</time>
</trkpt>
<trkpt lat="30.9837800" lon="35.2691200">
<ele>-66.709999</ele>
<time>2022-12-14T12:44:25.067Z</time>
</trkpt>
<trkpt lat="30.9836800" lon="35.2690900">
<ele>-69.730003</ele>
<time>2022-12-14T12:44:25.067Z</time>
</trkpt>
<trkpt lat="30.9835800" lon="35.2690600">
<ele>-72.459999</ele>
<time>2022-12-14T12:44:25.067Z</time>
</trkpt>
<trkpt lat="30.9833700" lon="35.2690300">
<ele>-74.750000</ele>
<time>2022-12-14T12:44:25.067Z</time>
</trkpt>
<trkpt lat="30.9832600" lon="35.2690300">
<ele>-76.150002</ele>
<time>2022-12-14T12:44:25.067Z</time>
</trkpt>
<trkpt lat="30.9831500" lon="35.2690300">
<ele>-77.949997</ele>
<time>2022-12-14T12:44:25.067Z</time>
</trkpt>
<trkpt lat="30.9829200" lon="35.2690900">
<ele>-78.489998</ele>
<time>2022-12-14T12:44:25.067Z</time>
</trkpt>
<trkpt lat="30.9826900" lon="35.2691700">
<ele>-75.619995</ele>
<time>2022-12-14T12:44:25.067Z</time>
</trkpt>
<trkpt lat="30.9825900" lon="35.2692200">
<ele>-75.150002</ele>
<time>2022-12-14T12:44:25.067Z</time>
</trkpt>
<trkpt lat="30.9825000" lon="35.2692900">
<ele>-76.330002</ele>
<time>2022-12-14T12:44:25.067Z</time>
</trkpt>
<trkpt lat="30.9824100" lon="35.2693500">
<ele>-77.739998</ele>
<time>2022-12-14T12:44:25.067Z</time>
</trkpt>
<trkpt lat="30.9821800" lon="35.2695300">
<ele>-78.459999</ele>
<time>2022-12-14T12:44:25.067Z</time>
</trkpt>
<trkpt lat="30.9820200" lon="35.2695700">
<ele>-77.739998</ele>
<time>2022-12-14T12:44:25.067Z</time>
</trkpt>
<trkpt lat="30.9819500" lon="35.2695500">
<ele>-78.099998</ele>
<time>2022-12-14T12:44:25.067Z</time>
</trkpt>
<trkpt lat="30.9818500" lon="35.2694800">
<ele>-78.730003</ele>
<time>2022-12-14T12:44:25.067Z</time>
</trkpt>
<trkpt lat="30.9818400" lon="35.2694200">
<ele>-78.930000</ele>
<time>2022-12-14T12:44:25.067Z</time>
</trkpt>
<trkpt lat="30.9818400" lon="35.2693200">
<ele>-79.149994</ele>
<time>2022-12-14T12:44:25.067Z</time>
</trkpt>
<trkpt lat="30.9819100" lon="35.2691800">
<ele>-80.459999</ele>
<time>2022-12-14T12:44:25.067Z</time>
</trkpt>
<trkpt lat="30.9819400" lon="35.2691500">
<ele>-80.870003</ele>
<time>2022-12-14T12:44:25.067Z</time>
</trkpt>
<trkpt lat="30.9819600" lon="35.2691300">
<ele>-80.740005</ele>
<time>2022-12-14T12:44:25.067Z</time>
</trkpt>
<trkpt lat="30.9820600" lon="35.2690600">
<ele>-80.169998</ele>
<time>2022-12-14T12:44:25.067Z</time>
</trkpt>
<trkpt lat="30.9821500" lon="35.2690100">
<ele>-80.300003</ele>
<time>2022-12-14T12:44:25.067Z</time>
</trkpt>
<trkpt lat="30.9822200" lon="35.2689700">
<ele>-80.829994</ele>
<time>2022-12-14T12:44:25.067Z</time>
</trkpt>
<trkpt lat="30.9823100" lon="35.2688800">
<ele>-81.759995</ele>
<time>2022-12-14T12:44:25.067Z</time>
</trkpt>
<trkpt lat="30.9823600" lon="35.2688300">
<ele>-80.509995</ele>
<time>2022-12-14T12:44:25.067Z</time>
</trkpt>
<trkpt lat="30.9825100" lon="35.2686800">
<ele>-77.570000</ele>
<time>2022-12-14T12:44:25.067Z</time>
</trkpt>
<trkpt lat="30.9825500" lon="35.2686600">
<ele>-77.500000</ele>
<time>2022-12-14T12:44:25.067Z</time>
</trkpt>
<trkpt lat="30.9826900" lon="35.2685700">
<ele>-77.209999</ele>
<time>2022-12-14T12:44:25.067Z</time>
</trkpt>
<trkpt lat="30.9828500" lon="35.2684600">
<ele>-76.419998</ele>
<time>2022-12-14T12:44:25.067Z</time>
</trkpt>
<trkpt lat="30.9828700" lon="35.2684500">
<ele>-76.430000</ele>
<time>2022-12-14T12:44:25.067Z</time>
</trkpt>
<trkpt lat="30.9829600" lon="35.2683900">
<ele>-76.449997</ele>
<time>2022-12-14T12:44:25.067Z</time>
</trkpt>
<trkpt lat="30.9830700" lon="35.2683000">
<ele>-76.110001</ele>
<time>2022-12-14T12:44:25.067Z</time>
</trkpt>
<trkpt lat="30.9831000" lon="35.2682800">
<ele>-76.010002</ele>
<time>2022-12-14T12:44:25.067Z</time>
</trkpt>
<trkpt lat="30.9832500" lon="35.2681700">
<ele>-74.909996</ele>
<time>2022-12-14T12:44:25.067Z</time>
</trkpt>
<trkpt lat="30.9833600" lon="35.2681000">
<ele>-74.290001</ele>
<time>2022-12-14T12:44:25.067Z</time>
</trkpt>
<trkpt lat="30.9834200" lon="35.2680700">
<ele>-74.400002</ele>
<time>2022-12-14T12:44:25.067Z</time>
</trkpt>
<trkpt lat="30.9835900" lon="35.2679600">
<ele>-75.979996</ele>
<time>2022-12-14T12:44:25.067Z</time>
</trkpt>
<trkpt lat="30.9836100" lon="35.2679400">
<ele>-76.299995</ele>
<time>2022-12-14T12:44:25.067Z</time>
</trkpt>
<trkpt lat="30.9837800" lon="35.2678200">
<ele>-77.650002</ele>
<time>2022-12-14T12:44:25.067Z</time>
</trkpt>
<trkpt lat="30.9838000" lon="35.2678000">
<ele>-77.720001</ele>
<time>2022-12-14T12:44:25.067Z</time>
</trkpt>
<trkpt lat="30.9839500" lon="35.2676600">
<ele>-74.419998</ele>
<time>2022-12-14T12:44:25.067Z</time>
</trkpt>
<trkpt lat="30.9840600" lon="35.2675000">
<ele>-70.000000</ele>
<time>2022-12-14T12:44:25.067Z</time>
</trkpt>
<trkpt lat="30.9840900" lon="35.2674200">
<ele>-68.449997</ele>
<time>2022-12-14T12:44:25.067Z</time>
</trkpt>
<trkpt lat="30.9841400" lon="35.2673100">
<ele>-66.939995</ele>
<time>2022-12-14T12:44:25.067Z</time>
</trkpt>
<trkpt lat="30.9841600" lon="35.2672600">
<ele>-66.440002</ele>
<time>2022-12-14T12:44:25.067Z</time>
</trkpt>
<trkpt lat="30.9841700" lon="35.2672100">
<ele>-65.739998</ele>
<time>2022-12-14T12:44:25.067Z</time>
</trkpt>
<trkpt lat="30.9842000" lon="35.2670300">
<ele>-62.099998</ele>
<time>2022-12-14T12:44:25.067Z</time>
</trkpt>
<trkpt lat="30.9842300" lon="35.2668500">
<ele>-58.980000</ele>
<time>2022-12-14T12:44:25.067Z</time>
</trkpt>
<trkpt lat="30.9842500" lon="35.2668000">
<ele>-58.299999</ele>
<time>2022-12-14T12:44:25.067Z</time>
</trkpt>
<trkpt lat="30.9842900" lon="35.2666900">
<ele>-56.750000</ele>
<time>2022-12-14T12:44:25.067Z</time>
</trkpt>
<trkpt lat="30.9843300" lon="35.2666000">
<ele>-56.280003</ele>
<time>2022-12-14T12:44:25.067Z</time>
</trkpt>
<trkpt lat="30.9843300" lon="35.2665700">
<ele>-56.070000</ele>
<time>2022-12-14T12:44:25.067Z</time>
</trkpt>
<trkpt lat="30.9843800" lon="35.2664500">
<ele>-55.739998</ele>
<time>2022-12-14T12:44:25.067Z</time>
</trkpt>
<trkpt lat="30.9843900" lon="35.2664000">
<ele>-55.489998</ele>
<time>2022-12-14T12:44:25.067Z</time>
</trkpt>
<trkpt lat="30.9844000" lon="35.2662600">
<ele>-56.370003</ele>
<time>2022-12-14T12:44:25.067Z</time>
</trkpt>
<trkpt lat="30.9844000" lon="35.2662300">
<ele>-56.570000</ele>
<time>2022-12-14T12:44:25.067Z</time>
</trkpt>
<trkpt lat="30.9844000" lon="35.2660800">
<ele>-57.660000</ele>
<time>2022-12-14T12:44:25.067Z</time>
</trkpt>
<trkpt lat="30.9843500" lon="35.2658300">
<ele>-58.970001</ele>
<time>2022-12-14T12:44:25.067Z</time>
</trkpt>
<trkpt lat="30.9842700" lon="35.2655100">
<ele>-58.070000</ele>
<time>2022-12-14T12:44:25.067Z</time>
</trkpt>
<trkpt lat="30.9842200" lon="35.2652600">
<ele>-56.080002</ele>
<time>2022-12-14T12:44:25.067Z</time>
</trkpt>
<trkpt lat="30.9842000" lon="35.2651900">
<ele>-55.370003</ele>
<time>2022-12-14T12:44:25.067Z</time>
</trkpt>
<trkpt lat="30.9841700" lon="35.2650100">
<ele>-54.099998</ele>
<time>2022-12-14T12:44:25.067Z</time>
</trkpt>
<trkpt lat="30.9841300" lon="35.2647700">
<ele>-52.490002</ele>
<time>2022-12-14T12:44:25.067Z</time>
</trkpt>
<trkpt lat="30.9841300" lon="35.2647100">
<ele>-52.330002</ele>
<time>2022-12-14T12:44:25.067Z</time>
</trkpt>
<trkpt lat="30.9841000" lon="35.2645500">
<ele>-51.650002</ele>
<time>2022-12-14T12:44:25.067Z</time>
</trkpt>
<trkpt lat="30.9840900" lon="35.2643800">
<ele>-50.940002</ele>
<time>2022-12-14T12:44:25.067Z</time>
</trkpt>
<trkpt lat="30.9840600" lon="35.2642600">
<ele>-49.619999</ele>
<time>2022-12-14T12:44:25.067Z</time>
</trkpt>
<trkpt lat="30.9840300" lon="35.2640800">
<ele>-48.700001</ele>
<time>2022-12-14T12:44:25.067Z</time>
</trkpt>
<trkpt lat="30.9840100" lon="35.2639600">
<ele>-48.499996</ele>
<time>2022-12-14T12:44:25.067Z</time>
</trkpt>
<trkpt lat="30.9839700" lon="35.2637800">
<ele>-48.470001</ele>
<time>2022-12-14T12:44:25.067Z</time>
</trkpt>
<trkpt lat="30.9839300" lon="35.2636100">
<ele>-49.299999</ele>
<time>2022-12-14T12:44:25.067Z</time>
</trkpt>
<trkpt lat="30.9839000" lon="35.2635300">
<ele>-49.369999</ele>
<time>2022-12-14T12:44:25.067Z</time>
</trkpt>
<trkpt lat="30.9837900" lon="35.2633000">
<ele>-49.009998</ele>
<time>2022-12-14T12:44:25.067Z</time>
</trkpt>
<trkpt lat="30.9836300" lon="35.2630300">
<ele>-47.269997</ele>
<time>2022-12-14T12:44:25.067Z</time>
</trkpt>
<trkpt lat="30.9835000" lon="35.2627700">
<ele>-45.029999</ele>
<time>2022-12-14T12:44:25.067Z</time>
</trkpt>
<trkpt lat="30.9834600" lon="35.2626900">
<ele>-44.599998</ele>
<time>2022-12-14T12:44:25.067Z</time>
</trkpt>
<trkpt lat="30.9833900" lon="35.2625500">
<ele>-43.840000</ele>
<time>2022-12-14T12:44:25.067Z</time>
</trkpt>
<trkpt lat="30.9833800" lon="35.2625200">
<ele>-43.769997</ele>
<time>2022-12-14T12:44:25.067Z</time>
</trkpt>
<trkpt lat="30.9832400" lon="35.2622700">
<ele>-43.100002</ele>
<time>2022-12-14T12:44:25.067Z</time>
</trkpt>
<trkpt lat="30.9832300" lon="35.2622500">
<ele>-43.119999</ele>
<time>2022-12-14T12:44:25.067Z</time>
</trkpt>
<trkpt lat="30.9831500" lon="35.2621100">
<ele>-43.350002</ele>
<time>2022-12-14T12:44:25.067Z</time>
</trkpt>
<trkpt lat="30.9831100" lon="35.2620300">
<ele>-43.640003</ele>
<time>2022-12-14T12:44:25.067Z</time>
</trkpt>
<trkpt lat="30.9830700" lon="35.2619700">
<ele>-43.870003</ele>
<time>2022-12-14T12:44:25.067Z</time>
</trkpt>
<trkpt lat="30.9829600" lon="35.2617500">
<ele>-43.110001</ele>
<time>2022-12-14T12:44:25.067Z</time>
</trkpt>
<trkpt lat="30.9829500" lon="35.2617200">
<ele>-43.089996</ele>
<time>2022-12-14T12:44:25.067Z</time>
</trkpt>
<trkpt lat="30.9828400" lon="35.2614700">
<ele>-43.160000</ele>
<time>2022-12-14T12:44:25.067Z</time>
</trkpt>
<trkpt lat="30.9827700" lon="35.2612600">
<ele>-42.859997</ele>
<time>2022-12-14T12:44:25.067Z</time>
</trkpt>
<trkpt lat="30.9826900" lon="35.2610600">
<ele>-41.789997</ele>
<time>2022-12-14T12:44:25.067Z</time>
</trkpt>
<trkpt lat="30.9826300" lon="35.2609000">
<ele>-41.280003</ele>
<time>2022-12-14T12:44:25.067Z</time>
</trkpt>
<trkpt lat="30.9825900" lon="35.2608200">
<ele>-40.939999</ele>
<time>2022-12-14T12:44:25.067Z</time>
</trkpt>
<trkpt lat="30.9825800" lon="35.2607900">
<ele>-40.770000</ele>
<time>2022-12-14T12:44:25.067Z</time>
</trkpt>
<trkpt lat="30.9825200" lon="35.2606400">
<ele>-40.120003</ele>
<time>2022-12-14T12:44:25.067Z</time>
</trkpt>
<trkpt lat="30.9824900" lon="35.2605900">
<ele>-39.809998</ele>
<time>2022-12-14T12:44:25.067Z</time>
</trkpt>
<trkpt lat="30.9824200" lon="35.2604000">
<ele>-38.160000</ele>
<time>2022-12-14T12:44:25.067Z</time>
</trkpt>
<trkpt lat="30.9823900" lon="35.2603100">
<ele>-37.490002</ele>
<time>2022-12-14T12:44:25.067Z</time>
</trkpt>
<trkpt lat="30.9823500" lon="35.2601300">
<ele>-37.410000</ele>
<time>2022-12-14T12:44:25.067Z</time>
</trkpt>
<trkpt lat="30.9823400" lon="35.2600700">
<ele>-37.560001</ele>
<time>2022-12-14T12:44:25.067Z</time>
</trkpt>
<trkpt lat="30.9822800" lon="35.2597700">
<ele>-38.900002</ele>
<time>2022-12-14T12:44:25.067Z</time>
</trkpt>
<trkpt lat="30.9822700" lon="35.2597400">
<ele>-39.060001</ele>
<time>2022-12-14T12:44:25.067Z</time>
</trkpt>
<trkpt lat="30.9822200" lon="35.2594200">
<ele>-42.040001</ele>
<time>2022-12-14T12:44:25.067Z</time>
</trkpt>
<trkpt lat="30.9821200" lon="35.2591100">
<ele>-40.900002</ele>
<time>2022-12-14T12:44:25.067Z</time>
</trkpt>
<trkpt lat="30.9819800" lon="35.2589800">
<ele>-38.470001</ele>
<time>2022-12-14T12:44:25.067Z</time>
</trkpt>
<trkpt lat="30.9819500" lon="35.2589600">
<ele>-38.070000</ele>
<time>2022-12-14T12:44:25.067Z</time>
</trkpt>
<trkpt lat="30.9817900" lon="35.2588800">
<ele>-33.540001</ele>
<time>2022-12-14T12:44:25.067Z</time>
</trkpt>
<trkpt lat="30.9817600" lon="35.2588700">
<ele>-32.669998</ele>
<time>2022-12-14T12:44:25.067Z</time>
</trkpt>
<trkpt lat="30.9816600" lon="35.2588200">
<ele>-29.780001</ele>
<time>2022-12-14T12:44:25.067Z</time>
</trkpt>
<trkpt lat="30.9816400" lon="35.2588200">
<ele>-29.110001</ele>
<time>2022-12-14T12:44:25.067Z</time>
</trkpt>
<trkpt lat="30.9815300" lon="35.2587800">
<ele>-25.659998</ele>
<time>2022-12-14T12:44:25.067Z</time>
</trkpt>
<trkpt lat="30.9814100" lon="35.2587200">
<ele>-22.449999</ele>
<time>2022-12-14T12:44:25.067Z</time>
</trkpt>
<trkpt lat="30.9813900" lon="35.2587200">
<ele>-21.860001</ele>
<time>2022-12-14T12:44:25.067Z</time>
</trkpt>
<trkpt lat="30.9813600" lon="35.2587100">
<ele>-21.580000</ele>
<time>2022-12-14T12:44:25.067Z</time>
</trkpt>
<trkpt lat="30.9813100" lon="35.2586900">
<ele>-21.260000</ele>
<time>2022-12-14T12:44:25.067Z</time>
</trkpt>
<trkpt lat="30.9812600" lon="35.2586700">
<ele>-21.039999</ele>
<time>2022-12-14T12:44:25.067Z</time>
</trkpt>
<trkpt lat="30.9811700" lon="35.2586400">
<ele>-20.779999</ele>
<time>2022-12-14T12:44:25.067Z</time>
</trkpt>
<trkpt lat="30.9811000" lon="35.2586100">
<ele>-20.699999</ele>
<time>2022-12-14T12:44:25.067Z</time>
</trkpt>
<trkpt lat="30.9809500" lon="35.2585600">
<ele>-17.200001</ele>
<time>2022-12-14T12:44:25.067Z</time>
</trkpt>
<trkpt lat="30.9808200" lon="35.2585100">
<ele>-14.580000</ele>
<time>2022-12-14T12:44:25.067Z</time>
</trkpt>
<trkpt lat="30.9808000" lon="35.2585000">
<ele>-14.400001</ele>
<time>2022-12-14T12:44:25.067Z</time>
</trkpt>
<trkpt lat="30.9807000" lon="35.2584500">
<ele>-13.500000</ele>
<time>2022-12-14T12:44:25.067Z</time>
</trkpt>
<trkpt lat="30.9806600" lon="35.2584300">
<ele>-13.140000</ele>
<time>2022-12-14T12:44:25.067Z</time>
</trkpt>
<trkpt lat="30.9806000" lon="35.2583900">
<ele>-12.780000</ele>
<time>2022-12-14T12:44:25.067Z</time>
</trkpt>
<trkpt lat="30.9805300" lon="35.2583500">
<ele>-12.520000</ele>
<time>2022-12-14T12:44:25.067Z</time>
</trkpt>
<trkpt lat="30.9805000" lon="35.2583200">
<ele>-12.840000</ele>
<time>2022-12-14T12:44:25.067Z</time>
</trkpt>
<trkpt lat="30.9804100" lon="35.2582500">
<ele>-13.450000</ele>
<time>2022-12-14T12:44:25.067Z</time>
</trkpt>
<trkpt lat="30.9803500" lon="35.2581900">
<ele>-14.099999</ele>
<time>2022-12-14T12:44:25.067Z</time>
</trkpt>
<trkpt lat="30.9803000" lon="35.2581400">
<ele>-14.640000</ele>
<time>2022-12-14T12:44:25.067Z</time>
</trkpt>
<trkpt lat="30.9801200" lon="35.2579700">
<ele>-15.610000</ele>
<time>2022-12-14T12:44:25.067Z</time>
</trkpt>
<trkpt lat="30.9799900" lon="35.2578900">
<ele>-15.660000</ele>
<time>2022-12-14T12:44:25.067Z</time>
</trkpt>
<trkpt lat="30.9798700" lon="35.2577600">
<ele>-17.400000</ele>
<time>2022-12-14T12:44:25.067Z</time>
</trkpt>
<trkpt lat="30.9797900" lon="35.2576300">
<ele>-18.270000</ele>
<time>2022-12-14T12:44:25.067Z</time>
</trkpt>
<trkpt lat="30.9797200" lon="35.2575200">
<ele>-19.000000</ele>
<time>2022-12-14T12:44:25.067Z</time>
</trkpt>
<trkpt lat="30.9795800" lon="35.2573500">
<ele>-18.210001</ele>
<time>2022-12-14T12:44:25.067Z</time>
</trkpt>
<trkpt lat="30.9794400" lon="35.2571800">
<ele>-18.990000</ele>
<time>2022-12-14T12:44:25.067Z</time>
</trkpt>
<trkpt lat="30.9793500" lon="35.2570300">
<ele>-18.900000</ele>
<time>2022-12-14T12:44:25.067Z</time>
</trkpt>
<trkpt lat="30.9793100" lon="35.2569800">
<ele>-18.940001</ele>
<time>2022-12-14T12:44:25.067Z</time>
</trkpt>
<trkpt lat="30.9792000" lon="35.2568200">
<ele>-18.270000</ele>
<time>2022-12-14T12:44:25.067Z</time>
</trkpt>
<trkpt lat="30.9791800" lon="35.2568000">
<ele>-18.029999</ele>
<time>2022-12-14T12:44:25.067Z</time>
</trkpt>
<trkpt lat="30.9790600" lon="35.2566300">
<ele>-15.060000</ele>
<time>2022-12-14T12:44:25.067Z</time>
</trkpt>
<trkpt lat="30.9790300" lon="35.2565800">
<ele>-13.650001</ele>
<time>2022-12-14T12:44:25.067Z</time>
</trkpt>
<trkpt lat="30.9789100" lon="35.2564400">
<ele>-9.330000</ele>
<time>2022-12-14T12:44:25.067Z</time>
</trkpt>
<trkpt lat="30.9787900" lon="35.2563400">
<ele>-8.850000</ele>
<time>2022-12-14T12:44:25.067Z</time>
</trkpt>
<trkpt lat="30.9786000" lon="35.2562200">
<ele>-10.780000</ele>
<time>2022-12-14T12:44:25.067Z</time>
</trkpt>
<trkpt lat="30.9784700" lon="35.2561400">
<ele>-13.810000</ele>
<time>2022-12-14T12:44:25.067Z</time>
</trkpt>
<trkpt lat="30.9783500" lon="35.2560700">
<ele>-16.100000</ele>
<time>2022-12-14T12:44:25.067Z</time>
</trkpt>
<trkpt lat="30.9782700" lon="35.2560300">
<ele>-16.280001</ele>
<time>2022-12-14T12:44:25.067Z</time>
</trkpt>
<trkpt lat="30.9782000" lon="35.2559900">
<ele>-16.000000</ele>
<time>2022-12-14T12:44:25.067Z</time>
</trkpt>
<trkpt lat="30.9781600" lon="35.2559600">
<ele>-15.600000</ele>
<time>2022-12-14T12:44:25.067Z</time>
</trkpt>
<trkpt lat="30.9780200" lon="35.2558800">
<ele>-14.750000</ele>
<time>2022-12-14T12:44:25.067Z</time>
</trkpt>
<trkpt lat="30.9778800" lon="35.2557800">
<ele>-12.850000</ele>
<time>2022-12-14T12:44:25.067Z</time>
</trkpt>
<trkpt lat="30.9776700" lon="35.2556400">
<ele>-12.250000</ele>
<time>2022-12-14T12:44:25.067Z</time>
</trkpt>
<trkpt lat="30.9774900" lon="35.2555100">
<ele>-13.410000</ele>
<time>2022-12-14T12:44:25.067Z</time>
</trkpt>
<trkpt lat="30.9773900" lon="35.2554500">
<ele>-13.549999</ele>
<time>2022-12-14T12:44:25.067Z</time>
</trkpt>
<trkpt lat="30.9773100" lon="35.2553900">
<ele>-13.900001</ele>
<time>2022-12-14T12:44:25.067Z</time>
</trkpt>
<trkpt lat="30.9771300" lon="35.2552600">
<ele>-15.830000</ele>
<time>2022-12-14T12:44:25.067Z</time>
</trkpt>
<trkpt lat="30.9769500" lon="35.2551400">
<ele>-18.340000</ele>
<time>2022-12-14T12:44:25.067Z</time>
</trkpt>
<trkpt lat="30.9767200" lon="35.2549900">
<ele>-13.320000</ele>
<time>2022-12-14T12:44:25.067Z</time>
</trkpt>
<trkpt lat="30.9767000" lon="35.2549800">
<ele>-12.880000</ele>
<time>2022-12-14T12:44:25.067Z</time>
</trkpt>
<trkpt lat="30.9764800" lon="35.2548300">
<ele>-11.759999</ele>
<time>2022-12-14T12:44:25.067Z</time>
</trkpt>
<trkpt lat="30.9763200" lon="35.2547200">
<ele>-10.460000</ele>
<time>2022-12-14T12:44:25.067Z</time>
</trkpt>
<trkpt lat="30.9761200" lon="35.2546000">
<ele>-6.420000</ele>
<time>2022-12-14T12:44:25.067Z</time>
</trkpt>
<trkpt lat="30.9760700" lon="35.2545600">
<ele>-5.310000</ele>
<time>2022-12-14T12:44:25.067Z</time>
</trkpt>
<trkpt lat="30.9758600" lon="35.2544000">
<ele>-2.860000</ele>
<time>2022-12-14T12:44:25.067Z</time>
</trkpt>
<trkpt lat="30.9755800" lon="35.2542100">
<ele>-4.410000</ele>
<time>2022-12-14T12:44:25.067Z</time>
</trkpt>
<trkpt lat="30.9754500" lon="35.2541100">
<ele>-4.810000</ele>
<time>2022-12-14T12:44:25.067Z</time>
</trkpt>
<trkpt lat="30.9753300" lon="35.2540200">
<ele>-5.810000</ele>
<time>2022-12-14T12:44:25.067Z</time>
</trkpt>
<trkpt lat="30.9750300" lon="35.2537700">
<ele>-10.500000</ele>
<time>2022-12-14T12:44:25.067Z</time>
</trkpt>
<trkpt lat="30.9749800" lon="35.2537400">
<ele>-11.260000</ele>
<time>2022-12-14T12:44:25.067Z</time>
</trkpt>
<trkpt lat="30.9749300" lon="35.2537000">
<ele>-12.000000</ele>
<time>2022-12-14T12:44:25.067Z</time>
</trkpt>
<trkpt lat="30.9747700" lon="35.2535700">
<ele>-15.600000</ele>
<time>2022-12-14T12:44:25.067Z</time>
</trkpt>
<trkpt lat="30.9746400" lon="35.2534800">
<ele>-17.170000</ele>
<time>2022-12-14T12:44:25.067Z</time>
</trkpt>
<trkpt lat="30.9745100" lon="35.2533900">
<ele>-20.270000</ele>
<time>2022-12-14T12:44:25.067Z</time>
</trkpt>
<trkpt lat="30.9743900" lon="35.2533000">
<ele>-22.780001</ele>
<time>2022-12-14T12:44:25.067Z</time>
</trkpt>
<trkpt lat="30.9742100" lon="35.2531900">
<ele>-22.400000</ele>
<time>2022-12-14T12:44:25.067Z</time>
</trkpt>
<trkpt lat="30.9741100" lon="35.2531300">
<ele>-22.730001</ele>
<time>2022-12-14T12:44:25.067Z</time>
</trkpt>
<trkpt lat="30.9739600" lon="35.2530300">
<ele>-23.170000</ele>
<time>2022-12-14T12:44:25.067Z</time>
</trkpt>
<trkpt lat="30.9736200" lon="35.2527800">
<ele>-19.070000</ele>
<time>2022-12-14T12:44:25.067Z</time>
</trkpt>
<trkpt lat="30.9735500" lon="35.2527200">
<ele>-18.830000</ele>
<time>2022-12-14T12:44:25.067Z</time>
</trkpt>
<trkpt lat="30.9733400" lon="35.2525700">
<ele>-18.940001</ele>
<time>2022-12-14T12:44:25.067Z</time>
</trkpt>
<trkpt lat="30.9733100" lon="35.2525500">
<ele>-18.900000</ele>
<time>2022-12-14T12:44:25.067Z</time>
</trkpt>
<trkpt lat="30.9732400" lon="35.2525100">
<ele>-19.090000</ele>
<time>2022-12-14T12:44:25.067Z</time>
</trkpt>
<trkpt lat="30.9731800" lon="35.2524700">
<ele>-19.270000</ele>
<time>2022-12-14T12:44:25.067Z</time>
</trkpt>
<trkpt lat="30.9730000" lon="35.2523600">
<ele>-19.090000</ele>
<time>2022-12-14T12:44:25.067Z</time>
</trkpt>
<trkpt lat="30.9728000" lon="35.2522100">
<ele>-18.840000</ele>
<time>2022-12-14T12:44:25.067Z</time>
</trkpt>
<trkpt lat="30.9725700" lon="35.2520200">
<ele>-18.799999</ele>
<time>2022-12-14T12:44:25.067Z</time>
</trkpt>
<trkpt lat="30.9724200" lon="35.2518900">
<ele>-19.580000</ele>
<time>2022-12-14T12:44:25.067Z</time>
</trkpt>
<trkpt lat="30.9721700" lon="35.2516400">
<ele>-21.360001</ele>
<time>2022-12-14T12:44:25.067Z</time>
</trkpt>
<trkpt lat="30.9720000" lon="35.2514800">
<ele>-22.059999</ele>
<time>2022-12-14T12:44:25.067Z</time>
</trkpt>
<trkpt lat="30.9719300" lon="35.2514200">
<ele>-21.930000</ele>
<time>2022-12-14T12:44:25.067Z</time>
</trkpt>
<trkpt lat="30.9718500" lon="35.2513100">
<ele>-19.889999</ele>
<time>2022-12-14T12:44:25.067Z</time>
</trkpt>
<trkpt lat="30.9718200" lon="35.2512900">
<ele>-19.420000</ele>
<time>2022-12-14T12:44:25.067Z</time>
</trkpt>
<trkpt lat="30.9716600" lon="35.2511700">
<ele>-17.960001</ele>
<time>2022-12-14T12:44:25.067Z</time>
</trkpt>
<trkpt lat="30.9715600" lon="35.2511000">
<ele>-17.110001</ele>
<time>2022-12-14T12:44:25.067Z</time>
</trkpt>
<trkpt lat="30.9714800" lon="35.2510700">
<ele>-16.210001</ele>
<time>2022-12-14T12:44:25.067Z</time>
</trkpt>
<trkpt lat="30.9712500" lon="35.2510300">
<ele>-14.829999</ele>
<time>2022-12-14T12:44:25.067Z</time>
</trkpt>
<trkpt lat="30.9711300" lon="35.2510600">
<ele>-15.110000</ele>
<time>2022-12-14T12:44:25.067Z</time>
</trkpt>
<trkpt lat="30.9710500" lon="35.2510800">
<ele>-15.640000</ele>
<time>2022-12-14T12:44:25.067Z</time>
</trkpt>
<trkpt lat="30.9708800" lon="35.2511100">
<ele>-16.809999</ele>
<time>2022-12-14T12:44:25.067Z</time>
</trkpt>
<trkpt lat="30.9706900" lon="35.2511500">
<ele>-17.389999</ele>
<time>2022-12-14T12:44:25.067Z</time>
</trkpt>
<trkpt lat="30.9705600" lon="35.2511700">
<ele>-17.290001</ele>
<time>2022-12-14T12:44:25.067Z</time>
</trkpt>
<trkpt lat="30.9704700" lon="35.2511800">
<ele>-17.559999</ele>
<time>2022-12-14T12:44:25.067Z</time>
</trkpt>
<trkpt lat="30.9704200" lon="35.2511900">
<ele>-17.840000</ele>
<time>2022-12-14T12:44:25.067Z</time>
</trkpt>
<trkpt lat="30.9703300" lon="35.2512300">
<ele>-18.920000</ele>
<time>2022-12-14T12:44:25.067Z</time>
</trkpt>
<trkpt lat="30.9702800" lon="35.2512500">
<ele>-19.500000</ele>
<time>2022-12-14T12:44:25.067Z</time>
</trkpt>
<trkpt lat="30.9702200" lon="35.2512500">
<ele>-18.879999</ele>
<time>2022-12-14T12:44:25.067Z</time>
</trkpt>
<trkpt lat="30.9702000" lon="35.2512400">
<ele>-18.430000</ele>
<time>2022-12-14T12:44:25.067Z</time>
</trkpt>
<trkpt lat="30.9700600" lon="35.2512100">
<ele>-16.369999</ele>
<time>2022-12-14T12:44:25.067Z</time>
</trkpt>
<trkpt lat="30.9700400" lon="35.2512000">
<ele>-15.980000</ele>
<time>2022-12-14T12:44:25.067Z</time>
</trkpt>
<trkpt lat="30.9699100" lon="35.2511300">
<ele>-12.700001</ele>
<time>2022-12-14T12:44:25.067Z</time>
</trkpt>
<trkpt lat="30.9698800" lon="35.2511100">
<ele>-11.830000</ele>
<time>2022-12-14T12:44:25.067Z</time>
</trkpt>
<trkpt lat="30.9697100" lon="35.2509600">
<ele>-7.810000</ele>
<time>2022-12-14T12:44:25.067Z</time>
</trkpt>
<trkpt lat="30.9695400" lon="35.2508400">
<ele>-6.340000</ele>
<time>2022-12-14T12:44:25.067Z</time>
</trkpt>
<trkpt lat="30.9693200" lon="35.2507300">
<ele>-5.350000</ele>
<time>2022-12-14T12:44:25.067Z</time>
</trkpt>
<trkpt lat="30.9691100" lon="35.2506800">
<ele>-5.500000</ele>
<time>2022-12-14T12:44:25.067Z</time>
</trkpt>
<trkpt lat="30.9688700" lon="35.2506000">
<ele>-7.030000</ele>
<time>2022-12-14T12:44:25.067Z</time>
</trkpt>
<trkpt lat="30.9686600" lon="35.2505000">
<ele>-5.520000</ele>
<time>2022-12-14T12:44:25.067Z</time>
</trkpt>
<trkpt lat="30.9685600" lon="35.2504200">
<ele>-5.400000</ele>
<time>2022-12-14T12:44:25.067Z</time>
</trkpt>
<trkpt lat="30.9685200" lon="35.2503700">
<ele>-5.450000</ele>
<time>2022-12-14T12:44:25.067Z</time>
</trkpt>
<trkpt lat="30.9683700" lon="35.2502000">
<ele>-5.450000</ele>
<time>2022-12-14T12:44:25.067Z</time>
</trkpt>
<trkpt lat="30.9683500" lon="35.2501800">
<ele>-5.430000</ele>
<time>2022-12-14T12:44:25.067Z</time>
</trkpt>
<trkpt lat="30.9682700" lon="35.2500600">
<ele>-6.340000</ele>
<time>2022-12-14T12:44:25.067Z</time>
</trkpt>
<trkpt lat="30.9682300" lon="35.2500100">
<ele>-6.730000</ele>
<time>2022-12-14T12:44:25.067Z</time>
</trkpt>
<trkpt lat="30.9682100" lon="35.2499800">
<ele>-6.930000</ele>
<time>2022-12-14T12:44:25.067Z</time>
</trkpt>
<trkpt lat="30.9681600" lon="35.2499300">
<ele>-7.340000</ele>
<time>2022-12-14T12:44:25.067Z</time>
</trkpt>
<trkpt lat="30.9680200" lon="35.2497300">
<ele>-8.509999</ele>
<time>2022-12-14T12:44:25.067Z</time>
</trkpt>
<trkpt lat="30.9679500" lon="35.2496200">
<ele>-9.099999</ele>
<time>2022-12-14T12:44:25.067Z</time>
</trkpt>
<trkpt lat="30.9678700" lon="35.2495300">
<ele>-9.290000</ele>
<time>2022-12-14T12:44:25.067Z</time>
</trkpt>
<trkpt lat="30.9678300" lon="35.2494700">
<ele>-9.040000</ele>
<time>2022-12-14T12:44:25.067Z</time>
</trkpt>
<trkpt lat="30.9676500" lon="35.2492200">
<ele>-10.640000</ele>
<time>2022-12-14T12:44:25.067Z</time>
</trkpt>
<trkpt lat="30.9675100" lon="35.2490200">
<ele>-10.870001</ele>
<time>2022-12-14T12:44:25.067Z</time>
</trkpt>
<trkpt lat="30.9672900" lon="35.2487700">
<ele>-11.840000</ele>
<time>2022-12-14T12:44:25.067Z</time>
</trkpt>
<trkpt lat="30.9671200" lon="35.2485600">
<ele>-13.250001</ele>
<time>2022-12-14T12:44:25.067Z</time>
</trkpt>
<trkpt lat="30.9669700" lon="35.2483600">
<ele>-13.820000</ele>
<time>2022-12-14T12:44:25.067Z</time>
</trkpt>
<trkpt lat="30.9669200" lon="35.2483000">
<ele>-14.349999</ele>
<time>2022-12-14T12:44:25.067Z</time>
</trkpt>
<trkpt lat="30.9667000" lon="35.2480500">
<ele>-18.639999</ele>
<time>2022-12-14T12:44:25.067Z</time>
</trkpt>
<trkpt lat="30.9666300" lon="35.2479800">
<ele>-19.000000</ele>
<time>2022-12-14T12:44:25.067Z</time>
</trkpt>
<trkpt lat="30.9665100" lon="35.2478700">
<ele>-19.000000</ele>
<time>2022-12-14T12:44:25.067Z</time>
</trkpt>
<trkpt lat="30.9663800" lon="35.2477800">
<ele>-19.000000</ele>
<time>2022-12-14T12:44:25.067Z</time>
</trkpt>
<trkpt lat="30.9662600" lon="35.2477000">
<ele>-19.150000</ele>
<time>2022-12-14T12:44:25.067Z</time>
</trkpt>
<trkpt lat="30.9661300" lon="35.2475700">
<ele>-19.049999</ele>
<time>2022-12-14T12:44:25.067Z</time>
</trkpt>
<trkpt lat="30.9659300" lon="35.2473800">
<ele>-17.019999</ele>
<time>2022-12-14T12:44:25.067Z</time>
</trkpt>
<trkpt lat="30.9658700" lon="35.2473300">
<ele>-16.770000</ele>
<time>2022-12-14T12:44:25.067Z</time>
</trkpt>
<trkpt lat="30.9658200" lon="35.2472800">
<ele>-16.910000</ele>
<time>2022-12-14T12:44:25.067Z</time>
</trkpt>
<trkpt lat="30.9657700" lon="35.2472400">
<ele>-17.420000</ele>
<time>2022-12-14T12:44:25.067Z</time>
</trkpt>
<trkpt lat="30.9657400" lon="35.2471900">
<ele>-17.590000</ele>
<time>2022-12-14T12:44:25.067Z</time>
</trkpt>
<trkpt lat="30.9657300" lon="35.2471700">
<ele>-17.600000</ele>
<time>2022-12-14T12:44:25.067Z</time>
</trkpt>
<trkpt lat="30.9656500" lon="35.2470900">
<ele>-17.690001</ele>
<time>2022-12-14T12:44:25.067Z</time>
</trkpt>
<trkpt lat="30.9656300" lon="35.2470700">
<ele>-17.660000</ele>
<time>2022-12-14T12:44:25.067Z</time>
</trkpt>
<trkpt lat="30.9655700" lon="35.2470000">
<ele>-17.379999</ele>
<time>2022-12-14T12:44:25.067Z</time>
</trkpt>
<trkpt lat="30.9655300" lon="35.2469500">
<ele>-16.950001</ele>
<time>2022-12-14T12:44:25.067Z</time>
</trkpt>
<trkpt lat="30.9654800" lon="35.2468800">
<ele>-16.070000</ele>
<time>2022-12-14T12:44:25.067Z</time>
</trkpt>
<trkpt lat="30.9654200" lon="35.2468400">
<ele>-15.209999</ele>
<time>2022-12-14T12:44:25.067Z</time>
</trkpt>
<trkpt lat="30.9653700" lon="35.2468000">
<ele>-14.250000</ele>
<time>2022-12-14T12:44:25.067Z</time>
</trkpt>
<trkpt lat="30.9652600" lon="35.2467100">
<ele>-11.680000</ele>
<time>2022-12-14T12:44:25.067Z</time>
</trkpt>
<trkpt lat="30.9651200" lon="35.2465800">
<ele>-10.110001</ele>
<time>2022-12-14T12:44:25.067Z</time>
</trkpt>
<trkpt lat="30.9649200" lon="35.2464000">
<ele>-11.969999</ele>
<time>2022-12-14T12:44:25.067Z</time>
</trkpt>
<trkpt lat="30.9647400" lon="35.2462200">
<ele>-9.370000</ele>
<time>2022-12-14T12:44:25.067Z</time>
</trkpt>
<trkpt lat="30.9645300" lon="35.2460000">
<ele>-9.969999</ele>
<time>2022-12-14T12:44:25.067Z</time>
</trkpt>
<trkpt lat="30.9645100" lon="35.2459800">
<ele>-10.110001</ele>
<time>2022-12-14T12:44:25.067Z</time>
</trkpt>
<trkpt lat="30.9643700" lon="35.2458300">
<ele>-10.540000</ele>
<time>2022-12-14T12:44:25.067Z</time>
</trkpt>
<trkpt lat="30.9643600" lon="35.2458100">
<ele>-10.590000</ele>
<time>2022-12-14T12:44:25.067Z</time>
</trkpt>
<trkpt lat="30.9642700" lon="35.2457000">
<ele>-10.530001</ele>
<time>2022-12-14T12:44:25.067Z</time>
</trkpt>
<trkpt lat="30.9642400" lon="35.2456600">
<ele>-10.260000</ele>
<time>2022-12-14T12:44:25.067Z</time>
</trkpt>
<trkpt lat="30.9641800" lon="35.2455900">
<ele>-9.440000</ele>
<time>2022-12-14T12:44:25.067Z</time>
</trkpt>
<trkpt lat="30.9641400" lon="35.2455200">
<ele>-9.460000</ele>
<time>2022-12-14T12:44:25.067Z</time>
</trkpt>
<trkpt lat="30.9641200" lon="35.2455000">
<ele>-9.700000</ele>
<time>2022-12-14T12:44:25.067Z</time>
</trkpt>
<trkpt lat="30.9640800" lon="35.2454200">
<ele>-10.470000</ele>
<time>2022-12-14T12:44:25.067Z</time>
</trkpt>
<trkpt lat="30.9640500" lon="35.2453800">
<ele>-10.790000</ele>
<time>2022-12-14T12:44:25.067Z</time>
</trkpt>
<trkpt lat="30.9639700" lon="35.2452700">
<ele>-11.220000</ele>
<time>2022-12-14T12:44:25.067Z</time>
</trkpt>
<trkpt lat="30.9639200" lon="35.2451700">
<ele>-9.990000</ele>
<time>2022-12-14T12:44:25.067Z</time>
</trkpt>
<trkpt lat="30.9638600" lon="35.2451200">
<ele>-9.099999</ele>
<time>2022-12-14T12:44:25.067Z</time>
</trkpt>
<trkpt lat="30.9638200" lon="35.2450600">
<ele>-8.290000</ele>
<time>2022-12-14T12:44:25.067Z</time>
</trkpt>
<trkpt lat="30.9637500" lon="35.2449800">
<ele>-7.390000</ele>
<time>2022-12-14T12:44:25.067Z</time>
</trkpt>
<trkpt lat="30.9636900" lon="35.2448900">
<ele>-6.780000</ele>
<time>2022-12-14T12:44:25.067Z</time>
</trkpt>
<trkpt lat="30.9635400" lon="35.2446700">
<ele>-4.510000</ele>
<time>2022-12-14T12:44:25.067Z</time>
</trkpt>
<trkpt lat="30.9635000" lon="35.2446200">
<ele>-3.590000</ele>
<time>2022-12-14T12:44:25.067Z</time>
</trkpt>
<trkpt lat="30.9634000" lon="35.2444900">
<ele>-1.720000</ele>
<time>2022-12-14T12:44:25.067Z</time>
</trkpt>
<trkpt lat="30.9633900" lon="35.2444800">
<ele>-1.590000</ele>
<time>2022-12-14T12:44:25.067Z</time>
</trkpt>
<trkpt lat="30.9632500" lon="35.2443100">
<ele>-0.020000</ele>
<time>2022-12-14T12:44:25.067Z</time>
</trkpt>
<trkpt lat="30.9630900" lon="35.2441000">
<ele>0.540000</ele>
<time>2022-12-14T12:44:25.067Z</time>
</trkpt>
<trkpt lat="30.9629000" lon="35.2439100">
<ele>2.930000</ele>
<time>2022-12-14T12:44:25.067Z</time>
</trkpt>
<trkpt lat="30.9628600" lon="35.2438700">
<ele>3.610000</ele>
<time>2022-12-14T12:44:25.067Z</time>
</trkpt>
<trkpt lat="30.9627200" lon="35.2437500">
<ele>5.190000</ele>
<time>2022-12-14T12:44:25.067Z</time>
</trkpt>
<trkpt lat="30.9626200" lon="35.2436900">
<ele>5.420000</ele>
<time>2022-12-14T12:44:25.067Z</time>
</trkpt>
<trkpt lat="30.9625600" lon="35.2436500">
<ele>5.690000</ele>
<time>2022-12-14T12:44:25.067Z</time>
</trkpt>
<trkpt lat="30.9623600" lon="35.2435700">
<ele>4.350000</ele>
<time>2022-12-14T12:44:25.067Z</time>
</trkpt>
<trkpt lat="30.9622200" lon="35.2434900">
<ele>2.870000</ele>
<time>2022-12-14T12:44:25.067Z</time>
</trkpt>
<trkpt lat="30.9620300" lon="35.2433800">
<ele>3.200000</ele>
<time>2022-12-14T12:44:25.067Z</time>
</trkpt>
<trkpt lat="30.9618300" lon="35.2432200">
<ele>3.990000</ele>
<time>2022-12-14T12:44:25.067Z</time>
</trkpt>
<trkpt lat="30.9617000" lon="35.2431300">
<ele>5.400000</ele>
<time>2022-12-14T12:44:25.067Z</time>
</trkpt>
<trkpt lat="30.9616700" lon="35.2431100">
<ele>5.770000</ele>
<time>2022-12-14T12:44:25.067Z</time>
</trkpt>
<trkpt lat="30.9614700" lon="35.2429600">
<ele>3.330000</ele>
<time>2022-12-14T12:44:25.067Z</time>
</trkpt>
<trkpt lat="30.9612500" lon="35.2428100">
<ele>-1.270000</ele>
<time>2022-12-14T12:44:25.067Z</time>
</trkpt>
<trkpt lat="30.9609600" lon="35.2426400">
<ele>-3.740000</ele>
<time>2022-12-14T12:44:25.067Z</time>
</trkpt>
<trkpt lat="30.9608200" lon="35.2425500">
<ele>-2.610000</ele>
<time>2022-12-14T12:44:25.067Z</time>
</trkpt>
<trkpt lat="30.9607400" lon="35.2425100">
<ele>-2.470000</ele>
<time>2022-12-14T12:44:25.067Z</time>
</trkpt>
<trkpt lat="30.9605000" lon="35.2423700">
<ele>-2.650000</ele>
<time>2022-12-14T12:44:25.067Z</time>
</trkpt>
<trkpt lat="30.9603100" lon="35.2422800">
<ele>0.830000</ele>
<time>2022-12-14T12:44:25.067Z</time>
</trkpt>
<trkpt lat="30.9602700" lon="35.2422600">
<ele>1.810000</ele>
<time>2022-12-14T12:44:25.067Z</time>
</trkpt>
<trkpt lat="30.9602300" lon="35.2422400">
<ele>1.830000</ele>
<time>2022-12-14T12:44:25.067Z</time>
</trkpt>
<trkpt lat="30.9600200" lon="35.2421400">
<ele>-0.520000</ele>
<time>2022-12-14T12:44:25.067Z</time>
</trkpt>
<trkpt lat="30.9599000" lon="35.2420900">
<ele>-0.540000</ele>
<time>2022-12-14T12:44:25.067Z</time>
</trkpt>
<trkpt lat="30.9598200" lon="35.2420600">
<ele>-0.310000</ele>
<time>2022-12-14T12:44:25.067Z</time>
</trkpt>
<trkpt lat="30.9597800" lon="35.2420400">
<ele>-0.100000</ele>
<time>2022-12-14T12:44:25.067Z</time>
</trkpt>
<trkpt lat="30.9597300" lon="35.2420200">
<ele>0.170000</ele>
<time>2022-12-14T12:44:25.067Z</time>
</trkpt>
<trkpt lat="30.9596100" lon="35.2419800">
<ele>-0.240000</ele>
<time>2022-12-14T12:44:25.067Z</time>
</trkpt>
<trkpt lat="30.9595300" lon="35.2419400">
<ele>-0.370000</ele>
<time>2022-12-14T12:44:25.067Z</time>
</trkpt>
<trkpt lat="30.9594900" lon="35.2419100">
<ele>-0.570000</ele>
<time>2022-12-14T12:44:25.067Z</time>
</trkpt>
<trkpt lat="30.9593600" lon="35.2417500">
<ele>-1.210000</ele>
<time>2022-12-14T12:44:25.067Z</time>
</trkpt>
<trkpt lat="30.9593200" lon="35.2415300">
<ele>-1.840000</ele>
<time>2022-12-14T12:44:25.067Z</time>
</trkpt>
<trkpt lat="30.9593400" lon="35.2413300">
<ele>-2.600000</ele>
<time>2022-12-14T12:44:25.067Z</time>
</trkpt>
<trkpt lat="30.9594400" lon="35.2410900">
<ele>-4.090000</ele>
<time>2022-12-14T12:44:25.067Z</time>
</trkpt>
<trkpt lat="30.9595000" lon="35.2409800">
<ele>-4.470000</ele>
<time>2022-12-14T12:44:25.067Z</time>
</trkpt>
<trkpt lat="30.9595600" lon="35.2409000">
<ele>-4.760000</ele>
<time>2022-12-14T12:44:25.067Z</time>
</trkpt>
<trkpt lat="30.9596000" lon="35.2408500">
<ele>-4.940000</ele>
<time>2022-12-14T12:44:25.067Z</time>
</trkpt>
<trkpt lat="30.9597000" lon="35.2407100">
<ele>-5.820000</ele>
<time>2022-12-14T12:44:25.067Z</time>
</trkpt>
<trkpt lat="30.9598400" lon="35.2405300">
<ele>-7.460000</ele>
<time>2022-12-14T12:44:25.067Z</time>
</trkpt>
<trkpt lat="30.9599700" lon="35.2403400">
<ele>-8.580000</ele>
<time>2022-12-14T12:44:25.067Z</time>
</trkpt>
<trkpt lat="30.9601200" lon="35.2400900">
<ele>-10.800000</ele>
<time>2022-12-14T12:44:25.067Z</time>
</trkpt>
<trkpt lat="30.9601600" lon="35.2400400">
<ele>-11.620000</ele>
<time>2022-12-14T12:44:25.067Z</time>
</trkpt>
<trkpt lat="30.9603200" lon="35.2398300">
<ele>-11.810000</ele>
<time>2022-12-14T12:44:25.067Z</time>
</trkpt>
<trkpt lat="30.9603600" lon="35.2397900">
<ele>-11.209999</ele>
<time>2022-12-14T12:44:25.067Z</time>
</trkpt>
<trkpt lat="30.9605100" lon="35.2396500">
<ele>-9.969999</ele>
<time>2022-12-14T12:44:25.067Z</time>
</trkpt>
<trkpt lat="30.9605800" lon="35.2395800">
<ele>-9.810000</ele>
<time>2022-12-14T12:44:25.067Z</time>
</trkpt>
<trkpt lat="30.9606000" lon="35.2395400">
<ele>-9.940001</ele>
<time>2022-12-14T12:44:25.067Z</time>
</trkpt>
<trkpt lat="30.9606000" lon="35.2395400">
<ele>-9.940001</ele>
<time>2022-12-14T12:44:25.067Z</time>
</trkpt>
<trkpt lat="30.9606000" lon="35.2395400">
<ele>-9.940001</ele>
<time>2022-12-14T12:44:25.067Z</time>
</trkpt>
<trkpt lat="30.9605700" lon="35.2395200">
<ele>-10.340000</ele>
<time>2022-12-14T12:44:25.067Z</time>
</trkpt>
<trkpt lat="30.9606300" lon="35.2393800">
<ele>-10.990000</ele>
<time>2022-12-14T12:44:25.067Z</time>
</trkpt>
<trkpt lat="30.9606600" lon="35.2392200">
<ele>-12.170000</ele>
<time>2022-12-14T12:44:25.067Z</time>
</trkpt>
<trkpt lat="30.9606500" lon="35.2390600">
<ele>-14.190001</ele>
<time>2022-12-14T12:44:25.067Z</time>
</trkpt>
<trkpt lat="30.9606200" lon="35.2389400">
<ele>-16.280001</ele>
<time>2022-12-14T12:44:25.067Z</time>
</trkpt>
<trkpt lat="30.9607300" lon="35.2388900">
<ele>-15.480000</ele>
<time>2022-12-14T12:44:25.067Z</time>
</trkpt>
<trkpt lat="30.9607900" lon="35.2386800">
<ele>-15.540000</ele>
<time>2022-12-14T12:44:25.067Z</time>
</trkpt>
<trkpt lat="30.9607300" lon="35.2386500">
<ele>-15.610000</ele>
<time>2022-12-14T12:44:25.067Z</time>
</trkpt>
<trkpt lat="30.9603300" lon="35.2381700">
<ele>-9.530001</ele>
<time>2022-12-14T12:44:25.067Z</time>
</trkpt>
<trkpt lat="30.9602600" lon="35.2380600">
<ele>-9.770000</ele>
<time>2022-12-14T12:44:25.067Z</time>
</trkpt>
<trkpt lat="30.9598800" lon="35.2374200">
<ele>-5.780000</ele>
<time>2022-12-14T12:44:25.067Z</time>
</trkpt>
<trkpt lat="30.9598800" lon="35.2374200">
<ele>-5.780000</ele>
<time>2022-12-14T12:44:25.067Z</time>
</trkpt>
<trkpt lat="30.9602600" lon="35.2380600">
<ele>-9.770000</ele>
<time>2022-12-14T12:44:25.067Z</time>
</trkpt>
<trkpt lat="30.9603300" lon="35.2381700">
<ele>-9.530001</ele>
<time>2022-12-14T12:44:25.067Z</time>
</trkpt>
<trkpt lat="30.9607300" lon="35.2386500">
<ele>-15.610000</ele>
<time>2022-12-14T12:44:25.067Z</time>
</trkpt>
<trkpt lat="30.9607900" lon="35.2386800">
<ele>-15.540000</ele>
<time>2022-12-14T12:44:25.067Z</time>
</trkpt>
<trkpt lat="30.9607300" lon="35.2388900">
<ele>-15.480000</ele>
<time>2022-12-14T12:44:25.067Z</time>
</trkpt>
<trkpt lat="30.9606200" lon="35.2389400">
<ele>-16.280001</ele>
<time>2022-12-14T12:44:25.067Z</time>
</trkpt>
<trkpt lat="30.9605500" lon="35.2388300">
<ele>-17.400000</ele>
<time>2022-12-14T12:44:25.067Z</time>
</trkpt>
<trkpt lat="30.9603100" lon="35.2387000">
<ele>-16.530001</ele>
<time>2022-12-14T12:44:25.067Z</time>
</trkpt>
<trkpt lat="30.9603200" lon="35.2386500">
<ele>-15.660000</ele>
<time>2022-12-14T12:44:25.067Z</time>
</trkpt>
<trkpt lat="30.9603200" lon="35.2386500">
<ele>-15.660000</ele>
<time>2022-12-14T12:44:25.067Z</time>
</trkpt>
<trkpt lat="30.9603200" lon="35.2386500">
<ele>-15.660000</ele>
<time>2022-12-14T12:44:25.067Z</time>
</trkpt>
<trkpt lat="30.9602600" lon="35.2386200">
<ele>-15.290000</ele>
<time>2022-12-14T12:44:25.067Z</time>
</trkpt>
<trkpt lat="30.9602000" lon="35.2385900">
<ele>-15.040001</ele>
<time>2022-12-14T12:44:25.067Z</time>
</trkpt>
<trkpt lat="30.9600800" lon="35.2385500">
<ele>-15.290000</ele>
<time>2022-12-14T12:44:25.067Z</time>
</trkpt>
<trkpt lat="30.9599000" lon="35.2384800">
<ele>-18.250000</ele>
<time>2022-12-14T12:44:25.067Z</time>
</trkpt>
<trkpt lat="30.9598400" lon="35.2384500">
<ele>-20.320000</ele>
<time>2022-12-14T12:44:25.067Z</time>
</trkpt>
<trkpt lat="30.9597800" lon="35.2384200">
<ele>-22.860001</ele>
<time>2022-12-14T12:44:25.067Z</time>
</trkpt>
<trkpt lat="30.9596600" lon="35.2383700">
<ele>-26.520000</ele>
<time>2022-12-14T12:44:25.067Z</time>
</trkpt>
<trkpt lat="30.9595300" lon="35.2383000">
<ele>-27.080000</ele>
<time>2022-12-14T12:44:25.067Z</time>
</trkpt>
<trkpt lat="30.9593900" lon="35.2382400">
<ele>-28.240000</ele>
<time>2022-12-14T12:44:25.067Z</time>
</trkpt>
<trkpt lat="30.9592700" lon="35.2381800">
<ele>-29.280001</ele>
<time>2022-12-14T12:44:25.067Z</time>
</trkpt>
<trkpt lat="30.9590200" lon="35.2380500">
<ele>-27.519999</ele>
<time>2022-12-14T12:44:25.067Z</time>
</trkpt>
<trkpt lat="30.9589000" lon="35.2379900">
<ele>-27.960001</ele>
<time>2022-12-14T12:44:25.067Z</time>
</trkpt>
<trkpt lat="30.9588400" lon="35.2379600">
<ele>-28.080000</ele>
<time>2022-12-14T12:44:25.067Z</time>
</trkpt>
<trkpt lat="30.9587200" lon="35.2379000">
<ele>-27.950001</ele>
<time>2022-12-14T12:44:25.067Z</time>
</trkpt>
<trkpt lat="30.9584800" lon="35.2377900">
<ele>-28.320000</ele>
<time>2022-12-14T12:44:25.067Z</time>
</trkpt>
<trkpt lat="30.9584200" lon="35.2377700">
<ele>-28.910000</ele>
<time>2022-12-14T12:44:25.067Z</time>
</trkpt>
<trkpt lat="30.9583000" lon="35.2377300">
<ele>-31.090000</ele>
<time>2022-12-14T12:44:25.067Z</time>
</trkpt>
<trkpt lat="30.9580700" lon="35.2376700">
<ele>-36.130001</ele>
<time>2022-12-14T12:44:25.067Z</time>
</trkpt>
<trkpt lat="30.9580200" lon="35.2376600">
<ele>-36.799999</ele>
<time>2022-12-14T12:44:25.067Z</time>
</trkpt>
<trkpt lat="30.9578700" lon="35.2376100">
<ele>-38.960003</ele>
<time>2022-12-14T12:44:25.067Z</time>
</trkpt>
<trkpt lat="30.9578300" lon="35.2375900">
<ele>-39.680000</ele>
<time>2022-12-14T12:44:25.067Z</time>
</trkpt>
<trkpt lat="30.9577700" lon="35.2375500">
<ele>-41.050003</ele>
<time>2022-12-14T12:44:25.067Z</time>
</trkpt>
<trkpt lat="30.9576500" lon="35.2374500">
<ele>-45.119999</ele>
<time>2022-12-14T12:44:25.067Z</time>
</trkpt>
<trkpt lat="30.9575600" lon="35.2373600">
<ele>-48.039997</ele>
<time>2022-12-14T12:44:25.067Z</time>
</trkpt>
<trkpt lat="30.9575700" lon="35.2372900">
<ele>-48.949997</ele>
<time>2022-12-14T12:44:25.067Z</time>
</trkpt>
<trkpt lat="30.9575800" lon="35.2372800">
<ele>-48.960003</ele>
<time>2022-12-14T12:44:25.067Z</time>
</trkpt>
<trkpt lat="30.9575900" lon="35.2372700">
<ele>-48.960003</ele>
<time>2022-12-14T12:44:25.067Z</time>
</trkpt>
<trkpt lat="30.9576000" lon="35.2372700">
<ele>-48.810001</ele>
<time>2022-12-14T12:44:25.067Z</time>
</trkpt>
<trkpt lat="30.9575900" lon="35.2372700">
<ele>-48.960003</ele>
<time>2022-12-14T12:44:25.067Z</time>
</trkpt>
<trkpt lat="30.9575900" lon="35.2372700">
<ele>-48.960003</ele>
<time>2022-12-14T12:44:25.067Z</time>
</trkpt>
<trkpt lat="30.9575900" lon="35.2372700">
<ele>-48.960003</ele>
<time>2022-12-14T12:44:25.067Z</time>
</trkpt>
<trkpt lat="30.9575900" lon="35.2372700">
<ele>-48.960003</ele>
<time>2022-12-14T12:44:25.067Z</time>
</trkpt>
<trkpt lat="30.9575900" lon="35.2372700">
<ele>-48.960003</ele>
<time>2022-12-14T12:44:25.067Z</time>
</trkpt>
<trkpt lat="30.9575900" lon="35.2372700">
<ele>-48.960003</ele>
<time>2022-12-14T12:44:25.067Z</time>
</trkpt>
<trkpt lat="30.9575900" lon="35.2372700">
<ele>-48.960003</ele>
<time>2022-12-14T12:44:25.067Z</time>
</trkpt>
<trkpt lat="30.9575900" lon="35.2372800">
<ele>-48.799999</ele>
<time>2022-12-14T12:44:25.067Z</time>
</trkpt>
<trkpt lat="30.9575900" lon="35.2372900">
<ele>-48.649998</ele>
<time>2022-12-14T12:44:25.067Z</time>
</trkpt>
<trkpt lat="30.9575800" lon="35.2372900">
<ele>-48.799999</ele>
<time>2022-12-14T12:44:25.067Z</time>
</trkpt>
<trkpt lat="30.9575800" lon="35.2372900">
<ele>-48.799999</ele>
<time>2022-12-14T12:44:25.067Z</time>
</trkpt>
<trkpt lat="30.9575800" lon="35.2372900">
<ele>-48.799999</ele>
<time>2022-12-14T12:44:25.067Z</time>
</trkpt>
<trkpt lat="30.9575700" lon="35.2373100">
<ele>-48.649998</ele>
<time>2022-12-14T12:44:25.067Z</time>
</trkpt>
<trkpt lat="30.9575100" lon="35.2373000">
<ele>-49.730003</ele>
<time>2022-12-14T12:44:25.067Z</time>
</trkpt>
<trkpt lat="30.9574900" lon="35.2372700">
<ele>-50.139999</ele>
<time>2022-12-14T12:44:25.067Z</time>
</trkpt>
<trkpt lat="30.9574400" lon="35.2372200">
<ele>-49.919998</ele>
<time>2022-12-14T12:44:25.067Z</time>
</trkpt>
<trkpt lat="30.9573200" lon="35.2370900">
<ele>-47.450001</ele>
<time>2022-12-14T12:44:25.067Z</time>
</trkpt>
<trkpt lat="30.9571300" lon="35.2368900">
<ele>-42.880001</ele>
<time>2022-12-14T12:44:25.067Z</time>
</trkpt>
<trkpt lat="30.9571100" lon="35.2368700">
<ele>-42.420002</ele>
<time>2022-12-14T12:44:25.067Z</time>
</trkpt>
<trkpt lat="30.9570300" lon="35.2367800">
<ele>-40.670002</ele>
<time>2022-12-14T12:44:25.067Z</time>
</trkpt>
<trkpt lat="30.9570300" lon="35.2367800">
<ele>-40.670002</ele>
<time>2022-12-14T12:44:25.067Z</time>
</trkpt>
<trkpt lat="30.9570000" lon="35.2368200">
<ele>-40.109997</ele>
<time>2022-12-14T12:44:25.067Z</time>
</trkpt>
<trkpt lat="30.9569000" lon="35.2367300">
<ele>-39.160000</ele>
<time>2022-12-14T12:44:25.067Z</time>
</trkpt>
<trkpt lat="30.9567900" lon="35.2366200">
<ele>-40.080002</ele>
<time>2022-12-14T12:44:25.067Z</time>
</trkpt>
<trkpt lat="30.9567200" lon="35.2365100">
<ele>-41.849998</ele>
<time>2022-12-14T12:44:25.067Z</time>
</trkpt>
<trkpt lat="30.9566800" lon="35.2363900">
<ele>-43.840000</ele>
<time>2022-12-14T12:44:25.067Z</time>
</trkpt>
<trkpt lat="30.9566800" lon="35.2363200">
<ele>-44.850002</ele>
<time>2022-12-14T12:44:25.067Z</time>
</trkpt>
<trkpt lat="30.9567100" lon="35.2361800">
<ele>-46.540001</ele>
<time>2022-12-14T12:44:25.067Z</time>
</trkpt>
<trkpt lat="30.9569200" lon="35.2356500">
<ele>-51.009998</ele>
<time>2022-12-14T12:44:25.067Z</time>
</trkpt>
<trkpt lat="30.9569900" lon="35.2354500">
<ele>-50.369999</ele>
<time>2022-12-14T12:44:25.067Z</time>
</trkpt>
<trkpt lat="30.9570100" lon="35.2352500">
<ele>-49.270000</ele>
<time>2022-12-14T12:44:25.067Z</time>
</trkpt>
<trkpt lat="30.9570000" lon="35.2351600">
<ele>-49.259998</ele>
<time>2022-12-14T12:44:25.067Z</time>
</trkpt>
<trkpt lat="30.9569600" lon="35.2350800">
<ele>-49.939999</ele>
<time>2022-12-14T12:44:25.067Z</time>
</trkpt>
<trkpt lat="30.9568400" lon="35.2349200">
<ele>-50.200001</ele>
<time>2022-12-14T12:44:25.067Z</time>
</trkpt>
<trkpt lat="30.9566200" lon="35.2347200">
<ele>-51.299999</ele>
<time>2022-12-14T12:44:25.067Z</time>
</trkpt>
<trkpt lat="30.9562000" lon="35.2344100">
<ele>-48.459999</ele>
<time>2022-12-14T12:44:25.067Z</time>
</trkpt>
<trkpt lat="30.9560900" lon="35.2343600">
<ele>-49.750000</ele>
<time>2022-12-14T12:44:25.067Z</time>
</trkpt>
<trkpt lat="30.9559700" lon="35.2343300">
<ele>-51.580002</ele>
<time>2022-12-14T12:44:25.067Z</time>
</trkpt>
<trkpt lat="30.9557500" lon="35.2342900">
<ele>-55.250000</ele>
<time>2022-12-14T12:44:25.067Z</time>
</trkpt>
<trkpt lat="30.9555500" lon="35.2343000">
<ele>-58.629997</ele>
<time>2022-12-14T12:44:25.067Z</time>
</trkpt>
<trkpt lat="30.9551800" lon="35.2344400">
<ele>-60.680000</ele>
<time>2022-12-14T12:44:25.067Z</time>
</trkpt>
<trkpt lat="30.9549100" lon="35.2344500">
<ele>-58.970001</ele>
<time>2022-12-14T12:44:25.067Z</time>
</trkpt>
<trkpt lat="30.9547000" lon="35.2343900">
<ele>-57.380001</ele>
<time>2022-12-14T12:44:25.067Z</time>
</trkpt>
<trkpt lat="30.9545400" lon="35.2343000">
<ele>-57.270000</ele>
<time>2022-12-14T12:44:25.067Z</time>
</trkpt>
<trkpt lat="30.9544500" lon="35.2342200">
<ele>-58.070000</ele>
<time>2022-12-14T12:44:25.067Z</time>
</trkpt>
<trkpt lat="30.9543800" lon="35.2341100">
<ele>-60.570000</ele>
<time>2022-12-14T12:44:25.067Z</time>
</trkpt>
<trkpt lat="30.9543300" lon="35.2339600">
<ele>-64.010002</ele>
<time>2022-12-14T12:44:25.067Z</time>
</trkpt>
<trkpt lat="30.9543300" lon="35.2337900">
<ele>-66.800003</ele>
<time>2022-12-14T12:44:25.067Z</time>
</trkpt>
<trkpt lat="30.9543600" lon="35.2335300">
<ele>-68.680000</ele>
<time>2022-12-14T12:44:25.067Z</time>
</trkpt>
<trkpt lat="30.9543300" lon="35.2333900">
<ele>-68.389999</ele>
<time>2022-12-14T12:44:25.067Z</time>
</trkpt>
<trkpt lat="30.9542400" lon="35.2332600">
<ele>-69.139999</ele>
<time>2022-12-14T12:44:25.067Z</time>
</trkpt>
<trkpt lat="30.9541500" lon="35.2331700">
<ele>-70.180000</ele>
<time>2022-12-14T12:44:25.067Z</time>
</trkpt>
<trkpt lat="30.9540400" lon="35.2330900">
<ele>-71.370003</ele>
<time>2022-12-14T12:44:25.067Z</time>
</trkpt>
<trkpt lat="30.9539900" lon="35.2330300">
<ele>-71.940002</ele>
<time>2022-12-14T12:44:25.067Z</time>
</trkpt>
<trkpt lat="30.9539000" lon="35.2328200">
<ele>-72.910004</ele>
<time>2022-12-14T12:44:25.067Z</time>
</trkpt>
<trkpt lat="30.9538700" lon="35.2326700">
<ele>-72.740005</ele>
<time>2022-12-14T12:44:25.067Z</time>
</trkpt>
<trkpt lat="30.9538700" lon="35.2324500">
<ele>-72.130005</ele>
<time>2022-12-14T12:44:25.067Z</time>
</trkpt>
<trkpt lat="30.9539200" lon="35.2317000">
<ele>-62.899998</ele>
<time>2022-12-14T12:44:25.067Z</time>
</trkpt>
<trkpt lat="30.9539000" lon="35.2315100">
<ele>-61.599998</ele>
<time>2022-12-14T12:44:25.067Z</time>
</trkpt>
<trkpt lat="30.9538100" lon="35.2312100">
<ele>-59.689999</ele>
<time>2022-12-14T12:44:25.067Z</time>
</trkpt>
<trkpt lat="30.9536000" lon="35.2308700">
<ele>-57.820000</ele>
<time>2022-12-14T12:44:25.067Z</time>
</trkpt>
<trkpt lat="30.9534000" lon="35.2306400">
<ele>-55.760002</ele>
<time>2022-12-14T12:44:25.067Z</time>
</trkpt>
<trkpt lat="30.9532500" lon="35.2305100">
<ele>-54.509998</ele>
<time>2022-12-14T12:44:25.067Z</time>
</trkpt>
<trkpt lat="30.9530000" lon="35.2303600">
<ele>-53.260002</ele>
<time>2022-12-14T12:44:25.067Z</time>
</trkpt>
<trkpt lat="30.9528600" lon="35.2302200">
<ele>-53.829998</ele>
<time>2022-12-14T12:44:25.067Z</time>
</trkpt>
<trkpt lat="30.9527400" lon="35.2300500">
<ele>-53.480000</ele>
<time>2022-12-14T12:44:25.067Z</time>
</trkpt>
<trkpt lat="30.9527000" lon="35.2299500">
<ele>-53.010002</ele>
<time>2022-12-14T12:44:25.067Z</time>
</trkpt>
<trkpt lat="30.9526200" lon="35.2296000">
<ele>-51.720001</ele>
<time>2022-12-14T12:44:25.067Z</time>
</trkpt>
<trkpt lat="30.9526100" lon="35.2294900">
<ele>-51.139999</ele>
<time>2022-12-14T12:44:25.067Z</time>
</trkpt>
<trkpt lat="30.9526300" lon="35.2292600">
<ele>-49.660000</ele>
<time>2022-12-14T12:44:25.067Z</time>
</trkpt>
<trkpt lat="30.9526900" lon="35.2290500">
<ele>-49.399998</ele>
<time>2022-12-14T12:44:25.067Z</time>
</trkpt>
<trkpt lat="30.9528300" lon="35.2286500">
<ele>-47.210003</ele>
<time>2022-12-14T12:44:25.067Z</time>
</trkpt>
<trkpt lat="30.9529200" lon="35.2283100">
<ele>-41.070000</ele>
<time>2022-12-14T12:44:25.067Z</time>
</trkpt>
<trkpt lat="30.9529000" lon="35.2280700">
<ele>-36.710003</ele>
<time>2022-12-14T12:44:25.067Z</time>
</trkpt>
<trkpt lat="30.9528000" lon="35.2276000">
<ele>-34.360001</ele>
<time>2022-12-14T12:44:25.067Z</time>
</trkpt>
<trkpt lat="30.9527500" lon="35.2274000">
<ele>-33.579998</ele>
<time>2022-12-14T12:44:25.067Z</time>
</trkpt>
<trkpt lat="30.9527200" lon="35.2273100">
<ele>-33.250000</ele>
<time>2022-12-14T12:44:25.067Z</time>
</trkpt>
<trkpt lat="30.9526600" lon="35.2269400">
<ele>-32.540001</ele>
<time>2022-12-14T12:44:25.067Z</time>
</trkpt>
<trkpt lat="30.9526600" lon="35.2267900">
<ele>-31.460001</ele>
<time>2022-12-14T12:44:25.067Z</time>
</trkpt>
<trkpt lat="30.9527400" lon="35.2262400">
<ele>-29.480001</ele>
<time>2022-12-14T12:44:25.067Z</time>
</trkpt>
<trkpt lat="30.9527200" lon="35.2260100">
<ele>-30.120001</ele>
<time>2022-12-14T12:44:25.067Z</time>
</trkpt>
<trkpt lat="30.9526400" lon="35.2257800">
<ele>-31.200001</ele>
<time>2022-12-14T12:44:25.067Z</time>
</trkpt>
<trkpt lat="30.9525700" lon="35.2256100">
<ele>-31.639999</ele>
<time>2022-12-14T12:44:25.067Z</time>
</trkpt>
<trkpt lat="30.9524800" lon="35.2255100">
<ele>-32.439999</ele>
<time>2022-12-14T12:44:25.067Z</time>
</trkpt>
<trkpt lat="30.9523500" lon="35.2254400">
<ele>-33.440002</ele>
<time>2022-12-14T12:44:25.067Z</time>
</trkpt>
<trkpt lat="30.9522900" lon="35.2253800">
<ele>-34.020000</ele>
<time>2022-12-14T12:44:25.067Z</time>
</trkpt>
<trkpt lat="30.9522300" lon="35.2253100">
<ele>-34.930000</ele>
<time>2022-12-14T12:44:25.067Z</time>
</trkpt>
<trkpt lat="30.9521300" lon="35.2251400">
<ele>-36.490002</ele>
<time>2022-12-14T12:44:25.067Z</time>
</trkpt>
<trkpt lat="30.9519900" lon="35.2248800">
<ele>-41.130001</ele>
<time>2022-12-14T12:44:25.067Z</time>
</trkpt>
<trkpt lat="30.9519000" lon="35.2246100">
<ele>-43.759998</ele>
<time>2022-12-14T12:44:25.067Z</time>
</trkpt>
<trkpt lat="30.9518500" lon="35.2243400">
<ele>-44.620003</ele>
<time>2022-12-14T12:44:25.067Z</time>
</trkpt>
<trkpt lat="30.9518400" lon="35.2242500">
<ele>-44.959999</ele>
<time>2022-12-14T12:44:25.067Z</time>
</trkpt>
<trkpt lat="30.9518500" lon="35.2241600">
<ele>-44.449997</ele>
<time>2022-12-14T12:44:25.067Z</time>
</trkpt>
<trkpt lat="30.9518900" lon="35.2239900">
<ele>-43.049999</ele>
<time>2022-12-14T12:44:25.067Z</time>
</trkpt>
<trkpt lat="30.9520600" lon="35.2236200">
<ele>-35.320000</ele>
<time>2022-12-14T12:44:25.067Z</time>
</trkpt>
<trkpt lat="30.9520800" lon="35.2235100">
<ele>-34.730000</ele>
<time>2022-12-14T12:44:25.067Z</time>
</trkpt>
<trkpt lat="30.9520900" lon="35.2234100">
<ele>-34.720001</ele>
<time>2022-12-14T12:44:25.067Z</time>
</trkpt>
<trkpt lat="30.9519800" lon="35.2226100">
<ele>-41.989998</ele>
<time>2022-12-14T12:44:25.067Z</time>
</trkpt>
<trkpt lat="30.9519900" lon="35.2225400">
<ele>-42.149998</ele>
<time>2022-12-14T12:44:25.067Z</time>
</trkpt>
<trkpt lat="30.9520900" lon="35.2222700">
<ele>-41.299999</ele>
<time>2022-12-14T12:44:25.067Z</time>
</trkpt>
<trkpt lat="30.9520900" lon="35.2221100">
<ele>-41.190002</ele>
<time>2022-12-14T12:44:25.067Z</time>
</trkpt>
<trkpt lat="30.9520700" lon="35.2220300">
<ele>-41.360001</ele>
<time>2022-12-14T12:44:25.067Z</time>
</trkpt>
<trkpt lat="30.9519700" lon="35.2218600">
<ele>-41.160000</ele>
<time>2022-12-14T12:44:25.067Z</time>
</trkpt>
<trkpt lat="30.9516600" lon="35.2214800">
<ele>-46.579998</ele>
<time>2022-12-14T12:44:25.067Z</time>
</trkpt>
<trkpt lat="30.9515600" lon="35.2213300">
<ele>-49.120003</ele>
<time>2022-12-14T12:44:25.067Z</time>
</trkpt>
<trkpt lat="30.9513400" lon="35.2209500">
<ele>-48.529999</ele>
<time>2022-12-14T12:44:25.067Z</time>
</trkpt>
<trkpt lat="30.9513000" lon="35.2208200">
<ele>-46.990002</ele>
<time>2022-12-14T12:44:25.067Z</time>
</trkpt>
<trkpt lat="30.9513100" lon="35.2207200">
<ele>-44.950001</ele>
<time>2022-12-14T12:44:25.067Z</time>
</trkpt>
<trkpt lat="30.9514200" lon="35.2203800">
<ele>-39.250000</ele>
<time>2022-12-14T12:44:25.067Z</time>
</trkpt>
<trkpt lat="30.9514300" lon="35.2202900">
<ele>-37.950001</ele>
<time>2022-12-14T12:44:25.067Z</time>
</trkpt>
<trkpt lat="30.9514200" lon="35.2201000">
<ele>-32.130001</ele>
<time>2022-12-14T12:44:25.067Z</time>
</trkpt>
<trkpt lat="30.9513500" lon="35.2196800">
<ele>-17.830000</ele>
<time>2022-12-14T12:44:25.067Z</time>
</trkpt>
<trkpt lat="30.9512600" lon="35.2194700">
<ele>-7.530000</ele>
<time>2022-12-14T12:44:25.067Z</time>
</trkpt>
<trkpt lat="30.9512300" lon="35.2193600">
<ele>-6.350000</ele>
<time>2022-12-14T12:44:25.067Z</time>
</trkpt>
<trkpt lat="30.9512200" lon="35.2192900">
<ele>-5.760000</ele>
<time>2022-12-14T12:44:25.067Z</time>
</trkpt>
<trkpt lat="30.9512600" lon="35.2191200">
<ele>-0.850000</ele>
<time>2022-12-14T12:44:25.067Z</time>
</trkpt>
<trkpt lat="30.9513800" lon="35.2187000">
<ele>17.170000</ele>
<time>2022-12-14T12:44:25.067Z</time>
</trkpt>
<trkpt lat="30.9514600" lon="35.2184900">
<ele>16.500000</ele>
<time>2022-12-14T12:44:25.067Z</time>
</trkpt>
<trkpt lat="30.9515800" lon="35.2182600">
<ele>12.960000</ele>
<time>2022-12-14T12:44:25.067Z</time>
</trkpt>
<trkpt lat="30.9516800" lon="35.2175400">
<ele>-0.710000</ele>
<time>2022-12-14T12:44:25.067Z</time>
</trkpt>
<trkpt lat="30.9517200" lon="35.2173800">
<ele>-9.180000</ele>
<time>2022-12-14T12:44:25.067Z</time>
</trkpt>
<trkpt lat="30.9518200" lon="35.2171200">
<ele>-20.049999</ele>
<time>2022-12-14T12:44:25.067Z</time>
</trkpt>
<trkpt lat="30.9517900" lon="35.2170000">
<ele>-22.200001</ele>
<time>2022-12-14T12:44:25.067Z</time>
</trkpt>
<trkpt lat="30.9516100" lon="35.2167200">
<ele>-23.639999</ele>
<time>2022-12-14T12:44:25.067Z</time>
</trkpt>
<trkpt lat="30.9515500" lon="35.2165500">
<ele>-20.459999</ele>
<time>2022-12-14T12:44:25.067Z</time>
</trkpt>
<trkpt lat="30.9514900" lon="35.2164700">
<ele>-16.990000</ele>
<time>2022-12-14T12:44:25.067Z</time>
</trkpt>
<trkpt lat="30.9514800" lon="35.2163600">
<ele>-14.850000</ele>
<time>2022-12-14T12:44:25.067Z</time>
</trkpt>
<trkpt lat="30.9514900" lon="35.2163100">
<ele>-13.910000</ele>
<time>2022-12-14T12:44:25.067Z</time>
</trkpt>
<trkpt lat="30.9514700" lon="35.2162600">
<ele>-11.830000</ele>
<time>2022-12-14T12:44:25.067Z</time>
</trkpt>
<trkpt lat="30.9514700" lon="35.2162000">
<ele>-10.250000</ele>
<time>2022-12-14T12:44:25.067Z</time>
</trkpt>
<trkpt lat="30.9515200" lon="35.2161000">
<ele>-9.830000</ele>
<time>2022-12-14T12:44:25.067Z</time>
</trkpt>
<trkpt lat="30.9515700" lon="35.2160800">
<ele>-11.960000</ele>
<time>2022-12-14T12:44:25.067Z</time>
</trkpt>
<trkpt lat="30.9516500" lon="35.2160300">
<ele>-16.050001</ele>
<time>2022-12-14T12:44:25.067Z</time>
</trkpt>
<trkpt lat="30.9517000" lon="35.2160100">
<ele>-17.840000</ele>
<time>2022-12-14T12:44:25.067Z</time>
</trkpt>
<trkpt lat="30.9517300" lon="35.2159700">
<ele>-19.060001</ele>
<time>2022-12-14T12:44:25.067Z</time>
</trkpt>
<trkpt lat="30.9517700" lon="35.2159500">
<ele>-19.950001</ele>
<time>2022-12-14T12:44:25.067Z</time>
</trkpt>
<trkpt lat="30.9518700" lon="35.2159100">
<ele>-21.490000</ele>
<time>2022-12-14T12:44:25.067Z</time>
</trkpt>
<trkpt lat="30.9520200" lon="35.2159100">
<ele>-22.130001</ele>
<time>2022-12-14T12:44:25.067Z</time>
</trkpt>
<trkpt lat="30.9522700" lon="35.2158600">
<ele>-22.700001</ele>
<time>2022-12-14T12:44:25.067Z</time>
</trkpt>
<trkpt lat="30.9525500" lon="35.2156900">
<ele>-28.549999</ele>
<time>2022-12-14T12:44:25.067Z</time>
</trkpt>
<trkpt lat="30.9526600" lon="35.2155500">
<ele>-30.010000</ele>
<time>2022-12-14T12:44:25.067Z</time>
</trkpt>
<trkpt lat="30.9528300" lon="35.2150000">
<ele>-32.439999</ele>
<time>2022-12-14T12:44:25.067Z</time>
</trkpt>
<trkpt lat="30.9528600" lon="35.2147200">
<ele>-30.379999</ele>
<time>2022-12-14T12:44:25.067Z</time>
</trkpt>
<trkpt lat="30.9528900" lon="35.2146000">
<ele>-28.530001</ele>
<time>2022-12-14T12:44:25.067Z</time>
</trkpt>
<trkpt lat="30.9528800" lon="35.2145500">
<ele>-27.850000</ele>
<time>2022-12-14T12:44:25.067Z</time>
</trkpt>
<trkpt lat="30.9529100" lon="35.2143100">
<ele>-26.709999</ele>
<time>2022-12-14T12:44:25.067Z</time>
</trkpt>
<trkpt lat="30.9528900" lon="35.2141000">
<ele>-27.000000</ele>
<time>2022-12-14T12:44:25.067Z</time>
</trkpt>
<trkpt lat="30.9528900" lon="35.2139500">
<ele>-27.439999</ele>
<time>2022-12-14T12:44:25.067Z</time>
</trkpt>
<trkpt lat="30.9528400" lon="35.2137900">
<ele>-26.459999</ele>
<time>2022-12-14T12:44:25.067Z</time>
</trkpt>
<trkpt lat="30.9528000" lon="35.2134300">
<ele>-25.840000</ele>
<time>2022-12-14T12:44:25.067Z</time>
</trkpt>
<trkpt lat="30.9527600" lon="35.2133200">
<ele>-25.659998</ele>
<time>2022-12-14T12:44:25.067Z</time>
</trkpt>
<trkpt lat="30.9527800" lon="35.2131500">
<ele>-26.660000</ele>
<time>2022-12-14T12:44:25.067Z</time>
</trkpt>
<trkpt lat="30.9528400" lon="35.2130600">
<ele>-26.770000</ele>
<time>2022-12-14T12:44:25.067Z</time>
</trkpt>
<trkpt lat="30.9529300" lon="35.2130200">
<ele>-26.320000</ele>
<time>2022-12-14T12:44:25.067Z</time>
</trkpt>
<trkpt lat="30.9530200" lon="35.2130000">
<ele>-25.930000</ele>
<time>2022-12-14T12:44:25.067Z</time>
</trkpt>
<trkpt lat="30.9531200" lon="35.2129500">
<ele>-25.360001</ele>
<time>2022-12-14T12:44:25.067Z</time>
</trkpt>
<trkpt lat="30.9532200" lon="35.2129500">
<ele>-24.950001</ele>
<time>2022-12-14T12:44:25.067Z</time>
</trkpt>
<trkpt lat="30.9533600" lon="35.2128900">
<ele>-23.540001</ele>
<time>2022-12-14T12:44:25.067Z</time>
</trkpt>
<trkpt lat="30.9534600" lon="35.2128800">
<ele>-23.139999</ele>
<time>2022-12-14T12:44:25.067Z</time>
</trkpt>
<trkpt lat="30.9536500" lon="35.2128000">
<ele>-22.550001</ele>
<time>2022-12-14T12:44:25.067Z</time>
</trkpt>
<trkpt lat="30.9538800" lon="35.2126600">
<ele>-24.940001</ele>
<time>2022-12-14T12:44:25.067Z</time>
</trkpt>
<trkpt lat="30.9542500" lon="35.2124000">
<ele>-25.980000</ele>
<time>2022-12-14T12:44:25.067Z</time>
</trkpt>
<trkpt lat="30.9544000" lon="35.2122400">
<ele>-24.290001</ele>
<time>2022-12-14T12:44:25.067Z</time>
</trkpt>
<trkpt lat="30.9546500" lon="35.2120600">
<ele>-23.700001</ele>
<time>2022-12-14T12:44:25.067Z</time>
</trkpt>
<trkpt lat="30.9549200" lon="35.2119100">
<ele>-23.150002</ele>
<time>2022-12-14T12:44:25.067Z</time>
</trkpt>
<trkpt lat="30.9551000" lon="35.2118300">
<ele>-22.430000</ele>
<time>2022-12-14T12:44:25.067Z</time>
</trkpt>
<trkpt lat="30.9553600" lon="35.2117600">
<ele>-20.969999</ele>
<time>2022-12-14T12:44:25.067Z</time>
</trkpt>
<trkpt lat="30.9555200" lon="35.2117400">
<ele>-19.760000</ele>
<time>2022-12-14T12:44:25.067Z</time>
</trkpt>
<trkpt lat="30.9559800" lon="35.2115400">
<ele>-16.219999</ele>
<time>2022-12-14T12:44:25.067Z</time>
</trkpt>
<trkpt lat="30.9560600" lon="35.2114800">
<ele>-16.950001</ele>
<time>2022-12-14T12:44:25.067Z</time>
</trkpt>
<trkpt lat="30.9561200" lon="35.2114700">
<ele>-16.959999</ele>
<time>2022-12-14T12:44:25.067Z</time>
</trkpt>
<trkpt lat="30.9562600" lon="35.2114000">
<ele>-19.190001</ele>
<time>2022-12-14T12:44:25.067Z</time>
</trkpt>
<trkpt lat="30.9563700" lon="35.2112900">
<ele>-20.740000</ele>
<time>2022-12-14T12:44:25.067Z</time>
</trkpt>
<trkpt lat="30.9564900" lon="35.2112200">
<ele>-20.350000</ele>
<time>2022-12-14T12:44:25.067Z</time>
</trkpt>
<trkpt lat="30.9567000" lon="35.2110300">
<ele>-18.900000</ele>
<time>2022-12-14T12:44:25.067Z</time>
</trkpt>
<trkpt lat="30.9567600" lon="35.2109500">
<ele>-18.029999</ele>
<time>2022-12-14T12:44:25.067Z</time>
</trkpt>
<trkpt lat="30.9567700" lon="35.2108900">
<ele>-17.680000</ele>
<time>2022-12-14T12:44:25.067Z</time>
</trkpt>
<trkpt lat="30.9570400" lon="35.2106700">
<ele>-19.439999</ele>
<time>2022-12-14T12:44:25.067Z</time>
</trkpt>
<trkpt lat="30.9572800" lon="35.2103600">
<ele>-22.580000</ele>
<time>2022-12-14T12:44:25.067Z</time>
</trkpt>
<trkpt lat="30.9573100" lon="35.2103000">
<ele>-22.580000</ele>
<time>2022-12-14T12:44:25.067Z</time>
</trkpt>
<trkpt lat="30.9573100" lon="35.2103000">
<ele>-22.580000</ele>
<time>2022-12-14T12:44:25.067Z</time>
</trkpt>
<trkpt lat="30.9572800" lon="35.2103600">
<ele>-22.580000</ele>
<time>2022-12-14T12:44:25.067Z</time>
</trkpt>
<trkpt lat="30.9570400" lon="35.2106700">
<ele>-19.439999</ele>
<time>2022-12-14T12:44:25.067Z</time>
</trkpt>
<trkpt lat="30.9567700" lon="35.2108900">
<ele>-17.680000</ele>
<time>2022-12-14T12:44:25.067Z</time>
</trkpt>
<trkpt lat="30.9567600" lon="35.2109500">
<ele>-18.029999</ele>
<time>2022-12-14T12:44:25.067Z</time>
</trkpt>
<trkpt lat="30.9567000" lon="35.2110300">
<ele>-18.900000</ele>
<time>2022-12-14T12:44:25.067Z</time>
</trkpt>
<trkpt lat="30.9564900" lon="35.2112200">
<ele>-20.350000</ele>
<time>2022-12-14T12:44:25.067Z</time>
</trkpt>
<trkpt lat="30.9563700" lon="35.2112900">
<ele>-20.740000</ele>
<time>2022-12-14T12:44:25.067Z</time>
</trkpt>
<trkpt lat="30.9562600" lon="35.2114000">
<ele>-19.190001</ele>
<time>2022-12-14T12:44:25.067Z</time>
</trkpt>
<trkpt lat="30.9561200" lon="35.2114700">
<ele>-16.959999</ele>
<time>2022-12-14T12:44:25.067Z</time>
</trkpt>
<trkpt lat="30.9560600" lon="35.2114800">
<ele>-16.950001</ele>
<time>2022-12-14T12:44:25.067Z</time>
</trkpt>
<trkpt lat="30.9559800" lon="35.2115400">
<ele>-16.219999</ele>
<time>2022-12-14T12:44:25.067Z</time>
</trkpt>
<trkpt lat="30.9555200" lon="35.2117400">
<ele>-19.760000</ele>
<time>2022-12-14T12:44:25.067Z</time>
</trkpt>
<trkpt lat="30.9553600" lon="35.2117600">
<ele>-20.969999</ele>
<time>2022-12-14T12:44:25.067Z</time>
</trkpt>
<trkpt lat="30.9551000" lon="35.2118300">
<ele>-22.430000</ele>
<time>2022-12-14T12:44:25.067Z</time>
</trkpt>
<trkpt lat="30.9549200" lon="35.2119100">
<ele>-23.150002</ele>
<time>2022-12-14T12:44:25.067Z</time>
</trkpt>
<trkpt lat="30.9546500" lon="35.2120600">
<ele>-23.700001</ele>
<time>2022-12-14T12:44:25.067Z</time>
</trkpt>
<trkpt lat="30.9544000" lon="35.2122400">
<ele>-24.290001</ele>
<time>2022-12-14T12:44:25.067Z</time>
</trkpt>
<trkpt lat="30.9542500" lon="35.2124000">
<ele>-25.980000</ele>
<time>2022-12-14T12:44:25.067Z</time>
</trkpt>
<trkpt lat="30.9538800" lon="35.2126600">
<ele>-24.940001</ele>
<time>2022-12-14T12:44:25.067Z</time>
</trkpt>
<trkpt lat="30.9536500" lon="35.2128000">
<ele>-22.550001</ele>
<time>2022-12-14T12:44:25.067Z</time>
</trkpt>
<trkpt lat="30.9534600" lon="35.2128800">
<ele>-23.139999</ele>
<time>2022-12-14T12:44:25.067Z</time>
</trkpt>
<trkpt lat="30.9533600" lon="35.2128900">
<ele>-23.540001</ele>
<time>2022-12-14T12:44:25.067Z</time>
</trkpt>
<trkpt lat="30.9532200" lon="35.2129500">
<ele>-24.950001</ele>
<time>2022-12-14T12:44:25.067Z</time>
</trkpt>
<trkpt lat="30.9531200" lon="35.2129500">
<ele>-25.360001</ele>
<time>2022-12-14T12:44:25.067Z</time>
</trkpt>
<trkpt lat="30.9530200" lon="35.2130000">
<ele>-25.930000</ele>
<time>2022-12-14T12:44:25.067Z</time>
</trkpt>
<trkpt lat="30.9529300" lon="35.2130200">
<ele>-26.320000</ele>
<time>2022-12-14T12:44:25.067Z</time>
</trkpt>
<trkpt lat="30.9528400" lon="35.2130600">
<ele>-26.770000</ele>
<time>2022-12-14T12:44:25.067Z</time>
</trkpt>
<trkpt lat="30.9527800" lon="35.2131500">
<ele>-26.660000</ele>
<time>2022-12-14T12:44:25.067Z</time>
</trkpt>
<trkpt lat="30.9527600" lon="35.2133200">
<ele>-25.659998</ele>
<time>2022-12-14T12:44:25.067Z</time>
</trkpt>
<trkpt lat="30.9528000" lon="35.2134300">
<ele>-25.840000</ele>
<time>2022-12-14T12:44:25.067Z</time>
</trkpt>
<trkpt lat="30.9528400" lon="35.2137900">
<ele>-26.459999</ele>
<time>2022-12-14T12:44:25.067Z</time>
</trkpt>
<trkpt lat="30.9528900" lon="35.2139500">
<ele>-27.439999</ele>
<time>2022-12-14T12:44:25.067Z</time>
</trkpt>
<trkpt lat="30.9528900" lon="35.2141000">
<ele>-27.000000</ele>
<time>2022-12-14T12:44:25.067Z</time>
</trkpt>
<trkpt lat="30.9529100" lon="35.2143100">
<ele>-26.709999</ele>
<time>2022-12-14T12:44:25.067Z</time>
</trkpt>
<trkpt lat="30.9528800" lon="35.2145500">
<ele>-27.850000</ele>
<time>2022-12-14T12:44:25.067Z</time>
</trkpt>
<trkpt lat="30.9528900" lon="35.2146000">
<ele>-28.530001</ele>
<time>2022-12-14T12:44:25.067Z</time>
</trkpt>
<trkpt lat="30.9528600" lon="35.2147200">
<ele>-30.379999</ele>
<time>2022-12-14T12:44:25.067Z</time>
</trkpt>
<trkpt lat="30.9528300" lon="35.2150000">
<ele>-32.439999</ele>
<time>2022-12-14T12:44:25.067Z</time>
</trkpt>
<trkpt lat="30.9526600" lon="35.2155500">
<ele>-30.010000</ele>
<time>2022-12-14T12:44:25.067Z</time>
</trkpt>
<trkpt lat="30.9525500" lon="35.2156900">
<ele>-28.549999</ele>
<time>2022-12-14T12:44:25.067Z</time>
</trkpt>
<trkpt lat="30.9522700" lon="35.2158600">
<ele>-22.700001</ele>
<time>2022-12-14T12:44:25.067Z</time>
</trkpt>
<trkpt lat="30.9520200" lon="35.2159100">
<ele>-22.130001</ele>
<time>2022-12-14T12:44:25.067Z</time>
</trkpt>
<trkpt lat="30.9518700" lon="35.2159100">
<ele>-21.490000</ele>
<time>2022-12-14T12:44:25.067Z</time>
</trkpt>
<trkpt lat="30.9517700" lon="35.2159500">
<ele>-19.950001</ele>
<time>2022-12-14T12:44:25.067Z</time>
</trkpt>
<trkpt lat="30.9517300" lon="35.2159700">
<ele>-19.060001</ele>
<time>2022-12-14T12:44:25.067Z</time>
</trkpt>
<trkpt lat="30.9517000" lon="35.2160100">
<ele>-17.840000</ele>
<time>2022-12-14T12:44:25.067Z</time>
</trkpt>
<trkpt lat="30.9516500" lon="35.2160300">
<ele>-16.050001</ele>
<time>2022-12-14T12:44:25.067Z</time>
</trkpt>
<trkpt lat="30.9515700" lon="35.2160800">
<ele>-11.960000</ele>
<time>2022-12-14T12:44:25.067Z</time>
</trkpt>
<trkpt lat="30.9515200" lon="35.2161000">
<ele>-9.830000</ele>
<time>2022-12-14T12:44:25.067Z</time>
</trkpt>
<trkpt lat="30.9514700" lon="35.2162000">
<ele>-10.250000</ele>
<time>2022-12-14T12:44:25.067Z</time>
</trkpt>
<trkpt lat="30.9514700" lon="35.2162600">
<ele>-11.830000</ele>
<time>2022-12-14T12:44:25.067Z</time>
</trkpt>
<trkpt lat="30.9514900" lon="35.2163100">
<ele>-13.910000</ele>
<time>2022-12-14T12:44:25.067Z</time>
</trkpt>
<trkpt lat="30.9514800" lon="35.2163600">
<ele>-14.850000</ele>
<time>2022-12-14T12:44:25.067Z</time>
</trkpt>
<trkpt lat="30.9514900" lon="35.2164700">
<ele>-16.990000</ele>
<time>2022-12-14T12:44:25.067Z</time>
</trkpt>
<trkpt lat="30.9515500" lon="35.2165500">
<ele>-20.459999</ele>
<time>2022-12-14T12:44:25.067Z</time>
</trkpt>
<trkpt lat="30.9516100" lon="35.2167200">
<ele>-23.639999</ele>
<time>2022-12-14T12:44:25.067Z</time>
</trkpt>
<trkpt lat="30.9517900" lon="35.2170000">
<ele>-22.200001</ele>
<time>2022-12-14T12:44:25.067Z</time>
</trkpt>
<trkpt lat="30.9518200" lon="35.2171200">
<ele>-20.049999</ele>
<time>2022-12-14T12:44:25.067Z</time>
</trkpt>
<trkpt lat="30.9517200" lon="35.2173800">
<ele>-9.180000</ele>
<time>2022-12-14T12:44:25.067Z</time>
</trkpt>
<trkpt lat="30.9516800" lon="35.2175400">
<ele>-0.710000</ele>
<time>2022-12-14T12:44:25.067Z</time>
</trkpt>
<trkpt lat="30.9515800" lon="35.2182600">
<ele>12.960000</ele>
<time>2022-12-14T12:44:25.067Z</time>
</trkpt>
<trkpt lat="30.9514600" lon="35.2184900">
<ele>16.500000</ele>
<time>2022-12-14T12:44:25.067Z</time>
</trkpt>
<trkpt lat="30.9513800" lon="35.2187000">
<ele>17.170000</ele>
<time>2022-12-14T12:44:25.067Z</time>
</trkpt>
<trkpt lat="30.9512600" lon="35.2191200">
<ele>-0.850000</ele>
<time>2022-12-14T12:44:25.067Z</time>
</trkpt>
<trkpt lat="30.9512200" lon="35.2192900">
<ele>-5.760000</ele>
<time>2022-12-14T12:44:25.067Z</time>
</trkpt>
<trkpt lat="30.9512300" lon="35.2193600">
<ele>-6.350000</ele>
<time>2022-12-14T12:44:25.067Z</time>
</trkpt>
<trkpt lat="30.9512600" lon="35.2194700">
<ele>-7.530000</ele>
<time>2022-12-14T12:44:25.067Z</time>
</trkpt>
<trkpt lat="30.9513500" lon="35.2196800">
<ele>-17.830000</ele>
<time>2022-12-14T12:44:25.067Z</time>
</trkpt>
<trkpt lat="30.9514200" lon="35.2201000">
<ele>-32.130001</ele>
<time>2022-12-14T12:44:25.067Z</time>
</trkpt>
<trkpt lat="30.9514300" lon="35.2202900">
<ele>-37.950001</ele>
<time>2022-12-14T12:44:25.067Z</time>
</trkpt>
<trkpt lat="30.9514200" lon="35.2203800">
<ele>-39.250000</ele>
<time>2022-12-14T12:44:25.067Z</time>
</trkpt>
<trkpt lat="30.9513100" lon="35.2207200">
<ele>-44.950001</ele>
<time>2022-12-14T12:44:25.067Z</time>
</trkpt>
<trkpt lat="30.9513000" lon="35.2208200">
<ele>-46.990002</ele>
<time>2022-12-14T12:44:25.067Z</time>
</trkpt>
<trkpt lat="30.9513400" lon="35.2209500">
<ele>-48.529999</ele>
<time>2022-12-14T12:44:25.067Z</time>
</trkpt>
<trkpt lat="30.9515600" lon="35.2213300">
<ele>-49.120003</ele>
<time>2022-12-14T12:44:25.067Z</time>
</trkpt>
<trkpt lat="30.9516600" lon="35.2214800">
<ele>-46.579998</ele>
<time>2022-12-14T12:44:25.067Z</time>
</trkpt>
<trkpt lat="30.9519700" lon="35.2218600">
<ele>-41.160000</ele>
<time>2022-12-14T12:44:25.067Z</time>
</trkpt>
<trkpt lat="30.9520700" lon="35.2220300">
<ele>-41.360001</ele>
<time>2022-12-14T12:44:25.067Z</time>
</trkpt>
<trkpt lat="30.9520900" lon="35.2221100">
<ele>-41.190002</ele>
<time>2022-12-14T12:44:25.067Z</time>
</trkpt>
<trkpt lat="30.9520900" lon="35.2222700">
<ele>-41.299999</ele>
<time>2022-12-14T12:44:25.067Z</time>
</trkpt>
<trkpt lat="30.9519900" lon="35.2225400">
<ele>-42.149998</ele>
<time>2022-12-14T12:44:25.067Z</time>
</trkpt>
<trkpt lat="30.9519800" lon="35.2226100">
<ele>-41.989998</ele>
<time>2022-12-14T12:44:25.067Z</time>
</trkpt>
<trkpt lat="30.9520900" lon="35.2234100">
<ele>-34.720001</ele>
<time>2022-12-14T12:44:25.067Z</time>
</trkpt>
<trkpt lat="30.9520800" lon="35.2235100">
<ele>-34.730000</ele>
<time>2022-12-14T12:44:25.067Z</time>
</trkpt>
<trkpt lat="30.9520600" lon="35.2236200">
<ele>-35.320000</ele>
<time>2022-12-14T12:44:25.067Z</time>
</trkpt>
<trkpt lat="30.9518900" lon="35.2239900">
<ele>-43.049999</ele>
<time>2022-12-14T12:44:25.067Z</time>
</trkpt>
<trkpt lat="30.9518500" lon="35.2241600">
<ele>-44.449997</ele>
<time>2022-12-14T12:44:25.067Z</time>
</trkpt>
<trkpt lat="30.9518400" lon="35.2242500">
<ele>-44.959999</ele>
<time>2022-12-14T12:44:25.067Z</time>
</trkpt>
<trkpt lat="30.9518500" lon="35.2243400">
<ele>-44.620003</ele>
<time>2022-12-14T12:44:25.067Z</time>
</trkpt>
<trkpt lat="30.9519000" lon="35.2246100">
<ele>-43.759998</ele>
<time>2022-12-14T12:44:25.067Z</time>
</trkpt>
<trkpt lat="30.9519900" lon="35.2248800">
<ele>-41.130001</ele>
<time>2022-12-14T12:44:25.067Z</time>
</trkpt>
<trkpt lat="30.9521300" lon="35.2251400">
<ele>-36.490002</ele>
<time>2022-12-14T12:44:25.067Z</time>
</trkpt>
<trkpt lat="30.9522300" lon="35.2253100">
<ele>-34.930000</ele>
<time>2022-12-14T12:44:25.067Z</time>
</trkpt>
<trkpt lat="30.9522900" lon="35.2253800">
<ele>-34.020000</ele>
<time>2022-12-14T12:44:25.067Z</time>
</trkpt>
<trkpt lat="30.9523500" lon="35.2254400">
<ele>-33.440002</ele>
<time>2022-12-14T12:44:25.067Z</time>
</trkpt>
<trkpt lat="30.9524800" lon="35.2255100">
<ele>-32.439999</ele>
<time>2022-12-14T12:44:25.067Z</time>
</trkpt>
<trkpt lat="30.9525700" lon="35.2256100">
<ele>-31.639999</ele>
<time>2022-12-14T12:44:25.067Z</time>
</trkpt>
<trkpt lat="30.9526400" lon="35.2257800">
<ele>-31.200001</ele>
<time>2022-12-14T12:44:25.067Z</time>
</trkpt>
<trkpt lat="30.9527200" lon="35.2260100">
<ele>-30.120001</ele>
<time>2022-12-14T12:44:25.067Z</time>
</trkpt>
<trkpt lat="30.9527400" lon="35.2262400">
<ele>-29.480001</ele>
<time>2022-12-14T12:44:25.067Z</time>
</trkpt>
<trkpt lat="30.9526600" lon="35.2267900">
<ele>-31.460001</ele>
<time>2022-12-14T12:44:25.067Z</time>
</trkpt>
<trkpt lat="30.9526600" lon="35.2269400">
<ele>-32.540001</ele>
<time>2022-12-14T12:44:25.067Z</time>
</trkpt>
<trkpt lat="30.9527200" lon="35.2273100">
<ele>-33.250000</ele>
<time>2022-12-14T12:44:25.067Z</time>
</trkpt>
<trkpt lat="30.9527500" lon="35.2274000">
<ele>-33.579998</ele>
<time>2022-12-14T12:44:25.067Z</time>
</trkpt>
<trkpt lat="30.9525300" lon="35.2274900">
<ele>-33.100002</ele>
<time>2022-12-14T12:44:25.067Z</time>
</trkpt>
<trkpt lat="30.9520700" lon="35.2275900">
<ele>-32.049999</ele>
<time>2022-12-14T12:44:25.067Z</time>
</trkpt>
<trkpt lat="30.9517500" lon="35.2277400">
<ele>-31.289999</ele>
<time>2022-12-14T12:44:25.067Z</time>
</trkpt>
<trkpt lat="30.9515800" lon="35.2278800">
<ele>-30.770000</ele>
<time>2022-12-14T12:44:25.067Z</time>
</trkpt>
<trkpt lat="30.9514000" lon="35.2279700">
<ele>-30.869999</ele>
<time>2022-12-14T12:44:25.067Z</time>
</trkpt>
<trkpt lat="30.9512900" lon="35.2280700">
<ele>-31.029999</ele>
<time>2022-12-14T12:44:25.067Z</time>
</trkpt>
<trkpt lat="30.9511000" lon="35.2281600">
<ele>-32.430000</ele>
<time>2022-12-14T12:44:25.067Z</time>
</trkpt>
<trkpt lat="30.9509800" lon="35.2283500">
<ele>-34.340000</ele>
<time>2022-12-14T12:44:25.067Z</time>
</trkpt>
<trkpt lat="30.9510100" lon="35.2286100">
<ele>-34.180000</ele>
<time>2022-12-14T12:44:25.067Z</time>
</trkpt>
<trkpt lat="30.9509600" lon="35.2287100">
<ele>-35.230000</ele>
<time>2022-12-14T12:44:25.067Z</time>
</trkpt>
<trkpt lat="30.9508600" lon="35.2287800">
<ele>-36.930000</ele>
<time>2022-12-14T12:44:25.067Z</time>
</trkpt>
<trkpt lat="30.9507500" lon="35.2288100">
<ele>-38.649998</ele>
<time>2022-12-14T12:44:25.067Z</time>
</trkpt>
<trkpt lat="30.9506700" lon="35.2288100">
<ele>-39.970001</ele>
<time>2022-12-14T12:44:25.067Z</time>
</trkpt>
<trkpt lat="30.9503800" lon="35.2287600">
<ele>-44.289997</ele>
<time>2022-12-14T12:44:25.067Z</time>
</trkpt>
<trkpt lat="30.9499600" lon="35.2287800">
<ele>-50.220001</ele>
<time>2022-12-14T12:44:25.067Z</time>
</trkpt>
<trkpt lat="30.9497700" lon="35.2288100">
<ele>-52.049999</ele>
<time>2022-12-14T12:44:25.067Z</time>
</trkpt>
<trkpt lat="30.9495300" lon="35.2288900">
<ele>-54.070004</ele>
<time>2022-12-14T12:44:25.067Z</time>
</trkpt>
<trkpt lat="30.9492600" lon="35.2290300">
<ele>-56.160000</ele>
<time>2022-12-14T12:44:25.067Z</time>
</trkpt>
<trkpt lat="30.9491000" lon="35.2290900">
<ele>-57.890003</ele>
<time>2022-12-14T12:44:25.067Z</time>
</trkpt>
<trkpt lat="30.9487600" lon="35.2291700">
<ele>-62.869999</ele>
<time>2022-12-14T12:44:25.067Z</time>
</trkpt>
<trkpt lat="30.9486600" lon="35.2292100">
<ele>-64.680000</ele>
<time>2022-12-14T12:44:25.067Z</time>
</trkpt>
<trkpt lat="30.9486100" lon="35.2292500">
<ele>-65.919998</ele>
<time>2022-12-14T12:44:25.067Z</time>
</trkpt>
<trkpt lat="30.9485300" lon="35.2293800">
<ele>-68.989998</ele>
<time>2022-12-14T12:44:25.067Z</time>
</trkpt>
<trkpt lat="30.9483300" lon="35.2298200">
<ele>-74.360001</ele>
<time>2022-12-14T12:44:25.067Z</time>
</trkpt>
<trkpt lat="30.9482100" lon="35.2301100">
<ele>-75.619995</ele>
<time>2022-12-14T12:44:25.067Z</time>
</trkpt>
<trkpt lat="30.9479000" lon="35.2310800">
<ele>-76.730003</ele>
<time>2022-12-14T12:44:25.067Z</time>
</trkpt>
<trkpt lat="30.9477600" lon="35.2316700">
<ele>-75.989998</ele>
<time>2022-12-14T12:44:25.067Z</time>
</trkpt>
<trkpt lat="30.9477400" lon="35.2318300">
<ele>-75.570000</ele>
<time>2022-12-14T12:44:25.067Z</time>
</trkpt>
<trkpt lat="30.9477500" lon="35.2321900">
<ele>-75.290001</ele>
<time>2022-12-14T12:44:25.067Z</time>
</trkpt>
<trkpt lat="30.9477900" lon="35.2327400">
<ele>-76.550003</ele>
<time>2022-12-14T12:44:25.067Z</time>
</trkpt>
<trkpt lat="30.9477900" lon="35.2335500">
<ele>-79.070000</ele>
<time>2022-12-14T12:44:25.067Z</time>
</trkpt>
<trkpt lat="30.9478400" lon="35.2344700">
<ele>-85.459999</ele>
<time>2022-12-14T12:44:25.067Z</time>
</trkpt>
<trkpt lat="30.9479900" lon="35.2356800">
<ele>-87.369995</ele>
<time>2022-12-14T12:44:25.067Z</time>
</trkpt>
<trkpt lat="30.9479900" lon="35.2357700">
<ele>-88.020004</ele>
<time>2022-12-14T12:44:25.067Z</time>
</trkpt>
<trkpt lat="30.9479600" lon="35.2360000">
<ele>-90.279999</ele>
<time>2022-12-14T12:44:25.067Z</time>
</trkpt>
<trkpt lat="30.9479600" lon="35.2362700">
<ele>-92.669998</ele>
<time>2022-12-14T12:44:25.067Z</time>
</trkpt>
<trkpt lat="30.9481100" lon="35.2368100">
<ele>-97.889999</ele>
<time>2022-12-14T12:44:25.067Z</time>
</trkpt>
<trkpt lat="30.9483500" lon="35.2373400">
<ele>-99.310005</ele>
<time>2022-12-14T12:44:25.067Z</time>
</trkpt>
<trkpt lat="30.9481300" lon="35.2376000">
<ele>-96.610001</ele>
<time>2022-12-14T12:44:25.067Z</time>
</trkpt>
<trkpt lat="30.9480500" lon="35.2377700">
<ele>-97.030006</ele>
<time>2022-12-14T12:44:25.067Z</time>
</trkpt>
<trkpt lat="30.9480500" lon="35.2380500">
<ele>-97.059998</ele>
<time>2022-12-14T12:44:25.067Z</time>
</trkpt>
<trkpt lat="30.9480200" lon="35.2382600">
<ele>-98.570000</ele>
<time>2022-12-14T12:44:25.067Z</time>
</trkpt>
<trkpt lat="30.9479900" lon="35.2382500">
<ele>-98.610001</ele>
<time>2022-12-14T12:44:25.067Z</time>
</trkpt>
<trkpt lat="30.9479900" lon="35.2382500">
<ele>-98.610001</ele>
<time>2022-12-14T12:44:25.067Z</time>
</trkpt>
<trkpt lat="30.9479600" lon="35.2383800">
<ele>-99.610001</ele>
<time>2022-12-14T12:44:25.067Z</time>
</trkpt>
<trkpt lat="30.9479100" lon="35.2386000">
<ele>-102.340004</ele>
<time>2022-12-14T12:44:25.067Z</time>
</trkpt>
<trkpt lat="30.9479000" lon="35.2386400">
<ele>-102.739998</ele>
<time>2022-12-14T12:44:25.067Z</time>
</trkpt>
<trkpt lat="30.9478700" lon="35.2387100">
<ele>-103.280006</ele>
<time>2022-12-14T12:44:25.067Z</time>
</trkpt>
<trkpt lat="30.9477800" lon="35.2388900">
<ele>-104.020004</ele>
<time>2022-12-14T12:44:25.067Z</time>
</trkpt>
<trkpt lat="30.9476500" lon="35.2390600">
<ele>-103.820000</ele>
<time>2022-12-14T12:44:25.067Z</time>
</trkpt>
<trkpt lat="30.9476300" lon="35.2391000">
<ele>-103.870003</ele>
<time>2022-12-14T12:44:25.067Z</time>
</trkpt>
<trkpt lat="30.9474900" lon="35.2393800">
<ele>-104.830002</ele>
<time>2022-12-14T12:44:25.067Z</time>
</trkpt>
<trkpt lat="30.9474700" lon="35.2394700">
<ele>-104.980003</ele>
<time>2022-12-14T12:44:25.067Z</time>
</trkpt>
<trkpt lat="30.9474600" lon="35.2395100">
<ele>-104.720001</ele>
<time>2022-12-14T12:44:25.067Z</time>
</trkpt>
<trkpt lat="30.9474400" lon="35.2396000">
<ele>-104.239998</ele>
<time>2022-12-14T12:44:25.067Z</time>
</trkpt>
<trkpt lat="30.9474300" lon="35.2396800">
<ele>-103.809998</ele>
<time>2022-12-14T12:44:25.067Z</time>
</trkpt>
<trkpt lat="30.9474000" lon="35.2397600">
<ele>-103.610001</ele>
<time>2022-12-14T12:44:25.067Z</time>
</trkpt>
<trkpt lat="30.9473500" lon="35.2399500">
<ele>-101.450005</ele>
<time>2022-12-14T12:44:25.067Z</time>
</trkpt>
<trkpt lat="30.9472800" lon="35.2401300">
<ele>-99.889999</ele>
<time>2022-12-14T12:44:25.067Z</time>
</trkpt>
<trkpt lat="30.9472100" lon="35.2402900">
<ele>-98.169998</ele>
<time>2022-12-14T12:44:25.067Z</time>
</trkpt>
<trkpt lat="30.9470900" lon="35.2404100">
<ele>-99.000000</ele>
<time>2022-12-14T12:44:25.067Z</time>
</trkpt>
<trkpt lat="30.9470600" lon="35.2404300">
<ele>-99.059998</ele>
<time>2022-12-14T12:44:25.067Z</time>
</trkpt>
<trkpt lat="30.9468700" lon="35.2405300">
<ele>-99.660004</ele>
<time>2022-12-14T12:44:25.067Z</time>
</trkpt>
<trkpt lat="30.9466200" lon="35.2406700">
<ele>-102.269997</ele>
<time>2022-12-14T12:44:25.067Z</time>
</trkpt>
<trkpt lat="30.9464200" lon="35.2407500">
<ele>-101.869995</ele>
<time>2022-12-14T12:44:25.067Z</time>
</trkpt>
<trkpt lat="30.9463300" lon="35.2407900">
<ele>-101.320000</ele>
<time>2022-12-14T12:44:25.067Z</time>
</trkpt>
<trkpt lat="30.9461900" lon="35.2408500">
<ele>-100.080002</ele>
<time>2022-12-14T12:44:25.067Z</time>
</trkpt>
<trkpt lat="30.9461400" lon="35.2408700">
<ele>-99.600006</ele>
<time>2022-12-14T12:44:25.067Z</time>
</trkpt>
<trkpt lat="30.9458500" lon="35.2410200">
<ele>-99.839996</ele>
<time>2022-12-14T12:44:25.067Z</time>
</trkpt>
<trkpt lat="30.9456900" lon="35.2411000">
<ele>-100.120003</ele>
<time>2022-12-14T12:44:25.067Z</time>
</trkpt>
<trkpt lat="30.9455700" lon="35.2411700">
<ele>-99.750008</ele>
<time>2022-12-14T12:44:25.067Z</time>
</trkpt>
<trkpt lat="30.9452500" lon="35.2412700">
<ele>-103.509995</ele>
<time>2022-12-14T12:44:25.067Z</time>
</trkpt>
<trkpt lat="30.9452000" lon="35.2412800">
<ele>-103.610001</ele>
<time>2022-12-14T12:44:25.067Z</time>
</trkpt>
<trkpt lat="30.9448700" lon="35.2414100">
<ele>-105.080002</ele>
<time>2022-12-14T12:44:25.067Z</time>
</trkpt>
<trkpt lat="30.9447000" lon="35.2415000">
<ele>-106.129997</ele>
<time>2022-12-14T12:44:25.067Z</time>
</trkpt>
<trkpt lat="30.9446600" lon="35.2415100">
<ele>-106.209999</ele>
<time>2022-12-14T12:44:25.067Z</time>
</trkpt>
<trkpt lat="30.9445000" lon="35.2415600">
<ele>-106.889999</ele>
<time>2022-12-14T12:44:25.067Z</time>
</trkpt>
<trkpt lat="30.9443800" lon="35.2416100">
<ele>-107.019997</ele>
<time>2022-12-14T12:44:25.067Z</time>
</trkpt>
<trkpt lat="30.9443200" lon="35.2416200">
<ele>-106.720001</ele>
<time>2022-12-14T12:44:25.067Z</time>
</trkpt>
<trkpt lat="30.9442200" lon="35.2416400">
<ele>-105.949997</ele>
<time>2022-12-14T12:44:25.067Z</time>
</trkpt>
<trkpt lat="30.9441400" lon="35.2416400">
<ele>-105.379997</ele>
<time>2022-12-14T12:44:25.067Z</time>
</trkpt>
<trkpt lat="30.9439000" lon="35.2416800">
<ele>-102.110001</ele>
<time>2022-12-14T12:44:25.067Z</time>
</trkpt>
<trkpt lat="30.9438200" lon="35.2417100">
<ele>-101.709999</ele>
<time>2022-12-14T12:44:25.067Z</time>
</trkpt>
<trkpt lat="30.9436300" lon="35.2417600">
<ele>-100.750000</ele>
<time>2022-12-14T12:44:25.067Z</time>
</trkpt>
<trkpt lat="30.9433500" lon="35.2418100">
<ele>-99.510002</ele>
<time>2022-12-14T12:44:25.067Z</time>
</trkpt>
<trkpt lat="30.9432300" lon="35.2418300">
<ele>-100.349998</ele>
<time>2022-12-14T12:44:25.067Z</time>
</trkpt>
<trkpt lat="30.9430100" lon="35.2418600">
<ele>-102.629997</ele>
<time>2022-12-14T12:44:25.067Z</time>
</trkpt>
<trkpt lat="30.9428400" lon="35.2418400">
<ele>-105.420006</ele>
<time>2022-12-14T12:44:25.067Z</time>
</trkpt>
<trkpt lat="30.9425500" lon="35.2417600">
<ele>-111.030006</ele>
<time>2022-12-14T12:44:25.067Z</time>
</trkpt>
<trkpt lat="30.9423700" lon="35.2417100">
<ele>-112.139999</ele>
<time>2022-12-14T12:44:25.067Z</time>
</trkpt>
<trkpt lat="30.9422300" lon="35.2416700">
<ele>-112.000000</ele>
<time>2022-12-14T12:44:25.067Z</time>
</trkpt>
<trkpt lat="30.9421100" lon="35.2416300">
<ele>-111.680000</ele>
<time>2022-12-14T12:44:25.067Z</time>
</trkpt>
<trkpt lat="30.9420000" lon="35.2415600">
<ele>-112.040001</ele>
<time>2022-12-14T12:44:25.067Z</time>
</trkpt>
<trkpt lat="30.9417500" lon="35.2413800">
<ele>-111.879997</ele>
<time>2022-12-14T12:44:25.067Z</time>
</trkpt>
<trkpt lat="30.9415500" lon="35.2412500">
<ele>-109.320000</ele>
<time>2022-12-14T12:44:25.067Z</time>
</trkpt>
<trkpt lat="30.9414000" lon="35.2411600">
<ele>-107.159996</ele>
<time>2022-12-14T12:44:25.067Z</time>
</trkpt>
<trkpt lat="30.9413700" lon="35.2411400">
<ele>-107.080002</ele>
<time>2022-12-14T12:44:25.067Z</time>
</trkpt>
<trkpt lat="30.9412600" lon="35.2410600">
<ele>-108.199997</ele>
<time>2022-12-14T12:44:25.067Z</time>
</trkpt>
<trkpt lat="30.9411600" lon="35.2410200">
<ele>-109.139999</ele>
<time>2022-12-14T12:44:25.067Z</time>
</trkpt>
<trkpt lat="30.9410400" lon="35.2409700">
<ele>-110.669998</ele>
<time>2022-12-14T12:44:25.067Z</time>
</trkpt>
<trkpt lat="30.9408700" lon="35.2409000">
<ele>-113.439995</ele>
<time>2022-12-14T12:44:25.067Z</time>
</trkpt>
<trkpt lat="30.9408200" lon="35.2409000">
<ele>-113.899994</ele>
<time>2022-12-14T12:44:25.067Z</time>
</trkpt>
<trkpt lat="30.9407100" lon="35.2409300">
<ele>-114.150002</ele>
<time>2022-12-14T12:44:25.067Z</time>
</trkpt>
<trkpt lat="30.9406500" lon="35.2409500">
<ele>-114.219994</ele>
<time>2022-12-14T12:44:25.067Z</time>
</trkpt>
<trkpt lat="30.9404400" lon="35.2409500">
<ele>-115.800003</ele>
<time>2022-12-14T12:44:25.067Z</time>
</trkpt>
<trkpt lat="30.9403900" lon="35.2409400">
<ele>-116.410004</ele>
<time>2022-12-14T12:44:25.067Z</time>
</trkpt>
<trkpt lat="30.9400900" lon="35.2409400">
<ele>-117.160004</ele>
<time>2022-12-14T12:44:25.067Z</time>
</trkpt>
<trkpt lat="30.9398800" lon="35.2409600">
<ele>-116.720001</ele>
<time>2022-12-14T12:44:25.067Z</time>
</trkpt>
<trkpt lat="30.9397700" lon="35.2409700">
<ele>-116.540001</ele>
<time>2022-12-14T12:44:25.067Z</time>
</trkpt>
<trkpt lat="30.9394800" lon="35.2409900">
<ele>-118.529999</ele>
<time>2022-12-14T12:44:25.067Z</time>
</trkpt>
<trkpt lat="30.9394300" lon="35.2409800">
<ele>-119.130005</ele>
<time>2022-12-14T12:44:25.067Z</time>
</trkpt>
<trkpt lat="30.9392900" lon="35.2409500">
<ele>-120.970001</ele>
<time>2022-12-14T12:44:25.067Z</time>
</trkpt>
<trkpt lat="30.9391500" lon="35.2409400">
<ele>-122.419998</ele>
<time>2022-12-14T12:44:25.067Z</time>
</trkpt>
<trkpt lat="30.9390100" lon="35.2409700">
<ele>-122.780006</ele>
<time>2022-12-14T12:44:25.067Z</time>
</trkpt>
<trkpt lat="30.9389500" lon="35.2409800">
<ele>-122.899994</ele>
<time>2022-12-14T12:44:25.067Z</time>
</trkpt>
<trkpt lat="30.9389000" lon="35.2409900">
<ele>-122.980003</ele>
<time>2022-12-14T12:44:25.067Z</time>
</trkpt>
<trkpt lat="30.9388000" lon="35.2410000">
<ele>-122.490005</ele>
<time>2022-12-14T12:44:25.067Z</time>
</trkpt>
<trkpt lat="30.9387600" lon="35.2410000">
<ele>-122.259995</ele>
<time>2022-12-14T12:44:25.067Z</time>
</trkpt>
<trkpt lat="30.9385100" lon="35.2410200">
<ele>-121.199997</ele>
<time>2022-12-14T12:44:25.067Z</time>
</trkpt>
<trkpt lat="30.9384600" lon="35.2410400">
<ele>-120.989998</ele>
<time>2022-12-14T12:44:25.067Z</time>
</trkpt>
<trkpt lat="30.9383000" lon="35.2410900">
<ele>-120.459999</ele>
<time>2022-12-14T12:44:25.067Z</time>
</trkpt>
<trkpt lat="30.9382200" lon="35.2410600">
<ele>-121.290001</ele>
<time>2022-12-14T12:44:25.067Z</time>
</trkpt>
<trkpt lat="30.9381700" lon="35.2410600">
<ele>-121.620003</ele>
<time>2022-12-14T12:44:25.067Z</time>
</trkpt>
<trkpt lat="30.9381300" lon="35.2410500">
<ele>-121.959999</ele>
<time>2022-12-14T12:44:25.067Z</time>
</trkpt>
<trkpt lat="30.9380300" lon="35.2410800">
<ele>-122.749992</ele>
<time>2022-12-14T12:44:25.067Z</time>
</trkpt>
<trkpt lat="30.9379900" lon="35.2411000">
<ele>-123.470001</ele>
<time>2022-12-14T12:44:25.067Z</time>
</trkpt>
<trkpt lat="30.9379000" lon="35.2410800">
<ele>-125.400002</ele>
<time>2022-12-14T12:44:25.067Z</time>
</trkpt>
<trkpt lat="30.9378900" lon="35.2410800">
<ele>-125.599998</ele>
<time>2022-12-14T12:44:25.067Z</time>
</trkpt>
<trkpt lat="30.9378600" lon="35.2410900">
<ele>-126.220001</ele>
<time>2022-12-14T12:44:25.067Z</time>
</trkpt>
<trkpt lat="30.9378100" lon="35.2411000">
<ele>-127.279999</ele>
<time>2022-12-14T12:44:25.067Z</time>
</trkpt>
<trkpt lat="30.9376900" lon="35.2411800">
<ele>-126.979996</ele>
<time>2022-12-14T12:44:25.067Z</time>
</trkpt>
<trkpt lat="30.9375800" lon="35.2411900">
<ele>-127.409996</ele>
<time>2022-12-14T12:44:25.067Z</time>
</trkpt>
<trkpt lat="30.9374800" lon="35.2412600">
<ele>-127.050003</ele>
<time>2022-12-14T12:44:25.067Z</time>
</trkpt>
<trkpt lat="30.9372900" lon="35.2413000">
<ele>-128.849991</ele>
<time>2022-12-14T12:44:25.067Z</time>
</trkpt>
<trkpt lat="30.9371500" lon="35.2413200">
<ele>-129.750000</ele>
<time>2022-12-14T12:44:25.067Z</time>
</trkpt>
<trkpt lat="30.9370100" lon="35.2413700">
<ele>-129.930008</ele>
<time>2022-12-14T12:44:25.067Z</time>
</trkpt>
<trkpt lat="30.9368300" lon="35.2414400">
<ele>-131.410004</ele>
<time>2022-12-14T12:44:25.067Z</time>
</trkpt>
<trkpt lat="30.9367400" lon="35.2415000">
<ele>-132.479996</ele>
<time>2022-12-14T12:44:25.067Z</time>
</trkpt>
<trkpt lat="30.9366800" lon="35.2415200">
<ele>-132.889999</ele>
<time>2022-12-14T12:44:25.067Z</time>
</trkpt>
<trkpt lat="30.9365200" lon="35.2416200">
<ele>-132.959991</ele>
<time>2022-12-14T12:44:25.067Z</time>
</trkpt>
<trkpt lat="30.9364600" lon="35.2416600">
<ele>-132.540009</ele>
<time>2022-12-14T12:44:25.067Z</time>
</trkpt>
<trkpt lat="30.9364400" lon="35.2416500">
<ele>-132.440002</ele>
<time>2022-12-14T12:44:25.067Z</time>
</trkpt>
<trkpt lat="30.9363100" lon="35.2416400">
<ele>-131.910004</ele>
<time>2022-12-14T12:44:25.067Z</time>
</trkpt>
<trkpt lat="30.9362100" lon="35.2417000">
<ele>-131.119995</ele>
<time>2022-12-14T12:44:25.067Z</time>
</trkpt>
<trkpt lat="30.9361500" lon="35.2417300">
<ele>-130.679993</ele>
<time>2022-12-14T12:44:25.067Z</time>
</trkpt>
<trkpt lat="30.9360100" lon="35.2418100">
<ele>-130.869995</ele>
<time>2022-12-14T12:44:25.067Z</time>
</trkpt>
<trkpt lat="30.9358700" lon="35.2419000">
<ele>-131.190002</ele>
<time>2022-12-14T12:44:25.067Z</time>
</trkpt>
<trkpt lat="30.9358400" lon="35.2419400">
<ele>-131.000000</ele>
<time>2022-12-14T12:44:25.067Z</time>
</trkpt>
<trkpt lat="30.9357700" lon="35.2420000">
<ele>-130.360001</ele>
<time>2022-12-14T12:44:25.067Z</time>
</trkpt>
<trkpt lat="30.9357500" lon="35.2420200">
<ele>-130.179993</ele>
<time>2022-12-14T12:44:25.067Z</time>
</trkpt>
<trkpt lat="30.9356400" lon="35.2421400">
<ele>-129.650009</ele>
<time>2022-12-14T12:44:25.067Z</time>
</trkpt>
<trkpt lat="30.9355900" lon="35.2422500">
<ele>-129.129990</ele>
<time>2022-12-14T12:44:25.067Z</time>
</trkpt>
<trkpt lat="30.9355500" lon="35.2423000">
<ele>-128.860001</ele>
<time>2022-12-14T12:44:25.067Z</time>
</trkpt>
<trkpt lat="30.9355400" lon="35.2423000">
<ele>-128.819992</ele>
<time>2022-12-14T12:44:25.067Z</time>
</trkpt>
<trkpt lat="30.9355200" lon="35.2423000">
<ele>-128.729996</ele>
<time>2022-12-14T12:44:25.067Z</time>
</trkpt>
<trkpt lat="30.9354400" lon="35.2422900">
<ele>-128.500000</ele>
<time>2022-12-14T12:44:25.067Z</time>
</trkpt>
<trkpt lat="30.9353500" lon="35.2423200">
<ele>-127.889999</ele>
<time>2022-12-14T12:44:25.067Z</time>
</trkpt>
<trkpt lat="30.9353200" lon="35.2423500">
<ele>-127.629997</ele>
<time>2022-12-14T12:44:25.067Z</time>
</trkpt>
<trkpt lat="30.9352500" lon="35.2423900">
<ele>-127.500000</ele>
<time>2022-12-14T12:44:25.067Z</time>
</trkpt>
<trkpt lat="30.9352000" lon="35.2424000">
<ele>-127.640007</ele>
<time>2022-12-14T12:44:25.067Z</time>
</trkpt>
<trkpt lat="30.9350400" lon="35.2423900">
<ele>-128.250000</ele>
<time>2022-12-14T12:44:25.067Z</time>
</trkpt>
<trkpt lat="30.9350200" lon="35.2423900">
<ele>-128.320007</ele>
<time>2022-12-14T12:44:25.067Z</time>
</trkpt>
<trkpt lat="30.9350000" lon="35.2423900">
<ele>-128.400009</ele>
<time>2022-12-14T12:44:25.067Z</time>
</trkpt>
<trkpt lat="30.9349700" lon="35.2423700">
<ele>-128.470001</ele>
<time>2022-12-14T12:44:25.067Z</time>
</trkpt>
<trkpt lat="30.9349300" lon="35.2423500">
<ele>-128.539993</ele>
<time>2022-12-14T12:44:25.067Z</time>
</trkpt>
<trkpt lat="30.9348900" lon="35.2423100">
<ele>-128.679993</ele>
<time>2022-12-14T12:44:25.067Z</time>
</trkpt>
<trkpt lat="30.9348700" lon="35.2422900">
<ele>-128.759995</ele>
<time>2022-12-14T12:44:25.067Z</time>
</trkpt>
<trkpt lat="30.9348000" lon="35.2422400">
<ele>-128.940002</ele>
<time>2022-12-14T12:44:25.067Z</time>
</trkpt>
<trkpt lat="30.9347400" lon="35.2421800">
<ele>-128.849991</ele>
<time>2022-12-14T12:44:25.067Z</time>
</trkpt>
<trkpt lat="30.9346900" lon="35.2421500">
<ele>-128.740005</ele>
<time>2022-12-14T12:44:25.067Z</time>
</trkpt>
<trkpt lat="30.9345800" lon="35.2421000">
<ele>-128.559998</ele>
<time>2022-12-14T12:44:25.067Z</time>
</trkpt>
<trkpt lat="30.9345600" lon="35.2421100">
<ele>-128.600006</ele>
<time>2022-12-14T12:44:25.067Z</time>
</trkpt>
<trkpt lat="30.9344800" lon="35.2421500">
<ele>-128.740005</ele>
<time>2022-12-14T12:44:25.067Z</time>
</trkpt>
<trkpt lat="30.9344400" lon="35.2422100">
<ele>-128.979996</ele>
<time>2022-12-14T12:44:25.067Z</time>
</trkpt>
<trkpt lat="30.9343800" lon="35.2422500">
<ele>-129.539993</ele>
<time>2022-12-14T12:44:25.067Z</time>
</trkpt>
<trkpt lat="30.9342600" lon="35.2422400">
<ele>-130.349991</ele>
<time>2022-12-14T12:44:25.067Z</time>
</trkpt>
<trkpt lat="30.9342300" lon="35.2422300">
<ele>-130.550003</ele>
<time>2022-12-14T12:44:25.067Z</time>
</trkpt>
<trkpt lat="30.9341500" lon="35.2422100">
<ele>-130.489990</ele>
<time>2022-12-14T12:44:25.067Z</time>
</trkpt>
<trkpt lat="30.9340500" lon="35.2422500">
<ele>-129.449997</ele>
<time>2022-12-14T12:44:25.067Z</time>
</trkpt>
<trkpt lat="30.9340400" lon="35.2422700">
<ele>-129.410004</ele>
<time>2022-12-14T12:44:25.067Z</time>
</trkpt>
<trkpt lat="30.9339900" lon="35.2423300">
<ele>-129.199997</ele>
<time>2022-12-14T12:44:25.067Z</time>
</trkpt>
<trkpt lat="30.9338700" lon="35.2423700">
<ele>-128.270004</ele>
<time>2022-12-14T12:44:25.067Z</time>
</trkpt>
<trkpt lat="30.9338500" lon="35.2423700">
<ele>-127.919998</ele>
<time>2022-12-14T12:44:25.067Z</time>
</trkpt>
<trkpt lat="30.9337800" lon="35.2424200">
<ele>-127.670006</ele>
<time>2022-12-14T12:44:25.067Z</time>
</trkpt>
<trkpt lat="30.9337000" lon="35.2424400">
<ele>-127.110001</ele>
<time>2022-12-14T12:44:25.067Z</time>
</trkpt>
<trkpt lat="30.9336200" lon="35.2424200">
<ele>-125.530006</ele>
<time>2022-12-14T12:44:25.067Z</time>
</trkpt>
<trkpt lat="30.9335800" lon="35.2424200">
<ele>-125.440002</ele>
<time>2022-12-14T12:44:25.067Z</time>
</trkpt>
<trkpt lat="30.9335400" lon="35.2424300">
<ele>-125.860001</ele>
<time>2022-12-14T12:44:25.067Z</time>
</trkpt>
<trkpt lat="30.9335400" lon="35.2424300">
<ele>-125.860001</ele>
<time>2022-12-14T12:44:25.067Z</time>
</trkpt>
<trkpt lat="30.9329500" lon="35.2425700">
<ele>-135.039993</ele>
<time>2022-12-14T12:44:25.067Z</time>
</trkpt>
<trkpt lat="30.9329500" lon="35.2425700">
<ele>-135.039993</ele>
<time>2022-12-14T12:44:25.067Z</time>
</trkpt>
<trkpt lat="30.9333100" lon="35.2424800">
<ele>-129.029999</ele>
<time>2022-12-14T12:44:25.067Z</time>
</trkpt>
<trkpt lat="30.9333100" lon="35.2424800">
<ele>-129.029999</ele>
<time>2022-12-14T12:44:25.067Z</time>
</trkpt>
<trkpt lat="30.9334800" lon="35.2424000">
<ele>-124.680000</ele>
<time>2022-12-14T12:44:25.067Z</time>
</trkpt>
<trkpt lat="30.9334800" lon="35.2424000">
<ele>-124.680000</ele>
<time>2022-12-14T12:44:25.067Z</time>
</trkpt>
<trkpt lat="30.9334900" lon="35.2423900">
<ele>-124.269997</ele>
<time>2022-12-14T12:44:25.067Z</time>
</trkpt>
<trkpt lat="30.9335700" lon="35.2423700">
<ele>-123.669998</ele>
<time>2022-12-14T12:44:25.067Z</time>
</trkpt>
<trkpt lat="30.9336800" lon="35.2423800">
<ele>-125.250000</ele>
<time>2022-12-14T12:44:25.067Z</time>
</trkpt>
<trkpt lat="30.9337400" lon="35.2423600">
<ele>-125.799995</ele>
<time>2022-12-14T12:44:25.067Z</time>
</trkpt>
<trkpt lat="30.9337900" lon="35.2423500">
<ele>-126.510002</ele>
<time>2022-12-14T12:44:25.067Z</time>
</trkpt>
<trkpt lat="30.9338400" lon="35.2423300">
<ele>-127.169998</ele>
<time>2022-12-14T12:44:25.067Z</time>
</trkpt>
<trkpt lat="30.9339300" lon="35.2423000">
<ele>-128.309998</ele>
<time>2022-12-14T12:44:25.067Z</time>
</trkpt>
<trkpt lat="30.9340400" lon="35.2423000">
<ele>-129.559998</ele>
<time>2022-12-14T12:44:25.067Z</time>
</trkpt>
<trkpt lat="30.9341300" lon="35.2422900">
<ele>-130.570007</ele>
<time>2022-12-14T12:44:25.067Z</time>
</trkpt>
<trkpt lat="30.9342400" lon="35.2423100">
<ele>-130.559998</ele>
<time>2022-12-14T12:44:25.067Z</time>
</trkpt>
<trkpt lat="30.9343200" lon="35.2423000">
<ele>-130.050003</ele>
<time>2022-12-14T12:44:25.067Z</time>
</trkpt>
<trkpt lat="30.9344100" lon="35.2422500">
<ele>-129.339996</ele>
<time>2022-12-14T12:44:25.067Z</time>
</trkpt>
<trkpt lat="30.9345300" lon="35.2422300">
<ele>-129.010010</ele>
<time>2022-12-14T12:44:25.067Z</time>
</trkpt>
<trkpt lat="30.9346200" lon="35.2421800">
<ele>-128.849991</ele>
<time>2022-12-14T12:44:25.067Z</time>
</trkpt>
<trkpt lat="30.9346500" lon="35.2421700">
<ele>-128.809998</ele>
<time>2022-12-14T12:44:25.067Z</time>
</trkpt>
<trkpt lat="30.9347900" lon="35.2421000">
<ele>-128.559998</ele>
<time>2022-12-14T12:44:25.067Z</time>
</trkpt>
<trkpt lat="30.9348900" lon="35.2419700">
<ele>-128.089996</ele>
<time>2022-12-14T12:44:25.067Z</time>
</trkpt>
<trkpt lat="30.9348800" lon="35.2418600">
<ele>-127.909996</ele>
<time>2022-12-14T12:44:25.067Z</time>
</trkpt>
<trkpt lat="30.9348700" lon="35.2418400">
<ele>-127.849998</ele>
<time>2022-12-14T12:44:25.067Z</time>
</trkpt>
<trkpt lat="30.9348600" lon="35.2417500">
<ele>-127.640007</ele>
<time>2022-12-14T12:44:25.067Z</time>
</trkpt>
<trkpt lat="30.9348600" lon="35.2416700">
<ele>-127.490005</ele>
<time>2022-12-14T12:44:25.067Z</time>
</trkpt>
<trkpt lat="30.9348600" lon="35.2416300">
<ele>-127.159996</ele>
<time>2022-12-14T12:44:25.067Z</time>
</trkpt>
<trkpt lat="30.9348500" lon="35.2415800">
<ele>-126.639999</ele>
<time>2022-12-14T12:44:25.067Z</time>
</trkpt>
<trkpt lat="30.9348400" lon="35.2415000">
<ele>-125.909996</ele>
<time>2022-12-14T12:44:25.067Z</time>
</trkpt>
<trkpt lat="30.9348300" lon="35.2414500">
<ele>-125.479996</ele>
<time>2022-12-14T12:44:25.067Z</time>
</trkpt>
<trkpt lat="30.9348000" lon="35.2413300">
<ele>-124.419998</ele>
<time>2022-12-14T12:44:25.067Z</time>
</trkpt>
<trkpt lat="30.9347900" lon="35.2412500">
<ele>-123.619995</ele>
<time>2022-12-14T12:44:25.067Z</time>
</trkpt>
<trkpt lat="30.9348000" lon="35.2412300">
<ele>-123.440002</ele>
<time>2022-12-14T12:44:25.067Z</time>
</trkpt>
<trkpt lat="30.9348100" lon="35.2411800">
<ele>-122.980003</ele>
<time>2022-12-14T12:44:25.067Z</time>
</trkpt>
<trkpt lat="30.9348000" lon="35.2411300">
<ele>-122.460007</ele>
<time>2022-12-14T12:44:25.067Z</time>
</trkpt>
<trkpt lat="30.9348100" lon="35.2411100">
<ele>-122.310005</ele>
<time>2022-12-14T12:44:25.067Z</time>
</trkpt>
<trkpt lat="30.9348000" lon="35.2409800">
<ele>-121.679993</ele>
<time>2022-12-14T12:44:25.067Z</time>
</trkpt>
<trkpt lat="30.9348100" lon="35.2409400">
<ele>-121.509995</ele>
<time>2022-12-14T12:44:25.067Z</time>
</trkpt>
<trkpt lat="30.9348200" lon="35.2408800">
<ele>-121.229996</ele>
<time>2022-12-14T12:44:25.067Z</time>
</trkpt>
<trkpt lat="30.9348200" lon="35.2408200">
<ele>-120.780006</ele>
<time>2022-12-14T12:44:25.067Z</time>
</trkpt>
<trkpt lat="30.9348100" lon="35.2408000">
<ele>-120.439995</ele>
<time>2022-12-14T12:44:25.067Z</time>
</trkpt>
<trkpt lat="30.9348000" lon="35.2407800">
<ele>-120.089996</ele>
<time>2022-12-14T12:44:25.067Z</time>
</trkpt>
<trkpt lat="30.9347800" lon="35.2407500">
<ele>-119.560005</ele>
<time>2022-12-14T12:44:25.067Z</time>
</trkpt>
<trkpt lat="30.9347400" lon="35.2407300">
<ele>-119.160004</ele>
<time>2022-12-14T12:44:25.067Z</time>
</trkpt>
<trkpt lat="30.9347100" lon="35.2407200">
<ele>-118.750000</ele>
<time>2022-12-14T12:44:25.067Z</time>
</trkpt>
<trkpt lat="30.9346400" lon="35.2407100">
<ele>-117.399994</ele>
<time>2022-12-14T12:44:25.067Z</time>
</trkpt>
<trkpt lat="30.9346000" lon="35.2406900">
<ele>-116.459999</ele>
<time>2022-12-14T12:44:25.067Z</time>
</trkpt>
<trkpt lat="30.9345900" lon="35.2406800">
<ele>-116.169998</ele>
<time>2022-12-14T12:44:25.067Z</time>
</trkpt>
<trkpt lat="30.9345500" lon="35.2406300">
<ele>-114.979996</ele>
<time>2022-12-14T12:44:25.067Z</time>
</trkpt>
<trkpt lat="30.9345500" lon="35.2406300">
<ele>-114.979996</ele>
<time>2022-12-14T12:44:25.067Z</time>
</trkpt>
<trkpt lat="30.9345200" lon="35.2405800">
<ele>-114.059998</ele>
<time>2022-12-14T12:44:25.067Z</time>
</trkpt>
<trkpt lat="30.9345100" lon="35.2405700">
<ele>-113.849998</ele>
<time>2022-12-14T12:44:25.067Z</time>
</trkpt>
<trkpt lat="30.9344900" lon="35.2405300">
<ele>-113.119995</ele>
<time>2022-12-14T12:44:25.067Z</time>
</trkpt>
<trkpt lat="30.9344800" lon="35.2405300">
<ele>-113.020004</ele>
<time>2022-12-14T12:44:25.067Z</time>
</trkpt>
<trkpt lat="30.9344700" lon="35.2405100">
<ele>-112.620003</ele>
<time>2022-12-14T12:44:25.067Z</time>
</trkpt>
<trkpt lat="30.9344500" lon="35.2404800">
<ele>-111.970001</ele>
<time>2022-12-14T12:44:25.067Z</time>
</trkpt>
<trkpt lat="30.9344300" lon="35.2404400">
<ele>-110.760002</ele>
<time>2022-12-14T12:44:25.067Z</time>
</trkpt>
<trkpt lat="30.9344100" lon="35.2404300">
<ele>-109.830002</ele>
<time>2022-12-14T12:44:25.067Z</time>
</trkpt>
<trkpt lat="30.9344000" lon="35.2404300">
<ele>-109.430000</ele>
<time>2022-12-14T12:44:25.067Z</time>
</trkpt>
<trkpt lat="30.9343700" lon="35.2404200">
<ele>-108.099998</ele>
<time>2022-12-14T12:44:25.067Z</time>
</trkpt>
<trkpt lat="30.9343000" lon="35.2404600">
<ele>-105.900002</ele>
<time>2022-12-14T12:44:25.067Z</time>
</trkpt>
<trkpt lat="30.9342600" lon="35.2405100">
<ele>-105.040001</ele>
<time>2022-12-14T12:44:25.067Z</time>
</trkpt>
<trkpt lat="30.9341900" lon="35.2405800">
<ele>-103.500000</ele>
<time>2022-12-14T12:44:25.067Z</time>
</trkpt>
<trkpt lat="30.9341600" lon="35.2406200">
<ele>-103.450005</ele>
<time>2022-12-14T12:44:25.067Z</time>
</trkpt>
<trkpt lat="30.9341600" lon="35.2406200">
<ele>-103.450005</ele>
<time>2022-12-14T12:44:25.067Z</time>
</trkpt>
<trkpt lat="30.9341600" lon="35.2406300">
<ele>-103.699997</ele>
<time>2022-12-14T12:44:25.067Z</time>
</trkpt>
<trkpt lat="30.9341200" lon="35.2406600">
<ele>-103.389999</ele>
<time>2022-12-14T12:44:25.067Z</time>
</trkpt>
<trkpt lat="30.9340600" lon="35.2406900">
<ele>-102.510002</ele>
<time>2022-12-14T12:44:25.067Z</time>
</trkpt>
<trkpt lat="30.9340600" lon="35.2406900">
<ele>-102.510002</ele>
<time>2022-12-14T12:44:25.067Z</time>
</trkpt>
<trkpt lat="30.9339800" lon="35.2407400">
<ele>-101.500000</ele>
<time>2022-12-14T12:44:25.067Z</time>
</trkpt>
<trkpt lat="30.9339300" lon="35.2407500">
<ele>-100.339996</ele>
<time>2022-12-14T12:44:25.067Z</time>
</trkpt>
<trkpt lat="30.9339300" lon="35.2407400">
<ele>-100.120003</ele>
<time>2022-12-14T12:44:25.067Z</time>
</trkpt>
<trkpt lat="30.9339300" lon="35.2407400">
<ele>-100.120003</ele>
<time>2022-12-14T12:44:25.067Z</time>
</trkpt>
<trkpt lat="30.9338500" lon="35.2407800">
<ele>-100.039993</ele>
<time>2022-12-14T12:44:25.067Z</time>
</trkpt>
<trkpt lat="30.9337200" lon="35.2407900">
<ele>-100.860001</ele>
<time>2022-12-14T12:44:25.067Z</time>
</trkpt>
<trkpt lat="30.9336800" lon="35.2407600">
<ele>-100.570000</ele>
<time>2022-12-14T12:44:25.067Z</time>
</trkpt>
<trkpt lat="30.9336000" lon="35.2407000">
<ele>-100.339996</ele>
<time>2022-12-14T12:44:25.067Z</time>
</trkpt>
<trkpt lat="30.9333800" lon="35.2405700">
<ele>-103.989998</ele>
<time>2022-12-14T12:44:25.067Z</time>
</trkpt>
<trkpt lat="30.9333400" lon="35.2405500">
<ele>-104.769997</ele>
<time>2022-12-14T12:44:25.067Z</time>
</trkpt>
<trkpt lat="30.9332900" lon="35.2405400">
<ele>-105.440002</ele>
<time>2022-12-14T12:44:25.067Z</time>
</trkpt>
<trkpt lat="30.9332500" lon="35.2405500">
<ele>-106.129997</ele>
<time>2022-12-14T12:44:25.067Z</time>
</trkpt>
<trkpt lat="30.9331800" lon="35.2405600">
<ele>-107.240005</ele>
<time>2022-12-14T12:44:25.067Z</time>
</trkpt>
<trkpt lat="30.9331300" lon="35.2405800">
<ele>-108.059998</ele>
<time>2022-12-14T12:44:25.067Z</time>
</trkpt>
<trkpt lat="30.9331100" lon="35.2405800">
<ele>-108.340004</ele>
<time>2022-12-14T12:44:25.067Z</time>
</trkpt>
<trkpt lat="30.9330000" lon="35.2405800">
<ele>-108.519997</ele>
<time>2022-12-14T12:44:25.067Z</time>
</trkpt>
<trkpt lat="30.9329300" lon="35.2405800">
<ele>-107.809998</ele>
<time>2022-12-14T12:44:25.067Z</time>
</trkpt>
<trkpt lat="30.9328700" lon="35.2406000">
<ele>-107.370003</ele>
<time>2022-12-14T12:44:25.067Z</time>
</trkpt>
<trkpt lat="30.9326900" lon="35.2406400">
<ele>-107.860001</ele>
<time>2022-12-14T12:44:25.067Z</time>
</trkpt>
<trkpt lat="30.9325000" lon="35.2407000">
<ele>-110.559998</ele>
<time>2022-12-14T12:44:25.067Z</time>
</trkpt>
<trkpt lat="30.9322700" lon="35.2407600">
<ele>-108.940002</ele>
<time>2022-12-14T12:44:25.067Z</time>
</trkpt>
<trkpt lat="30.9321600" lon="35.2407900">
<ele>-109.029999</ele>
<time>2022-12-14T12:44:25.067Z</time>
</trkpt>
<trkpt lat="30.9320900" lon="35.2408400">
<ele>-109.949997</ele>
<time>2022-12-14T12:44:25.067Z</time>
</trkpt>
<trkpt lat="30.9319100" lon="35.2409600">
<ele>-110.339996</ele>
<time>2022-12-14T12:44:25.067Z</time>
</trkpt>
<trkpt lat="30.9317400" lon="35.2411300">
<ele>-110.049995</ele>
<time>2022-12-14T12:44:25.067Z</time>
</trkpt>
<trkpt lat="30.9315300" lon="35.2412300">
<ele>-107.619995</ele>
<time>2022-12-14T12:44:25.067Z</time>
</trkpt>
<trkpt lat="30.9314300" lon="35.2413100">
<ele>-106.579994</ele>
<time>2022-12-14T12:44:25.067Z</time>
</trkpt>
<trkpt lat="30.9313900" lon="35.2413900">
<ele>-107.039993</ele>
<time>2022-12-14T12:44:25.067Z</time>
</trkpt>
<trkpt lat="30.9313800" lon="35.2414300">
<ele>-107.500000</ele>
<time>2022-12-14T12:44:25.067Z</time>
</trkpt>
<trkpt lat="30.9313800" lon="35.2414900">
<ele>-108.600006</ele>
<time>2022-12-14T12:44:25.067Z</time>
</trkpt>
<trkpt lat="30.9313700" lon="35.2415500">
<ele>-109.469994</ele>
<time>2022-12-14T12:44:25.067Z</time>
</trkpt>
<trkpt lat="30.9313000" lon="35.2416300">
<ele>-109.610001</ele>
<time>2022-12-14T12:44:25.067Z</time>
</trkpt>
<trkpt lat="30.9311600" lon="35.2416800">
<ele>-108.150002</ele>
<time>2022-12-14T12:44:25.067Z</time>
</trkpt>
<trkpt lat="30.9310600" lon="35.2416900">
<ele>-107.570000</ele>
<time>2022-12-14T12:44:25.067Z</time>
</trkpt>
<trkpt lat="30.9309600" lon="35.2416800">
<ele>-107.389999</ele>
<time>2022-12-14T12:44:25.067Z</time>
</trkpt>
<trkpt lat="30.9309100" lon="35.2416700">
<ele>-107.110001</ele>
<time>2022-12-14T12:44:25.067Z</time>
</trkpt>
<trkpt lat="30.9307300" lon="35.2416100">
<ele>-107.300003</ele>
<time>2022-12-14T12:44:25.067Z</time>
</trkpt>
<trkpt lat="30.9305600" lon="35.2414500">
<ele>-106.449997</ele>
<time>2022-12-14T12:44:25.067Z</time>
</trkpt>
<trkpt lat="30.9304000" lon="35.2413400">
<ele>-105.130005</ele>
<time>2022-12-14T12:44:25.067Z</time>
</trkpt>
<trkpt lat="30.9303800" lon="35.2413300">
<ele>-105.159996</ele>
<time>2022-12-14T12:44:25.067Z</time>
</trkpt>
<trkpt lat="30.9302800" lon="35.2413100">
<ele>-106.119995</ele>
<time>2022-12-14T12:44:25.067Z</time>
</trkpt>
<trkpt lat="30.9302600" lon="35.2413200">
<ele>-106.000008</ele>
<time>2022-12-14T12:44:25.067Z</time>
</trkpt>
<trkpt lat="30.9302200" lon="35.2413600">
<ele>-105.730003</ele>
<time>2022-12-14T12:44:25.067Z</time>
</trkpt>
<trkpt lat="30.9301900" lon="35.2414500">
<ele>-105.799995</ele>
<time>2022-12-14T12:44:25.067Z</time>
</trkpt>
<trkpt lat="30.9301800" lon="35.2414900">
<ele>-105.820000</ele>
<time>2022-12-14T12:44:25.067Z</time>
</trkpt>
<trkpt lat="30.9301900" lon="35.2415800">
<ele>-106.610001</ele>
<time>2022-12-14T12:44:25.067Z</time>
</trkpt>
<trkpt lat="30.9302200" lon="35.2416700">
<ele>-108.160004</ele>
<time>2022-12-14T12:44:25.067Z</time>
</trkpt>
<trkpt lat="30.9302600" lon="35.2418300">
<ele>-111.149994</ele>
<time>2022-12-14T12:44:25.067Z</time>
</trkpt>
<trkpt lat="30.9302400" lon="35.2420000">
<ele>-111.609993</ele>
<time>2022-12-14T12:44:25.067Z</time>
</trkpt>
<trkpt lat="30.9301900" lon="35.2421100">
<ele>-109.649994</ele>
<time>2022-12-14T12:44:25.067Z</time>
</trkpt>
<trkpt lat="30.9301600" lon="35.2421600">
<ele>-108.429993</ele>
<time>2022-12-14T12:44:25.067Z</time>
</trkpt>
<trkpt lat="30.9301400" lon="35.2422200">
<ele>-107.550003</ele>
<time>2022-12-14T12:44:25.067Z</time>
</trkpt>
<trkpt lat="30.9301600" lon="35.2424100">
<ele>-109.690002</ele>
<time>2022-12-14T12:44:25.067Z</time>
</trkpt>
<trkpt lat="30.9302100" lon="35.2425400">
<ele>-112.849998</ele>
<time>2022-12-14T12:44:25.067Z</time>
</trkpt>
<trkpt lat="30.9302300" lon="35.2426200">
<ele>-114.629997</ele>
<time>2022-12-14T12:44:25.067Z</time>
</trkpt>
<trkpt lat="30.9302300" lon="35.2426900">
<ele>-115.510002</ele>
<time>2022-12-14T12:44:25.067Z</time>
</trkpt>
<trkpt lat="30.9302100" lon="35.2427700">
<ele>-115.940002</ele>
<time>2022-12-14T12:44:25.067Z</time>
</trkpt>
<trkpt lat="30.9301400" lon="35.2429100">
<ele>-115.930000</ele>
<time>2022-12-14T12:44:25.067Z</time>
</trkpt>
<trkpt lat="30.9301100" lon="35.2429800">
<ele>-116.380005</ele>
<time>2022-12-14T12:44:25.067Z</time>
</trkpt>
<trkpt lat="30.9300800" lon="35.2430600">
<ele>-117.229996</ele>
<time>2022-12-14T12:44:25.067Z</time>
</trkpt>
<trkpt lat="30.9300400" lon="35.2431100">
<ele>-117.669998</ele>
<time>2022-12-14T12:44:25.067Z</time>
</trkpt>
<trkpt lat="30.9299400" lon="35.2431800">
<ele>-117.120003</ele>
<time>2022-12-14T12:44:25.067Z</time>
</trkpt>
<trkpt lat="30.9298500" lon="35.2432100">
<ele>-115.129997</ele>
<time>2022-12-14T12:44:25.067Z</time>
</trkpt>
<trkpt lat="30.9297900" lon="35.2432100">
<ele>-113.449997</ele>
<time>2022-12-14T12:44:25.067Z</time>
</trkpt>
<trkpt lat="30.9296700" lon="35.2432000">
<ele>-111.409996</ele>
<time>2022-12-14T12:44:25.067Z</time>
</trkpt>
<trkpt lat="30.9295400" lon="35.2431600">
<ele>-111.290001</ele>
<time>2022-12-14T12:44:25.067Z</time>
</trkpt>
<trkpt lat="30.9295200" lon="35.2431500">
<ele>-111.330002</ele>
<time>2022-12-14T12:44:25.067Z</time>
</trkpt>
<trkpt lat="30.9294600" lon="35.2431200">
<ele>-111.520004</ele>
<time>2022-12-14T12:44:25.067Z</time>
</trkpt>
<trkpt lat="30.9294200" lon="35.2430500">
<ele>-112.049995</ele>
<time>2022-12-14T12:44:25.067Z</time>
</trkpt>
<trkpt lat="30.9293100" lon="35.2428800">
<ele>-111.830002</ele>
<time>2022-12-14T12:44:25.067Z</time>
</trkpt>
<trkpt lat="30.9292800" lon="35.2428600">
<ele>-112.019997</ele>
<time>2022-12-14T12:44:25.067Z</time>
</trkpt>
<trkpt lat="30.9292400" lon="35.2428500">
<ele>-112.349998</ele>
<time>2022-12-14T12:44:25.067Z</time>
</trkpt>
<trkpt lat="30.9292000" lon="35.2428500">
<ele>-112.700005</ele>
<time>2022-12-14T12:44:25.067Z</time>
</trkpt>
<trkpt lat="30.9291600" lon="35.2428600">
<ele>-113.110001</ele>
<time>2022-12-14T12:44:25.067Z</time>
</trkpt>
<trkpt lat="30.9290800" lon="35.2428800">
<ele>-114.449997</ele>
<time>2022-12-14T12:44:25.067Z</time>
</trkpt>
<trkpt lat="30.9289500" lon="35.2429200">
<ele>-116.499992</ele>
<time>2022-12-14T12:44:25.067Z</time>
</trkpt>
<trkpt lat="30.9289100" lon="35.2429300">
<ele>-117.109993</ele>
<time>2022-12-14T12:44:25.067Z</time>
</trkpt>
<trkpt lat="30.9288600" lon="35.2429300">
<ele>-117.930000</ele>
<time>2022-12-14T12:44:25.067Z</time>
</trkpt>
<trkpt lat="30.9287500" lon="35.2428600">
<ele>-119.650002</ele>
<time>2022-12-14T12:44:25.067Z</time>
</trkpt>
<trkpt lat="30.9287100" lon="35.2428400">
<ele>-120.139999</ele>
<time>2022-12-14T12:44:25.067Z</time>
</trkpt>
<trkpt lat="30.9286200" lon="35.2428900">
<ele>-121.669998</ele>
<time>2022-12-14T12:44:25.067Z</time>
</trkpt>
<trkpt lat="30.9285700" lon="35.2429600">
<ele>-123.300003</ele>
<time>2022-12-14T12:44:25.067Z</time>
</trkpt>
<trkpt lat="30.9285600" lon="35.2429800">
<ele>-123.690002</ele>
<time>2022-12-14T12:44:25.067Z</time>
</trkpt>
<trkpt lat="30.9285500" lon="35.2430000">
<ele>-124.099998</ele>
<time>2022-12-14T12:44:25.067Z</time>
</trkpt>
<trkpt lat="30.9285500" lon="35.2430100">
<ele>-124.180000</ele>
<time>2022-12-14T12:44:25.067Z</time>
</trkpt>
<trkpt lat="30.9285500" lon="35.2430100">
<ele>-124.180000</ele>
<time>2022-12-14T12:44:25.067Z</time>
</trkpt>
<trkpt lat="30.9285500" lon="35.2430300">
<ele>-124.340004</ele>
<time>2022-12-14T12:44:25.067Z</time>
</trkpt>
<trkpt lat="30.9285600" lon="35.2430600">
<ele>-124.290001</ele>
<time>2022-12-14T12:44:25.067Z</time>
</trkpt>
<trkpt lat="30.9285900" lon="35.2431300">
<ele>-123.570000</ele>
<time>2022-12-14T12:44:25.067Z</time>
</trkpt>
<trkpt lat="30.9285900" lon="35.2431300">
<ele>-123.570000</ele>
<time>2022-12-14T12:44:25.067Z</time>
</trkpt>
<trkpt lat="30.9286300" lon="35.2432300">
<ele>-122.340004</ele>
<time>2022-12-14T12:44:25.067Z</time>
</trkpt>
<trkpt lat="30.9286400" lon="35.2432600">
<ele>-121.919998</ele>
<time>2022-12-14T12:44:25.067Z</time>
</trkpt>
<trkpt lat="30.9286800" lon="35.2433200">
<ele>-120.099998</ele>
<time>2022-12-14T12:44:25.067Z</time>
</trkpt>
<trkpt lat="30.9286800" lon="35.2433600">
<ele>-119.110001</ele>
<time>2022-12-14T12:44:25.067Z</time>
</trkpt>
<trkpt lat="30.9286700" lon="35.2434000">
<ele>-118.159996</ele>
<time>2022-12-14T12:44:25.067Z</time>
</trkpt>
<trkpt lat="30.9286400" lon="35.2434400">
<ele>-117.989998</ele>
<time>2022-12-14T12:44:25.067Z</time>
</trkpt>
<trkpt lat="30.9286200" lon="35.2434300">
<ele>-119.160004</ele>
<time>2022-12-14T12:44:25.067Z</time>
</trkpt>
<trkpt lat="30.9285400" lon="35.2434100">
<ele>-123.039993</ele>
<time>2022-12-14T12:44:25.067Z</time>
</trkpt>
<trkpt lat="30.9285200" lon="35.2434100">
<ele>-123.830002</ele>
<time>2022-12-14T12:44:25.067Z</time>
</trkpt>
<trkpt lat="30.9284900" lon="35.2434100">
<ele>-125.009995</ele>
<time>2022-12-14T12:44:25.067Z</time>
</trkpt>
<trkpt lat="30.9284300" lon="35.2434100">
<ele>-127.370003</ele>
<time>2022-12-14T12:44:25.067Z</time>
</trkpt>
<trkpt lat="30.9283800" lon="35.2434100">
<ele>-129.339996</ele>
<time>2022-12-14T12:44:25.067Z</time>
</trkpt>
<trkpt lat="30.9283600" lon="35.2434100">
<ele>-130.119995</ele>
<time>2022-12-14T12:44:25.067Z</time>
</trkpt>
<trkpt lat="30.9283400" lon="35.2434200">
<ele>-130.800003</ele>
<time>2022-12-14T12:44:25.067Z</time>
</trkpt>
<trkpt lat="30.9282800" lon="35.2434200">
<ele>-133.300003</ele>
<time>2022-12-14T12:44:25.067Z</time>
</trkpt>
<trkpt lat="30.9282200" lon="35.2434200">
<ele>-135.809998</ele>
<time>2022-12-14T12:44:25.067Z</time>
</trkpt>
<trkpt lat="30.9281400" lon="35.2434300">
<ele>-139.100006</ele>
<time>2022-12-14T12:44:25.067Z</time>
</trkpt>
<trkpt lat="30.9280800" lon="35.2434400">
<ele>-141.580002</ele>
<time>2022-12-14T12:44:25.067Z</time>
</trkpt>
<trkpt lat="30.9280200" lon="35.2434500">
<ele>-142.940002</ele>
<time>2022-12-14T12:44:25.067Z</time>
</trkpt>
<trkpt lat="30.9279700" lon="35.2434900">
<ele>-143.399994</ele>
<time>2022-12-14T12:44:25.067Z</time>
</trkpt>
<trkpt lat="30.9279300" lon="35.2435200">
<ele>-143.839996</ele>
<time>2022-12-14T12:44:25.067Z</time>
</trkpt>
<trkpt lat="30.9278700" lon="35.2435800">
<ele>-144.630005</ele>
<time>2022-12-14T12:44:25.067Z</time>
</trkpt>
<trkpt lat="30.9278100" lon="35.2436500">
<ele>-144.750000</ele>
<time>2022-12-14T12:44:25.067Z</time>
</trkpt>
<trkpt lat="30.9277500" lon="35.2437200">
<ele>-144.660004</ele>
<time>2022-12-14T12:44:25.067Z</time>
</trkpt>
<trkpt lat="30.9276500" lon="35.2438100">
<ele>-145.709991</ele>
<time>2022-12-14T12:44:25.067Z</time>
</trkpt>
<trkpt lat="30.9276100" lon="35.2438300">
<ele>-146.509995</ele>
<time>2022-12-14T12:44:25.067Z</time>
</trkpt>
<trkpt lat="30.9273700" lon="35.2439700">
<ele>-150.470001</ele>
<time>2022-12-14T12:44:25.067Z</time>
</trkpt>
<trkpt lat="30.9273600" lon="35.2440100">
<ele>-150.070007</ele>
<time>2022-12-14T12:44:25.067Z</time>
</trkpt>
<trkpt lat="30.9273200" lon="35.2440800">
<ele>-150.100006</ele>
<time>2022-12-14T12:44:25.067Z</time>
</trkpt>
<trkpt lat="30.9273000" lon="35.2441100">
<ele>-150.259995</ele>
<time>2022-12-14T12:44:25.067Z</time>
</trkpt>
<trkpt lat="30.9272400" lon="35.2441600">
<ele>-151.500000</ele>
<time>2022-12-14T12:44:25.067Z</time>
</trkpt>
<trkpt lat="30.9271900" lon="35.2442100">
<ele>-152.300003</ele>
<time>2022-12-14T12:44:25.067Z</time>
</trkpt>
<trkpt lat="30.9271300" lon="35.2442500">
<ele>-153.690002</ele>
<time>2022-12-14T12:44:25.067Z</time>
</trkpt>
<trkpt lat="30.9270600" lon="35.2442900">
<ele>-155.550003</ele>
<time>2022-12-14T12:44:25.067Z</time>
</trkpt>
<trkpt lat="30.9269800" lon="35.2443400">
<ele>-157.820007</ele>
<time>2022-12-14T12:44:25.067Z</time>
</trkpt>
<trkpt lat="30.9269000" lon="35.2444000">
<ele>-160.000000</ele>
<time>2022-12-14T12:44:25.067Z</time>
</trkpt>
<trkpt lat="30.9268200" lon="35.2444800">
<ele>-162.149994</ele>
<time>2022-12-14T12:44:25.067Z</time>
</trkpt>
<trkpt lat="30.9267900" lon="35.2445100">
<ele>-162.980011</ele>
<time>2022-12-14T12:44:25.067Z</time>
</trkpt>
<trkpt lat="30.9267200" lon="35.2445700">
<ele>-165.089996</ele>
<time>2022-12-14T12:44:25.067Z</time>
</trkpt>
<trkpt lat="30.9266400" lon="35.2446000">
<ele>-167.329987</ele>
<time>2022-12-14T12:44:25.067Z</time>
</trkpt>
<trkpt lat="30.9265700" lon="35.2445900">
<ele>-168.539993</ele>
<time>2022-12-14T12:44:25.067Z</time>
</trkpt>
<trkpt lat="30.9265500" lon="35.2445700">
<ele>-168.930008</ele>
<time>2022-12-14T12:44:25.067Z</time>
</trkpt>
<trkpt lat="30.9265000" lon="35.2445000">
<ele>-169.759995</ele>
<time>2022-12-14T12:44:25.067Z</time>
</trkpt>
<trkpt lat="30.9264800" lon="35.2444100">
<ele>-170.020004</ele>
<time>2022-12-14T12:44:25.067Z</time>
</trkpt>
<trkpt lat="30.9264700" lon="35.2443700">
<ele>-170.119995</ele>
<time>2022-12-14T12:44:25.067Z</time>
</trkpt>
<trkpt lat="30.9264300" lon="35.2442600">
<ele>-170.560013</ele>
<time>2022-12-14T12:44:25.067Z</time>
</trkpt>
<trkpt lat="30.9263800" lon="35.2441400">
<ele>-171.059998</ele>
<time>2022-12-14T12:44:25.067Z</time>
</trkpt>
<trkpt lat="30.9263400" lon="35.2441200">
<ele>-171.319992</ele>
<time>2022-12-14T12:44:25.067Z</time>
</trkpt>
<trkpt lat="30.9262900" lon="35.2441300">
<ele>-171.669998</ele>
<time>2022-12-14T12:44:25.067Z</time>
</trkpt>
<trkpt lat="30.9262400" lon="35.2442000">
<ele>-171.809998</ele>
<time>2022-12-14T12:44:25.067Z</time>
</trkpt>
<trkpt lat="30.9262400" lon="35.2442200">
<ele>-171.660004</ele>
<time>2022-12-14T12:44:25.067Z</time>
</trkpt>
<trkpt lat="30.9262500" lon="35.2442200">
<ele>-171.619995</ele>
<time>2022-12-14T12:44:25.067Z</time>
</trkpt>
<trkpt lat="30.9262400" lon="35.2442300">
<ele>-171.580002</ele>
<time>2022-12-14T12:44:25.067Z</time>
</trkpt>
<trkpt lat="30.9262400" lon="35.2442300">
<ele>-171.580002</ele>
<time>2022-12-14T12:44:25.067Z</time>
</trkpt>
<trkpt lat="30.9262400" lon="35.2442300">
<ele>-171.580002</ele>
<time>2022-12-14T12:44:25.067Z</time>
</trkpt>
<trkpt lat="30.9262500" lon="35.2442700">
<ele>-171.260010</ele>
<time>2022-12-14T12:44:25.067Z</time>
</trkpt>
<trkpt lat="30.9262600" lon="35.2443100">
<ele>-170.969986</ele>
<time>2022-12-14T12:44:25.067Z</time>
</trkpt>
<trkpt lat="30.9262700" lon="35.2443400">
<ele>-170.790009</ele>
<time>2022-12-14T12:44:25.067Z</time>
</trkpt>
<trkpt lat="30.9262800" lon="35.2444000">
<ele>-170.470001</ele>
<time>2022-12-14T12:44:25.067Z</time>
</trkpt>
<trkpt lat="30.9262900" lon="35.2444500">
<ele>-170.309998</ele>
<time>2022-12-14T12:44:25.067Z</time>
</trkpt>
<trkpt lat="30.9263300" lon="35.2446100">
<ele>-171.169998</ele>
<time>2022-12-14T12:44:25.067Z</time>
</trkpt>
<trkpt lat="30.9263800" lon="35.2447600">
<ele>-172.350006</ele>
<time>2022-12-14T12:44:25.067Z</time>
</trkpt>
<trkpt lat="30.9264100" lon="35.2448700">
<ele>-172.980011</ele>
<time>2022-12-14T12:44:25.067Z</time>
</trkpt>
<trkpt lat="30.9264200" lon="35.2449300">
<ele>-173.239990</ele>
<time>2022-12-14T12:44:25.067Z</time>
</trkpt>
<trkpt lat="30.9264300" lon="35.2450800">
<ele>-173.559998</ele>
<time>2022-12-14T12:44:25.067Z</time>
</trkpt>
<trkpt lat="30.9264100" lon="35.2451400">
<ele>-174.279999</ele>
<time>2022-12-14T12:44:25.067Z</time>
</trkpt>
<trkpt lat="30.9264100" lon="35.2451500">
<ele>-174.279999</ele>
<time>2022-12-14T12:44:25.067Z</time>
</trkpt>
<trkpt lat="30.9264300" lon="35.2452300">
<ele>-173.639999</ele>
<time>2022-12-14T12:44:25.067Z</time>
</trkpt>
<trkpt lat="30.9264400" lon="35.2453200">
<ele>-173.369995</ele>
<time>2022-12-14T12:44:25.067Z</time>
</trkpt>
<trkpt lat="30.9264400" lon="35.2453500">
<ele>-173.389999</ele>
<time>2022-12-14T12:44:25.067Z</time>
</trkpt>
<trkpt lat="30.9264500" lon="35.2453700">
<ele>-173.089996</ele>
<time>2022-12-14T12:44:25.067Z</time>
</trkpt>
<trkpt lat="30.9264700" lon="35.2454600">
<ele>-172.559998</ele>
<time>2022-12-14T12:44:25.067Z</time>
</trkpt>
<trkpt lat="30.9264900" lon="35.2456500">
<ele>-172.180008</ele>
<time>2022-12-14T12:44:25.067Z</time>
</trkpt>
<trkpt lat="30.9264900" lon="35.2457300">
<ele>-172.259995</ele>
<time>2022-12-14T12:44:25.067Z</time>
</trkpt>
<trkpt lat="30.9264900" lon="35.2458900">
<ele>-171.770004</ele>
<time>2022-12-14T12:44:25.067Z</time>
</trkpt>
<trkpt lat="30.9264900" lon="35.2459200">
<ele>-171.449997</ele>
<time>2022-12-14T12:44:25.067Z</time>
</trkpt>
<trkpt lat="30.9264400" lon="35.2460600">
<ele>-171.350006</ele>
<time>2022-12-14T12:44:25.067Z</time>
</trkpt>
<trkpt lat="30.9263900" lon="35.2462100">
<ele>-170.909988</ele>
<time>2022-12-14T12:44:25.067Z</time>
</trkpt>
<trkpt lat="30.9263600" lon="35.2463900">
<ele>-169.510010</ele>
<time>2022-12-14T12:44:25.067Z</time>
</trkpt>
<trkpt lat="30.9262700" lon="35.2465800">
<ele>-169.470016</ele>
<time>2022-12-14T12:44:25.067Z</time>
</trkpt>
<trkpt lat="30.9261700" lon="35.2467800">
<ele>-170.969986</ele>
<time>2022-12-14T12:44:25.067Z</time>
</trkpt>
<trkpt lat="30.9260700" lon="35.2470000">
<ele>-172.930008</ele>
<time>2022-12-14T12:44:25.067Z</time>
</trkpt>
<trkpt lat="30.9260400" lon="35.2471900">
<ele>-173.600006</ele>
<time>2022-12-14T12:44:25.067Z</time>
</trkpt>
<trkpt lat="30.9260400" lon="35.2472500">
<ele>-173.940002</ele>
<time>2022-12-14T12:44:25.067Z</time>
</trkpt>
<trkpt lat="30.9260300" lon="35.2474300">
<ele>-175.199997</ele>
<time>2022-12-14T12:44:25.067Z</time>
</trkpt>
<trkpt lat="30.9260300" lon="35.2476700">
<ele>-176.750000</ele>
<time>2022-12-14T12:44:25.067Z</time>
</trkpt>
<trkpt lat="30.9260600" lon="35.2478700">
<ele>-177.989990</ele>
<time>2022-12-14T12:44:25.067Z</time>
</trkpt>
<trkpt lat="30.9261000" lon="35.2480800">
<ele>-179.270004</ele>
<time>2022-12-14T12:44:25.067Z</time>
</trkpt>
<trkpt lat="30.9262000" lon="35.2482700">
<ele>-176.340012</ele>
<time>2022-12-14T12:44:25.067Z</time>
</trkpt>
<trkpt lat="30.9262300" lon="35.2483200">
<ele>-175.970001</ele>
<time>2022-12-14T12:44:25.067Z</time>
</trkpt>
<trkpt lat="30.9262900" lon="35.2484700">
<ele>-175.760010</ele>
<time>2022-12-14T12:44:25.067Z</time>
</trkpt>
<trkpt lat="30.9263800" lon="35.2486500">
<ele>-176.290009</ele>
<time>2022-12-14T12:44:25.067Z</time>
</trkpt>
<trkpt lat="30.9265900" lon="35.2488300">
<ele>-173.850006</ele>
<time>2022-12-14T12:44:25.067Z</time>
</trkpt>
<trkpt lat="30.9268000" lon="35.2490700">
<ele>-171.840012</ele>
<time>2022-12-14T12:44:25.067Z</time>
</trkpt>
<trkpt lat="30.9270400" lon="35.2493300">
<ele>-172.220001</ele>
<time>2022-12-14T12:44:25.067Z</time>
</trkpt>
<trkpt lat="30.9272700" lon="35.2495200">
<ele>-175.489990</ele>
<time>2022-12-14T12:44:25.067Z</time>
</trkpt>
<trkpt lat="30.9274500" lon="35.2496800">
<ele>-177.360001</ele>
<time>2022-12-14T12:44:25.067Z</time>
</trkpt>
<trkpt lat="30.9276300" lon="35.2498400">
<ele>-178.330002</ele>
<time>2022-12-14T12:44:25.067Z</time>
</trkpt>
<trkpt lat="30.9276600" lon="35.2498600">
<ele>-178.529999</ele>
<time>2022-12-14T12:44:25.067Z</time>
</trkpt>
<trkpt lat="30.9278400" lon="35.2500100">
<ele>-178.020004</ele>
<time>2022-12-14T12:44:25.067Z</time>
</trkpt>
<trkpt lat="30.9279800" lon="35.2501300">
<ele>-175.710007</ele>
<time>2022-12-14T12:44:25.067Z</time>
</trkpt>
<trkpt lat="30.9281400" lon="35.2503000">
<ele>-176.139999</ele>
<time>2022-12-14T12:44:25.067Z</time>
</trkpt>
<trkpt lat="30.9281700" lon="35.2503300">
<ele>-176.419998</ele>
<time>2022-12-14T12:44:25.067Z</time>
</trkpt>
<trkpt lat="30.9283300" lon="35.2504900">
<ele>-176.690002</ele>
<time>2022-12-14T12:44:25.067Z</time>
</trkpt>
<trkpt lat="30.9285500" lon="35.2506900">
<ele>-175.789993</ele>
<time>2022-12-14T12:44:25.067Z</time>
</trkpt>
<trkpt lat="30.9287800" lon="35.2508800">
<ele>-171.520004</ele>
<time>2022-12-14T12:44:25.067Z</time>
</trkpt>
<trkpt lat="30.9289800" lon="35.2510400">
<ele>-169.160004</ele>
<time>2022-12-14T12:44:25.067Z</time>
</trkpt>
<trkpt lat="30.9292100" lon="35.2512000">
<ele>-168.100006</ele>
<time>2022-12-14T12:44:25.067Z</time>
</trkpt>
<trkpt lat="30.9292400" lon="35.2512200">
<ele>-167.609985</ele>
<time>2022-12-14T12:44:25.067Z</time>
</trkpt>
<trkpt lat="30.9295100" lon="35.2514100">
<ele>-169.190002</ele>
<time>2022-12-14T12:44:25.067Z</time>
</trkpt>
<trkpt lat="30.9297600" lon="35.2515900">
<ele>-173.589996</ele>
<time>2022-12-14T12:44:25.067Z</time>
</trkpt>
<trkpt lat="30.9299300" lon="35.2517000">
<ele>-173.920013</ele>
<time>2022-12-14T12:44:25.067Z</time>
</trkpt>
<trkpt lat="30.9300500" lon="35.2517800">
<ele>-174.739990</ele>
<time>2022-12-14T12:44:25.067Z</time>
</trkpt>
<trkpt lat="30.9301700" lon="35.2518700">
<ele>-176.089996</ele>
<time>2022-12-14T12:44:25.067Z</time>
</trkpt>
<trkpt lat="30.9303800" lon="35.2520200">
<ele>-177.179993</ele>
<time>2022-12-14T12:44:25.067Z</time>
</trkpt>
<trkpt lat="30.9304400" lon="35.2520600">
<ele>-177.320007</ele>
<time>2022-12-14T12:44:25.067Z</time>
</trkpt>
<trkpt lat="30.9305700" lon="35.2521600">
<ele>-178.090012</ele>
<time>2022-12-14T12:44:25.067Z</time>
</trkpt>
<trkpt lat="30.9307900" lon="35.2523700">
<ele>-180.879990</ele>
<time>2022-12-14T12:44:25.067Z</time>
</trkpt>
<trkpt lat="30.9309400" lon="35.2525400">
<ele>-180.970001</ele>
<time>2022-12-14T12:44:25.067Z</time>
</trkpt>
<trkpt lat="30.9310800" lon="35.2527500">
<ele>-181.670013</ele>
<time>2022-12-14T12:44:25.067Z</time>
</trkpt>
<trkpt lat="30.9310900" lon="35.2529600">
<ele>-183.440002</ele>
<time>2022-12-14T12:44:25.067Z</time>
</trkpt>
<trkpt lat="30.9310900" lon="35.2530600">
<ele>-184.160004</ele>
<time>2022-12-14T12:44:25.067Z</time>
</trkpt>
<trkpt lat="30.9311300" lon="35.2531900">
<ele>-184.410004</ele>
<time>2022-12-14T12:44:25.067Z</time>
</trkpt>
<trkpt lat="30.9312800" lon="35.2535500">
<ele>-186.860001</ele>
<time>2022-12-14T12:44:25.067Z</time>
</trkpt>
<trkpt lat="30.9313500" lon="35.2537000">
<ele>-188.000000</ele>
<time>2022-12-14T12:44:25.067Z</time>
</trkpt>
<trkpt lat="30.9313800" lon="35.2537800">
<ele>-188.520004</ele>
<time>2022-12-14T12:44:25.067Z</time>
</trkpt>
<trkpt lat="30.9315200" lon="35.2541400">
<ele>-187.970001</ele>
<time>2022-12-14T12:44:25.067Z</time>
</trkpt>
<trkpt lat="30.9316200" lon="35.2545200">
<ele>-188.339996</ele>
<time>2022-12-14T12:44:25.067Z</time>
</trkpt>
<trkpt lat="30.9315900" lon="35.2548100">
<ele>-188.320007</ele>
<time>2022-12-14T12:44:25.067Z</time>
</trkpt>
<trkpt lat="30.9315900" lon="35.2551100">
<ele>-187.360001</ele>
<time>2022-12-14T12:44:25.067Z</time>
</trkpt>
<trkpt lat="30.9315800" lon="35.2551500">
<ele>-187.360001</ele>
<time>2022-12-14T12:44:25.067Z</time>
</trkpt>
<trkpt lat="30.9315100" lon="35.2554800">
<ele>-187.429993</ele>
<time>2022-12-14T12:44:25.067Z</time>
</trkpt>
<trkpt lat="30.9314200" lon="35.2558000">
<ele>-188.029999</ele>
<time>2022-12-14T12:44:25.067Z</time>
</trkpt>
<trkpt lat="30.9313500" lon="35.2559700">
<ele>-188.009995</ele>
<time>2022-12-14T12:44:25.067Z</time>
</trkpt>
<trkpt lat="30.9312700" lon="35.2561400">
<ele>-187.529999</ele>
<time>2022-12-14T12:44:25.067Z</time>
</trkpt>
<trkpt lat="30.9312400" lon="35.2561700">
<ele>-187.490005</ele>
<time>2022-12-14T12:44:25.067Z</time>
</trkpt>
<trkpt lat="30.9310500" lon="35.2563800">
<ele>-186.330002</ele>
<time>2022-12-14T12:44:25.067Z</time>
</trkpt>
<trkpt lat="30.9308600" lon="35.2566000">
<ele>-183.000000</ele>
<time>2022-12-14T12:44:25.067Z</time>
</trkpt>
<trkpt lat="30.9308300" lon="35.2566300">
<ele>-183.089996</ele>
<time>2022-12-14T12:44:25.067Z</time>
</trkpt>
<trkpt lat="30.9307000" lon="35.2567200">
<ele>-181.779999</ele>
<time>2022-12-14T12:44:25.067Z</time>
</trkpt>
<trkpt lat="30.9304300" lon="35.2567900">
<ele>-185.240005</ele>
<time>2022-12-14T12:44:25.067Z</time>
</trkpt>
<trkpt lat="30.9303200" lon="35.2568000">
<ele>-187.250000</ele>
<time>2022-12-14T12:44:25.067Z</time>
</trkpt>
<trkpt lat="30.9303000" lon="35.2567800">
<ele>-187.940002</ele>
<time>2022-12-14T12:44:25.067Z</time>
</trkpt>
<trkpt lat="30.9302900" lon="35.2567800">
<ele>-188.130005</ele>
<time>2022-12-14T12:44:25.067Z</time>
</trkpt>
<trkpt lat="30.9302400" lon="35.2567700">
<ele>-188.410004</ele>
<time>2022-12-14T12:44:25.067Z</time>
</trkpt>
<trkpt lat="30.9301300" lon="35.2567700">
<ele>-188.119995</ele>
<time>2022-12-14T12:44:25.067Z</time>
</trkpt>
<trkpt lat="30.9299400" lon="35.2567200">
<ele>-187.839996</ele>
<time>2022-12-14T12:44:25.067Z</time>
</trkpt>
<trkpt lat="30.9298800" lon="35.2567000">
<ele>-187.050003</ele>
<time>2022-12-14T12:44:25.067Z</time>
</trkpt>
<trkpt lat="30.9298700" lon="35.2567000">
<ele>-186.870010</ele>
<time>2022-12-14T12:44:25.067Z</time>
</trkpt>
<trkpt lat="30.9298700" lon="35.2566900">
<ele>-186.959991</ele>
<time>2022-12-14T12:44:25.067Z</time>
</trkpt>
<trkpt lat="30.9298100" lon="35.2566800">
<ele>-185.840012</ele>
<time>2022-12-14T12:44:25.067Z</time>
</trkpt>
<trkpt lat="30.9297500" lon="35.2566700">
<ele>-184.600006</ele>
<time>2022-12-14T12:44:25.067Z</time>
</trkpt>
<trkpt lat="30.9296700" lon="35.2566500">
<ele>-183.729996</ele>
<time>2022-12-14T12:44:25.067Z</time>
</trkpt>
<trkpt lat="30.9294700" lon="35.2566700">
<ele>-184.960007</ele>
<time>2022-12-14T12:44:25.067Z</time>
</trkpt>
<trkpt lat="30.9293200" lon="35.2567700">
<ele>-188.150009</ele>
<time>2022-12-14T12:44:25.067Z</time>
</trkpt>
<trkpt lat="30.9292400" lon="35.2569000">
<ele>-190.290009</ele>
<time>2022-12-14T12:44:25.067Z</time>
</trkpt>
<trkpt lat="30.9291200" lon="35.2569900">
<ele>-189.950012</ele>
<time>2022-12-14T12:44:25.067Z</time>
</trkpt>
<trkpt lat="30.9290900" lon="35.2570000">
<ele>-190.120010</ele>
<time>2022-12-14T12:44:25.067Z</time>
</trkpt>
<trkpt lat="30.9290300" lon="35.2570500">
<ele>-189.979996</ele>
<time>2022-12-14T12:44:25.067Z</time>
</trkpt>
<trkpt lat="30.9289500" lon="35.2571100">
<ele>-190.970001</ele>
<time>2022-12-14T12:44:25.067Z</time>
</trkpt>
<trkpt lat="30.9289300" lon="35.2571300">
<ele>-191.330002</ele>
<time>2022-12-14T12:44:25.067Z</time>
</trkpt>
<trkpt lat="30.9287700" lon="35.2572700">
<ele>-192.399994</ele>
<time>2022-12-14T12:44:25.067Z</time>
</trkpt>
<trkpt lat="30.9285700" lon="35.2573900">
<ele>-192.039993</ele>
<time>2022-12-14T12:44:25.067Z</time>
</trkpt>
<trkpt lat="30.9284100" lon="35.2575100">
<ele>-190.789993</ele>
<time>2022-12-14T12:44:25.067Z</time>
</trkpt>
<trkpt lat="30.9282400" lon="35.2576500">
<ele>-191.910004</ele>
<time>2022-12-14T12:44:25.067Z</time>
</trkpt>
<trkpt lat="30.9282100" lon="35.2576700">
<ele>-192.209991</ele>
<time>2022-12-14T12:44:25.067Z</time>
</trkpt>
<trkpt lat="30.9280200" lon="35.2578500">
<ele>-193.669998</ele>
<time>2022-12-14T12:44:25.067Z</time>
</trkpt>
<trkpt lat="30.9278300" lon="35.2580000">
<ele>-194.510010</ele>
<time>2022-12-14T12:44:25.067Z</time>
</trkpt>
<trkpt lat="30.9276900" lon="35.2581800">
<ele>-194.740005</ele>
<time>2022-12-14T12:44:25.067Z</time>
</trkpt>
<trkpt lat="30.9276200" lon="35.2584300">
<ele>-192.439987</ele>
<time>2022-12-14T12:44:25.067Z</time>
</trkpt>
<trkpt lat="30.9274900" lon="35.2586200">
<ele>-190.949997</ele>
<time>2022-12-14T12:44:25.067Z</time>
</trkpt>
<trkpt lat="30.9274000" lon="35.2588000">
<ele>-189.240005</ele>
<time>2022-12-14T12:44:25.067Z</time>
</trkpt>
<trkpt lat="30.9273900" lon="35.2588500">
<ele>-188.690002</ele>
<time>2022-12-14T12:44:25.067Z</time>
</trkpt>
<trkpt lat="30.9273800" lon="35.2589400">
<ele>-187.640015</ele>
<time>2022-12-14T12:44:25.067Z</time>
</trkpt>
<trkpt lat="30.9273700" lon="35.2590300">
<ele>-186.610001</ele>
<time>2022-12-14T12:44:25.067Z</time>
</trkpt>
<trkpt lat="30.9273800" lon="35.2590800">
<ele>-185.840012</ele>
<time>2022-12-14T12:44:25.067Z</time>
</trkpt>
<trkpt lat="30.9274000" lon="35.2592200">
<ele>-184.000000</ele>
<time>2022-12-14T12:44:25.067Z</time>
</trkpt>
<trkpt lat="30.9273900" lon="35.2592700">
<ele>-183.759995</ele>
<time>2022-12-14T12:44:25.067Z</time>
</trkpt>
<trkpt lat="30.9273800" lon="35.2593200">
<ele>-183.550003</ele>
<time>2022-12-14T12:44:25.067Z</time>
</trkpt>
<trkpt lat="30.9272800" lon="35.2595800">
<ele>-184.450012</ele>
<time>2022-12-14T12:44:25.067Z</time>
</trkpt>
<trkpt lat="30.9272600" lon="35.2596400">
<ele>-184.900009</ele>
<time>2022-12-14T12:44:25.067Z</time>
</trkpt>
<trkpt lat="30.9270700" lon="35.2599900">
<ele>-189.970001</ele>
<time>2022-12-14T12:44:25.067Z</time>
</trkpt>
<trkpt lat="30.9270500" lon="35.2600300">
<ele>-190.299988</ele>
<time>2022-12-14T12:44:25.067Z</time>
</trkpt>
<trkpt lat="30.9270300" lon="35.2600700">
<ele>-190.550003</ele>
<time>2022-12-14T12:44:25.067Z</time>
</trkpt>
<trkpt lat="30.9269700" lon="35.2601600">
<ele>-191.500000</ele>
<time>2022-12-14T12:44:25.067Z</time>
</trkpt>
<trkpt lat="30.9269100" lon="35.2603700">
<ele>-191.080002</ele>
<time>2022-12-14T12:44:25.067Z</time>
</trkpt>
<trkpt lat="30.9268900" lon="35.2604000">
<ele>-191.169998</ele>
<time>2022-12-14T12:44:25.067Z</time>
</trkpt>
<trkpt lat="30.9268300" lon="35.2605700">
<ele>-190.789993</ele>
<time>2022-12-14T12:44:25.067Z</time>
</trkpt>
<trkpt lat="30.9268500" lon="35.2607700">
<ele>-190.169998</ele>
<time>2022-12-14T12:44:25.067Z</time>
</trkpt>
<trkpt lat="30.9268400" lon="35.2608100">
<ele>-190.180008</ele>
<time>2022-12-14T12:44:25.067Z</time>
</trkpt>
<trkpt lat="30.9267900" lon="35.2609200">
<ele>-190.839996</ele>
<time>2022-12-14T12:44:25.067Z</time>
</trkpt>
<trkpt lat="30.9267800" lon="35.2610500">
<ele>-191.239990</ele>
<time>2022-12-14T12:44:25.067Z</time>
</trkpt>
<trkpt lat="30.9267800" lon="35.2611600">
<ele>-191.470001</ele>
<time>2022-12-14T12:44:25.067Z</time>
</trkpt>
<trkpt lat="30.9267900" lon="35.2612100">
<ele>-191.419998</ele>
<time>2022-12-14T12:44:25.067Z</time>
</trkpt>
<trkpt lat="30.9268000" lon="35.2614200">
<ele>-191.600006</ele>
<time>2022-12-14T12:44:25.067Z</time>
</trkpt>
<trkpt lat="30.9268000" lon="35.2616000">
<ele>-191.600006</ele>
<time>2022-12-14T12:44:25.067Z</time>
</trkpt>
<trkpt lat="30.9268100" lon="35.2617500">
<ele>-191.869995</ele>
<time>2022-12-14T12:44:25.067Z</time>
</trkpt>
<trkpt lat="30.9268000" lon="35.2618900">
<ele>-192.789993</ele>
<time>2022-12-14T12:44:25.067Z</time>
</trkpt>
<trkpt lat="30.9267800" lon="35.2620700">
<ele>-193.369995</ele>
<time>2022-12-14T12:44:25.067Z</time>
</trkpt>
<trkpt lat="30.9267400" lon="35.2622500">
<ele>-193.870010</ele>
<time>2022-12-14T12:44:25.067Z</time>
</trkpt>
<trkpt lat="30.9267500" lon="35.2622800">
<ele>-193.650009</ele>
<time>2022-12-14T12:44:25.067Z</time>
</trkpt>
<trkpt lat="30.9267800" lon="35.2625100">
<ele>-192.750000</ele>
<time>2022-12-14T12:44:25.067Z</time>
</trkpt>
<trkpt lat="30.9267300" lon="35.2626400">
<ele>-192.650009</ele>
<time>2022-12-14T12:44:25.067Z</time>
</trkpt>
<trkpt lat="30.9266700" lon="35.2627400">
<ele>-192.269989</ele>
<time>2022-12-14T12:44:25.067Z</time>
</trkpt>
<trkpt lat="30.9266100" lon="35.2627900">
<ele>-191.110016</ele>
<time>2022-12-14T12:44:25.067Z</time>
</trkpt>
<trkpt lat="30.9264500" lon="35.2628900">
<ele>-187.529999</ele>
<time>2022-12-14T12:44:25.067Z</time>
</trkpt>
<trkpt lat="30.9264300" lon="35.2629400">
<ele>-186.520004</ele>
<time>2022-12-14T12:44:25.067Z</time>
</trkpt>
<trkpt lat="30.9264400" lon="35.2630200">
<ele>-185.729996</ele>
<time>2022-12-14T12:44:25.067Z</time>
</trkpt>
<trkpt lat="30.9264500" lon="35.2630400">
<ele>-185.729996</ele>
<time>2022-12-14T12:44:25.067Z</time>
</trkpt>
<trkpt lat="30.9264700" lon="35.2630600">
<ele>-186.000000</ele>
<time>2022-12-14T12:44:25.067Z</time>
</trkpt>
<trkpt lat="30.9265300" lon="35.2631500">
<ele>-186.529999</ele>
<time>2022-12-14T12:44:25.067Z</time>
</trkpt>
<trkpt lat="30.9266000" lon="35.2633000">
<ele>-186.220001</ele>
<time>2022-12-14T12:44:25.067Z</time>
</trkpt>
<trkpt lat="30.9266100" lon="35.2633600">
<ele>-185.600006</ele>
<time>2022-12-14T12:44:25.067Z</time>
</trkpt>
<trkpt lat="30.9266100" lon="35.2633600">
<ele>-185.600006</ele>
<time>2022-12-14T12:44:25.067Z</time>
</trkpt>
<trkpt lat="30.9266300" lon="35.2633500">
<ele>-186.100006</ele>
<time>2022-12-14T12:44:25.067Z</time>
</trkpt>
<trkpt lat="30.9266600" lon="35.2634100">
<ele>-185.780014</ele>
<time>2022-12-14T12:44:25.067Z</time>
</trkpt>
<trkpt lat="30.9266600" lon="35.2634100">
<ele>-185.780014</ele>
<time>2022-12-14T12:44:25.067Z</time>
</trkpt>
<trkpt lat="30.9266800" lon="35.2634500">
<ele>-185.679993</ele>
<time>2022-12-14T12:44:25.067Z</time>
</trkpt>
<trkpt lat="30.9266900" lon="35.2634400">
<ele>-186.100006</ele>
<time>2022-12-14T12:44:25.067Z</time>
</trkpt>
<trkpt lat="30.9266900" lon="35.2634400">
<ele>-186.100006</ele>
<time>2022-12-14T12:44:25.067Z</time>
</trkpt>
<trkpt lat="30.9266900" lon="35.2634500">
<ele>-185.959991</ele>
<time>2022-12-14T12:44:25.067Z</time>
</trkpt>
<trkpt lat="30.9267100" lon="35.2635000">
<ele>-185.750000</ele>
<time>2022-12-14T12:44:25.067Z</time>
</trkpt>
<trkpt lat="30.9267100" lon="35.2635000">
<ele>-185.750000</ele>
<time>2022-12-14T12:44:25.067Z</time>
</trkpt>
<trkpt lat="30.9267100" lon="35.2635200">
<ele>-185.459991</ele>
<time>2022-12-14T12:44:25.067Z</time>
</trkpt>
<trkpt lat="30.9267200" lon="35.2635700">
<ele>-184.960007</ele>
<time>2022-12-14T12:44:25.067Z</time>
</trkpt>
<trkpt lat="30.9267700" lon="35.2636300">
<ele>-185.589996</ele>
<time>2022-12-14T12:44:25.067Z</time>
</trkpt>
<trkpt lat="30.9268500" lon="35.2637500">
<ele>-187.779999</ele>
<time>2022-12-14T12:44:25.067Z</time>
</trkpt>
<trkpt lat="30.9269300" lon="35.2638600">
<ele>-190.440002</ele>
<time>2022-12-14T12:44:25.067Z</time>
</trkpt>
<trkpt lat="30.9270000" lon="35.2639900">
<ele>-191.960007</ele>
<time>2022-12-14T12:44:25.067Z</time>
</trkpt>
<trkpt lat="30.9270300" lon="35.2640700">
<ele>-192.929993</ele>
<time>2022-12-14T12:44:25.067Z</time>
</trkpt>
<trkpt lat="30.9270500" lon="35.2641000">
<ele>-193.580002</ele>
<time>2022-12-14T12:44:25.067Z</time>
</trkpt>
<trkpt lat="30.9271000" lon="35.2641900">
<ele>-195.500000</ele>
<time>2022-12-14T12:44:25.067Z</time>
</trkpt>
<trkpt lat="30.9271500" lon="35.2643300">
<ele>-197.479996</ele>
<time>2022-12-14T12:44:25.067Z</time>
</trkpt>
<trkpt lat="30.9272100" lon="35.2644900">
<ele>-200.460007</ele>
<time>2022-12-14T12:44:25.067Z</time>
</trkpt>
<trkpt lat="30.9272900" lon="35.2646500">
<ele>-201.309998</ele>
<time>2022-12-14T12:44:25.067Z</time>
</trkpt>
<trkpt lat="30.9273200" lon="35.2647200">
<ele>-201.349991</ele>
<time>2022-12-14T12:44:25.067Z</time>
</trkpt>
<trkpt lat="30.9273200" lon="35.2648300">
<ele>-200.849991</ele>
<time>2022-12-14T12:44:25.067Z</time>
</trkpt>
<trkpt lat="30.9273100" lon="35.2649400">
<ele>-200.240005</ele>
<time>2022-12-14T12:44:25.067Z</time>
</trkpt>
<trkpt lat="30.9272900" lon="35.2650100">
<ele>-199.670013</ele>
<time>2022-12-14T12:44:25.067Z</time>
</trkpt>
<trkpt lat="30.9272800" lon="35.2651000">
<ele>-198.979996</ele>
<time>2022-12-14T12:44:25.067Z</time>
</trkpt>
<trkpt lat="30.9272900" lon="35.2651200">
<ele>-198.970001</ele>
<time>2022-12-14T12:44:25.067Z</time>
</trkpt>
<trkpt lat="30.9273300" lon="35.2652100">
<ele>-198.949997</ele>
<time>2022-12-14T12:44:25.067Z</time>
</trkpt>
<trkpt lat="30.9273400" lon="35.2652700">
<ele>-198.740005</ele>
<time>2022-12-14T12:44:25.067Z</time>
</trkpt>
<trkpt lat="30.9273900" lon="35.2654400">
<ele>-198.949997</ele>
<time>2022-12-14T12:44:25.067Z</time>
</trkpt>
<trkpt lat="30.9274300" lon="35.2655200">
<ele>-199.550003</ele>
<time>2022-12-14T12:44:25.067Z</time>
</trkpt>
<trkpt lat="30.9274700" lon="35.2656300">
<ele>-200.319992</ele>
<time>2022-12-14T12:44:25.067Z</time>
</trkpt>
<trkpt lat="30.9275000" lon="35.2658600">
<ele>-200.899994</ele>
<time>2022-12-14T12:44:25.067Z</time>
</trkpt>
<trkpt lat="30.9275300" lon="35.2660600">
<ele>-200.509995</ele>
<time>2022-12-14T12:44:25.067Z</time>
</trkpt>
<trkpt lat="30.9275700" lon="35.2663300">
<ele>-200.169998</ele>
<time>2022-12-14T12:44:25.067Z</time>
</trkpt>
<trkpt lat="30.9276800" lon="35.2665800">
<ele>-199.730011</ele>
<time>2022-12-14T12:44:25.067Z</time>
</trkpt>
<trkpt lat="30.9277000" lon="35.2666200">
<ele>-199.750000</ele>
<time>2022-12-14T12:44:25.067Z</time>
</trkpt>
<trkpt lat="30.9277900" lon="35.2667800">
<ele>-199.889999</ele>
<time>2022-12-14T12:44:25.067Z</time>
</trkpt>
<trkpt lat="30.9278900" lon="35.2670300">
<ele>-197.389999</ele>
<time>2022-12-14T12:44:25.067Z</time>
</trkpt>
<trkpt lat="30.9279400" lon="35.2671600">
<ele>-195.739990</ele>
<time>2022-12-14T12:44:25.067Z</time>
</trkpt>
<trkpt lat="30.9280000" lon="35.2673000">
<ele>-194.220001</ele>
<time>2022-12-14T12:44:25.067Z</time>
</trkpt>
<trkpt lat="30.9281100" lon="35.2675200">
<ele>-192.739990</ele>
<time>2022-12-14T12:44:25.067Z</time>
</trkpt>
<trkpt lat="30.9282800" lon="35.2677300">
<ele>-195.739990</ele>
<time>2022-12-14T12:44:25.067Z</time>
</trkpt>
<trkpt lat="30.9283500" lon="35.2678600">
<ele>-196.619995</ele>
<time>2022-12-14T12:44:25.067Z</time>
</trkpt>
<trkpt lat="30.9284000" lon="35.2679500">
<ele>-196.780014</ele>
<time>2022-12-14T12:44:25.067Z</time>
</trkpt>
<trkpt lat="30.9284300" lon="35.2679900">
<ele>-197.050003</ele>
<time>2022-12-14T12:44:25.067Z</time>
</trkpt>
<trkpt lat="30.9284900" lon="35.2680700">
<ele>-197.769989</ele>
<time>2022-12-14T12:44:25.067Z</time>
</trkpt>
<trkpt lat="30.9285900" lon="35.2681800">
<ele>-199.169998</ele>
<time>2022-12-14T12:44:25.067Z</time>
</trkpt>
<trkpt lat="30.9287500" lon="35.2683800">
<ele>-199.250000</ele>
<time>2022-12-14T12:44:25.067Z</time>
</trkpt>
<trkpt lat="30.9287700" lon="35.2684200">
<ele>-199.449997</ele>
<time>2022-12-14T12:44:25.067Z</time>
</trkpt>
<trkpt lat="30.9288500" lon="35.2685500">
<ele>-199.889999</ele>
<time>2022-12-14T12:44:25.067Z</time>
</trkpt>
<trkpt lat="30.9288800" lon="35.2686500">
<ele>-200.570007</ele>
<time>2022-12-14T12:44:25.067Z</time>
</trkpt>
<trkpt lat="30.9289000" lon="35.2687000">
<ele>-201.409988</ele>
<time>2022-12-14T12:44:25.067Z</time>
</trkpt>
<trkpt lat="30.9289100" lon="35.2687400">
<ele>-202.090012</ele>
<time>2022-12-14T12:44:25.067Z</time>
</trkpt>
<trkpt lat="30.9289400" lon="35.2688900">
<ele>-204.369995</ele>
<time>2022-12-14T12:44:25.067Z</time>
</trkpt>
<trkpt lat="30.9289600" lon="35.2689800">
<ele>-205.009995</ele>
<time>2022-12-14T12:44:25.067Z</time>
</trkpt>
<trkpt lat="30.9289700" lon="35.2690300">
<ele>-205.389999</ele>
<time>2022-12-14T12:44:25.067Z</time>
</trkpt>
<trkpt lat="30.9289900" lon="35.2692500">
<ele>-206.370010</ele>
<time>2022-12-14T12:44:25.067Z</time>
</trkpt>
<trkpt lat="30.9289600" lon="35.2694700">
<ele>-205.589996</ele>
<time>2022-12-14T12:44:25.067Z</time>
</trkpt>
<trkpt lat="30.9289500" lon="35.2695000">
<ele>-205.380005</ele>
<time>2022-12-14T12:44:25.067Z</time>
</trkpt>
<trkpt lat="30.9289400" lon="35.2695300">
<ele>-205.139999</ele>
<time>2022-12-14T12:44:25.067Z</time>
</trkpt>
<trkpt lat="30.9289200" lon="35.2696400">
<ele>-204.440002</ele>
<time>2022-12-14T12:44:25.067Z</time>
</trkpt>
<trkpt lat="30.9289100" lon="35.2696900">
<ele>-203.979996</ele>
<time>2022-12-14T12:44:25.067Z</time>
</trkpt>
<trkpt lat="30.9289100" lon="35.2697200">
<ele>-203.919998</ele>
<time>2022-12-14T12:44:25.067Z</time>
</trkpt>
<trkpt lat="30.9289100" lon="35.2698000">
<ele>-203.950012</ele>
<time>2022-12-14T12:44:25.067Z</time>
</trkpt>
<trkpt lat="30.9289100" lon="35.2698600">
<ele>-203.990005</ele>
<time>2022-12-14T12:44:25.067Z</time>
</trkpt>
<trkpt lat="30.9289000" lon="35.2699200">
<ele>-203.540009</ele>
<time>2022-12-14T12:44:25.067Z</time>
</trkpt>
<trkpt lat="30.9288900" lon="35.2699400">
<ele>-203.050003</ele>
<time>2022-12-14T12:44:25.067Z</time>
</trkpt>
<trkpt lat="30.9288900" lon="35.2699800">
<ele>-203.059998</ele>
<time>2022-12-14T12:44:25.067Z</time>
</trkpt>
<trkpt lat="30.9288800" lon="35.2700000">
<ele>-202.649994</ele>
<time>2022-12-14T12:44:25.067Z</time>
</trkpt>
<trkpt lat="30.9288500" lon="35.2700400">
<ele>-201.790009</ele>
<time>2022-12-14T12:44:25.067Z</time>
</trkpt>
<trkpt lat="30.9288400" lon="35.2700600">
<ele>-201.520004</ele>
<time>2022-12-14T12:44:25.067Z</time>
</trkpt>
<trkpt lat="30.9288200" lon="35.2700900">
<ele>-200.839996</ele>
<time>2022-12-14T12:44:25.067Z</time>
</trkpt>
<trkpt lat="30.9288200" lon="35.2701100">
<ele>-200.970001</ele>
<time>2022-12-14T12:44:25.067Z</time>
</trkpt>
<trkpt lat="30.9288100" lon="35.2701600">
<ele>-200.789993</ele>
<time>2022-12-14T12:44:25.067Z</time>
</trkpt>
<trkpt lat="30.9288100" lon="35.2701900">
<ele>-200.959991</ele>
<time>2022-12-14T12:44:25.067Z</time>
</trkpt>
<trkpt lat="30.9287900" lon="35.2702400">
<ele>-200.139999</ele>
<time>2022-12-14T12:44:25.067Z</time>
</trkpt>
<trkpt lat="30.9287900" lon="35.2702600">
<ele>-200.229996</ele>
<time>2022-12-14T12:44:25.067Z</time>
</trkpt>
<trkpt lat="30.9287800" lon="35.2702900">
<ele>-199.809998</ele>
<time>2022-12-14T12:44:25.067Z</time>
</trkpt>
<trkpt lat="30.9287700" lon="35.2704000">
<ele>-200.089996</ele>
<time>2022-12-14T12:44:25.067Z</time>
</trkpt>
<trkpt lat="30.9287700" lon="35.2704600">
<ele>-200.559998</ele>
<time>2022-12-14T12:44:25.067Z</time>
</trkpt>
<trkpt lat="30.9287600" lon="35.2704900">
<ele>-200.350006</ele>
<time>2022-12-14T12:44:25.067Z</time>
</trkpt>
<trkpt lat="30.9287700" lon="35.2705700">
<ele>-201.020004</ele>
<time>2022-12-14T12:44:25.067Z</time>
</trkpt>
<trkpt lat="30.9287900" lon="35.2706500">
<ele>-200.290009</ele>
<time>2022-12-14T12:44:25.067Z</time>
</trkpt>
<trkpt lat="30.9287900" lon="35.2707600">
<ele>-198.190002</ele>
<time>2022-12-14T12:44:25.067Z</time>
</trkpt>
<trkpt lat="30.9287700" lon="35.2708200">
<ele>-196.389999</ele>
<time>2022-12-14T12:44:25.067Z</time>
</trkpt>
<trkpt lat="30.9287300" lon="35.2709600">
<ele>-194.330002</ele>
<time>2022-12-14T12:44:25.067Z</time>
</trkpt>
<trkpt lat="30.9287300" lon="35.2709800">
<ele>-194.250000</ele>
<time>2022-12-14T12:44:25.067Z</time>
</trkpt>
<trkpt lat="30.9287500" lon="35.2711200">
<ele>-194.419998</ele>
<time>2022-12-14T12:44:25.067Z</time>
</trkpt>
<trkpt lat="30.9287700" lon="35.2711800">
<ele>-194.800003</ele>
<time>2022-12-14T12:44:25.067Z</time>
</trkpt>
<trkpt lat="30.9287800" lon="35.2713000">
<ele>-194.500000</ele>
<time>2022-12-14T12:44:25.067Z</time>
</trkpt>
<trkpt lat="30.9287800" lon="35.2714500">
<ele>-192.759995</ele>
<time>2022-12-14T12:44:25.067Z</time>
</trkpt>
<trkpt lat="30.9287800" lon="35.2714700">
<ele>-192.370010</ele>
<time>2022-12-14T12:44:25.067Z</time>
</trkpt>
<trkpt lat="30.9287800" lon="35.2714900">
<ele>-191.979996</ele>
<time>2022-12-14T12:44:25.067Z</time>
</trkpt>
<trkpt lat="30.9287600" lon="35.2715800">
<ele>-188.889999</ele>
<time>2022-12-14T12:44:25.067Z</time>
</trkpt>
<trkpt lat="30.9287300" lon="35.2716800">
<ele>-184.910004</ele>
<time>2022-12-14T12:44:25.067Z</time>
</trkpt>
<trkpt lat="30.9287100" lon="35.2717100">
<ele>-183.040009</ele>
<time>2022-12-14T12:44:25.067Z</time>
</trkpt>
<trkpt lat="30.9286300" lon="35.2717700">
<ele>-176.460007</ele>
<time>2022-12-14T12:44:25.067Z</time>
</trkpt>
<trkpt lat="30.9286100" lon="35.2717900">
<ele>-174.770004</ele>
<time>2022-12-14T12:44:25.067Z</time>
</trkpt>
<trkpt lat="30.9285600" lon="35.2718200">
<ele>-173.620010</ele>
<time>2022-12-14T12:44:25.067Z</time>
</trkpt>
<trkpt lat="30.9285100" lon="35.2718500">
<ele>-172.599991</ele>
<time>2022-12-14T12:44:25.067Z</time>
</trkpt>
<trkpt lat="30.9283900" lon="35.2718600">
<ele>-171.200012</ele>
<time>2022-12-14T12:44:25.067Z</time>
</trkpt>
<trkpt lat="30.9282700" lon="35.2718000">
<ele>-172.060013</ele>
<time>2022-12-14T12:44:25.067Z</time>
</trkpt>
<trkpt lat="30.9281400" lon="35.2717800">
<ele>-174.250000</ele>
<time>2022-12-14T12:44:25.067Z</time>
</trkpt>
<trkpt lat="30.9280900" lon="35.2717900">
<ele>-175.000000</ele>
<time>2022-12-14T12:44:25.067Z</time>
</trkpt>
<trkpt lat="30.9279700" lon="35.2718300">
<ele>-176.520004</ele>
<time>2022-12-14T12:44:25.067Z</time>
</trkpt>
<trkpt lat="30.9278500" lon="35.2718300">
<ele>-178.070007</ele>
<time>2022-12-14T12:44:25.067Z</time>
</trkpt>
<trkpt lat="30.9277200" lon="35.2718300">
<ele>-179.209991</ele>
<time>2022-12-14T12:44:25.067Z</time>
</trkpt>
<trkpt lat="30.9276300" lon="35.2718200">
<ele>-179.530014</ele>
<time>2022-12-14T12:44:25.067Z</time>
</trkpt>
<trkpt lat="30.9275300" lon="35.2718200">
<ele>-179.889999</ele>
<time>2022-12-14T12:44:25.067Z</time>
</trkpt>
<trkpt lat="30.9274100" lon="35.2718300">
<ele>-180.320007</ele>
<time>2022-12-14T12:44:25.067Z</time>
</trkpt>
<trkpt lat="30.9271600" lon="35.2718400">
<ele>-180.610001</ele>
<time>2022-12-14T12:44:25.067Z</time>
</trkpt>
<trkpt lat="30.9271300" lon="35.2718400">
<ele>-180.419998</ele>
<time>2022-12-14T12:44:25.067Z</time>
</trkpt>
<trkpt lat="30.9270600" lon="35.2718400">
<ele>-179.979996</ele>
<time>2022-12-14T12:44:25.067Z</time>
</trkpt>
<trkpt lat="30.9269800" lon="35.2718600">
<ele>-179.599991</ele>
<time>2022-12-14T12:44:25.067Z</time>
</trkpt>
<trkpt lat="30.9269300" lon="35.2718700">
<ele>-179.050003</ele>
<time>2022-12-14T12:44:25.067Z</time>
</trkpt>
<trkpt lat="30.9267400" lon="35.2719100">
<ele>-173.859985</ele>
<time>2022-12-14T12:44:25.067Z</time>
</trkpt>
<trkpt lat="30.9265500" lon="35.2719100">
<ele>-170.490005</ele>
<time>2022-12-14T12:44:25.067Z</time>
</trkpt>
<trkpt lat="30.9263500" lon="35.2719300">
<ele>-168.910004</ele>
<time>2022-12-14T12:44:25.067Z</time>
</trkpt>
<trkpt lat="30.9263000" lon="35.2719300">
<ele>-168.930008</ele>
<time>2022-12-14T12:44:25.067Z</time>
</trkpt>
<trkpt lat="30.9261100" lon="35.2719500">
<ele>-169.009995</ele>
<time>2022-12-14T12:44:25.067Z</time>
</trkpt>
<trkpt lat="30.9260600" lon="35.2719600">
<ele>-168.489990</ele>
<time>2022-12-14T12:44:25.067Z</time>
</trkpt>
<trkpt lat="30.9258800" lon="35.2719800">
<ele>-166.529999</ele>
<time>2022-12-14T12:44:25.067Z</time>
</trkpt>
<trkpt lat="30.9258300" lon="35.2719800">
<ele>-165.970001</ele>
<time>2022-12-14T12:44:25.067Z</time>
</trkpt>
<trkpt lat="30.9257000" lon="35.2720000">
<ele>-164.849991</ele>
<time>2022-12-14T12:44:25.067Z</time>
</trkpt>
<trkpt lat="30.9256800" lon="35.2720000">
<ele>-164.679993</ele>
<time>2022-12-14T12:44:25.067Z</time>
</trkpt>
<trkpt lat="30.9256600" lon="35.2720100">
<ele>-164.460007</ele>
<time>2022-12-14T12:44:25.067Z</time>
</trkpt>
<trkpt lat="30.9255900" lon="35.2720200">
<ele>-163.770004</ele>
<time>2022-12-14T12:44:25.067Z</time>
</trkpt>
<trkpt lat="30.9254900" lon="35.2720200">
<ele>-161.910004</ele>
<time>2022-12-14T12:44:25.067Z</time>
</trkpt>
<trkpt lat="30.9254500" lon="35.2720200">
<ele>-160.970001</ele>
<time>2022-12-14T12:44:25.067Z</time>
</trkpt>
<trkpt lat="30.9253900" lon="35.2720200">
<ele>-159.559998</ele>
<time>2022-12-14T12:44:25.067Z</time>
</trkpt>
<trkpt lat="30.9253700" lon="35.2720200">
<ele>-159.080002</ele>
<time>2022-12-14T12:44:25.067Z</time>
</trkpt>
<trkpt lat="30.9253500" lon="35.2720200">
<ele>-158.610001</ele>
<time>2022-12-14T12:44:25.067Z</time>
</trkpt>
<trkpt lat="30.9252800" lon="35.2720100">
<ele>-157.110001</ele>
<time>2022-12-14T12:44:25.067Z</time>
</trkpt>
<trkpt lat="30.9252200" lon="35.2720100">
<ele>-155.710007</ele>
<time>2022-12-14T12:44:25.067Z</time>
</trkpt>
<trkpt lat="30.9251700" lon="35.2720000">
<ele>-154.720001</ele>
<time>2022-12-14T12:44:25.067Z</time>
</trkpt>
<trkpt lat="30.9251000" lon="35.2719900">
<ele>-153.290009</ele>
<time>2022-12-14T12:44:25.067Z</time>
</trkpt>
<trkpt lat="30.9250800" lon="35.2719900">
<ele>-152.839996</ele>
<time>2022-12-14T12:44:25.067Z</time>
</trkpt>
<trkpt lat="30.9250100" lon="35.2719800">
<ele>-151.460007</ele>
<time>2022-12-14T12:44:25.067Z</time>
</trkpt>
<trkpt lat="30.9249500" lon="35.2719800">
<ele>-151.080002</ele>
<time>2022-12-14T12:44:25.067Z</time>
</trkpt>
<trkpt lat="30.9248800" lon="35.2719800">
<ele>-150.860001</ele>
<time>2022-12-14T12:44:25.067Z</time>
</trkpt>
<trkpt lat="30.9248300" lon="35.2719700">
<ele>-150.889999</ele>
<time>2022-12-14T12:44:25.067Z</time>
</trkpt>
<trkpt lat="30.9247300" lon="35.2719800">
<ele>-150.380005</ele>
<time>2022-12-14T12:44:25.067Z</time>
</trkpt>
<trkpt lat="30.9247000" lon="35.2719800">
<ele>-150.289993</ele>
<time>2022-12-14T12:44:25.067Z</time>
</trkpt>
<trkpt lat="30.9246400" lon="35.2719900">
<ele>-149.930008</ele>
<time>2022-12-14T12:44:25.067Z</time>
</trkpt>
<trkpt lat="30.9245700" lon="35.2720000">
<ele>-149.559998</ele>
<time>2022-12-14T12:44:25.067Z</time>
</trkpt>
<trkpt lat="30.9244600" lon="35.2720300">
<ele>-148.809998</ele>
<time>2022-12-14T12:44:25.067Z</time>
</trkpt>
<trkpt lat="30.9243300" lon="35.2720700">
<ele>-148.980011</ele>
<time>2022-12-14T12:44:25.067Z</time>
</trkpt>
<trkpt lat="30.9242800" lon="35.2720800">
<ele>-149.220001</ele>
<time>2022-12-14T12:44:25.067Z</time>
</trkpt>
<trkpt lat="30.9241000" lon="35.2721500">
<ele>-151.669998</ele>
<time>2022-12-14T12:44:25.067Z</time>
</trkpt>
<trkpt lat="30.9240300" lon="35.2722100">
<ele>-153.919998</ele>
<time>2022-12-14T12:44:25.067Z</time>
</trkpt>
<trkpt lat="30.9239900" lon="35.2722500">
<ele>-155.319992</ele>
<time>2022-12-14T12:44:25.067Z</time>
</trkpt>
<trkpt lat="30.9238900" lon="35.2723600">
<ele>-158.960007</ele>
<time>2022-12-14T12:44:25.067Z</time>
</trkpt>
<trkpt lat="30.9238300" lon="35.2724200">
<ele>-160.000000</ele>
<time>2022-12-14T12:44:25.067Z</time>
</trkpt>
<trkpt lat="30.9237800" lon="35.2724900">
<ele>-160.950012</ele>
<time>2022-12-14T12:44:25.067Z</time>
</trkpt>
<trkpt lat="30.9237300" lon="35.2725500">
<ele>-161.290009</ele>
<time>2022-12-14T12:44:25.067Z</time>
</trkpt>
<trkpt lat="30.9236800" lon="35.2726200">
<ele>-161.789993</ele>
<time>2022-12-14T12:44:25.067Z</time>
</trkpt>
<trkpt lat="30.9236000" lon="35.2727500">
<ele>-163.329987</ele>
<time>2022-12-14T12:44:25.067Z</time>
</trkpt>
<trkpt lat="30.9233500" lon="35.2730700">
<ele>-165.069992</ele>
<time>2022-12-14T12:44:25.067Z</time>
</trkpt>
<trkpt lat="30.9232500" lon="35.2731700">
<ele>-166.160004</ele>
<time>2022-12-14T12:44:25.067Z</time>
</trkpt>
<trkpt lat="30.9231500" lon="35.2732800">
<ele>-167.110001</ele>
<time>2022-12-14T12:44:25.067Z</time>
</trkpt>
<trkpt lat="30.9230500" lon="35.2733700">
<ele>-168.750000</ele>
<time>2022-12-14T12:44:25.067Z</time>
</trkpt>
<trkpt lat="30.9229000" lon="35.2735100">
<ele>-169.149994</ele>
<time>2022-12-14T12:44:25.067Z</time>
</trkpt>
<trkpt lat="30.9228500" lon="35.2735500">
<ele>-169.749985</ele>
<time>2022-12-14T12:44:25.067Z</time>
</trkpt>
<trkpt lat="30.9227500" lon="35.2736200">
<ele>-171.419998</ele>
<time>2022-12-14T12:44:25.067Z</time>
</trkpt>
<trkpt lat="30.9227000" lon="35.2736500">
<ele>-172.139999</ele>
<time>2022-12-14T12:44:25.067Z</time>
</trkpt>
<trkpt lat="30.9226100" lon="35.2737100">
<ele>-173.130005</ele>
<time>2022-12-14T12:44:25.067Z</time>
</trkpt>
<trkpt lat="30.9223700" lon="35.2738500">
<ele>-173.620010</ele>
<time>2022-12-14T12:44:25.067Z</time>
</trkpt>
<trkpt lat="30.9223300" lon="35.2738800">
<ele>-173.639999</ele>
<time>2022-12-14T12:44:25.067Z</time>
</trkpt>
<trkpt lat="30.9222500" lon="35.2739700">
<ele>-174.250000</ele>
<time>2022-12-14T12:44:25.067Z</time>
</trkpt>
<trkpt lat="30.9222100" lon="35.2740200">
<ele>-174.520004</ele>
<time>2022-12-14T12:44:25.067Z</time>
</trkpt>
<trkpt lat="30.9221700" lon="35.2740700">
<ele>-174.840012</ele>
<time>2022-12-14T12:44:25.067Z</time>
</trkpt>
<trkpt lat="30.9220100" lon="35.2742800">
<ele>-176.769989</ele>
<time>2022-12-14T12:44:25.067Z</time>
</trkpt>
<trkpt lat="30.9219700" lon="35.2743300">
<ele>-177.190002</ele>
<time>2022-12-14T12:44:25.067Z</time>
</trkpt>
<trkpt lat="30.9219200" lon="35.2743800">
<ele>-177.600006</ele>
<time>2022-12-14T12:44:25.067Z</time>
</trkpt>
<trkpt lat="30.9217400" lon="35.2745900">
<ele>-178.520004</ele>
<time>2022-12-14T12:44:25.067Z</time>
</trkpt>
<trkpt lat="30.9216100" lon="35.2747400">
<ele>-179.659988</ele>
<time>2022-12-14T12:44:25.067Z</time>
</trkpt>
<trkpt lat="30.9215700" lon="35.2747900">
<ele>-180.199997</ele>
<time>2022-12-14T12:44:25.067Z</time>
</trkpt>
<trkpt lat="30.9213800" lon="35.2749800">
<ele>-182.089996</ele>
<time>2022-12-14T12:44:25.067Z</time>
</trkpt>
<trkpt lat="30.9213000" lon="35.2750700">
<ele>-182.880005</ele>
<time>2022-12-14T12:44:25.067Z</time>
</trkpt>
<trkpt lat="30.9212600" lon="35.2751200">
<ele>-183.190002</ele>
<time>2022-12-14T12:44:25.067Z</time>
</trkpt>
<trkpt lat="30.9212200" lon="35.2751800">
<ele>-183.429993</ele>
<time>2022-12-14T12:44:25.067Z</time>
</trkpt>
<trkpt lat="30.9211600" lon="35.2753600">
<ele>-183.750000</ele>
<time>2022-12-14T12:44:25.067Z</time>
</trkpt>
<trkpt lat="30.9211400" lon="35.2754900">
<ele>-183.949997</ele>
<time>2022-12-14T12:44:25.067Z</time>
</trkpt>
<trkpt lat="30.9211200" lon="35.2756800">
<ele>-184.009995</ele>
<time>2022-12-14T12:44:25.067Z</time>
</trkpt>
<trkpt lat="30.9211200" lon="35.2757500">
<ele>-184.020004</ele>
<time>2022-12-14T12:44:25.067Z</time>
</trkpt>
<trkpt lat="30.9211100" lon="35.2760400">
<ele>-184.750000</ele>
<time>2022-12-14T12:44:25.067Z</time>
</trkpt>
<trkpt lat="30.9210900" lon="35.2763500">
<ele>-185.139999</ele>
<time>2022-12-14T12:44:25.067Z</time>
</trkpt>
<trkpt lat="30.9210700" lon="35.2765000">
<ele>-185.699997</ele>
<time>2022-12-14T12:44:25.067Z</time>
</trkpt>
<trkpt lat="30.9210500" lon="35.2765700">
<ele>-186.089996</ele>
<time>2022-12-14T12:44:25.067Z</time>
</trkpt>
<trkpt lat="30.9210100" lon="35.2767900">
<ele>-187.620010</ele>
<time>2022-12-14T12:44:25.067Z</time>
</trkpt>
<trkpt lat="30.9210000" lon="35.2768700">
<ele>-188.260010</ele>
<time>2022-12-14T12:44:25.067Z</time>
</trkpt>
<trkpt lat="30.9209800" lon="35.2770300">
<ele>-189.559998</ele>
<time>2022-12-14T12:44:25.067Z</time>
</trkpt>
<trkpt lat="30.9209800" lon="35.2771200">
<ele>-190.210007</ele>
<time>2022-12-14T12:44:25.067Z</time>
</trkpt>
<trkpt lat="30.9209800" lon="35.2774700">
<ele>-191.409988</ele>
<time>2022-12-14T12:44:25.067Z</time>
</trkpt>
<trkpt lat="30.9209400" lon="35.2777400">
<ele>-192.479996</ele>
<time>2022-12-14T12:44:25.067Z</time>
</trkpt>
<trkpt lat="30.9209000" lon="35.2779100">
<ele>-192.869995</ele>
<time>2022-12-14T12:44:25.067Z</time>
</trkpt>
<trkpt lat="30.9208800" lon="35.2780000">
<ele>-192.970001</ele>
<time>2022-12-14T12:44:25.067Z</time>
</trkpt>
<trkpt lat="30.9208400" lon="35.2782700">
<ele>-192.979996</ele>
<time>2022-12-14T12:44:25.067Z</time>
</trkpt>
<trkpt lat="30.9208200" lon="35.2784400">
<ele>-193.379990</ele>
<time>2022-12-14T12:44:25.067Z</time>
</trkpt>
<trkpt lat="30.9208200" lon="35.2785300">
<ele>-193.710007</ele>
<time>2022-12-14T12:44:25.067Z</time>
</trkpt>
<trkpt lat="30.9208100" lon="35.2786900">
<ele>-194.330002</ele>
<time>2022-12-14T12:44:25.067Z</time>
</trkpt>
<trkpt lat="30.9207800" lon="35.2789600">
<ele>-195.540009</ele>
<time>2022-12-14T12:44:25.067Z</time>
</trkpt>
<trkpt lat="30.9207800" lon="35.2790100">
<ele>-195.649994</ele>
<time>2022-12-14T12:44:25.067Z</time>
</trkpt>
<trkpt lat="30.9207700" lon="35.2791100">
<ele>-195.889999</ele>
<time>2022-12-14T12:44:25.067Z</time>
</trkpt>
<trkpt lat="30.9207500" lon="35.2792000">
<ele>-195.830002</ele>
<time>2022-12-14T12:44:25.067Z</time>
</trkpt>
<trkpt lat="30.9207300" lon="35.2792300">
<ele>-195.710007</ele>
<time>2022-12-14T12:44:25.067Z</time>
</trkpt>
<trkpt lat="30.9207300" lon="35.2792600">
<ele>-195.580002</ele>
<time>2022-12-14T12:44:25.067Z</time>
</trkpt>
<trkpt lat="30.9207200" lon="35.2794300">
<ele>-194.879990</ele>
<time>2022-12-14T12:44:25.067Z</time>
</trkpt>
<trkpt lat="30.9207300" lon="35.2794700">
<ele>-194.680008</ele>
<time>2022-12-14T12:44:25.067Z</time>
</trkpt>
<trkpt lat="30.9207700" lon="35.2795900">
<ele>-194.220001</ele>
<time>2022-12-14T12:44:25.067Z</time>
</trkpt>
<trkpt lat="30.9207400" lon="35.2797800">
<ele>-193.440002</ele>
<time>2022-12-14T12:44:25.067Z</time>
</trkpt>
<trkpt lat="30.9207300" lon="35.2799100">
<ele>-192.150009</ele>
<time>2022-12-14T12:44:25.067Z</time>
</trkpt>
<trkpt lat="30.9207400" lon="35.2799500">
<ele>-191.809998</ele>
<time>2022-12-14T12:44:25.067Z</time>
</trkpt>
<trkpt lat="30.9207600" lon="35.2799900">
<ele>-191.559998</ele>
<time>2022-12-14T12:44:25.067Z</time>
</trkpt>
<trkpt lat="30.9207800" lon="35.2800500">
<ele>-191.399994</ele>
<time>2022-12-14T12:44:25.067Z</time>
</trkpt>
<trkpt lat="30.9208000" lon="35.2800800">
<ele>-191.440002</ele>
<time>2022-12-14T12:44:25.067Z</time>
</trkpt>
<trkpt lat="30.9208100" lon="35.2801100">
<ele>-191.399994</ele>
<time>2022-12-14T12:44:25.067Z</time>
</trkpt>
<trkpt lat="30.9208700" lon="35.2802100">
<ele>-191.479996</ele>
<time>2022-12-14T12:44:25.067Z</time>
</trkpt>
<trkpt lat="30.9208800" lon="35.2802300">
<ele>-191.479996</ele>
<time>2022-12-14T12:44:25.067Z</time>
</trkpt>
<trkpt lat="30.9209000" lon="35.2802800">
<ele>-191.490005</ele>
<time>2022-12-14T12:44:25.067Z</time>
</trkpt>
<trkpt lat="30.9209600" lon="35.2803800">
<ele>-192.309998</ele>
<time>2022-12-14T12:44:25.067Z</time>
</trkpt>
<trkpt lat="30.9210400" lon="35.2805300">
<ele>-192.950012</ele>
<time>2022-12-14T12:44:25.067Z</time>
</trkpt>
<trkpt lat="30.9211500" lon="35.2807500">
<ele>-192.260010</ele>
<time>2022-12-14T12:44:25.067Z</time>
</trkpt>
<trkpt lat="30.9212400" lon="35.2809600">
<ele>-192.240005</ele>
<time>2022-12-14T12:44:25.067Z</time>
</trkpt>
<trkpt lat="30.9212900" lon="35.2810900">
<ele>-192.330002</ele>
<time>2022-12-14T12:44:25.067Z</time>
</trkpt>
<trkpt lat="30.9213200" lon="35.2811500">
<ele>-192.139999</ele>
<time>2022-12-14T12:44:25.067Z</time>
</trkpt>
<trkpt lat="30.9214000" lon="35.2813300">
<ele>-191.089996</ele>
<time>2022-12-14T12:44:25.067Z</time>
</trkpt>
<trkpt lat="30.9214500" lon="35.2814200">
<ele>-190.339996</ele>
<time>2022-12-14T12:44:25.067Z</time>
</trkpt>
<trkpt lat="30.9214700" lon="35.2814700">
<ele>-190.120010</ele>
<time>2022-12-14T12:44:25.067Z</time>
</trkpt>
<trkpt lat="30.9215300" lon="35.2816100">
<ele>-189.480011</ele>
<time>2022-12-14T12:44:25.067Z</time>
</trkpt>
<trkpt lat="30.9215700" lon="35.2817500">
<ele>-189.039993</ele>
<time>2022-12-14T12:44:25.067Z</time>
</trkpt>
<trkpt lat="30.9215800" lon="35.2817800">
<ele>-188.940002</ele>
<time>2022-12-14T12:44:25.067Z</time>
</trkpt>
<trkpt lat="30.9216900" lon="35.2820800">
<ele>-187.790009</ele>
<time>2022-12-14T12:44:25.067Z</time>
</trkpt>
<trkpt lat="30.9217500" lon="35.2822400">
<ele>-187.460007</ele>
<time>2022-12-14T12:44:25.067Z</time>
</trkpt>
<trkpt lat="30.9217900" lon="35.2823400">
<ele>-187.539993</ele>
<time>2022-12-14T12:44:25.067Z</time>
</trkpt>
<trkpt lat="30.9218300" lon="35.2824400">
<ele>-187.610001</ele>
<time>2022-12-14T12:44:25.067Z</time>
</trkpt>
<trkpt lat="30.9218700" lon="35.2825100">
<ele>-187.559998</ele>
<time>2022-12-14T12:44:25.067Z</time>
</trkpt>
<trkpt lat="30.9219600" lon="35.2827200">
<ele>-187.720001</ele>
<time>2022-12-14T12:44:25.067Z</time>
</trkpt>
<trkpt lat="30.9221100" lon="35.2830300">
<ele>-187.949997</ele>
<time>2022-12-14T12:44:25.067Z</time>
</trkpt>
<trkpt lat="30.9221200" lon="35.2831700">
<ele>-188.000000</ele>
<time>2022-12-14T12:44:25.067Z</time>
</trkpt>
<trkpt lat="30.9221300" lon="35.2832200">
<ele>-188.000000</ele>
<time>2022-12-14T12:44:25.067Z</time>
</trkpt>
<trkpt lat="30.9221600" lon="35.2833900">
<ele>-188.250000</ele>
<time>2022-12-14T12:44:25.067Z</time>
</trkpt>
<trkpt lat="30.9222300" lon="35.2835500">
<ele>-188.779999</ele>
<time>2022-12-14T12:44:25.067Z</time>
</trkpt>
<trkpt lat="30.9222500" lon="35.2835900">
<ele>-188.919998</ele>
<time>2022-12-14T12:44:25.067Z</time>
</trkpt>
<trkpt lat="30.9223500" lon="35.2838200">
<ele>-190.500000</ele>
<time>2022-12-14T12:44:25.067Z</time>
</trkpt>
<trkpt lat="30.9223800" lon="35.2838700">
<ele>-190.860001</ele>
<time>2022-12-14T12:44:25.067Z</time>
</trkpt>
<trkpt lat="30.9224800" lon="35.2840200">
<ele>-192.820007</ele>
<time>2022-12-14T12:44:25.067Z</time>
</trkpt>
<trkpt lat="30.9225200" lon="35.2840700">
<ele>-193.470001</ele>
<time>2022-12-14T12:44:25.067Z</time>
</trkpt>
<trkpt lat="30.9225600" lon="35.2841200">
<ele>-193.789993</ele>
<time>2022-12-14T12:44:25.067Z</time>
</trkpt>
<trkpt lat="30.9227000" lon="35.2842900">
<ele>-194.050003</ele>
<time>2022-12-14T12:44:25.067Z</time>
</trkpt>
<trkpt lat="30.9228000" lon="35.2844100">
<ele>-194.470001</ele>
<time>2022-12-14T12:44:25.067Z</time>
</trkpt>
<trkpt lat="30.9228300" lon="35.2844800">
<ele>-194.929993</ele>
<time>2022-12-14T12:44:25.067Z</time>
</trkpt>
<trkpt lat="30.9229600" lon="35.2847400">
<ele>-197.149994</ele>
<time>2022-12-14T12:44:25.067Z</time>
</trkpt>
<trkpt lat="30.9229900" lon="35.2848500">
<ele>-198.029999</ele>
<time>2022-12-14T12:44:25.067Z</time>
</trkpt>
<trkpt lat="30.9229900" lon="35.2849500">
<ele>-198.830002</ele>
<time>2022-12-14T12:44:25.067Z</time>
</trkpt>
<trkpt lat="30.9230000" lon="35.2850400">
<ele>-199.520004</ele>
<time>2022-12-14T12:44:25.067Z</time>
</trkpt>
<trkpt lat="30.9230000" lon="35.2851400">
<ele>-200.310013</ele>
<time>2022-12-14T12:44:25.067Z</time>
</trkpt>
<trkpt lat="30.9229800" lon="35.2852500">
<ele>-201.319992</ele>
<time>2022-12-14T12:44:25.067Z</time>
</trkpt>
<trkpt lat="30.9229700" lon="35.2853700">
<ele>-202.049988</ele>
<time>2022-12-14T12:44:25.067Z</time>
</trkpt>
<trkpt lat="30.9229400" lon="35.2854400">
<ele>-202.660004</ele>
<time>2022-12-14T12:44:25.067Z</time>
</trkpt>
<trkpt lat="30.9229000" lon="35.2855000">
<ele>-203.370010</ele>
<time>2022-12-14T12:44:25.067Z</time>
</trkpt>
<trkpt lat="30.9229000" lon="35.2856000">
<ele>-203.770004</ele>
<time>2022-12-14T12:44:25.067Z</time>
</trkpt>
<trkpt lat="30.9228900" lon="35.2858200">
<ele>-204.359985</ele>
<time>2022-12-14T12:44:25.067Z</time>
</trkpt>
<trkpt lat="30.9228800" lon="35.2858600">
<ele>-204.599991</ele>
<time>2022-12-14T12:44:25.067Z</time>
</trkpt>
<trkpt lat="30.9228500" lon="35.2859900">
<ele>-205.250000</ele>
<time>2022-12-14T12:44:25.067Z</time>
</trkpt>
<trkpt lat="30.9228100" lon="35.2861300">
<ele>-205.709991</ele>
<time>2022-12-14T12:44:25.067Z</time>
</trkpt>
<trkpt lat="30.9228000" lon="35.2861600">
<ele>-205.680008</ele>
<time>2022-12-14T12:44:25.067Z</time>
</trkpt>
<trkpt lat="30.9227200" lon="35.2862800">
<ele>-205.639999</ele>
<time>2022-12-14T12:44:25.067Z</time>
</trkpt>
<trkpt lat="30.9226900" lon="35.2863600">
<ele>-205.669998</ele>
<time>2022-12-14T12:44:25.067Z</time>
</trkpt>
<trkpt lat="30.9226200" lon="35.2865000">
<ele>-205.510010</ele>
<time>2022-12-14T12:44:25.067Z</time>
</trkpt>
<trkpt lat="30.9225800" lon="35.2866400">
<ele>-204.879990</ele>
<time>2022-12-14T12:44:25.067Z</time>
</trkpt>
<trkpt lat="30.9225600" lon="35.2867800">
<ele>-204.290009</ele>
<time>2022-12-14T12:44:25.067Z</time>
</trkpt>
<trkpt lat="30.9225000" lon="35.2869900">
<ele>-204.000000</ele>
<time>2022-12-14T12:44:25.067Z</time>
</trkpt>
<trkpt lat="30.9224800" lon="35.2870200">
<ele>-204.089996</ele>
<time>2022-12-14T12:44:25.067Z</time>
</trkpt>
<trkpt lat="30.9224500" lon="35.2870400">
<ele>-204.240005</ele>
<time>2022-12-14T12:44:25.067Z</time>
</trkpt>
<trkpt lat="30.9224100" lon="35.2870800">
<ele>-204.479996</ele>
<time>2022-12-14T12:44:25.067Z</time>
</trkpt>
<trkpt lat="30.9224300" lon="35.2871800">
<ele>-204.470001</ele>
<time>2022-12-14T12:44:25.067Z</time>
</trkpt>
<trkpt lat="30.9224400" lon="35.2872600">
<ele>-204.700012</ele>
<time>2022-12-14T12:44:25.067Z</time>
</trkpt>
<trkpt lat="30.9224600" lon="35.2874200">
<ele>-205.709991</ele>
<time>2022-12-14T12:44:25.067Z</time>
</trkpt>
<trkpt lat="30.9224600" lon="35.2874700">
<ele>-206.070007</ele>
<time>2022-12-14T12:44:25.067Z</time>
</trkpt>
<trkpt lat="30.9224700" lon="35.2876200">
<ele>-206.690002</ele>
<time>2022-12-14T12:44:25.067Z</time>
</trkpt>
<trkpt lat="30.9224500" lon="35.2878000">
<ele>-207.619995</ele>
<time>2022-12-14T12:44:25.067Z</time>
</trkpt>
<trkpt lat="30.9223300" lon="35.2880000">
<ele>-209.639999</ele>
<time>2022-12-14T12:44:25.067Z</time>
</trkpt>
<trkpt lat="30.9223000" lon="35.2882100">
<ele>-210.559998</ele>
<time>2022-12-14T12:44:25.067Z</time>
</trkpt>
<trkpt lat="30.9223500" lon="35.2884800">
<ele>-210.160004</ele>
<time>2022-12-14T12:44:25.067Z</time>
</trkpt>
<trkpt lat="30.9223500" lon="35.2885300">
<ele>-210.160004</ele>
<time>2022-12-14T12:44:25.067Z</time>
</trkpt>
<trkpt lat="30.9223400" lon="35.2886100">
<ele>-210.300003</ele>
<time>2022-12-14T12:44:25.067Z</time>
</trkpt>
<trkpt lat="30.9223400" lon="35.2886900">
<ele>-210.300003</ele>
<time>2022-12-14T12:44:25.067Z</time>
</trkpt>
<trkpt lat="30.9223100" lon="35.2888700">
<ele>-210.739990</ele>
<time>2022-12-14T12:44:25.067Z</time>
</trkpt>
<trkpt lat="30.9222100" lon="35.2891400">
<ele>-211.160004</ele>
<time>2022-12-14T12:44:25.067Z</time>
</trkpt>
<trkpt lat="30.9222000" lon="35.2892300">
<ele>-210.759995</ele>
<time>2022-12-14T12:44:25.067Z</time>
</trkpt>
<trkpt lat="30.9221500" lon="35.2894200">
<ele>-210.410004</ele>
<time>2022-12-14T12:44:25.067Z</time>
</trkpt>
<trkpt lat="30.9221200" lon="35.2896700">
<ele>-209.730011</ele>
<time>2022-12-14T12:44:25.067Z</time>
</trkpt>
<trkpt lat="30.9221000" lon="35.2897700">
<ele>-209.589996</ele>
<time>2022-12-14T12:44:25.067Z</time>
</trkpt>
<trkpt lat="30.9220900" lon="35.2898100">
<ele>-209.589996</ele>
<time>2022-12-14T12:44:25.067Z</time>
</trkpt>
<trkpt lat="30.9220300" lon="35.2899600">
<ele>-209.910004</ele>
<time>2022-12-14T12:44:25.067Z</time>
</trkpt>
<trkpt lat="30.9219900" lon="35.2900400">
<ele>-210.370010</ele>
<time>2022-12-14T12:44:25.067Z</time>
</trkpt>
<trkpt lat="30.9218800" lon="35.2901500">
<ele>-211.590012</ele>
<time>2022-12-14T12:44:25.067Z</time>
</trkpt>
<trkpt lat="30.9218500" lon="35.2901800">
<ele>-211.899994</ele>
<time>2022-12-14T12:44:25.067Z</time>
</trkpt>
<trkpt lat="30.9218200" lon="35.2902200">
<ele>-212.250000</ele>
<time>2022-12-14T12:44:25.067Z</time>
</trkpt>
<trkpt lat="30.9217600" lon="35.2903300">
<ele>-212.989990</ele>
<time>2022-12-14T12:44:25.067Z</time>
</trkpt>
<trkpt lat="30.9216400" lon="35.2906100">
<ele>-213.919998</ele>
<time>2022-12-14T12:44:25.067Z</time>
</trkpt>
<trkpt lat="30.9216000" lon="35.2908300">
<ele>-214.000000</ele>
<time>2022-12-14T12:44:25.067Z</time>
</trkpt>
<trkpt lat="30.9214700" lon="35.2912800">
<ele>-213.470001</ele>
<time>2022-12-14T12:44:25.067Z</time>
</trkpt>
<trkpt lat="30.9213600" lon="35.2916000">
<ele>-210.589996</ele>
<time>2022-12-14T12:44:25.067Z</time>
</trkpt>
<trkpt lat="30.9213400" lon="35.2917000">
<ele>-209.699997</ele>
<time>2022-12-14T12:44:25.067Z</time>
</trkpt>
<trkpt lat="30.9213600" lon="35.2919200">
<ele>-208.980011</ele>
<time>2022-12-14T12:44:25.067Z</time>
</trkpt>
<trkpt lat="30.9213600" lon="35.2919700">
<ele>-208.889999</ele>
<time>2022-12-14T12:44:25.067Z</time>
</trkpt>
<trkpt lat="30.9214000" lon="35.2921800">
<ele>-209.049988</ele>
<time>2022-12-14T12:44:25.067Z</time>
</trkpt>
<trkpt lat="30.9214600" lon="35.2923200">
<ele>-209.260010</ele>
<time>2022-12-14T12:44:25.067Z</time>
</trkpt>
<trkpt lat="30.9215400" lon="35.2924500">
<ele>-209.539993</ele>
<time>2022-12-14T12:44:25.067Z</time>
</trkpt>
<trkpt lat="30.9216500" lon="35.2925500">
<ele>-210.110001</ele>
<time>2022-12-14T12:44:25.067Z</time>
</trkpt>
<trkpt lat="30.9218300" lon="35.2928200">
<ele>-214.149994</ele>
<time>2022-12-14T12:44:25.067Z</time>
</trkpt>
<trkpt lat="30.9218500" lon="35.2928700">
<ele>-214.740005</ele>
<time>2022-12-14T12:44:25.067Z</time>
</trkpt>
<trkpt lat="30.9218800" lon="35.2930000">
<ele>-215.830002</ele>
<time>2022-12-14T12:44:25.067Z</time>
</trkpt>
<trkpt lat="30.9220000" lon="35.2931100">
<ele>-216.559998</ele>
<time>2022-12-14T12:44:25.067Z</time>
</trkpt>
<trkpt lat="30.9221400" lon="35.2932400">
<ele>-215.120010</ele>
<time>2022-12-14T12:44:25.067Z</time>
</trkpt>
<trkpt lat="30.9221100" lon="35.2934200">
<ele>-214.590012</ele>
<time>2022-12-14T12:44:25.067Z</time>
</trkpt>
<trkpt lat="30.9220900" lon="35.2934800">
<ele>-214.370010</ele>
<time>2022-12-14T12:44:25.067Z</time>
</trkpt>
<trkpt lat="30.9220000" lon="35.2935800">
<ele>-214.619995</ele>
<time>2022-12-14T12:44:25.067Z</time>
</trkpt>
<trkpt lat="30.9218300" lon="35.2936700">
<ele>-215.899994</ele>
<time>2022-12-14T12:44:25.067Z</time>
</trkpt>
<trkpt lat="30.9217500" lon="35.2937300">
<ele>-216.539993</ele>
<time>2022-12-14T12:44:25.067Z</time>
</trkpt>
<trkpt lat="30.9217200" lon="35.2937600">
<ele>-216.790009</ele>
<time>2022-12-14T12:44:25.067Z</time>
</trkpt>
<trkpt lat="30.9216600" lon="35.2938100">
<ele>-217.300003</ele>
<time>2022-12-14T12:44:25.067Z</time>
</trkpt>
<trkpt lat="30.9215200" lon="35.2939400">
<ele>-217.630005</ele>
<time>2022-12-14T12:44:25.067Z</time>
</trkpt>
<trkpt lat="30.9214300" lon="35.2939700">
<ele>-218.100006</ele>
<time>2022-12-14T12:44:25.067Z</time>
</trkpt>
<trkpt lat="30.9213500" lon="35.2940100">
<ele>-218.480011</ele>
<time>2022-12-14T12:44:25.067Z</time>
</trkpt>
<trkpt lat="30.9212800" lon="35.2940500">
<ele>-218.870010</ele>
<time>2022-12-14T12:44:25.067Z</time>
</trkpt>
<trkpt lat="30.9212500" lon="35.2940800">
<ele>-219.220001</ele>
<time>2022-12-14T12:44:25.067Z</time>
</trkpt>
<trkpt lat="30.9211400" lon="35.2941500">
<ele>-220.569992</ele>
<time>2022-12-14T12:44:25.067Z</time>
</trkpt>
<trkpt lat="30.9209900" lon="35.2941900">
<ele>-219.720001</ele>
<time>2022-12-14T12:44:25.067Z</time>
</trkpt>
<trkpt lat="30.9209600" lon="35.2942000">
<ele>-219.440002</ele>
<time>2022-12-14T12:44:25.067Z</time>
</trkpt>
<trkpt lat="30.9208200" lon="35.2943200">
<ele>-219.029999</ele>
<time>2022-12-14T12:44:25.067Z</time>
</trkpt>
<trkpt lat="30.9207900" lon="35.2943500">
<ele>-219.060013</ele>
<time>2022-12-14T12:44:25.067Z</time>
</trkpt>
<trkpt lat="30.9206100" lon="35.2945300">
<ele>-218.330002</ele>
<time>2022-12-14T12:44:25.067Z</time>
</trkpt>
<trkpt lat="30.9205400" lon="35.2947400">
<ele>-218.000000</ele>
<time>2022-12-14T12:44:25.067Z</time>
</trkpt>
<trkpt lat="30.9205200" lon="35.2948000">
<ele>-218.120010</ele>
<time>2022-12-14T12:44:25.067Z</time>
</trkpt>
<trkpt lat="30.9204900" lon="35.2949100">
<ele>-218.279999</ele>
<time>2022-12-14T12:44:25.067Z</time>
</trkpt>
<trkpt lat="30.9205200" lon="35.2950300">
<ele>-219.040009</ele>
<time>2022-12-14T12:44:25.067Z</time>
</trkpt>
<trkpt lat="30.9206400" lon="35.2950700">
<ele>-219.449997</ele>
<time>2022-12-14T12:44:25.067Z</time>
</trkpt>
<trkpt lat="30.9208600" lon="35.2952100">
<ele>-220.099991</ele>
<time>2022-12-14T12:44:25.067Z</time>
</trkpt>
<trkpt lat="30.9210600" lon="35.2953800">
<ele>-220.099991</ele>
<time>2022-12-14T12:44:25.067Z</time>
</trkpt>
<trkpt lat="30.9210800" lon="35.2955400">
<ele>-221.110001</ele>
<time>2022-12-14T12:44:25.067Z</time>
</trkpt>
<trkpt lat="30.9210800" lon="35.2956000">
<ele>-221.119995</ele>
<time>2022-12-14T12:44:25.067Z</time>
</trkpt>
<trkpt lat="30.9210800" lon="35.2957500">
<ele>-220.759995</ele>
<time>2022-12-14T12:44:25.067Z</time>
</trkpt>
<trkpt lat="30.9210900" lon="35.2957900">
<ele>-220.499985</ele>
<time>2022-12-14T12:44:25.067Z</time>
</trkpt>
<trkpt lat="30.9210900" lon="35.2959000">
<ele>-220.139999</ele>
<time>2022-12-14T12:44:25.067Z</time>
</trkpt>
<trkpt lat="30.9210400" lon="35.2960000">
<ele>-220.679993</ele>
<time>2022-12-14T12:44:25.067Z</time>
</trkpt>
<trkpt lat="30.9209800" lon="35.2961300">
<ele>-221.360001</ele>
<time>2022-12-14T12:44:25.067Z</time>
</trkpt>
<trkpt lat="30.9209700" lon="35.2961500">
<ele>-221.540009</ele>
<time>2022-12-14T12:44:25.067Z</time>
</trkpt>
<trkpt lat="30.9209700" lon="35.2961700">
<ele>-221.540009</ele>
<time>2022-12-14T12:44:25.067Z</time>
</trkpt>
<trkpt lat="30.9209600" lon="35.2961900">
<ele>-221.719986</ele>
<time>2022-12-14T12:44:25.067Z</time>
</trkpt>
<trkpt lat="30.9209200" lon="35.2963100">
<ele>-222.440002</ele>
<time>2022-12-14T12:44:25.067Z</time>
</trkpt>
<trkpt lat="30.9208600" lon="35.2964500">
<ele>-223.119995</ele>
<time>2022-12-14T12:44:25.067Z</time>
</trkpt>
<trkpt lat="30.9208300" lon="35.2965700">
<ele>-222.720001</ele>
<time>2022-12-14T12:44:25.067Z</time>
</trkpt>
<trkpt lat="30.9208100" lon="35.2966200">
<ele>-222.489990</ele>
<time>2022-12-14T12:44:25.067Z</time>
</trkpt>
<trkpt lat="30.9207900" lon="35.2967300">
<ele>-222.050003</ele>
<time>2022-12-14T12:44:25.067Z</time>
</trkpt>
<trkpt lat="30.9208300" lon="35.2969000">
<ele>-221.169998</ele>
<time>2022-12-14T12:44:25.067Z</time>
</trkpt>
<trkpt lat="30.9208900" lon="35.2969900">
<ele>-220.339996</ele>
<time>2022-12-14T12:44:25.067Z</time>
</trkpt>
<trkpt lat="30.9209000" lon="35.2970600">
<ele>-219.610001</ele>
<time>2022-12-14T12:44:25.067Z</time>
</trkpt>
<trkpt lat="30.9209200" lon="35.2972000">
<ele>-218.220001</ele>
<time>2022-12-14T12:44:25.067Z</time>
</trkpt>
<trkpt lat="30.9210400" lon="35.2973500">
<ele>-217.300003</ele>
<time>2022-12-14T12:44:25.067Z</time>
</trkpt>
<trkpt lat="30.9210600" lon="35.2974700">
<ele>-216.779999</ele>
<time>2022-12-14T12:44:25.067Z</time>
</trkpt>
<trkpt lat="30.9210700" lon="35.2975300">
<ele>-216.689987</ele>
<time>2022-12-14T12:44:25.067Z</time>
</trkpt>
<trkpt lat="30.9211000" lon="35.2975800">
<ele>-216.910004</ele>
<time>2022-12-14T12:44:25.067Z</time>
</trkpt>
<trkpt lat="30.9212100" lon="35.2978700">
<ele>-218.590012</ele>
<time>2022-12-14T12:44:25.067Z</time>
</trkpt>
<trkpt lat="30.9212700" lon="35.2979800">
<ele>-219.910004</ele>
<time>2022-12-14T12:44:25.067Z</time>
</trkpt>
<trkpt lat="30.9213100" lon="35.2980300">
<ele>-220.509995</ele>
<time>2022-12-14T12:44:25.067Z</time>
</trkpt>
<trkpt lat="30.9214100" lon="35.2981000">
<ele>-221.010010</ele>
<time>2022-12-14T12:44:25.067Z</time>
</trkpt>
<trkpt lat="30.9214700" lon="35.2981200">
<ele>-220.649994</ele>
<time>2022-12-14T12:44:25.067Z</time>
</trkpt>
<trkpt lat="30.9215800" lon="35.2981500">
<ele>-219.960007</ele>
<time>2022-12-14T12:44:25.067Z</time>
</trkpt>
<trkpt lat="30.9216700" lon="35.2982400">
<ele>-219.630005</ele>
<time>2022-12-14T12:44:25.067Z</time>
</trkpt>
<trkpt lat="30.9216800" lon="35.2982800">
<ele>-219.660004</ele>
<time>2022-12-14T12:44:25.067Z</time>
</trkpt>
<trkpt lat="30.9217200" lon="35.2983900">
<ele>-219.589996</ele>
<time>2022-12-14T12:44:25.067Z</time>
</trkpt>
<trkpt lat="30.9218000" lon="35.2984000">
<ele>-218.679993</ele>
<time>2022-12-14T12:44:25.067Z</time>
</trkpt>
<trkpt lat="30.9219000" lon="35.2984700">
<ele>-217.559998</ele>
<time>2022-12-14T12:44:25.067Z</time>
</trkpt>
<trkpt lat="30.9219100" lon="35.2985800">
<ele>-217.480011</ele>
<time>2022-12-14T12:44:25.067Z</time>
</trkpt>
<trkpt lat="30.9219100" lon="35.2986300">
<ele>-217.559998</ele>
<time>2022-12-14T12:44:25.067Z</time>
</trkpt>
<trkpt lat="30.9219200" lon="35.2987800">
<ele>-217.959991</ele>
<time>2022-12-14T12:44:25.067Z</time>
</trkpt>
<trkpt lat="30.9219500" lon="35.2988700">
<ele>-217.929993</ele>
<time>2022-12-14T12:44:25.067Z</time>
</trkpt>
<trkpt lat="30.9219600" lon="35.2989400">
<ele>-218.369995</ele>
<time>2022-12-14T12:44:25.067Z</time>
</trkpt>
<trkpt lat="30.9219600" lon="35.2989600">
<ele>-218.509995</ele>
<time>2022-12-14T12:44:25.067Z</time>
</trkpt>
<trkpt lat="30.9219400" lon="35.2989900">
<ele>-218.789993</ele>
<time>2022-12-14T12:44:25.067Z</time>
</trkpt>
<trkpt lat="30.9218800" lon="35.2991000">
<ele>-220.449997</ele>
<time>2022-12-14T12:44:25.067Z</time>
</trkpt>
<trkpt lat="30.9218600" lon="35.2991700">
<ele>-221.250000</ele>
<time>2022-12-14T12:44:25.067Z</time>
</trkpt>
<trkpt lat="30.9218700" lon="35.2992800">
<ele>-222.380005</ele>
<time>2022-12-14T12:44:25.067Z</time>
</trkpt>
<trkpt lat="30.9219000" lon="35.2994000">
<ele>-223.600006</ele>
<time>2022-12-14T12:44:25.067Z</time>
</trkpt>
<trkpt lat="30.9219200" lon="35.2996100">
<ele>-226.910004</ele>
<time>2022-12-14T12:44:25.067Z</time>
</trkpt>
<trkpt lat="30.9219300" lon="35.2997600">
<ele>-229.160004</ele>
<time>2022-12-14T12:44:25.067Z</time>
</trkpt>
<trkpt lat="30.9219200" lon="35.2999500">
<ele>-230.389999</ele>
<time>2022-12-14T12:44:25.067Z</time>
</trkpt>
<trkpt lat="30.9219000" lon="35.3000100">
<ele>-230.510010</ele>
<time>2022-12-14T12:44:25.067Z</time>
</trkpt>
<trkpt lat="30.9218700" lon="35.3001500">
<ele>-230.049988</ele>
<time>2022-12-14T12:44:25.067Z</time>
</trkpt>
<trkpt lat="30.9218200" lon="35.3003500">
<ele>-228.690002</ele>
<time>2022-12-14T12:44:25.067Z</time>
</trkpt>
<trkpt lat="30.9217800" lon="35.3005400">
<ele>-226.740005</ele>
<time>2022-12-14T12:44:25.067Z</time>
</trkpt>
<trkpt lat="30.9218100" lon="35.3006500">
<ele>-226.889999</ele>
<time>2022-12-14T12:44:25.067Z</time>
</trkpt>
<trkpt lat="30.9219200" lon="35.3007900">
<ele>-227.880005</ele>
<time>2022-12-14T12:44:25.067Z</time>
</trkpt>
<trkpt lat="30.9219600" lon="35.3008400">
<ele>-228.089996</ele>
<time>2022-12-14T12:44:25.067Z</time>
</trkpt>
<trkpt lat="30.9220000" lon="35.3008700">
<ele>-228.269989</ele>
<time>2022-12-14T12:44:25.067Z</time>
</trkpt>
<trkpt lat="30.9220600" lon="35.3008700">
<ele>-228.699997</ele>
<time>2022-12-14T12:44:25.067Z</time>
</trkpt>
<trkpt lat="30.9221200" lon="35.3007900">
<ele>-229.419998</ele>
<time>2022-12-14T12:44:25.067Z</time>
</trkpt>
<trkpt lat="30.9222100" lon="35.3006100">
<ele>-230.720001</ele>
<time>2022-12-14T12:44:25.067Z</time>
</trkpt>
<trkpt lat="30.9222500" lon="35.3005800">
<ele>-230.720001</ele>
<time>2022-12-14T12:44:25.067Z</time>
</trkpt>
<trkpt lat="30.9223000" lon="35.3005600">
<ele>-230.430008</ele>
<time>2022-12-14T12:44:25.067Z</time>
</trkpt>
<trkpt lat="30.9223500" lon="35.3005500">
<ele>-230.089996</ele>
<time>2022-12-14T12:44:25.067Z</time>
</trkpt>
<trkpt lat="30.9224600" lon="35.3005300">
<ele>-229.299988</ele>
<time>2022-12-14T12:44:25.067Z</time>
</trkpt>
<trkpt lat="30.9225600" lon="35.3005200">
<ele>-228.569992</ele>
<time>2022-12-14T12:44:25.067Z</time>
</trkpt>
<trkpt lat="30.9226200" lon="35.3005200">
<ele>-228.139984</ele>
<time>2022-12-14T12:44:25.067Z</time>
</trkpt>
<trkpt lat="30.9227700" lon="35.3005000">
<ele>-227.059998</ele>
<time>2022-12-14T12:44:25.067Z</time>
</trkpt>
<trkpt lat="30.9228900" lon="35.3004500">
<ele>-225.940002</ele>
<time>2022-12-14T12:44:25.067Z</time>
</trkpt>
<trkpt lat="30.9229400" lon="35.3004700">
<ele>-225.429993</ele>
<time>2022-12-14T12:44:25.067Z</time>
</trkpt>
<trkpt lat="30.9229600" lon="35.3004900">
<ele>-225.189987</ele>
<time>2022-12-14T12:44:25.067Z</time>
</trkpt>
<trkpt lat="30.9229500" lon="35.3006200">
<ele>-225.229996</ele>
<time>2022-12-14T12:44:25.067Z</time>
</trkpt>
<trkpt lat="30.9229400" lon="35.3007300">
<ele>-225.509995</ele>
<time>2022-12-14T12:44:25.067Z</time>
</trkpt>
<trkpt lat="30.9229500" lon="35.3007900">
<ele>-225.460007</ele>
<time>2022-12-14T12:44:25.067Z</time>
</trkpt>
<trkpt lat="30.9229800" lon="35.3008800">
<ele>-225.000000</ele>
<time>2022-12-14T12:44:25.067Z</time>
</trkpt>
<trkpt lat="30.9230500" lon="35.3010600">
<ele>-224.050003</ele>
<time>2022-12-14T12:44:25.067Z</time>
</trkpt>
<trkpt lat="30.9230400" lon="35.3010900">
<ele>-224.119995</ele>
<time>2022-12-14T12:44:25.067Z</time>
</trkpt>
<trkpt lat="30.9229600" lon="35.3013000">
<ele>-224.919998</ele>
<time>2022-12-14T12:44:25.067Z</time>
</trkpt>
<trkpt lat="30.9228900" lon="35.3014800">
<ele>-226.899994</ele>
<time>2022-12-14T12:44:25.067Z</time>
</trkpt>
<trkpt lat="30.9228500" lon="35.3016000">
<ele>-228.699997</ele>
<time>2022-12-14T12:44:25.067Z</time>
</trkpt>
<trkpt lat="30.9228500" lon="35.3016800">
<ele>-229.520004</ele>
<time>2022-12-14T12:44:25.067Z</time>
</trkpt>
<trkpt lat="30.9228800" lon="35.3017200">
<ele>-229.389999</ele>
<time>2022-12-14T12:44:25.067Z</time>
</trkpt>
<trkpt lat="30.9230300" lon="35.3018100">
<ele>-228.229996</ele>
<time>2022-12-14T12:44:25.067Z</time>
</trkpt>
<trkpt lat="30.9230900" lon="35.3018500">
<ele>-227.669998</ele>
<time>2022-12-14T12:44:25.067Z</time>
</trkpt>
<trkpt lat="30.9231200" lon="35.3018800">
<ele>-227.430008</ele>
<time>2022-12-14T12:44:25.067Z</time>
</trkpt>
<trkpt lat="30.9231400" lon="35.3019200">
<ele>-227.339996</ele>
<time>2022-12-14T12:44:25.067Z</time>
</trkpt>
<trkpt lat="30.9232100" lon="35.3019800">
<ele>-227.000000</ele>
<time>2022-12-14T12:44:25.067Z</time>
</trkpt>
<trkpt lat="30.9232800" lon="35.3020600">
<ele>-226.539993</ele>
<time>2022-12-14T12:44:25.067Z</time>
</trkpt>
<trkpt lat="30.9233000" lon="35.3021000">
<ele>-226.369995</ele>
<time>2022-12-14T12:44:25.067Z</time>
</trkpt>
<trkpt lat="30.9233800" lon="35.3022400">
<ele>-224.730011</ele>
<time>2022-12-14T12:44:25.067Z</time>
</trkpt>
<trkpt lat="30.9233900" lon="35.3022900">
<ele>-223.799988</ele>
<time>2022-12-14T12:44:25.067Z</time>
</trkpt>
<trkpt lat="30.9233900" lon="35.3024100">
<ele>-222.089996</ele>
<time>2022-12-14T12:44:25.067Z</time>
</trkpt>
<trkpt lat="30.9233800" lon="35.3025200">
<ele>-220.830002</ele>
<time>2022-12-14T12:44:25.067Z</time>
</trkpt>
<trkpt lat="30.9233300" lon="35.3026000">
<ele>-221.079987</ele>
<time>2022-12-14T12:44:25.067Z</time>
</trkpt>
<trkpt lat="30.9231800" lon="35.3027300">
<ele>-224.039993</ele>
<time>2022-12-14T12:44:25.067Z</time>
</trkpt>
<trkpt lat="30.9231500" lon="35.3027600">
<ele>-224.430008</ele>
<time>2022-12-14T12:44:25.067Z</time>
</trkpt>
<trkpt lat="30.9231200" lon="35.3028100">
<ele>-224.800003</ele>
<time>2022-12-14T12:44:25.067Z</time>
</trkpt>
<trkpt lat="30.9230800" lon="35.3029100">
<ele>-225.209991</ele>
<time>2022-12-14T12:44:25.067Z</time>
</trkpt>
<trkpt lat="30.9230700" lon="35.3029600">
<ele>-225.189987</ele>
<time>2022-12-14T12:44:25.067Z</time>
</trkpt>
<trkpt lat="30.9230400" lon="35.3031200">
<ele>-224.849991</ele>
<time>2022-12-14T12:44:25.067Z</time>
</trkpt>
<trkpt lat="30.9229200" lon="35.3032600">
<ele>-224.520004</ele>
<time>2022-12-14T12:44:25.067Z</time>
</trkpt>
<trkpt lat="30.9228500" lon="35.3033400">
<ele>-223.970001</ele>
<time>2022-12-14T12:44:25.067Z</time>
</trkpt>
<trkpt lat="30.9228200" lon="35.3034500">
<ele>-223.519989</ele>
<time>2022-12-14T12:44:25.067Z</time>
</trkpt>
<trkpt lat="30.9228300" lon="35.3035400">
<ele>-223.119995</ele>
<time>2022-12-14T12:44:25.067Z</time>
</trkpt>
<trkpt lat="30.9228300" lon="35.3035900">
<ele>-222.899994</ele>
<time>2022-12-14T12:44:25.067Z</time>
</trkpt>
<trkpt lat="30.9228000" lon="35.3036400">
<ele>-222.930008</ele>
<time>2022-12-14T12:44:25.067Z</time>
</trkpt>
<trkpt lat="30.9227800" lon="35.3036900">
<ele>-222.990005</ele>
<time>2022-12-14T12:44:25.067Z</time>
</trkpt>
<trkpt lat="30.9227200" lon="35.3037800">
<ele>-223.210007</ele>
<time>2022-12-14T12:44:25.067Z</time>
</trkpt>
<trkpt lat="30.9226000" lon="35.3038800">
<ele>-223.639999</ele>
<time>2022-12-14T12:44:25.067Z</time>
</trkpt>
<trkpt lat="30.9224200" lon="35.3038700">
<ele>-224.860001</ele>
<time>2022-12-14T12:44:25.067Z</time>
</trkpt>
<trkpt lat="30.9223700" lon="35.3038600">
<ele>-225.400009</ele>
<time>2022-12-14T12:44:25.067Z</time>
</trkpt>
<trkpt lat="30.9221400" lon="35.3037800">
<ele>-227.479996</ele>
<time>2022-12-14T12:44:25.067Z</time>
</trkpt>
<trkpt lat="30.9219600" lon="35.3037100">
<ele>-228.279999</ele>
<time>2022-12-14T12:44:25.067Z</time>
</trkpt>
<trkpt lat="30.9218800" lon="35.3036400">
<ele>-228.679993</ele>
<time>2022-12-14T12:44:25.067Z</time>
</trkpt>
<trkpt lat="30.9217900" lon="35.3035200">
<ele>-230.430008</ele>
<time>2022-12-14T12:44:25.067Z</time>
</trkpt>
<trkpt lat="30.9217400" lon="35.3034800">
<ele>-231.050003</ele>
<time>2022-12-14T12:44:25.067Z</time>
</trkpt>
<trkpt lat="30.9216800" lon="35.3034900">
<ele>-231.350006</ele>
<time>2022-12-14T12:44:25.067Z</time>
</trkpt>
<trkpt lat="30.9216600" lon="35.3035200">
<ele>-231.329987</ele>
<time>2022-12-14T12:44:25.067Z</time>
</trkpt>
<trkpt lat="30.9216400" lon="35.3035500">
<ele>-231.220001</ele>
<time>2022-12-14T12:44:25.067Z</time>
</trkpt>
<trkpt lat="30.9215600" lon="35.3036700">
<ele>-230.309998</ele>
<time>2022-12-14T12:44:25.067Z</time>
</trkpt>
<trkpt lat="30.9214200" lon="35.3038500">
<ele>-229.089996</ele>
<time>2022-12-14T12:44:25.067Z</time>
</trkpt>
<trkpt lat="30.9214100" lon="35.3039100">
<ele>-228.940002</ele>
<time>2022-12-14T12:44:25.067Z</time>
</trkpt>
<trkpt lat="30.9214200" lon="35.3040800">
<ele>-229.619995</ele>
<time>2022-12-14T12:44:25.067Z</time>
</trkpt>
<trkpt lat="30.9214200" lon="35.3042000">
<ele>-230.119995</ele>
<time>2022-12-14T12:44:25.067Z</time>
</trkpt>
<trkpt lat="30.9213200" lon="35.3043700">
<ele>-230.239990</ele>
<time>2022-12-14T12:44:25.067Z</time>
</trkpt>
<trkpt lat="30.9212700" lon="35.3043900">
<ele>-229.949997</ele>
<time>2022-12-14T12:44:25.067Z</time>
</trkpt>
<trkpt lat="30.9211800" lon="35.3044400">
<ele>-229.479996</ele>
<time>2022-12-14T12:44:25.067Z</time>
</trkpt>
<trkpt lat="30.9210400" lon="35.3045100">
<ele>-229.139999</ele>
<time>2022-12-14T12:44:25.067Z</time>
</trkpt>
<trkpt lat="30.9210000" lon="35.3045400">
<ele>-229.120010</ele>
<time>2022-12-14T12:44:25.067Z</time>
</trkpt>
<trkpt lat="30.9209400" lon="35.3046100">
<ele>-228.880005</ele>
<time>2022-12-14T12:44:25.067Z</time>
</trkpt>
<trkpt lat="30.9209800" lon="35.3047200">
<ele>-228.540009</ele>
<time>2022-12-14T12:44:25.067Z</time>
</trkpt>
<trkpt lat="30.9211200" lon="35.3048800">
<ele>-230.280014</ele>
<time>2022-12-14T12:44:25.067Z</time>
</trkpt>
<trkpt lat="30.9211600" lon="35.3049200">
<ele>-231.250000</ele>
<time>2022-12-14T12:44:25.067Z</time>
</trkpt>
<trkpt lat="30.9213200" lon="35.3050900">
<ele>-235.240005</ele>
<time>2022-12-14T12:44:25.067Z</time>
</trkpt>
<trkpt lat="30.9213900" lon="35.3052000">
<ele>-236.709991</ele>
<time>2022-12-14T12:44:25.067Z</time>
</trkpt>
<trkpt lat="30.9214700" lon="35.3053000">
<ele>-236.789993</ele>
<time>2022-12-14T12:44:25.067Z</time>
</trkpt>
<trkpt lat="30.9215100" lon="35.3053400">
<ele>-236.789993</ele>
<time>2022-12-14T12:44:25.067Z</time>
</trkpt>
<trkpt lat="30.9215600" lon="35.3053700">
<ele>-236.720001</ele>
<time>2022-12-14T12:44:25.067Z</time>
</trkpt>
<trkpt lat="30.9216500" lon="35.3054400">
<ele>-236.639999</ele>
<time>2022-12-14T12:44:25.067Z</time>
</trkpt>
<trkpt lat="30.9217000" lon="35.3054900">
<ele>-236.279999</ele>
<time>2022-12-14T12:44:25.067Z</time>
</trkpt>
<trkpt lat="30.9217400" lon="35.3056600">
<ele>-235.940002</ele>
<time>2022-12-14T12:44:25.067Z</time>
</trkpt>
<trkpt lat="30.9217600" lon="35.3057500">
<ele>-235.660004</ele>
<time>2022-12-14T12:44:25.067Z</time>
</trkpt>
<trkpt lat="30.9217900" lon="35.3058500">
<ele>-235.289993</ele>
<time>2022-12-14T12:44:25.067Z</time>
</trkpt>
<trkpt lat="30.9218000" lon="35.3060900">
<ele>-236.039993</ele>
<time>2022-12-14T12:44:25.067Z</time>
</trkpt>
<trkpt lat="30.9217900" lon="35.3061600">
<ele>-236.059998</ele>
<time>2022-12-14T12:44:25.067Z</time>
</trkpt>
<trkpt lat="30.9217000" lon="35.3063200">
<ele>-236.870010</ele>
<time>2022-12-14T12:44:25.067Z</time>
</trkpt>
<trkpt lat="30.9216300" lon="35.3064800">
<ele>-236.700012</ele>
<time>2022-12-14T12:44:25.067Z</time>
</trkpt>
<trkpt lat="30.9216300" lon="35.3067300">
<ele>-234.349991</ele>
<time>2022-12-14T12:44:25.067Z</time>
</trkpt>
<trkpt lat="30.9215800" lon="35.3068500">
<ele>-232.979996</ele>
<time>2022-12-14T12:44:25.067Z</time>
</trkpt>
<trkpt lat="30.9215200" lon="35.3069500">
<ele>-232.050003</ele>
<time>2022-12-14T12:44:25.067Z</time>
</trkpt>
<trkpt lat="30.9214400" lon="35.3070400">
<ele>-232.410004</ele>
<time>2022-12-14T12:44:25.067Z</time>
</trkpt>
<trkpt lat="30.9213000" lon="35.3071500">
<ele>-232.820007</ele>
<time>2022-12-14T12:44:25.067Z</time>
</trkpt>
<trkpt lat="30.9212500" lon="35.3071800">
<ele>-233.080002</ele>
<time>2022-12-14T12:44:25.067Z</time>
</trkpt>
<trkpt lat="30.9210800" lon="35.3072500">
<ele>-234.509995</ele>
<time>2022-12-14T12:44:25.067Z</time>
</trkpt>
<trkpt lat="30.9209700" lon="35.3072400">
<ele>-235.589996</ele>
<time>2022-12-14T12:44:25.067Z</time>
</trkpt>
<trkpt lat="30.9208500" lon="35.3072300">
<ele>-236.820007</ele>
<time>2022-12-14T12:44:25.067Z</time>
</trkpt>
<trkpt lat="30.9206600" lon="35.3073300">
<ele>-238.009995</ele>
<time>2022-12-14T12:44:25.067Z</time>
</trkpt>
<trkpt lat="30.9206000" lon="35.3074200">
<ele>-238.080002</ele>
<time>2022-12-14T12:44:25.067Z</time>
</trkpt>
<trkpt lat="30.9206000" lon="35.3074700">
<ele>-237.929993</ele>
<time>2022-12-14T12:44:25.067Z</time>
</trkpt>
<trkpt lat="30.9206600" lon="35.3077000">
<ele>-235.830002</ele>
<time>2022-12-14T12:44:25.067Z</time>
</trkpt>
<trkpt lat="30.9208000" lon="35.3078300">
<ele>-236.290009</ele>
<time>2022-12-14T12:44:25.067Z</time>
</trkpt>
<trkpt lat="30.9208500" lon="35.3078600">
<ele>-236.489990</ele>
<time>2022-12-14T12:44:25.067Z</time>
</trkpt>
<trkpt lat="30.9210800" lon="35.3080600">
<ele>-236.729996</ele>
<time>2022-12-14T12:44:25.067Z</time>
</trkpt>
<trkpt lat="30.9211300" lon="35.3080900">
<ele>-236.789993</ele>
<time>2022-12-14T12:44:25.067Z</time>
</trkpt>
<trkpt lat="30.9212800" lon="35.3081400">
<ele>-237.859985</ele>
<time>2022-12-14T12:44:25.067Z</time>
</trkpt>
<trkpt lat="30.9215700" lon="35.3081400">
<ele>-238.739990</ele>
<time>2022-12-14T12:44:25.067Z</time>
</trkpt>
<trkpt lat="30.9216700" lon="35.3082000">
<ele>-239.039993</ele>
<time>2022-12-14T12:44:25.067Z</time>
</trkpt>
<trkpt lat="30.9217400" lon="35.3082900">
<ele>-239.690002</ele>
<time>2022-12-14T12:44:25.067Z</time>
</trkpt>
<trkpt lat="30.9217900" lon="35.3084800">
<ele>-240.350006</ele>
<time>2022-12-14T12:44:25.067Z</time>
</trkpt>
<trkpt lat="30.9218200" lon="35.3086700">
<ele>-240.009995</ele>
<time>2022-12-14T12:44:25.067Z</time>
</trkpt>
<trkpt lat="30.9217700" lon="35.3088000">
<ele>-239.950012</ele>
<time>2022-12-14T12:44:25.067Z</time>
</trkpt>
<trkpt lat="30.9217000" lon="35.3090000">
<ele>-239.059998</ele>
<time>2022-12-14T12:44:25.067Z</time>
</trkpt>
<trkpt lat="30.9216000" lon="35.3092800">
<ele>-236.520004</ele>
<time>2022-12-14T12:44:25.067Z</time>
</trkpt>
<trkpt lat="30.9215800" lon="35.3094200">
<ele>-235.770004</ele>
<time>2022-12-14T12:44:25.067Z</time>
</trkpt>
<trkpt lat="30.9215700" lon="35.3096000">
<ele>-234.190002</ele>
<time>2022-12-14T12:44:25.067Z</time>
</trkpt>
<trkpt lat="30.9215900" lon="35.3096500">
<ele>-233.660004</ele>
<time>2022-12-14T12:44:25.067Z</time>
</trkpt>
<trkpt lat="30.9217200" lon="35.3098400">
<ele>-232.849991</ele>
<time>2022-12-14T12:44:25.067Z</time>
</trkpt>
<trkpt lat="30.9218500" lon="35.3099800">
<ele>-233.340012</ele>
<time>2022-12-14T12:44:25.067Z</time>
</trkpt>
<trkpt lat="30.9220000" lon="35.3101100">
<ele>-235.480011</ele>
<time>2022-12-14T12:44:25.067Z</time>
</trkpt>
<trkpt lat="30.9220400" lon="35.3101500">
<ele>-236.449997</ele>
<time>2022-12-14T12:44:25.067Z</time>
</trkpt>
<trkpt lat="30.9221500" lon="35.3103200">
<ele>-239.290009</ele>
<time>2022-12-14T12:44:25.067Z</time>
</trkpt>
<trkpt lat="30.9222900" lon="35.3104200">
<ele>-239.240005</ele>
<time>2022-12-14T12:44:25.067Z</time>
</trkpt>
<trkpt lat="30.9224600" lon="35.3104100">
<ele>-237.479996</ele>
<time>2022-12-14T12:44:25.067Z</time>
</trkpt>
<trkpt lat="30.9225200" lon="35.3104000">
<ele>-237.009995</ele>
<time>2022-12-14T12:44:25.067Z</time>
</trkpt>
<trkpt lat="30.9226200" lon="35.3104500">
<ele>-236.160004</ele>
<time>2022-12-14T12:44:25.067Z</time>
</trkpt>
<trkpt lat="30.9227000" lon="35.3106100">
<ele>-235.370010</ele>
<time>2022-12-14T12:44:25.067Z</time>
</trkpt>
<trkpt lat="30.9226700" lon="35.3107600">
<ele>-235.549988</ele>
<time>2022-12-14T12:44:25.067Z</time>
</trkpt>
<trkpt lat="30.9225300" lon="35.3109100">
<ele>-235.569992</ele>
<time>2022-12-14T12:44:25.067Z</time>
</trkpt>
<trkpt lat="30.9224200" lon="35.3110800">
<ele>-237.059998</ele>
<time>2022-12-14T12:44:25.067Z</time>
</trkpt>
<trkpt lat="30.9223100" lon="35.3111500">
<ele>-237.680008</ele>
<time>2022-12-14T12:44:25.067Z</time>
</trkpt>
<trkpt lat="30.9222400" lon="35.3111900">
<ele>-237.940002</ele>
<time>2022-12-14T12:44:25.067Z</time>
</trkpt>
<trkpt lat="30.9221800" lon="35.3112300">
<ele>-237.960007</ele>
<time>2022-12-14T12:44:25.067Z</time>
</trkpt>
<trkpt lat="30.9220900" lon="35.3112700">
<ele>-238.139999</ele>
<time>2022-12-14T12:44:25.067Z</time>
</trkpt>
<trkpt lat="30.9220500" lon="35.3112800">
<ele>-238.269989</ele>
<time>2022-12-14T12:44:25.067Z</time>
</trkpt>
<trkpt lat="30.9218900" lon="35.3112500">
<ele>-238.690002</ele>
<time>2022-12-14T12:44:25.067Z</time>
</trkpt>
<trkpt lat="30.9218300" lon="35.3112400">
<ele>-239.339996</ele>
<time>2022-12-14T12:44:25.067Z</time>
</trkpt>
<trkpt lat="30.9217800" lon="35.3112300">
<ele>-239.910004</ele>
<time>2022-12-14T12:44:25.067Z</time>
</trkpt>
<trkpt lat="30.9217300" lon="35.3112300">
<ele>-240.580002</ele>
<time>2022-12-14T12:44:25.067Z</time>
</trkpt>
<trkpt lat="30.9216000" lon="35.3111900">
<ele>-241.759995</ele>
<time>2022-12-14T12:44:25.067Z</time>
</trkpt>
<trkpt lat="30.9215600" lon="35.3111600">
<ele>-241.940002</ele>
<time>2022-12-14T12:44:25.067Z</time>
</trkpt>
<trkpt lat="30.9214700" lon="35.3111100">
<ele>-242.410004</ele>
<time>2022-12-14T12:44:25.067Z</time>
</trkpt>
<trkpt lat="30.9213800" lon="35.3111100">
<ele>-242.970001</ele>
<time>2022-12-14T12:44:25.067Z</time>
</trkpt>
<trkpt lat="30.9213400" lon="35.3111400">
<ele>-242.930008</ele>
<time>2022-12-14T12:44:25.067Z</time>
</trkpt>
<trkpt lat="30.9212300" lon="35.3112700">
<ele>-243.000000</ele>
<time>2022-12-14T12:44:25.067Z</time>
</trkpt>
<trkpt lat="30.9211300" lon="35.3115000">
<ele>-242.720001</ele>
<time>2022-12-14T12:44:25.067Z</time>
</trkpt>
<trkpt lat="30.9211200" lon="35.3115600">
<ele>-242.459991</ele>
<time>2022-12-14T12:44:25.067Z</time>
</trkpt>
<trkpt lat="30.9211400" lon="35.3117600">
<ele>-241.979996</ele>
<time>2022-12-14T12:44:25.067Z</time>
</trkpt>
<trkpt lat="30.9211500" lon="35.3118300">
<ele>-241.830002</ele>
<time>2022-12-14T12:44:25.067Z</time>
</trkpt>
<trkpt lat="30.9211600" lon="35.3119000">
<ele>-241.689987</ele>
<time>2022-12-14T12:44:25.067Z</time>
</trkpt>
<trkpt lat="30.9211300" lon="35.3121200">
<ele>-241.289993</ele>
<time>2022-12-14T12:44:25.067Z</time>
</trkpt>
<trkpt lat="30.9211300" lon="35.3121900">
<ele>-241.320007</ele>
<time>2022-12-14T12:44:25.067Z</time>
</trkpt>
<trkpt lat="30.9211700" lon="35.3123300">
<ele>-242.370010</ele>
<time>2022-12-14T12:44:25.067Z</time>
</trkpt>
<trkpt lat="30.9212700" lon="35.3124500">
<ele>-244.210007</ele>
<time>2022-12-14T12:44:25.067Z</time>
</trkpt>
<trkpt lat="30.9213900" lon="35.3125000">
<ele>-246.000000</ele>
<time>2022-12-14T12:44:25.067Z</time>
</trkpt>
<trkpt lat="30.9214800" lon="35.3126200">
<ele>-245.750000</ele>
<time>2022-12-14T12:44:25.067Z</time>
</trkpt>
<trkpt lat="30.9215100" lon="35.3126600">
<ele>-245.610001</ele>
<time>2022-12-14T12:44:25.067Z</time>
</trkpt>
<trkpt lat="30.9215700" lon="35.3127500">
<ele>-245.169998</ele>
<time>2022-12-14T12:44:25.067Z</time>
</trkpt>
<trkpt lat="30.9215800" lon="35.3127900">
<ele>-244.929993</ele>
<time>2022-12-14T12:44:25.067Z</time>
</trkpt>
<trkpt lat="30.9216200" lon="35.3128700">
<ele>-244.389999</ele>
<time>2022-12-14T12:44:25.067Z</time>
</trkpt>
<trkpt lat="30.9216600" lon="35.3129500">
<ele>-243.769989</ele>
<time>2022-12-14T12:44:25.067Z</time>
</trkpt>
<trkpt lat="30.9217300" lon="35.3130300">
<ele>-243.120010</ele>
<time>2022-12-14T12:44:25.067Z</time>
</trkpt>
<trkpt lat="30.9219500" lon="35.3132800">
<ele>-241.380005</ele>
<time>2022-12-14T12:44:25.067Z</time>
</trkpt>
<trkpt lat="30.9219900" lon="35.3133900">
<ele>-241.069992</ele>
<time>2022-12-14T12:44:25.067Z</time>
</trkpt>
<trkpt lat="30.9220000" lon="35.3135700">
<ele>-241.339996</ele>
<time>2022-12-14T12:44:25.067Z</time>
</trkpt>
<trkpt lat="30.9219700" lon="35.3137500">
<ele>-243.089996</ele>
<time>2022-12-14T12:44:25.067Z</time>
</trkpt>
<trkpt lat="30.9219400" lon="35.3138100">
<ele>-243.850006</ele>
<time>2022-12-14T12:44:25.067Z</time>
</trkpt>
<trkpt lat="30.9218500" lon="35.3139700">
<ele>-244.610001</ele>
<time>2022-12-14T12:44:25.067Z</time>
</trkpt>
<trkpt lat="30.9218000" lon="35.3140900">
<ele>-244.680008</ele>
<time>2022-12-14T12:44:25.067Z</time>
</trkpt>
<trkpt lat="30.9217300" lon="35.3142000">
<ele>-244.429993</ele>
<time>2022-12-14T12:44:25.067Z</time>
</trkpt>
<trkpt lat="30.9216000" lon="35.3143400">
<ele>-243.910004</ele>
<time>2022-12-14T12:44:25.067Z</time>
</trkpt>
<trkpt lat="30.9215500" lon="35.3143800">
<ele>-243.899994</ele>
<time>2022-12-14T12:44:25.067Z</time>
</trkpt>
<trkpt lat="30.9214600" lon="35.3144700">
<ele>-244.160004</ele>
<time>2022-12-14T12:44:25.067Z</time>
</trkpt>
<trkpt lat="30.9214000" lon="35.3145800">
<ele>-244.960007</ele>
<time>2022-12-14T12:44:25.067Z</time>
</trkpt>
<trkpt lat="30.9213800" lon="35.3147100">
<ele>-245.779999</ele>
<time>2022-12-14T12:44:25.067Z</time>
</trkpt>
<trkpt lat="30.9213800" lon="35.3147800">
<ele>-245.889999</ele>
<time>2022-12-14T12:44:25.067Z</time>
</trkpt>
<trkpt lat="30.9213800" lon="35.3148500">
<ele>-245.919998</ele>
<time>2022-12-14T12:44:25.067Z</time>
</trkpt>
<trkpt lat="30.9213900" lon="35.3149800">
<ele>-245.990005</ele>
<time>2022-12-14T12:44:25.067Z</time>
</trkpt>
<trkpt lat="30.9214000" lon="35.3150500">
<ele>-245.560013</ele>
<time>2022-12-14T12:44:25.067Z</time>
</trkpt>
<trkpt lat="30.9214400" lon="35.3151800">
<ele>-244.340012</ele>
<time>2022-12-14T12:44:25.067Z</time>
</trkpt>
<trkpt lat="30.9215300" lon="35.3153500">
<ele>-242.720001</ele>
<time>2022-12-14T12:44:25.067Z</time>
</trkpt>
<trkpt lat="30.9215100" lon="35.3155200">
<ele>-242.370010</ele>
<time>2022-12-14T12:44:25.067Z</time>
</trkpt>
<trkpt lat="30.9213900" lon="35.3156800">
<ele>-243.979996</ele>
<time>2022-12-14T12:44:25.067Z</time>
</trkpt>
<trkpt lat="30.9212100" lon="35.3157700">
<ele>-247.069992</ele>
<time>2022-12-14T12:44:25.067Z</time>
</trkpt>
<trkpt lat="30.9211500" lon="35.3157800">
<ele>-248.130005</ele>
<time>2022-12-14T12:44:25.067Z</time>
</trkpt>
<trkpt lat="30.9210900" lon="35.3157800">
<ele>-248.929993</ele>
<time>2022-12-14T12:44:25.067Z</time>
</trkpt>
<trkpt lat="30.9210300" lon="35.3157900">
<ele>-249.339996</ele>
<time>2022-12-14T12:44:25.067Z</time>
</trkpt>
<trkpt lat="30.9208500" lon="35.3158400">
<ele>-250.829987</ele>
<time>2022-12-14T12:44:25.067Z</time>
</trkpt>
<trkpt lat="30.9208000" lon="35.3158700">
<ele>-250.389999</ele>
<time>2022-12-14T12:44:25.067Z</time>
</trkpt>
<trkpt lat="30.9206300" lon="35.3160600">
<ele>-247.769989</ele>
<time>2022-12-14T12:44:25.067Z</time>
</trkpt>
<trkpt lat="30.9206000" lon="35.3161800">
<ele>-247.279999</ele>
<time>2022-12-14T12:44:25.067Z</time>
</trkpt>
<trkpt lat="30.9205800" lon="35.3162400">
<ele>-247.139999</ele>
<time>2022-12-14T12:44:25.067Z</time>
</trkpt>
<trkpt lat="30.9204800" lon="35.3164100">
<ele>-246.130005</ele>
<time>2022-12-14T12:44:25.067Z</time>
</trkpt>
<trkpt lat="30.9203800" lon="35.3165000">
<ele>-244.960007</ele>
<time>2022-12-14T12:44:25.067Z</time>
</trkpt>
<trkpt lat="30.9202200" lon="35.3167100">
<ele>-244.599991</ele>
<time>2022-12-14T12:44:25.067Z</time>
</trkpt>
<trkpt lat="30.9200200" lon="35.3170800">
<ele>-249.250000</ele>
<time>2022-12-14T12:44:25.067Z</time>
</trkpt>
<trkpt lat="30.9199700" lon="35.3171400">
<ele>-250.220001</ele>
<time>2022-12-14T12:44:25.067Z</time>
</trkpt>
<trkpt lat="30.9197900" lon="35.3172200">
<ele>-251.729996</ele>
<time>2022-12-14T12:44:25.067Z</time>
</trkpt>
<trkpt lat="30.9197300" lon="35.3172400">
<ele>-251.980011</ele>
<time>2022-12-14T12:44:25.067Z</time>
</trkpt>
<trkpt lat="30.9196700" lon="35.3172700">
<ele>-251.749985</ele>
<time>2022-12-14T12:44:25.067Z</time>
</trkpt>
<trkpt lat="30.9195800" lon="35.3173700">
<ele>-250.939987</ele>
<time>2022-12-14T12:44:25.067Z</time>
</trkpt>
<trkpt lat="30.9195600" lon="35.3175700">
<ele>-250.000000</ele>
<time>2022-12-14T12:44:25.067Z</time>
</trkpt>
<trkpt lat="30.9196300" lon="35.3177600">
<ele>-250.070007</ele>
<time>2022-12-14T12:44:25.067Z</time>
</trkpt>
<trkpt lat="30.9197600" lon="35.3179200">
<ele>-251.610001</ele>
<time>2022-12-14T12:44:25.067Z</time>
</trkpt>
<trkpt lat="30.9198600" lon="35.3180100">
<ele>-253.399994</ele>
<time>2022-12-14T12:44:25.067Z</time>
</trkpt>
<trkpt lat="30.9199200" lon="35.3180600">
<ele>-254.550003</ele>
<time>2022-12-14T12:44:25.067Z</time>
</trkpt>
<trkpt lat="30.9200700" lon="35.3182200">
<ele>-255.559998</ele>
<time>2022-12-14T12:44:25.067Z</time>
</trkpt>
<trkpt lat="30.9201600" lon="35.3183300">
<ele>-255.580002</ele>
<time>2022-12-14T12:44:25.067Z</time>
</trkpt>
<trkpt lat="30.9204600" lon="35.3186300">
<ele>-254.060013</ele>
<time>2022-12-14T12:44:25.067Z</time>
</trkpt>
<trkpt lat="30.9206500" lon="35.3189600">
<ele>-251.640015</ele>
<time>2022-12-14T12:44:25.067Z</time>
</trkpt>
<trkpt lat="30.9207600" lon="35.3191400">
<ele>-250.059998</ele>
<time>2022-12-14T12:44:25.067Z</time>
</trkpt>
<trkpt lat="30.9207900" lon="35.3192000">
<ele>-249.619995</ele>
<time>2022-12-14T12:44:25.067Z</time>
</trkpt>
<trkpt lat="30.9208100" lon="35.3192600">
<ele>-249.339996</ele>
<time>2022-12-14T12:44:25.067Z</time>
</trkpt>
<trkpt lat="30.9208300" lon="35.3193100">
<ele>-249.050003</ele>
<time>2022-12-14T12:44:25.067Z</time>
</trkpt>
<trkpt lat="30.9208400" lon="35.3194500">
<ele>-248.929993</ele>
<time>2022-12-14T12:44:25.067Z</time>
</trkpt>
<trkpt lat="30.9208300" lon="35.3195300">
<ele>-249.050003</ele>
<time>2022-12-14T12:44:25.067Z</time>
</trkpt>
<trkpt lat="30.9207900" lon="35.3196000">
<ele>-249.619995</ele>
<time>2022-12-14T12:44:25.067Z</time>
</trkpt>
<trkpt lat="30.9206100" lon="35.3198100">
<ele>-253.099991</ele>
<time>2022-12-14T12:44:25.067Z</time>
</trkpt>
<trkpt lat="30.9205700" lon="35.3198600">
<ele>-254.250000</ele>
<time>2022-12-14T12:44:25.067Z</time>
</trkpt>
<trkpt lat="30.9204300" lon="35.3200700">
<ele>-257.320007</ele>
<time>2022-12-14T12:44:25.067Z</time>
</trkpt>
<trkpt lat="30.9204200" lon="35.3201400">
<ele>-257.750000</ele>
<time>2022-12-14T12:44:25.067Z</time>
</trkpt>
<trkpt lat="30.9203600" lon="35.3203700">
<ele>-258.259979</ele>
<time>2022-12-14T12:44:25.067Z</time>
</trkpt>
<trkpt lat="30.9202500" lon="35.3206100">
<ele>-256.220001</ele>
<time>2022-12-14T12:44:25.067Z</time>
</trkpt>
<trkpt lat="30.9201800" lon="35.3208600">
<ele>-254.299988</ele>
<time>2022-12-14T12:44:25.067Z</time>
</trkpt>
<trkpt lat="30.9201700" lon="35.3209900">
<ele>-254.410004</ele>
<time>2022-12-14T12:44:25.067Z</time>
</trkpt>
<trkpt lat="30.9201900" lon="35.3212800">
<ele>-255.519989</ele>
<time>2022-12-14T12:44:25.067Z</time>
</trkpt>
<trkpt lat="30.9202200" lon="35.3214200">
<ele>-256.500000</ele>
<time>2022-12-14T12:44:25.067Z</time>
</trkpt>
<trkpt lat="30.9203100" lon="35.3217000">
<ele>-257.940002</ele>
<time>2022-12-14T12:44:25.067Z</time>
</trkpt>
<trkpt lat="30.9203200" lon="35.3217700">
<ele>-257.850006</ele>
<time>2022-12-14T12:44:25.067Z</time>
</trkpt>
<trkpt lat="30.9202800" lon="35.3219700">
<ele>-256.670013</ele>
<time>2022-12-14T12:44:25.067Z</time>
</trkpt>
<trkpt lat="30.9201600" lon="35.3222200">
<ele>-249.629990</ele>
<time>2022-12-14T12:44:25.067Z</time>
</trkpt>
<trkpt lat="30.9201300" lon="35.3223500">
<ele>-247.180008</ele>
<time>2022-12-14T12:44:25.067Z</time>
</trkpt>
<trkpt lat="30.9201400" lon="35.3224500">
<ele>-246.149994</ele>
<time>2022-12-14T12:44:25.067Z</time>
</trkpt>
<trkpt lat="30.9202500" lon="35.3225600">
<ele>-247.110001</ele>
<time>2022-12-14T12:44:25.067Z</time>
</trkpt>
<trkpt lat="30.9202900" lon="35.3225800">
<ele>-247.760010</ele>
<time>2022-12-14T12:44:25.067Z</time>
</trkpt>
<trkpt lat="30.9203400" lon="35.3226000">
<ele>-248.989990</ele>
<time>2022-12-14T12:44:25.067Z</time>
</trkpt>
<trkpt lat="30.9204100" lon="35.3226700">
<ele>-250.290009</ele>
<time>2022-12-14T12:44:25.067Z</time>
</trkpt>
<trkpt lat="30.9205800" lon="35.3227900">
<ele>-252.919998</ele>
<time>2022-12-14T12:44:25.067Z</time>
</trkpt>
<trkpt lat="30.9206600" lon="35.3228400">
<ele>-252.560013</ele>
<time>2022-12-14T12:44:25.067Z</time>
</trkpt>
<trkpt lat="30.9207200" lon="35.3228400">
<ele>-252.830002</ele>
<time>2022-12-14T12:44:25.067Z</time>
</trkpt>
<trkpt lat="30.9207900" lon="35.3228000">
<ele>-253.589996</ele>
<time>2022-12-14T12:44:25.067Z</time>
</trkpt>
<trkpt lat="30.9209400" lon="35.3228100">
<ele>-253.739990</ele>
<time>2022-12-14T12:44:25.067Z</time>
</trkpt>
<trkpt lat="30.9209900" lon="35.3228200">
<ele>-253.719986</ele>
<time>2022-12-14T12:44:25.067Z</time>
</trkpt>
<trkpt lat="30.9210900" lon="35.3228200">
<ele>-253.820007</ele>
<time>2022-12-14T12:44:25.067Z</time>
</trkpt>
<trkpt lat="30.9211900" lon="35.3227800">
<ele>-254.279999</ele>
<time>2022-12-14T12:44:25.067Z</time>
</trkpt>
<trkpt lat="30.9215100" lon="35.3226400">
<ele>-256.959991</ele>
<time>2022-12-14T12:44:25.067Z</time>
</trkpt>
<trkpt lat="30.9217700" lon="35.3225600">
<ele>-259.779999</ele>
<time>2022-12-14T12:44:25.067Z</time>
</trkpt>
<trkpt lat="30.9218800" lon="35.3225700">
<ele>-259.750000</ele>
<time>2022-12-14T12:44:25.067Z</time>
</trkpt>
<trkpt lat="30.9221600" lon="35.3226400">
<ele>-257.959991</ele>
<time>2022-12-14T12:44:25.067Z</time>
</trkpt>
<trkpt lat="30.9222700" lon="35.3226900">
<ele>-257.760010</ele>
<time>2022-12-14T12:44:25.067Z</time>
</trkpt>
<trkpt lat="30.9224900" lon="35.3227600">
<ele>-256.940002</ele>
<time>2022-12-14T12:44:25.067Z</time>
</trkpt>
<trkpt lat="30.9225900" lon="35.3227600">
<ele>-256.889984</ele>
<time>2022-12-14T12:44:25.067Z</time>
</trkpt>
<trkpt lat="30.9227200" lon="35.3227100">
<ele>-256.709991</ele>
<time>2022-12-14T12:44:25.067Z</time>
</trkpt>
<trkpt lat="30.9227600" lon="35.3226900">
<ele>-256.660004</ele>
<time>2022-12-14T12:44:25.067Z</time>
</trkpt>
<trkpt lat="30.9228900" lon="35.3227200">
<ele>-256.299988</ele>
<time>2022-12-14T12:44:25.067Z</time>
</trkpt>
<trkpt lat="30.9229400" lon="35.3227400">
<ele>-256.200012</ele>
<time>2022-12-14T12:44:25.067Z</time>
</trkpt>
<trkpt lat="30.9229700" lon="35.3227700">
<ele>-256.260010</ele>
<time>2022-12-14T12:44:25.067Z</time>
</trkpt>
<trkpt lat="30.9230000" lon="35.3228500">
<ele>-256.200012</ele>
<time>2022-12-14T12:44:25.067Z</time>
</trkpt>
<trkpt lat="30.9229900" lon="35.3230200">
<ele>-256.240021</ele>
<time>2022-12-14T12:44:25.067Z</time>
</trkpt>
<trkpt lat="30.9229800" lon="35.3230800">
<ele>-256.419983</ele>
<time>2022-12-14T12:44:25.067Z</time>
</trkpt>
<trkpt lat="30.9229900" lon="35.3233400">
<ele>-257.979980</ele>
<time>2022-12-14T12:44:25.067Z</time>
</trkpt>
<trkpt lat="30.9230000" lon="35.3234000">
<ele>-257.760010</ele>
<time>2022-12-14T12:44:25.067Z</time>
</trkpt>
<trkpt lat="30.9230800" lon="35.3238000">
<ele>-255.559998</ele>
<time>2022-12-14T12:44:25.067Z</time>
</trkpt>
<trkpt lat="30.9231300" lon="35.3239200">
<ele>-254.970001</ele>
<time>2022-12-14T12:44:25.067Z</time>
</trkpt>
<trkpt lat="30.9232200" lon="35.3242300">
<ele>-253.950012</ele>
<time>2022-12-14T12:44:25.067Z</time>
</trkpt>
<trkpt lat="30.9232300" lon="35.3242900">
<ele>-253.480011</ele>
<time>2022-12-14T12:44:25.067Z</time>
</trkpt>
<trkpt lat="30.9232200" lon="35.3243400">
<ele>-253.160004</ele>
<time>2022-12-14T12:44:25.067Z</time>
</trkpt>
<trkpt lat="30.9231900" lon="35.3244200">
<ele>-252.690002</ele>
<time>2022-12-14T12:44:25.067Z</time>
</trkpt>
<trkpt lat="30.9231100" lon="35.3244900">
<ele>-252.770004</ele>
<time>2022-12-14T12:44:25.067Z</time>
</trkpt>
<trkpt lat="30.9230900" lon="35.3245100">
<ele>-252.850006</ele>
<time>2022-12-14T12:44:25.067Z</time>
</trkpt>
<trkpt lat="30.9230500" lon="35.3245000">
<ele>-253.020004</ele>
<time>2022-12-14T12:44:25.067Z</time>
</trkpt>
<trkpt lat="30.9229700" lon="35.3244600">
<ele>-253.310013</ele>
<time>2022-12-14T12:44:25.067Z</time>
</trkpt>
<trkpt lat="30.9229300" lon="35.3244400">
<ele>-253.480011</ele>
<time>2022-12-14T12:44:25.067Z</time>
</trkpt>
<trkpt lat="30.9227900" lon="35.3244000">
<ele>-254.279999</ele>
<time>2022-12-14T12:44:25.067Z</time>
</trkpt>
<trkpt lat="30.9227400" lon="35.3244100">
<ele>-253.959991</ele>
<time>2022-12-14T12:44:25.067Z</time>
</trkpt>
<trkpt lat="30.9224300" lon="35.3244600">
<ele>-251.759995</ele>
<time>2022-12-14T12:44:25.067Z</time>
</trkpt>
<trkpt lat="30.9222300" lon="35.3245500">
<ele>-250.300003</ele>
<time>2022-12-14T12:44:25.067Z</time>
</trkpt>
<trkpt lat="30.9221900" lon="35.3245800">
<ele>-250.139999</ele>
<time>2022-12-14T12:44:25.067Z</time>
</trkpt>
<trkpt lat="30.9221300" lon="35.3247300">
<ele>-249.289993</ele>
<time>2022-12-14T12:44:25.067Z</time>
</trkpt>
<trkpt lat="30.9221800" lon="35.3248900">
<ele>-248.459991</ele>
<time>2022-12-14T12:44:25.067Z</time>
</trkpt>
<trkpt lat="30.9222900" lon="35.3251100">
<ele>-249.919998</ele>
<time>2022-12-14T12:44:25.067Z</time>
</trkpt>
<trkpt lat="30.9223200" lon="35.3251500">
<ele>-250.650009</ele>
<time>2022-12-14T12:44:25.067Z</time>
</trkpt>
<trkpt lat="30.9224300" lon="35.3252500">
<ele>-252.869995</ele>
<time>2022-12-14T12:44:25.067Z</time>
</trkpt>
<trkpt lat="30.9225100" lon="35.3252900">
<ele>-254.180008</ele>
<time>2022-12-14T12:44:25.067Z</time>
</trkpt>
<trkpt lat="30.9225500" lon="35.3253000">
<ele>-254.760010</ele>
<time>2022-12-14T12:44:25.067Z</time>
</trkpt>
<trkpt lat="30.9227300" lon="35.3253400">
<ele>-256.980011</ele>
<time>2022-12-14T12:44:25.067Z</time>
</trkpt>
<trkpt lat="30.9229800" lon="35.3254100">
<ele>-255.589996</ele>
<time>2022-12-14T12:44:25.067Z</time>
</trkpt>
<trkpt lat="30.9230300" lon="35.3254400">
<ele>-255.020004</ele>
<time>2022-12-14T12:44:25.067Z</time>
</trkpt>
<trkpt lat="30.9231800" lon="35.3256100">
<ele>-253.059998</ele>
<time>2022-12-14T12:44:25.067Z</time>
</trkpt>
<trkpt lat="30.9231600" lon="35.3257700">
<ele>-252.869995</ele>
<time>2022-12-14T12:44:25.067Z</time>
</trkpt>
<trkpt lat="30.9230300" lon="35.3259100">
<ele>-251.669998</ele>
<time>2022-12-14T12:44:25.067Z</time>
</trkpt>
<trkpt lat="30.9228400" lon="35.3260800">
<ele>-249.729996</ele>
<time>2022-12-14T12:44:25.067Z</time>
</trkpt>
<trkpt lat="30.9228200" lon="35.3263100">
<ele>-248.910004</ele>
<time>2022-12-14T12:44:25.067Z</time>
</trkpt>
<trkpt lat="30.9228300" lon="35.3263600">
<ele>-248.989990</ele>
<time>2022-12-14T12:44:25.067Z</time>
</trkpt>
<trkpt lat="30.9228500" lon="35.3264200">
<ele>-249.470001</ele>
<time>2022-12-14T12:44:25.067Z</time>
</trkpt>
<trkpt lat="30.9229300" lon="35.3265600">
<ele>-251.299988</ele>
<time>2022-12-14T12:44:25.067Z</time>
</trkpt>
<trkpt lat="30.9230600" lon="35.3266700">
<ele>-253.059998</ele>
<time>2022-12-14T12:44:25.067Z</time>
</trkpt>
<trkpt lat="30.9230900" lon="35.3267100">
<ele>-253.500000</ele>
<time>2022-12-14T12:44:25.067Z</time>
</trkpt>
<trkpt lat="30.9231300" lon="35.3267600">
<ele>-254.069992</ele>
<time>2022-12-14T12:44:25.067Z</time>
</trkpt>
<trkpt lat="30.9233800" lon="35.3270100">
<ele>-256.910004</ele>
<time>2022-12-14T12:44:25.067Z</time>
</trkpt>
<trkpt lat="30.9234300" lon="35.3270500">
<ele>-257.299988</ele>
<time>2022-12-14T12:44:25.067Z</time>
</trkpt>
<trkpt lat="30.9236300" lon="35.3271700">
<ele>-260.040009</ele>
<time>2022-12-14T12:44:25.067Z</time>
</trkpt>
<trkpt lat="30.9238900" lon="35.3273300">
<ele>-260.589996</ele>
<time>2022-12-14T12:44:25.067Z</time>
</trkpt>
<trkpt lat="30.9239800" lon="35.3274300">
<ele>-259.019989</ele>
<time>2022-12-14T12:44:25.067Z</time>
</trkpt>
<trkpt lat="30.9240600" lon="35.3275300">
<ele>-258.160004</ele>
<time>2022-12-14T12:44:25.067Z</time>
</trkpt>
<trkpt lat="30.9241700" lon="35.3276600">
<ele>-258.130005</ele>
<time>2022-12-14T12:44:25.067Z</time>
</trkpt>
<trkpt lat="30.9242600" lon="35.3278800">
<ele>-258.540009</ele>
<time>2022-12-14T12:44:25.067Z</time>
</trkpt>
<trkpt lat="30.9242800" lon="35.3279400">
<ele>-258.350006</ele>
<time>2022-12-14T12:44:25.067Z</time>
</trkpt>
<trkpt lat="30.9242900" lon="35.3279900">
<ele>-258.220001</ele>
<time>2022-12-14T12:44:25.067Z</time>
</trkpt>
<trkpt lat="30.9243000" lon="35.3281200">
<ele>-257.459991</ele>
<time>2022-12-14T12:44:25.067Z</time>
</trkpt>
<trkpt lat="30.9242600" lon="35.3282300">
<ele>-256.860016</ele>
<time>2022-12-14T12:44:25.067Z</time>
</trkpt>
<trkpt lat="30.9242300" lon="35.3283600">
<ele>-256.209991</ele>
<time>2022-12-14T12:44:25.067Z</time>
</trkpt>
<trkpt lat="30.9242200" lon="35.3284300">
<ele>-256.000000</ele>
<time>2022-12-14T12:44:25.067Z</time>
</trkpt>
<trkpt lat="30.9242200" lon="35.3286300">
<ele>-255.349991</ele>
<time>2022-12-14T12:44:25.067Z</time>
</trkpt>
<trkpt lat="30.9242400" lon="35.3287600">
<ele>-256.619995</ele>
<time>2022-12-14T12:44:25.067Z</time>
</trkpt>
<trkpt lat="30.9242900" lon="35.3288800">
<ele>-258.239990</ele>
<time>2022-12-14T12:44:25.067Z</time>
</trkpt>
<trkpt lat="30.9243400" lon="35.3289400">
<ele>-259.290009</ele>
<time>2022-12-14T12:44:25.067Z</time>
</trkpt>
<trkpt lat="30.9243800" lon="35.3289400">
<ele>-259.770020</ele>
<time>2022-12-14T12:44:25.067Z</time>
</trkpt>
<trkpt lat="30.9246000" lon="35.3289100">
<ele>-263.070007</ele>
<time>2022-12-14T12:44:25.067Z</time>
</trkpt>
<trkpt lat="30.9247600" lon="35.3289900">
<ele>-266.559998</ele>
<time>2022-12-14T12:44:25.067Z</time>
</trkpt>
<trkpt lat="30.9248700" lon="35.3290600">
<ele>-268.119995</ele>
<time>2022-12-14T12:44:25.067Z</time>
</trkpt>
<trkpt lat="30.9250800" lon="35.3292600">
<ele>-270.809998</ele>
<time>2022-12-14T12:44:25.067Z</time>
</trkpt>
<trkpt lat="30.9251000" lon="35.3293100">
<ele>-271.279999</ele>
<time>2022-12-14T12:44:25.067Z</time>
</trkpt>
<trkpt lat="30.9251400" lon="35.3294200">
<ele>-272.540009</ele>
<time>2022-12-14T12:44:25.067Z</time>
</trkpt>
<trkpt lat="30.9251500" lon="35.3295500">
<ele>-272.290009</ele>
<time>2022-12-14T12:44:25.067Z</time>
</trkpt>
<trkpt lat="30.9251400" lon="35.3296100">
<ele>-272.089996</ele>
<time>2022-12-14T12:44:25.067Z</time>
</trkpt>
<trkpt lat="30.9250700" lon="35.3297700">
<ele>-271.429993</ele>
<time>2022-12-14T12:44:25.067Z</time>
</trkpt>
<trkpt lat="30.9249400" lon="35.3298900">
<ele>-269.809998</ele>
<time>2022-12-14T12:44:25.067Z</time>
</trkpt>
<trkpt lat="30.9248900" lon="35.3299000">
<ele>-269.510010</ele>
<time>2022-12-14T12:44:25.067Z</time>
</trkpt>
<trkpt lat="30.9247900" lon="35.3299200">
<ele>-269.000000</ele>
<time>2022-12-14T12:44:25.067Z</time>
</trkpt>
<trkpt lat="30.9247200" lon="35.3299300">
<ele>-268.730011</ele>
<time>2022-12-14T12:44:25.067Z</time>
</trkpt>
<trkpt lat="30.9246200" lon="35.3299000">
<ele>-267.950012</ele>
<time>2022-12-14T12:44:25.067Z</time>
</trkpt>
<trkpt lat="30.9244300" lon="35.3300200">
<ele>-265.720001</ele>
<time>2022-12-14T12:44:25.067Z</time>
</trkpt>
<trkpt lat="30.9243800" lon="35.3301900">
<ele>-264.549988</ele>
<time>2022-12-14T12:44:25.067Z</time>
</trkpt>
<trkpt lat="30.9244400" lon="35.3303500">
<ele>-264.190002</ele>
<time>2022-12-14T12:44:25.067Z</time>
</trkpt>
<trkpt lat="30.9245900" lon="35.3304100">
<ele>-263.570007</ele>
<time>2022-12-14T12:44:25.067Z</time>
</trkpt>
<trkpt lat="30.9246700" lon="35.3304300">
<ele>-263.359985</ele>
<time>2022-12-14T12:44:25.067Z</time>
</trkpt>
<trkpt lat="30.9248000" lon="35.3304600">
<ele>-262.750000</ele>
<time>2022-12-14T12:44:25.067Z</time>
</trkpt>
<trkpt lat="30.9248500" lon="35.3304700">
<ele>-262.459991</ele>
<time>2022-12-14T12:44:25.067Z</time>
</trkpt>
<trkpt lat="30.9249500" lon="35.3304800">
<ele>-262.000000</ele>
<time>2022-12-14T12:44:25.067Z</time>
</trkpt>
<trkpt lat="30.9251000" lon="35.3305200">
<ele>-261.380005</ele>
<time>2022-12-14T12:44:25.067Z</time>
</trkpt>
<trkpt lat="30.9252900" lon="35.3305000">
<ele>-261.559998</ele>
<time>2022-12-14T12:44:25.067Z</time>
</trkpt>
<trkpt lat="30.9254300" lon="35.3304700">
<ele>-261.080017</ele>
<time>2022-12-14T12:44:25.067Z</time>
</trkpt>
<trkpt lat="30.9255300" lon="35.3304900">
<ele>-260.639984</ele>
<time>2022-12-14T12:44:25.067Z</time>
</trkpt>
<trkpt lat="30.9256200" lon="35.3305200">
<ele>-260.950012</ele>
<time>2022-12-14T12:44:25.067Z</time>
</trkpt>
<trkpt lat="30.9258600" lon="35.3305900">
<ele>-262.600006</ele>
<time>2022-12-14T12:44:25.067Z</time>
</trkpt>
<trkpt lat="30.9261500" lon="35.3307500">
<ele>-267.739990</ele>
<time>2022-12-14T12:44:25.067Z</time>
</trkpt>
<trkpt lat="30.9262000" lon="35.3307700">
<ele>-267.600006</ele>
<time>2022-12-14T12:44:25.067Z</time>
</trkpt>
<trkpt lat="30.9264500" lon="35.3308700">
<ele>-267.059998</ele>
<time>2022-12-14T12:44:25.067Z</time>
</trkpt>
<trkpt lat="30.9265000" lon="35.3308900">
<ele>-266.980011</ele>
<time>2022-12-14T12:44:25.067Z</time>
</trkpt>
<trkpt lat="30.9265900" lon="35.3309200">
<ele>-266.839996</ele>
<time>2022-12-14T12:44:25.067Z</time>
</trkpt>
<trkpt lat="30.9267100" lon="35.3309500">
<ele>-267.029999</ele>
<time>2022-12-14T12:44:25.067Z</time>
</trkpt>
<trkpt lat="30.9267900" lon="35.3309900">
<ele>-268.140015</ele>
<time>2022-12-14T12:44:25.067Z</time>
</trkpt>
<trkpt lat="30.9268600" lon="35.3310400">
<ele>-269.389984</ele>
<time>2022-12-14T12:44:25.067Z</time>
</trkpt>
<trkpt lat="30.9270400" lon="35.3311800">
<ele>-271.970001</ele>
<time>2022-12-14T12:44:25.067Z</time>
</trkpt>
<trkpt lat="30.9271200" lon="35.3312600">
<ele>-272.910004</ele>
<time>2022-12-14T12:44:25.067Z</time>
</trkpt>
<trkpt lat="30.9271500" lon="35.3313100">
<ele>-273.500000</ele>
<time>2022-12-14T12:44:25.067Z</time>
</trkpt>
<trkpt lat="30.9272700" lon="35.3315000">
<ele>-274.089996</ele>
<time>2022-12-14T12:44:25.067Z</time>
</trkpt>
<trkpt lat="30.9272900" lon="35.3315500">
<ele>-274.269989</ele>
<time>2022-12-14T12:44:25.067Z</time>
</trkpt>
<trkpt lat="30.9274500" lon="35.3319500">
<ele>-276.920013</ele>
<time>2022-12-14T12:44:25.067Z</time>
</trkpt>
<trkpt lat="30.9274900" lon="35.3320600">
<ele>-277.779999</ele>
<time>2022-12-14T12:44:25.067Z</time>
</trkpt>
<trkpt lat="30.9275600" lon="35.3321600">
<ele>-277.690002</ele>
<time>2022-12-14T12:44:25.067Z</time>
</trkpt>
<trkpt lat="30.9276800" lon="35.3322900">
<ele>-276.619995</ele>
<time>2022-12-14T12:44:25.067Z</time>
</trkpt>
<trkpt lat="30.9277600" lon="35.3323200">
<ele>-276.010010</ele>
<time>2022-12-14T12:44:25.067Z</time>
</trkpt>
<trkpt lat="30.9278300" lon="35.3323100">
<ele>-275.750000</ele>
<time>2022-12-14T12:44:25.067Z</time>
</trkpt>
<trkpt lat="30.9278600" lon="35.3323000">
<ele>-275.700012</ele>
<time>2022-12-14T12:44:25.067Z</time>
</trkpt>
<trkpt lat="30.9279800" lon="35.3321800">
<ele>-275.970001</ele>
<time>2022-12-14T12:44:25.067Z</time>
</trkpt>
<trkpt lat="30.9280300" lon="35.3321000">
<ele>-275.209991</ele>
<time>2022-12-14T12:44:25.067Z</time>
</trkpt>
<trkpt lat="30.9281000" lon="35.3320300">
<ele>-273.500000</ele>
<time>2022-12-14T12:44:25.067Z</time>
</trkpt>
<trkpt lat="30.9281400" lon="35.3320000">
<ele>-272.269989</ele>
<time>2022-12-14T12:44:25.067Z</time>
</trkpt>
<trkpt lat="30.9283200" lon="35.3319500">
<ele>-267.380005</ele>
<time>2022-12-14T12:44:25.067Z</time>
</trkpt>
<trkpt lat="30.9284000" lon="35.3319800">
<ele>-265.610016</ele>
<time>2022-12-14T12:44:25.067Z</time>
</trkpt>
<trkpt lat="30.9284900" lon="35.3320200">
<ele>-263.750000</ele>
<time>2022-12-14T12:44:25.067Z</time>
</trkpt>
<trkpt lat="30.9285200" lon="35.3320600">
<ele>-263.410004</ele>
<time>2022-12-14T12:44:25.067Z</time>
</trkpt>
<trkpt lat="30.9286300" lon="35.3322400">
<ele>-263.110016</ele>
<time>2022-12-14T12:44:25.067Z</time>
</trkpt>
<trkpt lat="30.9287300" lon="35.3323700">
<ele>-263.260010</ele>
<time>2022-12-14T12:44:25.067Z</time>
</trkpt>
<trkpt lat="30.9288000" lon="35.3324400">
<ele>-262.540009</ele>
<time>2022-12-14T12:44:25.067Z</time>
</trkpt>
<trkpt lat="30.9288500" lon="35.3326100">
<ele>-262.609985</ele>
<time>2022-12-14T12:44:25.067Z</time>
</trkpt>
<trkpt lat="30.9288600" lon="35.3328000">
<ele>-264.070007</ele>
<time>2022-12-14T12:44:25.067Z</time>
</trkpt>
<trkpt lat="30.9288500" lon="35.3328300">
<ele>-264.160004</ele>
<time>2022-12-14T12:44:25.067Z</time>
</trkpt>
<trkpt lat="30.9288200" lon="35.3329100">
<ele>-264.359985</ele>
<time>2022-12-14T12:44:25.067Z</time>
</trkpt>
<trkpt lat="30.9288300" lon="35.3329500">
<ele>-264.489990</ele>
<time>2022-12-14T12:44:25.067Z</time>
</trkpt>
<trkpt lat="30.9288700" lon="35.3330200">
<ele>-264.809998</ele>
<time>2022-12-14T12:44:25.067Z</time>
</trkpt>
<trkpt lat="30.9288900" lon="35.3330900">
<ele>-265.380005</ele>
<time>2022-12-14T12:44:25.067Z</time>
</trkpt>
<trkpt lat="30.9289000" lon="35.3331300">
<ele>-265.929993</ele>
<time>2022-12-14T12:44:25.067Z</time>
</trkpt>
<trkpt lat="30.9289500" lon="35.3332600">
<ele>-268.029999</ele>
<time>2022-12-14T12:44:25.067Z</time>
</trkpt>
<trkpt lat="30.9289700" lon="35.3333000">
<ele>-268.769989</ele>
<time>2022-12-14T12:44:25.067Z</time>
</trkpt>
<trkpt lat="30.9289900" lon="35.3333500">
<ele>-269.619995</ele>
<time>2022-12-14T12:44:25.067Z</time>
</trkpt>
<trkpt lat="30.9291200" lon="35.3335900">
<ele>-274.709991</ele>
<time>2022-12-14T12:44:25.067Z</time>
</trkpt>
<trkpt lat="30.9292600" lon="35.3338900">
<ele>-276.329987</ele>
<time>2022-12-14T12:44:25.067Z</time>
</trkpt>
<trkpt lat="30.9293800" lon="35.3339600">
<ele>-277.300018</ele>
<time>2022-12-14T12:44:25.067Z</time>
</trkpt>
<trkpt lat="30.9294700" lon="35.3339800">
<ele>-278.110016</ele>
<time>2022-12-14T12:44:25.067Z</time>
</trkpt>
<trkpt lat="30.9295700" lon="35.3340000">
<ele>-278.339996</ele>
<time>2022-12-14T12:44:25.067Z</time>
</trkpt>
<trkpt lat="30.9296600" lon="35.3339900">
<ele>-278.760010</ele>
<time>2022-12-14T12:44:25.067Z</time>
</trkpt>
<trkpt lat="30.9297100" lon="35.3339700">
<ele>-278.959991</ele>
<time>2022-12-14T12:44:25.067Z</time>
</trkpt>
<trkpt lat="30.9298900" lon="35.3339200">
<ele>-278.399994</ele>
<time>2022-12-14T12:44:25.067Z</time>
</trkpt>
<trkpt lat="30.9299900" lon="35.3339300">
<ele>-278.040009</ele>
<time>2022-12-14T12:44:25.067Z</time>
</trkpt>
<trkpt lat="30.9300800" lon="35.3339500">
<ele>-278.290009</ele>
<time>2022-12-14T12:44:25.067Z</time>
</trkpt>
<trkpt lat="30.9301200" lon="35.3339600">
<ele>-278.429993</ele>
<time>2022-12-14T12:44:25.067Z</time>
</trkpt>
<trkpt lat="30.9302200" lon="35.3339800">
<ele>-278.790009</ele>
<time>2022-12-14T12:44:25.067Z</time>
</trkpt>
<trkpt lat="30.9303000" lon="35.3340200">
<ele>-278.790009</ele>
<time>2022-12-14T12:44:25.067Z</time>
</trkpt>
<trkpt lat="30.9303900" lon="35.3340600">
<ele>-278.220001</ele>
<time>2022-12-14T12:44:25.067Z</time>
</trkpt>
<trkpt lat="30.9305600" lon="35.3340300">
<ele>-276.410004</ele>
<time>2022-12-14T12:44:25.067Z</time>
</trkpt>
<trkpt lat="30.9306800" lon="35.3340000">
<ele>-272.420013</ele>
<time>2022-12-14T12:44:25.067Z</time>
</trkpt>
<trkpt lat="30.9307500" lon="35.3340300">
<ele>-270.940002</ele>
<time>2022-12-14T12:44:25.067Z</time>
</trkpt>
<trkpt lat="30.9308300" lon="35.3341700">
<ele>-271.130005</ele>
<time>2022-12-14T12:44:25.067Z</time>
</trkpt>
<trkpt lat="30.9308300" lon="35.3342200">
<ele>-271.649994</ele>
<time>2022-12-14T12:44:25.067Z</time>
</trkpt>
<trkpt lat="30.9307900" lon="35.3343700">
<ele>-273.529999</ele>
<time>2022-12-14T12:44:25.067Z</time>
</trkpt>
<trkpt lat="30.9307800" lon="35.3344100">
<ele>-273.820007</ele>
<time>2022-12-14T12:44:25.067Z</time>
</trkpt>
<trkpt lat="30.9307700" lon="35.3345800">
<ele>-274.200012</ele>
<time>2022-12-14T12:44:25.067Z</time>
</trkpt>
<trkpt lat="30.9307600" lon="35.3346200">
<ele>-274.100006</ele>
<time>2022-12-14T12:44:25.067Z</time>
</trkpt>
<trkpt lat="30.9307400" lon="35.3346900">
<ele>-273.690002</ele>
<time>2022-12-14T12:44:25.067Z</time>
</trkpt>
<trkpt lat="30.9307300" lon="35.3347700">
<ele>-273.100006</ele>
<time>2022-12-14T12:44:25.067Z</time>
</trkpt>
<trkpt lat="30.9307200" lon="35.3349000">
<ele>-271.979980</ele>
<time>2022-12-14T12:44:25.067Z</time>
</trkpt>
<trkpt lat="30.9307200" lon="35.3349500">
<ele>-271.649994</ele>
<time>2022-12-14T12:44:25.067Z</time>
</trkpt>
<trkpt lat="30.9307300" lon="35.3350400">
<ele>-271.419983</ele>
<time>2022-12-14T12:44:25.067Z</time>
</trkpt>
<trkpt lat="30.9307700" lon="35.3351300">
<ele>-272.119995</ele>
<time>2022-12-14T12:44:25.067Z</time>
</trkpt>
<trkpt lat="30.9308400" lon="35.3351900">
<ele>-273.709991</ele>
<time>2022-12-14T12:44:25.067Z</time>
</trkpt>
<trkpt lat="30.9309200" lon="35.3352400">
<ele>-274.250000</ele>
<time>2022-12-14T12:44:25.067Z</time>
</trkpt>
<trkpt lat="30.9309700" lon="35.3352500">
<ele>-274.730011</ele>
<time>2022-12-14T12:44:25.067Z</time>
</trkpt>
<trkpt lat="30.9310800" lon="35.3352200">
<ele>-276.259979</ele>
<time>2022-12-14T12:44:25.067Z</time>
</trkpt>
<trkpt lat="30.9311100" lon="35.3351900">
<ele>-276.929993</ele>
<time>2022-12-14T12:44:25.067Z</time>
</trkpt>
<trkpt lat="30.9311800" lon="35.3350900">
<ele>-278.690002</ele>
<time>2022-12-14T12:44:25.067Z</time>
</trkpt>
<trkpt lat="30.9312500" lon="35.3349900">
<ele>-280.450012</ele>
<time>2022-12-14T12:44:25.067Z</time>
</trkpt>
<trkpt lat="30.9313100" lon="35.3348900">
<ele>-280.130005</ele>
<time>2022-12-14T12:44:25.067Z</time>
</trkpt>
<trkpt lat="30.9313900" lon="35.3348200">
<ele>-279.380005</ele>
<time>2022-12-14T12:44:25.067Z</time>
</trkpt>
<trkpt lat="30.9316000" lon="35.3347400">
<ele>-272.940002</ele>
<time>2022-12-14T12:44:25.067Z</time>
</trkpt>
<trkpt lat="30.9317200" lon="35.3348000">
<ele>-271.190002</ele>
<time>2022-12-14T12:44:25.067Z</time>
</trkpt>
<trkpt lat="30.9317500" lon="35.3349400">
<ele>-272.230011</ele>
<time>2022-12-14T12:44:25.067Z</time>
</trkpt>
<trkpt lat="30.9317500" lon="35.3353400">
<ele>-275.890015</ele>
<time>2022-12-14T12:44:25.067Z</time>
</trkpt>
<trkpt lat="30.9317500" lon="35.3354000">
<ele>-275.579987</ele>
<time>2022-12-14T12:44:25.067Z</time>
</trkpt>
<trkpt lat="30.9318200" lon="35.3355300">
<ele>-273.869995</ele>
<time>2022-12-14T12:44:25.067Z</time>
</trkpt>
<trkpt lat="30.9318500" lon="35.3355700">
<ele>-273.199982</ele>
<time>2022-12-14T12:44:25.067Z</time>
</trkpt>
<trkpt lat="30.9318800" lon="35.3356200">
<ele>-272.299988</ele>
<time>2022-12-14T12:44:25.067Z</time>
</trkpt>
<trkpt lat="30.9319400" lon="35.3357100">
<ele>-270.929993</ele>
<time>2022-12-14T12:44:25.067Z</time>
</trkpt>
<trkpt lat="30.9319800" lon="35.3357400">
<ele>-270.720001</ele>
<time>2022-12-14T12:44:25.067Z</time>
</trkpt>
<trkpt lat="30.9321200" lon="35.3357400">
<ele>-270.880005</ele>
<time>2022-12-14T12:44:25.067Z</time>
</trkpt>
<trkpt lat="30.9322300" lon="35.3355900">
<ele>-272.709991</ele>
<time>2022-12-14T12:44:25.067Z</time>
</trkpt>
<trkpt lat="30.9322600" lon="35.3354900">
<ele>-273.739990</ele>
<time>2022-12-14T12:44:25.067Z</time>
</trkpt>
<trkpt lat="30.9323300" lon="35.3353200">
<ele>-276.000000</ele>
<time>2022-12-14T12:44:25.067Z</time>
</trkpt>
<trkpt lat="30.9323600" lon="35.3352900">
<ele>-276.869995</ele>
<time>2022-12-14T12:44:25.067Z</time>
</trkpt>
<trkpt lat="30.9324300" lon="35.3352400">
<ele>-278.350006</ele>
<time>2022-12-14T12:44:25.067Z</time>
</trkpt>
<trkpt lat="30.9325800" lon="35.3352000">
<ele>-280.160004</ele>
<time>2022-12-14T12:44:25.067Z</time>
</trkpt>
<trkpt lat="30.9326700" lon="35.3352200">
<ele>-280.250000</ele>
<time>2022-12-14T12:44:25.067Z</time>
</trkpt>
<trkpt lat="30.9327400" lon="35.3352400">
<ele>-280.239990</ele>
<time>2022-12-14T12:44:25.067Z</time>
</trkpt>
<trkpt lat="30.9328300" lon="35.3352500">
<ele>-279.449982</ele>
<time>2022-12-14T12:44:25.067Z</time>
</trkpt>
<trkpt lat="30.9329300" lon="35.3352700">
<ele>-277.860016</ele>
<time>2022-12-14T12:44:25.067Z</time>
</trkpt>
<trkpt lat="30.9329800" lon="35.3352700">
<ele>-277.139984</ele>
<time>2022-12-14T12:44:25.067Z</time>
</trkpt>
<trkpt lat="30.9331200" lon="35.3352500">
<ele>-276.640015</ele>
<time>2022-12-14T12:44:25.067Z</time>
</trkpt>
<trkpt lat="30.9332200" lon="35.3352100">
<ele>-277.529999</ele>
<time>2022-12-14T12:44:25.067Z</time>
</trkpt>
<trkpt lat="30.9333600" lon="35.3351300">
<ele>-278.440002</ele>
<time>2022-12-14T12:44:25.067Z</time>
</trkpt>
<trkpt lat="30.9335100" lon="35.3351500">
<ele>-277.819977</ele>
<time>2022-12-14T12:44:25.067Z</time>
</trkpt>
<trkpt lat="30.9335600" lon="35.3351700">
<ele>-277.570007</ele>
<time>2022-12-14T12:44:25.067Z</time>
</trkpt>
<trkpt lat="30.9337100" lon="35.3352400">
<ele>-276.929993</ele>
<time>2022-12-14T12:44:25.067Z</time>
</trkpt>
<trkpt lat="30.9338100" lon="35.3352600">
<ele>-276.490021</ele>
<time>2022-12-14T12:44:25.067Z</time>
</trkpt>
<trkpt lat="30.9339100" lon="35.3352400">
<ele>-276.040009</ele>
<time>2022-12-14T12:44:25.067Z</time>
</trkpt>
<trkpt lat="30.9339600" lon="35.3352200">
<ele>-275.200012</ele>
<time>2022-12-14T12:44:25.067Z</time>
</trkpt>
<trkpt lat="30.9340000" lon="35.3351900">
<ele>-274.839996</ele>
<time>2022-12-14T12:44:25.067Z</time>
</trkpt>
<trkpt lat="30.9340900" lon="35.3350500">
<ele>-275.989990</ele>
<time>2022-12-14T12:44:25.067Z</time>
</trkpt>
<trkpt lat="30.9340700" lon="35.3349500">
<ele>-278.339996</ele>
<time>2022-12-14T12:44:25.067Z</time>
</trkpt>
<trkpt lat="30.9340600" lon="35.3348900">
<ele>-279.550018</ele>
<time>2022-12-14T12:44:25.067Z</time>
</trkpt>
<trkpt lat="30.9340200" lon="35.3346900">
<ele>-282.929993</ele>
<time>2022-12-14T12:44:25.067Z</time>
</trkpt>
<trkpt lat="30.9340400" lon="35.3346400">
<ele>-283.750000</ele>
<time>2022-12-14T12:44:25.067Z</time>
</trkpt>
<trkpt lat="30.9341700" lon="35.3344100">
<ele>-288.119995</ele>
<time>2022-12-14T12:44:25.067Z</time>
</trkpt>
<trkpt lat="30.9343300" lon="35.3342600">
<ele>-287.489990</ele>
<time>2022-12-14T12:44:25.067Z</time>
</trkpt>
<trkpt lat="30.9343700" lon="35.3342500">
<ele>-287.160004</ele>
<time>2022-12-14T12:44:25.067Z</time>
</trkpt>
<trkpt lat="30.9345000" lon="35.3342600">
<ele>-285.670013</ele>
<time>2022-12-14T12:44:25.067Z</time>
</trkpt>
<trkpt lat="30.9346000" lon="35.3343200">
<ele>-284.669983</ele>
<time>2022-12-14T12:44:25.067Z</time>
</trkpt>
<trkpt lat="30.9347100" lon="35.3344000">
<ele>-284.350006</ele>
<time>2022-12-14T12:44:25.067Z</time>
</trkpt>
<trkpt lat="30.9347400" lon="35.3344400">
<ele>-284.540009</ele>
<time>2022-12-14T12:44:25.067Z</time>
</trkpt>
<trkpt lat="30.9347800" lon="35.3344600">
<ele>-283.750000</ele>
<time>2022-12-14T12:44:25.067Z</time>
</trkpt>
<trkpt lat="30.9348900" lon="35.3345200">
<ele>-281.929993</ele>
<time>2022-12-14T12:44:25.067Z</time>
</trkpt>
<trkpt lat="30.9349400" lon="35.3345800">
<ele>-281.720001</ele>
<time>2022-12-14T12:44:25.067Z</time>
</trkpt>
<trkpt lat="30.9349900" lon="35.3346700">
<ele>-282.320007</ele>
<time>2022-12-14T12:44:25.067Z</time>
</trkpt>
<trkpt lat="30.9351600" lon="35.3348700">
<ele>-281.119995</ele>
<time>2022-12-14T12:44:25.067Z</time>
</trkpt>
<trkpt lat="30.9351900" lon="35.3349100">
<ele>-281.220001</ele>
<time>2022-12-14T12:44:25.067Z</time>
</trkpt>
<trkpt lat="30.9352400" lon="35.3350000">
<ele>-282.000000</ele>
<time>2022-12-14T12:44:25.067Z</time>
</trkpt>
<trkpt lat="30.9353000" lon="35.3350900">
<ele>-281.369995</ele>
<time>2022-12-14T12:44:25.067Z</time>
</trkpt>
<trkpt lat="30.9353400" lon="35.3351300">
<ele>-281.350006</ele>
<time>2022-12-14T12:44:25.067Z</time>
</trkpt>
<trkpt lat="30.9354100" lon="35.3352200">
<ele>-282.100006</ele>
<time>2022-12-14T12:44:25.067Z</time>
</trkpt>
<trkpt lat="30.9355700" lon="35.3353800">
<ele>-284.279999</ele>
<time>2022-12-14T12:44:25.067Z</time>
</trkpt>
<trkpt lat="30.9357100" lon="35.3354600">
<ele>-284.049988</ele>
<time>2022-12-14T12:44:25.067Z</time>
</trkpt>
<trkpt lat="30.9358200" lon="35.3354900">
<ele>-284.199982</ele>
<time>2022-12-14T12:44:25.067Z</time>
</trkpt>
<trkpt lat="30.9362200" lon="35.3355900">
<ele>-285.079987</ele>
<time>2022-12-14T12:44:25.067Z</time>
</trkpt>
<trkpt lat="30.9362700" lon="35.3355900">
<ele>-285.170013</ele>
<time>2022-12-14T12:44:25.067Z</time>
</trkpt>
<trkpt lat="30.9365900" lon="35.3356300">
<ele>-284.179993</ele>
<time>2022-12-14T12:44:25.067Z</time>
</trkpt>
<trkpt lat="30.9367700" lon="35.3357700">
<ele>-284.149994</ele>
<time>2022-12-14T12:44:25.067Z</time>
</trkpt>
<trkpt lat="30.9368300" lon="35.3359500">
<ele>-286.480011</ele>
<time>2022-12-14T12:44:25.067Z</time>
</trkpt>
<trkpt lat="30.9368500" lon="35.3360100">
<ele>-287.619995</ele>
<time>2022-12-14T12:44:25.067Z</time>
</trkpt>
<trkpt lat="30.9368800" lon="35.3360600">
<ele>-289.109985</ele>
<time>2022-12-14T12:44:25.067Z</time>
</trkpt>
<trkpt lat="30.9370100" lon="35.3361900">
<ele>-292.480011</ele>
<time>2022-12-14T12:44:25.067Z</time>
</trkpt>
<trkpt lat="30.9371700" lon="35.3362500">
<ele>-295.470001</ele>
<time>2022-12-14T12:44:25.067Z</time>
</trkpt>
<trkpt lat="30.9372200" lon="35.3362800">
<ele>-296.779999</ele>
<time>2022-12-14T12:44:25.067Z</time>
</trkpt>
<trkpt lat="30.9373200" lon="35.3363600">
<ele>-297.649994</ele>
<time>2022-12-14T12:44:25.067Z</time>
</trkpt>
<trkpt lat="30.9373300" lon="35.3364300">
<ele>-297.669983</ele>
<time>2022-12-14T12:44:25.067Z</time>
</trkpt>
<trkpt lat="30.9373300" lon="35.3364900">
<ele>-297.190002</ele>
<time>2022-12-14T12:44:25.067Z</time>
</trkpt>
<trkpt lat="30.9372800" lon="35.3366300">
<ele>-295.759979</ele>
<time>2022-12-14T12:44:25.067Z</time>
</trkpt>
<trkpt lat="30.9372500" lon="35.3366900">
<ele>-294.809998</ele>
<time>2022-12-14T12:44:25.067Z</time>
</trkpt>
<trkpt lat="30.9371900" lon="35.3368600">
<ele>-290.869995</ele>
<time>2022-12-14T12:44:25.067Z</time>
</trkpt>
<trkpt lat="30.9371800" lon="35.3369300">
<ele>-289.480011</ele>
<time>2022-12-14T12:44:25.067Z</time>
</trkpt>
<trkpt lat="30.9372300" lon="35.3370400">
<ele>-288.739990</ele>
<time>2022-12-14T12:44:25.067Z</time>
</trkpt>
<trkpt lat="30.9373800" lon="35.3371300">
<ele>-289.029999</ele>
<time>2022-12-14T12:44:25.067Z</time>
</trkpt>
<trkpt lat="30.9374400" lon="35.3371400">
<ele>-289.450012</ele>
<time>2022-12-14T12:44:25.067Z</time>
</trkpt>
<trkpt lat="30.9376300" lon="35.3371600">
<ele>-293.359985</ele>
<time>2022-12-14T12:44:25.067Z</time>
</trkpt>
<trkpt lat="30.9376700" lon="35.3371600">
<ele>-294.529999</ele>
<time>2022-12-14T12:44:25.067Z</time>
</trkpt>
<trkpt lat="30.9377800" lon="35.3372000">
<ele>-297.250000</ele>
<time>2022-12-14T12:44:25.067Z</time>
</trkpt>
<trkpt lat="30.9378900" lon="35.3372600">
<ele>-297.000000</ele>
<time>2022-12-14T12:44:25.067Z</time>
</trkpt>
<trkpt lat="30.9381000" lon="35.3373900">
<ele>-296.029999</ele>
<time>2022-12-14T12:44:25.067Z</time>
</trkpt>
<trkpt lat="30.9381800" lon="35.3374700">
<ele>-294.880005</ele>
<time>2022-12-14T12:44:25.067Z</time>
</trkpt>
<trkpt lat="30.9382400" lon="35.3375500">
<ele>-292.709991</ele>
<time>2022-12-14T12:44:25.067Z</time>
</trkpt>
<trkpt lat="30.9382700" lon="35.3375700">
<ele>-292.040009</ele>
<time>2022-12-14T12:44:25.067Z</time>
</trkpt>
<trkpt lat="30.9383500" lon="35.3375600">
<ele>-292.520020</ele>
<time>2022-12-14T12:44:25.067Z</time>
</trkpt>
<trkpt lat="30.9385000" lon="35.3374600">
<ele>-296.489990</ele>
<time>2022-12-14T12:44:25.067Z</time>
</trkpt>
<trkpt lat="30.9385400" lon="35.3374200">
<ele>-296.979980</ele>
<time>2022-12-14T12:44:25.067Z</time>
</trkpt>
<trkpt lat="30.9387200" lon="35.3373200">
<ele>-296.470001</ele>
<time>2022-12-14T12:44:25.067Z</time>
</trkpt>
<trkpt lat="30.9388200" lon="35.3373100">
<ele>-295.500000</ele>
<time>2022-12-14T12:44:25.067Z</time>
</trkpt>
<trkpt lat="30.9390900" lon="35.3373200">
<ele>-291.529999</ele>
<time>2022-12-14T12:44:25.067Z</time>
</trkpt>
<trkpt lat="30.9391400" lon="35.3373400">
<ele>-291.269989</ele>
<time>2022-12-14T12:44:25.067Z</time>
</trkpt>
<trkpt lat="30.9393200" lon="35.3374900">
<ele>-292.359985</ele>
<time>2022-12-14T12:44:25.067Z</time>
</trkpt>
<trkpt lat="30.9393600" lon="35.3375300">
<ele>-292.619995</ele>
<time>2022-12-14T12:44:25.067Z</time>
</trkpt>
<trkpt lat="30.9394300" lon="35.3376400">
<ele>-294.290009</ele>
<time>2022-12-14T12:44:25.067Z</time>
</trkpt>
<trkpt lat="30.9394600" lon="35.3376900">
<ele>-294.720001</ele>
<time>2022-12-14T12:44:25.067Z</time>
</trkpt>
<trkpt lat="30.9394900" lon="35.3377500">
<ele>-294.940002</ele>
<time>2022-12-14T12:44:25.067Z</time>
</trkpt>
<trkpt lat="30.9396000" lon="35.3379900">
<ele>-294.160004</ele>
<time>2022-12-14T12:44:25.067Z</time>
</trkpt>
<trkpt lat="30.9396500" lon="35.3381700">
<ele>-294.820007</ele>
<time>2022-12-14T12:44:25.067Z</time>
</trkpt>
<trkpt lat="30.9397500" lon="35.3384800">
<ele>-293.179993</ele>
<time>2022-12-14T12:44:25.067Z</time>
</trkpt>
<trkpt lat="30.9397700" lon="35.3385500">
<ele>-292.079987</ele>
<time>2022-12-14T12:44:25.067Z</time>
</trkpt>
<trkpt lat="30.9398300" lon="35.3389500">
<ele>-288.920013</ele>
<time>2022-12-14T12:44:25.067Z</time>
</trkpt>
<trkpt lat="30.9399000" lon="35.3391400">
<ele>-287.380005</ele>
<time>2022-12-14T12:44:25.067Z</time>
</trkpt>
<trkpt lat="30.9399800" lon="35.3393200">
<ele>-286.950012</ele>
<time>2022-12-14T12:44:25.067Z</time>
</trkpt>
<trkpt lat="30.9401800" lon="35.3396200">
<ele>-291.130005</ele>
<time>2022-12-14T12:44:25.067Z</time>
</trkpt>
<trkpt lat="30.9402200" lon="35.3396600">
<ele>-291.929993</ele>
<time>2022-12-14T12:44:25.067Z</time>
</trkpt>
<trkpt lat="30.9403100" lon="35.3397200">
<ele>-293.929993</ele>
<time>2022-12-14T12:44:25.067Z</time>
</trkpt>
<trkpt lat="30.9404000" lon="35.3397700">
<ele>-295.869995</ele>
<time>2022-12-14T12:44:25.067Z</time>
</trkpt>
<trkpt lat="30.9404300" lon="35.3398000">
<ele>-296.209991</ele>
<time>2022-12-14T12:44:25.067Z</time>
</trkpt>
<trkpt lat="30.9404700" lon="35.3398100">
<ele>-297.029999</ele>
<time>2022-12-14T12:44:25.067Z</time>
</trkpt>
<trkpt lat="30.9406100" lon="35.3398200">
<ele>-299.089996</ele>
<time>2022-12-14T12:44:25.067Z</time>
</trkpt>
<trkpt lat="30.9407900" lon="35.3397500">
<ele>-300.649994</ele>
<time>2022-12-14T12:44:25.067Z</time>
</trkpt>
<trkpt lat="30.9408300" lon="35.3397300">
<ele>-300.910004</ele>
<time>2022-12-14T12:44:25.067Z</time>
</trkpt>
<trkpt lat="30.9410200" lon="35.3397500">
<ele>-293.579987</ele>
<time>2022-12-14T12:44:25.067Z</time>
</trkpt>
<trkpt lat="30.9410900" lon="35.3398500">
<ele>-291.160004</ele>
<time>2022-12-14T12:44:25.067Z</time>
</trkpt>
<trkpt lat="30.9410500" lon="35.3400000">
<ele>-292.540009</ele>
<time>2022-12-14T12:44:25.067Z</time>
</trkpt>
<trkpt lat="30.9410300" lon="35.3400500">
<ele>-292.549988</ele>
<time>2022-12-14T12:44:25.067Z</time>
</trkpt>
<trkpt lat="30.9410100" lon="35.3401000">
<ele>-292.399994</ele>
<time>2022-12-14T12:44:25.067Z</time>
</trkpt>
<trkpt lat="30.9409900" lon="35.3402000">
<ele>-291.450012</ele>
<time>2022-12-14T12:44:25.067Z</time>
</trkpt>
<trkpt lat="30.9409800" lon="35.3403200">
<ele>-290.109985</ele>
<time>2022-12-14T12:44:25.067Z</time>
</trkpt>
<trkpt lat="30.9410100" lon="35.3405800">
<ele>-288.570007</ele>
<time>2022-12-14T12:44:25.067Z</time>
</trkpt>
<trkpt lat="30.9410500" lon="35.3406000">
<ele>-289.209991</ele>
<time>2022-12-14T12:44:25.067Z</time>
</trkpt>
<trkpt lat="30.9412200" lon="35.3406600">
<ele>-290.279999</ele>
<time>2022-12-14T12:44:25.067Z</time>
</trkpt>
<trkpt lat="30.9413200" lon="35.3406500">
<ele>-290.100006</ele>
<time>2022-12-14T12:44:25.067Z</time>
</trkpt>
<trkpt lat="30.9414200" lon="35.3406500">
<ele>-289.979980</ele>
<time>2022-12-14T12:44:25.067Z</time>
</trkpt>
<trkpt lat="30.9414700" lon="35.3406600">
<ele>-290.020020</ele>
<time>2022-12-14T12:44:25.067Z</time>
</trkpt>
<trkpt lat="30.9417400" lon="35.3407900">
<ele>-288.309998</ele>
<time>2022-12-14T12:44:25.067Z</time>
</trkpt>
<trkpt lat="30.9417800" lon="35.3409000">
<ele>-286.989990</ele>
<time>2022-12-14T12:44:25.067Z</time>
</trkpt>
<trkpt lat="30.9417300" lon="35.3410300">
<ele>-288.079987</ele>
<time>2022-12-14T12:44:25.067Z</time>
</trkpt>
<trkpt lat="30.9416600" lon="35.3411100">
<ele>-290.080017</ele>
<time>2022-12-14T12:44:25.067Z</time>
</trkpt>
<trkpt lat="30.9416200" lon="35.3411100">
<ele>-290.510010</ele>
<time>2022-12-14T12:44:25.067Z</time>
</trkpt>
<trkpt lat="30.9415500" lon="35.3411200">
<ele>-291.170013</ele>
<time>2022-12-14T12:44:25.067Z</time>
</trkpt>
<trkpt lat="30.9414100" lon="35.3411800">
<ele>-292.679993</ele>
<time>2022-12-14T12:44:25.067Z</time>
</trkpt>
<trkpt lat="30.9413600" lon="35.3412500">
<ele>-292.899994</ele>
<time>2022-12-14T12:44:25.067Z</time>
</trkpt>
<trkpt lat="30.9413100" lon="35.3413300">
<ele>-292.880005</ele>
<time>2022-12-14T12:44:25.067Z</time>
</trkpt>
<trkpt lat="30.9412600" lon="35.3415700">
<ele>-293.610016</ele>
<time>2022-12-14T12:44:25.067Z</time>
</trkpt>
<trkpt lat="30.9412700" lon="35.3416600">
<ele>-293.839996</ele>
<time>2022-12-14T12:44:25.067Z</time>
</trkpt>
<trkpt lat="30.9413200" lon="35.3417700">
<ele>-294.059998</ele>
<time>2022-12-14T12:44:25.067Z</time>
</trkpt>
<trkpt lat="30.9415300" lon="35.3419400">
<ele>-288.889984</ele>
<time>2022-12-14T12:44:25.067Z</time>
</trkpt>
<trkpt lat="30.9415600" lon="35.3419800">
<ele>-287.559998</ele>
<time>2022-12-14T12:44:25.067Z</time>
</trkpt>
<trkpt lat="30.9416700" lon="35.3421000">
<ele>-282.919983</ele>
<time>2022-12-14T12:44:25.067Z</time>
</trkpt>
<trkpt lat="30.9416700" lon="35.3421600">
<ele>-282.919983</ele>
<time>2022-12-14T12:44:25.067Z</time>
</trkpt>
<trkpt lat="30.9416700" lon="35.3422300">
<ele>-282.940002</ele>
<time>2022-12-14T12:44:25.067Z</time>
</trkpt>
<trkpt lat="30.9416500" lon="35.3423000">
<ele>-283.919983</ele>
<time>2022-12-14T12:44:25.067Z</time>
</trkpt>
<trkpt lat="30.9415200" lon="35.3423800">
<ele>-289.079987</ele>
<time>2022-12-14T12:44:25.067Z</time>
</trkpt>
<trkpt lat="30.9414800" lon="35.3423900">
<ele>-290.589996</ele>
<time>2022-12-14T12:44:25.067Z</time>
</trkpt>
<trkpt lat="30.9413500" lon="35.3423800">
<ele>-293.919983</ele>
<time>2022-12-14T12:44:25.067Z</time>
</trkpt>
<trkpt lat="30.9412300" lon="35.3423800">
<ele>-293.680023</ele>
<time>2022-12-14T12:44:25.067Z</time>
</trkpt>
<trkpt lat="30.9411900" lon="35.3424000">
<ele>-293.540009</ele>
<time>2022-12-14T12:44:25.067Z</time>
</trkpt>
<trkpt lat="30.9411300" lon="35.3425000">
<ele>-293.070007</ele>
<time>2022-12-14T12:44:25.067Z</time>
</trkpt>
<trkpt lat="30.9411200" lon="35.3425400">
<ele>-292.600006</ele>
<time>2022-12-14T12:44:25.067Z</time>
</trkpt>
<trkpt lat="30.9411600" lon="35.3426400">
<ele>-291.580017</ele>
<time>2022-12-14T12:44:25.067Z</time>
</trkpt>
<trkpt lat="30.9412900" lon="35.3428200">
<ele>-289.440002</ele>
<time>2022-12-14T12:44:25.067Z</time>
</trkpt>
<trkpt lat="30.9415000" lon="35.3430300">
<ele>-287.130005</ele>
<time>2022-12-14T12:44:25.067Z</time>
</trkpt>
<trkpt lat="30.9415400" lon="35.3430600">
<ele>-286.950012</ele>
<time>2022-12-14T12:44:25.067Z</time>
</trkpt>
<trkpt lat="30.9416100" lon="35.3431200">
<ele>-286.579987</ele>
<time>2022-12-14T12:44:25.067Z</time>
</trkpt>
<trkpt lat="30.9418800" lon="35.3432700">
<ele>-289.959991</ele>
<time>2022-12-14T12:44:25.067Z</time>
</trkpt>
<trkpt lat="30.9420800" lon="35.3433200">
<ele>-295.290009</ele>
<time>2022-12-14T12:44:25.067Z</time>
</trkpt>
<trkpt lat="30.9421300" lon="35.3433200">
<ele>-296.579987</ele>
<time>2022-12-14T12:44:25.067Z</time>
</trkpt>
<trkpt lat="30.9423200" lon="35.3433900">
<ele>-299.119995</ele>
<time>2022-12-14T12:44:25.067Z</time>
</trkpt>
<trkpt lat="30.9424100" lon="35.3434400">
<ele>-299.759979</ele>
<time>2022-12-14T12:44:25.067Z</time>
</trkpt>
<trkpt lat="30.9425600" lon="35.3435400">
<ele>-301.259979</ele>
<time>2022-12-14T12:44:25.067Z</time>
</trkpt>
<trkpt lat="30.9429000" lon="35.3436100">
<ele>-304.540009</ele>
<time>2022-12-14T12:44:25.067Z</time>
</trkpt>
<trkpt lat="30.9430200" lon="35.3436600">
<ele>-304.019989</ele>
<time>2022-12-14T12:44:25.067Z</time>
</trkpt>
<trkpt lat="30.9431300" lon="35.3437400">
<ele>-302.559998</ele>
<time>2022-12-14T12:44:25.067Z</time>
</trkpt>
<trkpt lat="30.9433100" lon="35.3439200">
<ele>-304.600006</ele>
<time>2022-12-14T12:44:25.067Z</time>
</trkpt>
<trkpt lat="30.9433400" lon="35.3439600">
<ele>-305.360016</ele>
<time>2022-12-14T12:44:25.067Z</time>
</trkpt>
<trkpt lat="30.9433600" lon="35.3440600">
<ele>-307.190002</ele>
<time>2022-12-14T12:44:25.067Z</time>
</trkpt>
<trkpt lat="30.9433900" lon="35.3441600">
<ele>-309.209991</ele>
<time>2022-12-14T12:44:25.067Z</time>
</trkpt>
<trkpt lat="30.9434900" lon="35.3442300">
<ele>-308.970001</ele>
<time>2022-12-14T12:44:25.067Z</time>
</trkpt>
<trkpt lat="30.9435400" lon="35.3442400">
<ele>-309.199982</ele>
<time>2022-12-14T12:44:25.067Z</time>
</trkpt>
<trkpt lat="30.9436800" lon="35.3442600">
<ele>-308.619995</ele>
<time>2022-12-14T12:44:25.067Z</time>
</trkpt>
<trkpt lat="30.9437900" lon="35.3442900">
<ele>-307.630005</ele>
<time>2022-12-14T12:44:25.067Z</time>
</trkpt>
<trkpt lat="30.9438900" lon="35.3443400">
<ele>-308.059998</ele>
<time>2022-12-14T12:44:25.067Z</time>
</trkpt>
<trkpt lat="30.9440400" lon="35.3444300">
<ele>-304.820007</ele>
<time>2022-12-14T12:44:25.067Z</time>
</trkpt>
<trkpt lat="30.9441300" lon="35.3446300">
<ele>-306.910004</ele>
<time>2022-12-14T12:44:25.067Z</time>
</trkpt>
<trkpt lat="30.9441900" lon="35.3447200">
<ele>-307.910004</ele>
<time>2022-12-14T12:44:25.067Z</time>
</trkpt>
<trkpt lat="30.9442700" lon="35.3447800">
<ele>-303.149994</ele>
<time>2022-12-14T12:44:25.067Z</time>
</trkpt>
<trkpt lat="30.9443900" lon="35.3448600">
<ele>-297.980011</ele>
<time>2022-12-14T12:44:25.067Z</time>
</trkpt>
<trkpt lat="30.9444300" lon="35.3448900">
<ele>-296.740021</ele>
<time>2022-12-14T12:44:25.067Z</time>
</trkpt>
<trkpt lat="30.9444300" lon="35.3449400">
<ele>-296.470001</ele>
<time>2022-12-14T12:44:25.067Z</time>
</trkpt>
<trkpt lat="30.9444400" lon="35.3449700">
<ele>-296.169983</ele>
<time>2022-12-14T12:44:25.067Z</time>
</trkpt>
<trkpt lat="30.9444200" lon="35.3450100">
<ele>-296.179993</ele>
<time>2022-12-14T12:44:25.067Z</time>
</trkpt>
<trkpt lat="30.9443800" lon="35.3450900">
<ele>-295.820007</ele>
<time>2022-12-14T12:44:25.067Z</time>
</trkpt>
<trkpt lat="30.9443900" lon="35.3452000">
<ele>-294.720001</ele>
<time>2022-12-14T12:44:25.067Z</time>
</trkpt>
<trkpt lat="30.9444700" lon="35.3452200">
<ele>-294.049988</ele>
<time>2022-12-14T12:44:25.067Z</time>
</trkpt>
<trkpt lat="30.9445900" lon="35.3451100">
<ele>-293.109985</ele>
<time>2022-12-14T12:44:25.067Z</time>
</trkpt>
<trkpt lat="30.9446700" lon="35.3449300">
<ele>-291.779999</ele>
<time>2022-12-14T12:44:25.067Z</time>
</trkpt>
<trkpt lat="30.9446900" lon="35.3448800">
<ele>-290.600006</ele>
<time>2022-12-14T12:44:25.067Z</time>
</trkpt>
<trkpt lat="30.9447600" lon="35.3448100">
<ele>-288.130005</ele>
<time>2022-12-14T12:44:25.067Z</time>
</trkpt>
<trkpt lat="30.9448900" lon="35.3447500">
<ele>-285.630005</ele>
<time>2022-12-14T12:44:25.067Z</time>
</trkpt>
<trkpt lat="30.9449400" lon="35.3447400">
<ele>-284.920013</ele>
<time>2022-12-14T12:44:25.067Z</time>
</trkpt>
<trkpt lat="30.9450800" lon="35.3448100">
<ele>-283.989990</ele>
<time>2022-12-14T12:44:25.067Z</time>
</trkpt>
<trkpt lat="30.9451700" lon="35.3449100">
<ele>-285.100006</ele>
<time>2022-12-14T12:44:25.067Z</time>
</trkpt>
<trkpt lat="30.9452000" lon="35.3449600">
<ele>-286.190002</ele>
<time>2022-12-14T12:44:25.067Z</time>
</trkpt>
<trkpt lat="30.9454600" lon="35.3452400">
<ele>-294.250000</ele>
<time>2022-12-14T12:44:25.067Z</time>
</trkpt>
<trkpt lat="30.9455800" lon="35.3453300">
<ele>-297.149994</ele>
<time>2022-12-14T12:44:25.067Z</time>
</trkpt>
<trkpt lat="30.9458400" lon="35.3454800">
<ele>-300.149994</ele>
<time>2022-12-14T12:44:25.067Z</time>
</trkpt>
<trkpt lat="30.9460800" lon="35.3454900">
<ele>-305.539978</ele>
<time>2022-12-14T12:44:25.067Z</time>
</trkpt>
<trkpt lat="30.9461400" lon="35.3454700">
<ele>-306.699982</ele>
<time>2022-12-14T12:44:25.067Z</time>
</trkpt>
<trkpt lat="30.9463900" lon="35.3454000">
<ele>-309.320007</ele>
<time>2022-12-14T12:44:25.067Z</time>
</trkpt>
<trkpt lat="30.9465200" lon="35.3453400">
<ele>-308.519989</ele>
<time>2022-12-14T12:44:25.067Z</time>
</trkpt>
<trkpt lat="30.9465900" lon="35.3454300">
<ele>-310.110016</ele>
<time>2022-12-14T12:44:25.067Z</time>
</trkpt>
<trkpt lat="30.9466100" lon="35.3455100">
<ele>-311.709991</ele>
<time>2022-12-14T12:44:25.067Z</time>
</trkpt>
<trkpt lat="30.9466300" lon="35.3456400">
<ele>-311.360016</ele>
<time>2022-12-14T12:44:25.067Z</time>
</trkpt>
<trkpt lat="30.9466400" lon="35.3456800">
<ele>-310.839996</ele>
<time>2022-12-14T12:44:25.067Z</time>
</trkpt>
<trkpt lat="30.9467100" lon="35.3458000">
<ele>-309.070007</ele>
<time>2022-12-14T12:44:25.067Z</time>
</trkpt>
<trkpt lat="30.9467500" lon="35.3458300">
<ele>-308.429993</ele>
<time>2022-12-14T12:44:25.067Z</time>
</trkpt>
<trkpt lat="30.9469100" lon="35.3459200">
<ele>-304.910004</ele>
<time>2022-12-14T12:44:25.067Z</time>
</trkpt>
<trkpt lat="30.9469400" lon="35.3459200">
<ele>-304.830017</ele>
<time>2022-12-14T12:44:25.067Z</time>
</trkpt>
<trkpt lat="30.9470400" lon="35.3458900">
<ele>-306.809998</ele>
<time>2022-12-14T12:44:25.067Z</time>
</trkpt>
<trkpt lat="30.9471100" lon="35.3458500">
<ele>-308.480011</ele>
<time>2022-12-14T12:44:25.067Z</time>
</trkpt>
<trkpt lat="30.9472700" lon="35.3457100">
<ele>-308.799988</ele>
<time>2022-12-14T12:44:25.067Z</time>
</trkpt>
<trkpt lat="30.9473100" lon="35.3456800">
<ele>-308.420013</ele>
<time>2022-12-14T12:44:25.067Z</time>
</trkpt>
<trkpt lat="30.9473800" lon="35.3456700">
<ele>-308.269989</ele>
<time>2022-12-14T12:44:25.067Z</time>
</trkpt>
<trkpt lat="30.9474300" lon="35.3457200">
<ele>-309.489990</ele>
<time>2022-12-14T12:44:25.067Z</time>
</trkpt>
<trkpt lat="30.9474700" lon="35.3457700">
<ele>-310.979980</ele>
<time>2022-12-14T12:44:25.067Z</time>
</trkpt>
<trkpt lat="30.9475300" lon="35.3459000">
<ele>-313.399994</ele>
<time>2022-12-14T12:44:25.067Z</time>
</trkpt>
<trkpt lat="30.9475800" lon="35.3459900">
<ele>-313.829987</ele>
<time>2022-12-14T12:44:25.067Z</time>
</trkpt>
<trkpt lat="30.9476300" lon="35.3461500">
<ele>-313.590027</ele>
<time>2022-12-14T12:44:25.067Z</time>
</trkpt>
<trkpt lat="30.9477300" lon="35.3462600">
<ele>-310.820007</ele>
<time>2022-12-14T12:44:25.067Z</time>
</trkpt>
<trkpt lat="30.9478600" lon="35.3462100">
<ele>-310.140015</ele>
<time>2022-12-14T12:44:25.067Z</time>
</trkpt>
<trkpt lat="30.9479500" lon="35.3461900">
<ele>-308.579987</ele>
<time>2022-12-14T12:44:25.067Z</time>
</trkpt>
<trkpt lat="30.9480700" lon="35.3461700">
<ele>-305.669983</ele>
<time>2022-12-14T12:44:25.067Z</time>
</trkpt>
<trkpt lat="30.9481200" lon="35.3461800">
<ele>-303.130005</ele>
<time>2022-12-14T12:44:25.067Z</time>
</trkpt>
<trkpt lat="30.9481800" lon="35.3462100">
<ele>-300.309998</ele>
<time>2022-12-14T12:44:25.067Z</time>
</trkpt>
<trkpt lat="30.9481700" lon="35.3462900">
<ele>-301.640015</ele>
<time>2022-12-14T12:44:25.067Z</time>
</trkpt>
<trkpt lat="30.9481400" lon="35.3464200">
<ele>-304.140015</ele>
<time>2022-12-14T12:44:25.067Z</time>
</trkpt>
<trkpt lat="30.9480300" lon="35.3465200">
<ele>-307.449982</ele>
<time>2022-12-14T12:44:25.067Z</time>
</trkpt>
<trkpt lat="30.9480000" lon="35.3465600">
<ele>-307.089996</ele>
<time>2022-12-14T12:44:25.067Z</time>
</trkpt>
<trkpt lat="30.9478800" lon="35.3467400">
<ele>-304.940002</ele>
<time>2022-12-14T12:44:25.067Z</time>
</trkpt>
<trkpt lat="30.9478500" lon="35.3468500">
<ele>-304.290009</ele>
<time>2022-12-14T12:44:25.067Z</time>
</trkpt>
<trkpt lat="30.9478500" lon="35.3470100">
<ele>-304.630005</ele>
<time>2022-12-14T12:44:25.067Z</time>
</trkpt>
<trkpt lat="30.9478700" lon="35.3470600">
<ele>-305.300018</ele>
<time>2022-12-14T12:44:25.067Z</time>
</trkpt>
<trkpt lat="30.9480000" lon="35.3471500">
<ele>-307.239990</ele>
<time>2022-12-14T12:44:25.067Z</time>
</trkpt>
<trkpt lat="30.9481900" lon="35.3471400">
<ele>-307.610016</ele>
<time>2022-12-14T12:44:25.067Z</time>
</trkpt>
<trkpt lat="30.9482800" lon="35.3471300">
<ele>-307.399994</ele>
<time>2022-12-14T12:44:25.067Z</time>
</trkpt>
<trkpt lat="30.9484400" lon="35.3471500">
<ele>-304.809998</ele>
<time>2022-12-14T12:44:25.067Z</time>
</trkpt>
<trkpt lat="30.9485400" lon="35.3472300">
<ele>-303.970001</ele>
<time>2022-12-14T12:44:25.067Z</time>
</trkpt>
<trkpt lat="30.9485900" lon="35.3474000">
<ele>-307.359985</ele>
<time>2022-12-14T12:44:25.067Z</time>
</trkpt>
<trkpt lat="30.9486000" lon="35.3474600">
<ele>-308.920013</ele>
<time>2022-12-14T12:44:25.067Z</time>
</trkpt>
<trkpt lat="30.9486000" lon="35.3476700">
<ele>-314.179993</ele>
<time>2022-12-14T12:44:25.067Z</time>
</trkpt>
<trkpt lat="30.9486300" lon="35.3478200">
<ele>-316.559998</ele>
<time>2022-12-14T12:44:25.067Z</time>
</trkpt>
<trkpt lat="30.9487000" lon="35.3479500">
<ele>-315.770020</ele>
<time>2022-12-14T12:44:25.067Z</time>
</trkpt>
<trkpt lat="30.9487700" lon="35.3480800">
<ele>-315.600006</ele>
<time>2022-12-14T12:44:25.067Z</time>
</trkpt>
<trkpt lat="30.9488400" lon="35.3482000">
<ele>-314.410004</ele>
<time>2022-12-14T12:44:25.067Z</time>
</trkpt>
<trkpt lat="30.9490400" lon="35.3484300">
<ele>-313.779999</ele>
<time>2022-12-14T12:44:25.067Z</time>
</trkpt>
<trkpt lat="30.9491900" lon="35.3485100">
<ele>-315.820007</ele>
<time>2022-12-14T12:44:25.067Z</time>
</trkpt>
<trkpt lat="30.9493000" lon="35.3486300">
<ele>-317.480011</ele>
<time>2022-12-14T12:44:25.067Z</time>
</trkpt>
<trkpt lat="30.9493000" lon="35.3486700">
<ele>-316.540009</ele>
<time>2022-12-14T12:44:25.067Z</time>
</trkpt>
<trkpt lat="30.9493600" lon="35.3487500">
<ele>-315.630005</ele>
<time>2022-12-14T12:44:25.067Z</time>
</trkpt>
<trkpt lat="30.9494500" lon="35.3487800">
<ele>-316.339996</ele>
<time>2022-12-14T12:44:25.067Z</time>
</trkpt>
<trkpt lat="30.9494900" lon="35.3487800">
<ele>-316.259979</ele>
<time>2022-12-14T12:44:25.067Z</time>
</trkpt>
<trkpt lat="30.9496100" lon="35.3487500">
<ele>-316.399994</ele>
<time>2022-12-14T12:44:25.067Z</time>
</trkpt>
<trkpt lat="30.9496400" lon="35.3487400">
<ele>-316.410004</ele>
<time>2022-12-14T12:44:25.067Z</time>
</trkpt>
<trkpt lat="30.9497600" lon="35.3487400">
<ele>-316.039978</ele>
<time>2022-12-14T12:44:25.067Z</time>
</trkpt>
<trkpt lat="30.9498400" lon="35.3487700">
<ele>-316.039978</ele>
<time>2022-12-14T12:44:25.067Z</time>
</trkpt>
<trkpt lat="30.9498700" lon="35.3487900">
<ele>-316.169983</ele>
<time>2022-12-14T12:44:25.067Z</time>
</trkpt>
<trkpt lat="30.9499000" lon="35.3488600">
<ele>-316.729980</ele>
<time>2022-12-14T12:44:25.067Z</time>
</trkpt>
<trkpt lat="30.9499300" lon="35.3489600">
<ele>-317.050018</ele>
<time>2022-12-14T12:44:25.067Z</time>
</trkpt>
<trkpt lat="30.9499700" lon="35.3491100">
<ele>-317.419983</ele>
<time>2022-12-14T12:44:25.067Z</time>
</trkpt>
<trkpt lat="30.9499900" lon="35.3491700">
<ele>-317.759979</ele>
<time>2022-12-14T12:44:25.067Z</time>
</trkpt>
<trkpt lat="30.9501100" lon="35.3494100">
<ele>-318.869995</ele>
<time>2022-12-14T12:44:25.067Z</time>
</trkpt>
<trkpt lat="30.9502200" lon="35.3494900">
<ele>-320.759979</ele>
<time>2022-12-14T12:44:25.067Z</time>
</trkpt>
<trkpt lat="30.9502400" lon="35.3495200">
<ele>-320.720001</ele>
<time>2022-12-14T12:44:25.067Z</time>
</trkpt>
<trkpt lat="30.9502000" lon="35.3495600">
<ele>-319.079987</ele>
<time>2022-12-14T12:44:25.067Z</time>
</trkpt>
<trkpt lat="30.9501700" lon="35.3496700">
<ele>-316.540009</ele>
<time>2022-12-14T12:44:25.067Z</time>
</trkpt>
<trkpt lat="30.9501900" lon="35.3497000">
<ele>-316.479980</ele>
<time>2022-12-14T12:44:25.067Z</time>
</trkpt>
<trkpt lat="30.9502100" lon="35.3497300">
<ele>-316.410004</ele>
<time>2022-12-14T12:44:25.067Z</time>
</trkpt>
<trkpt lat="30.9502900" lon="35.3498000">
<ele>-316.949982</ele>
<time>2022-12-14T12:44:25.067Z</time>
</trkpt>
<trkpt lat="30.9503900" lon="35.3497400">
<ele>-318.200012</ele>
<time>2022-12-14T12:44:25.067Z</time>
</trkpt>
<trkpt lat="30.9504400" lon="35.3496800">
<ele>-318.630005</ele>
<time>2022-12-14T12:44:25.067Z</time>
</trkpt>
<trkpt lat="30.9505500" lon="35.3495600">
<ele>-317.320007</ele>
<time>2022-12-14T12:44:25.067Z</time>
</trkpt>
<trkpt lat="30.9505800" lon="35.3495300">
<ele>-315.540009</ele>
<time>2022-12-14T12:44:25.067Z</time>
</trkpt>
<trkpt lat="30.9507200" lon="35.3494500">
<ele>-306.600006</ele>
<time>2022-12-14T12:44:25.067Z</time>
</trkpt>
<trkpt lat="30.9507600" lon="35.3494400">
<ele>-304.179993</ele>
<time>2022-12-14T12:44:25.067Z</time>
</trkpt>
<trkpt lat="30.9508300" lon="35.3494800">
<ele>-300.700012</ele>
<time>2022-12-14T12:44:25.067Z</time>
</trkpt>
<trkpt lat="30.9508300" lon="35.3495400">
<ele>-301.559998</ele>
<time>2022-12-14T12:44:25.067Z</time>
</trkpt>
<trkpt lat="30.9508300" lon="35.3496300">
<ele>-302.860016</ele>
<time>2022-12-14T12:44:25.067Z</time>
</trkpt>
<trkpt lat="30.9507800" lon="35.3498700">
<ele>-307.970001</ele>
<time>2022-12-14T12:44:25.067Z</time>
</trkpt>
<trkpt lat="30.9505700" lon="35.3502400">
<ele>-320.799988</ele>
<time>2022-12-14T12:44:25.067Z</time>
</trkpt>
<trkpt lat="30.9504800" lon="35.3505200">
<ele>-323.910004</ele>
<time>2022-12-14T12:44:25.067Z</time>
</trkpt>
<trkpt lat="30.9504600" lon="35.3506700">
<ele>-324.460022</ele>
<time>2022-12-14T12:44:25.067Z</time>
</trkpt>
<trkpt lat="30.9505000" lon="35.3507400">
<ele>-326.000000</ele>
<time>2022-12-14T12:44:25.067Z</time>
</trkpt>
<trkpt lat="30.9505800" lon="35.3507700">
<ele>-327.380005</ele>
<time>2022-12-14T12:44:25.067Z</time>
</trkpt>
<trkpt lat="30.9506000" lon="35.3507600">
<ele>-327.009979</ele>
<time>2022-12-14T12:44:25.067Z</time>
</trkpt>
<trkpt lat="30.9506600" lon="35.3507600">
<ele>-326.029999</ele>
<time>2022-12-14T12:44:25.067Z</time>
</trkpt>
<trkpt lat="30.9506900" lon="35.3507800">
<ele>-325.690002</ele>
<time>2022-12-14T12:44:25.067Z</time>
</trkpt>
<trkpt lat="30.9507800" lon="35.3508900">
<ele>-324.689972</ele>
<time>2022-12-14T12:44:25.067Z</time>
</trkpt>
<trkpt lat="30.9508000" lon="35.3510500">
<ele>-324.290009</ele>
<time>2022-12-14T12:44:25.067Z</time>
</trkpt>
<trkpt lat="30.9507800" lon="35.3511500">
<ele>-324.139984</ele>
<time>2022-12-14T12:44:25.067Z</time>
</trkpt>
<trkpt lat="30.9507700" lon="35.3512000">
<ele>-323.839996</ele>
<time>2022-12-14T12:44:25.067Z</time>
</trkpt>
<trkpt lat="30.9507500" lon="35.3513900">
<ele>-322.399994</ele>
<time>2022-12-14T12:44:25.067Z</time>
</trkpt>
<trkpt lat="30.9508100" lon="35.3515800">
<ele>-323.799988</ele>
<time>2022-12-14T12:44:25.067Z</time>
</trkpt>
<trkpt lat="30.9509400" lon="35.3516600">
<ele>-323.339996</ele>
<time>2022-12-14T12:44:25.067Z</time>
</trkpt>
<trkpt lat="30.9509900" lon="35.3516900">
<ele>-323.000000</ele>
<time>2022-12-14T12:44:25.067Z</time>
</trkpt>
<trkpt lat="30.9511200" lon="35.3518100">
<ele>-324.250000</ele>
<time>2022-12-14T12:44:25.067Z</time>
</trkpt>
<trkpt lat="30.9511900" lon="35.3519000">
<ele>-324.100006</ele>
<time>2022-12-14T12:44:25.067Z</time>
</trkpt>
<trkpt lat="30.9512400" lon="35.3519900">
<ele>-324.519989</ele>
<time>2022-12-14T12:44:25.067Z</time>
</trkpt>
<trkpt lat="30.9512700" lon="35.3520400">
<ele>-324.570007</ele>
<time>2022-12-14T12:44:25.067Z</time>
</trkpt>
<trkpt lat="30.9513000" lon="35.3521500">
<ele>-326.140015</ele>
<time>2022-12-14T12:44:25.067Z</time>
</trkpt>
<trkpt lat="30.9513600" lon="35.3523000">
<ele>-326.420013</ele>
<time>2022-12-14T12:44:25.067Z</time>
</trkpt>
<trkpt lat="30.9514500" lon="35.3524100">
<ele>-325.519989</ele>
<time>2022-12-14T12:44:25.067Z</time>
</trkpt>
<trkpt lat="30.9515200" lon="35.3524800">
<ele>-325.820007</ele>
<time>2022-12-14T12:44:25.067Z</time>
</trkpt>
<trkpt lat="30.9516000" lon="35.3525000">
<ele>-326.520020</ele>
<time>2022-12-14T12:44:25.067Z</time>
</trkpt>
<trkpt lat="30.9516500" lon="35.3525000">
<ele>-326.880005</ele>
<time>2022-12-14T12:44:25.067Z</time>
</trkpt>
<trkpt lat="30.9516900" lon="35.3525000">
<ele>-326.999969</ele>
<time>2022-12-14T12:44:25.067Z</time>
</trkpt>
<trkpt lat="30.9517400" lon="35.3525000">
<ele>-326.999969</ele>
<time>2022-12-14T12:44:25.067Z</time>
</trkpt>
<trkpt lat="30.9518800" lon="35.3525100">
<ele>-326.910004</ele>
<time>2022-12-14T12:44:25.067Z</time>
</trkpt>
<trkpt lat="30.9520600" lon="35.3525200">
<ele>-322.100006</ele>
<time>2022-12-14T12:44:25.067Z</time>
</trkpt>
<trkpt lat="30.9521400" lon="35.3525800">
<ele>-319.599976</ele>
<time>2022-12-14T12:44:25.067Z</time>
</trkpt>
<trkpt lat="30.9522100" lon="35.3526500">
<ele>-318.579987</ele>
<time>2022-12-14T12:44:25.067Z</time>
</trkpt>
<trkpt lat="30.9522800" lon="35.3527500">
<ele>-317.649994</ele>
<time>2022-12-14T12:44:25.067Z</time>
</trkpt>
<trkpt lat="30.9523400" lon="35.3529500">
<ele>-317.950012</ele>
<time>2022-12-14T12:44:25.067Z</time>
</trkpt>
<trkpt lat="30.9523700" lon="35.3531100">
<ele>-319.160004</ele>
<time>2022-12-14T12:44:25.067Z</time>
</trkpt>
<trkpt lat="30.9524500" lon="35.3531700">
<ele>-318.880005</ele>
<time>2022-12-14T12:44:25.067Z</time>
</trkpt>
<trkpt lat="30.9525300" lon="35.3532000">
<ele>-318.200012</ele>
<time>2022-12-14T12:44:25.067Z</time>
</trkpt>
<trkpt lat="30.9526000" lon="35.3532200">
<ele>-316.529999</ele>
<time>2022-12-14T12:44:25.067Z</time>
</trkpt>
<trkpt lat="30.9526400" lon="35.3532400">
<ele>-315.780029</ele>
<time>2022-12-14T12:44:25.067Z</time>
</trkpt>
<trkpt lat="30.9527800" lon="35.3533300">
<ele>-313.800018</ele>
<time>2022-12-14T12:44:25.067Z</time>
</trkpt>
<trkpt lat="30.9528500" lon="35.3533800">
<ele>-310.699982</ele>
<time>2022-12-14T12:44:25.067Z</time>
</trkpt>
<trkpt lat="30.9528900" lon="35.3534200">
<ele>-309.160004</ele>
<time>2022-12-14T12:44:25.067Z</time>
</trkpt>
<trkpt lat="30.9529600" lon="35.3535200">
<ele>-307.250000</ele>
<time>2022-12-14T12:44:25.067Z</time>
</trkpt>
<trkpt lat="30.9530000" lon="35.3536300">
<ele>-307.220001</ele>
<time>2022-12-14T12:44:25.067Z</time>
</trkpt>
<trkpt lat="30.9530100" lon="35.3537100">
<ele>-307.829987</ele>
<time>2022-12-14T12:44:25.067Z</time>
</trkpt>
<trkpt lat="30.9530300" lon="35.3539200">
<ele>-310.309998</ele>
<time>2022-12-14T12:44:25.067Z</time>
</trkpt>
<trkpt lat="30.9530600" lon="35.3539500">
<ele>-310.739990</ele>
<time>2022-12-14T12:44:25.067Z</time>
</trkpt>
<trkpt lat="30.9531800" lon="35.3540800">
<ele>-314.220001</ele>
<time>2022-12-14T12:44:25.067Z</time>
</trkpt>
<trkpt lat="30.9532200" lon="35.3540900">
<ele>-314.470001</ele>
<time>2022-12-14T12:44:25.067Z</time>
</trkpt>
<trkpt lat="30.9534900" lon="35.3541300">
<ele>-312.180023</ele>
<time>2022-12-14T12:44:25.067Z</time>
</trkpt>
<trkpt lat="30.9537500" lon="35.3541700">
<ele>-307.570007</ele>
<time>2022-12-14T12:44:25.067Z</time>
</trkpt>
<trkpt lat="30.9538700" lon="35.3542200">
<ele>-306.309998</ele>
<time>2022-12-14T12:44:25.067Z</time>
</trkpt>
<trkpt lat="30.9539500" lon="35.3542800">
<ele>-305.450012</ele>
<time>2022-12-14T12:44:25.067Z</time>
</trkpt>
<trkpt lat="30.9540300" lon="35.3543700">
<ele>-304.500000</ele>
<time>2022-12-14T12:44:25.067Z</time>
</trkpt>
<trkpt lat="30.9540400" lon="35.3544000">
<ele>-304.570007</ele>
<time>2022-12-14T12:44:25.067Z</time>
</trkpt>
<trkpt lat="30.9540400" lon="35.3544300">
<ele>-304.929993</ele>
<time>2022-12-14T12:44:25.067Z</time>
</trkpt>
<trkpt lat="30.9540600" lon="35.3545100">
<ele>-304.869995</ele>
<time>2022-12-14T12:44:25.067Z</time>
</trkpt>
<trkpt lat="30.9541000" lon="35.3546600">
<ele>-304.309998</ele>
<time>2022-12-14T12:44:25.067Z</time>
</trkpt>
<trkpt lat="30.9540800" lon="35.3547800">
<ele>-306.209991</ele>
<time>2022-12-14T12:44:25.067Z</time>
</trkpt>
<trkpt lat="30.9539600" lon="35.3550800">
<ele>-312.720001</ele>
<time>2022-12-14T12:44:25.067Z</time>
</trkpt>
<trkpt lat="30.9539900" lon="35.3552800">
<ele>-314.029999</ele>
<time>2022-12-14T12:44:25.067Z</time>
</trkpt>
<trkpt lat="30.9540400" lon="35.3553500">
<ele>-315.059998</ele>
<time>2022-12-14T12:44:25.067Z</time>
</trkpt>
<trkpt lat="30.9540700" lon="35.3553900">
<ele>-315.739990</ele>
<time>2022-12-14T12:44:25.067Z</time>
</trkpt>
<trkpt lat="30.9541400" lon="35.3554600">
<ele>-317.150024</ele>
<time>2022-12-14T12:44:25.067Z</time>
</trkpt>
<trkpt lat="30.9543400" lon="35.3556200">
<ele>-316.760010</ele>
<time>2022-12-14T12:44:25.067Z</time>
</trkpt>
<trkpt lat="30.9545100" lon="35.3557600">
<ele>-316.540009</ele>
<time>2022-12-14T12:44:25.067Z</time>
</trkpt>
<trkpt lat="30.9547600" lon="35.3560800">
<ele>-315.929993</ele>
<time>2022-12-14T12:44:25.067Z</time>
</trkpt>
<trkpt lat="30.9549500" lon="35.3564600">
<ele>-316.970001</ele>
<time>2022-12-14T12:44:25.067Z</time>
</trkpt>
<trkpt lat="30.9549800" lon="35.3565100">
<ele>-317.079987</ele>
<time>2022-12-14T12:44:25.067Z</time>
</trkpt>
<trkpt lat="30.9550000" lon="35.3567300">
<ele>-319.910004</ele>
<time>2022-12-14T12:44:25.067Z</time>
</trkpt>
<trkpt lat="30.9550000" lon="35.3567300">
<ele>-319.910004</ele>
<time>2022-12-14T12:44:25.067Z</time>
</trkpt>
<trkpt lat="30.9550000" lon="35.3567300">
<ele>-319.910004</ele>
<time>2022-12-14T12:44:25.067Z</time>
</trkpt>
<trkpt lat="30.9550000" lon="35.3567300">
<ele>-319.910004</ele>
<time>2022-12-14T12:44:25.067Z</time>
</trkpt>
<trkpt lat="30.9550100" lon="35.3567400">
<ele>-319.830017</ele>
<time>2022-12-14T12:44:25.067Z</time>
</trkpt>
<trkpt lat="30.9550100" lon="35.3567400">
<ele>-319.830017</ele>
<time>2022-12-14T12:44:25.067Z</time>
</trkpt>
<trkpt lat="30.9550100" lon="35.3567400">
<ele>-319.830017</ele>
<time>2022-12-14T12:44:25.067Z</time>
</trkpt>
<trkpt lat="30.9550000" lon="35.3567500">
<ele>-320.199982</ele>
<time>2022-12-14T12:44:25.067Z</time>
</trkpt>
<trkpt lat="30.9549800" lon="35.3567700">
<ele>-320.570007</ele>
<time>2022-12-14T12:44:25.067Z</time>
</trkpt>
<trkpt lat="30.9549100" lon="35.3568700">
<ele>-321.709991</ele>
<time>2022-12-14T12:44:25.067Z</time>
</trkpt>
<trkpt lat="30.9549000" lon="35.3568900">
<ele>-321.850006</ele>
<time>2022-12-14T12:44:25.067Z</time>
</trkpt>
<trkpt lat="30.9549000" lon="35.3569100">
<ele>-322.010010</ele>
<time>2022-12-14T12:44:25.067Z</time>
</trkpt>
<trkpt lat="30.9548900" lon="35.3569500">
<ele>-322.179993</ele>
<time>2022-12-14T12:44:25.067Z</time>
</trkpt>
<trkpt lat="30.9548900" lon="35.3570300">
<ele>-321.720001</ele>
<time>2022-12-14T12:44:25.067Z</time>
</trkpt>
<trkpt lat="30.9549300" lon="35.3570900">
<ele>-321.970001</ele>
<time>2022-12-14T12:44:25.067Z</time>
</trkpt>
<trkpt lat="30.9549600" lon="35.3571200">
<ele>-322.350006</ele>
<time>2022-12-14T12:44:25.067Z</time>
</trkpt>
<trkpt lat="30.9551600" lon="35.3572800">
<ele>-323.339996</ele>
<time>2022-12-14T12:44:25.067Z</time>
</trkpt>
<trkpt lat="30.9553300" lon="35.3574500">
<ele>-324.839996</ele>
<time>2022-12-14T12:44:25.067Z</time>
</trkpt>
<trkpt lat="30.9554400" lon="35.3575300">
<ele>-325.380005</ele>
<time>2022-12-14T12:44:25.067Z</time>
</trkpt>
<trkpt lat="30.9556700" lon="35.3577000">
<ele>-326.559998</ele>
<time>2022-12-14T12:44:25.067Z</time>
</trkpt>
<trkpt lat="30.9557600" lon="35.3577700">
<ele>-327.599976</ele>
<time>2022-12-14T12:44:25.067Z</time>
</trkpt>
<trkpt lat="30.9560500" lon="35.3579800">
<ele>-325.240021</ele>
<time>2022-12-14T12:44:25.067Z</time>
</trkpt>
<trkpt lat="30.9562400" lon="35.3581000">
<ele>-325.410004</ele>
<time>2022-12-14T12:44:25.067Z</time>
</trkpt>
<trkpt lat="30.9563100" lon="35.3581600">
<ele>-325.859985</ele>
<time>2022-12-14T12:44:25.067Z</time>
</trkpt>
<trkpt lat="30.9563600" lon="35.3582600">
<ele>-326.549988</ele>
<time>2022-12-14T12:44:25.067Z</time>
</trkpt>
<trkpt lat="30.9564600" lon="35.3584100">
<ele>-327.250031</ele>
<time>2022-12-14T12:44:25.067Z</time>
</trkpt>
<trkpt lat="30.9565700" lon="35.3586300">
<ele>-328.299988</ele>
<time>2022-12-14T12:44:25.067Z</time>
</trkpt>
<trkpt lat="30.9566500" lon="35.3588400">
<ele>-329.750000</ele>
<time>2022-12-14T12:44:25.067Z</time>
</trkpt>
<trkpt lat="30.9567300" lon="35.3590700">
<ele>-330.089996</ele>
<time>2022-12-14T12:44:25.067Z</time>
</trkpt>
<trkpt lat="30.9567600" lon="35.3593300">
<ele>-332.139984</ele>
<time>2022-12-14T12:44:25.067Z</time>
</trkpt>
<trkpt lat="30.9567700" lon="35.3593700">
<ele>-332.420013</ele>
<time>2022-12-14T12:44:25.067Z</time>
</trkpt>
<trkpt lat="30.9568000" lon="35.3596000">
<ele>-335.170013</ele>
<time>2022-12-14T12:44:25.067Z</time>
</trkpt>
<trkpt lat="30.9567400" lon="35.3598300">
<ele>-339.869995</ele>
<time>2022-12-14T12:44:25.067Z</time>
</trkpt>
<trkpt lat="30.9567300" lon="35.3600700">
<ele>-341.829987</ele>
<time>2022-12-14T12:44:25.067Z</time>
</trkpt>
<trkpt lat="30.9567200" lon="35.3602900">
<ele>-342.579987</ele>
<time>2022-12-14T12:44:25.067Z</time>
</trkpt>
<trkpt lat="30.9567300" lon="35.3603400">
<ele>-342.010010</ele>
<time>2022-12-14T12:44:25.067Z</time>
</trkpt>
<trkpt lat="30.9567800" lon="35.3604000">
<ele>-340.439972</ele>
<time>2022-12-14T12:44:25.067Z</time>
</trkpt>
<trkpt lat="30.9568300" lon="35.3604800">
<ele>-338.859985</ele>
<time>2022-12-14T12:44:25.067Z</time>
</trkpt>
<trkpt lat="30.9568000" lon="35.3605500">
<ele>-339.150024</ele>
<time>2022-12-14T12:44:25.067Z</time>
</trkpt>
<trkpt lat="30.9567700" lon="35.3605800">
<ele>-339.660004</ele>
<time>2022-12-14T12:44:25.067Z</time>
</trkpt>
<trkpt lat="30.9567300" lon="35.3607000">
<ele>-339.830017</ele>
<time>2022-12-14T12:44:25.067Z</time>
</trkpt>
<trkpt lat="30.9567100" lon="35.3607300">
<ele>-340.000000</ele>
<time>2022-12-14T12:44:25.067Z</time>
</trkpt>
<trkpt lat="30.9566900" lon="35.3609000">
<ele>-340.380005</ele>
<time>2022-12-14T12:44:25.067Z</time>
</trkpt>
<trkpt lat="30.9566800" lon="35.3609600">
<ele>-341.179993</ele>
<time>2022-12-14T12:44:25.067Z</time>
</trkpt>
<trkpt lat="30.9566800" lon="35.3611000">
<ele>-342.690002</ele>
<time>2022-12-14T12:44:25.067Z</time>
</trkpt>
<trkpt lat="30.9566900" lon="35.3611800">
<ele>-344.169983</ele>
<time>2022-12-14T12:44:25.067Z</time>
</trkpt>
<trkpt lat="30.9567100" lon="35.3613100">
<ele>-346.779999</ele>
<time>2022-12-14T12:44:25.067Z</time>
</trkpt>
<trkpt lat="30.9567000" lon="35.3614000">
<ele>-348.879974</ele>
<time>2022-12-14T12:44:25.067Z</time>
</trkpt>
<trkpt lat="30.9566800" lon="35.3614400">
<ele>-349.970001</ele>
<time>2022-12-14T12:44:25.067Z</time>
</trkpt>
<trkpt lat="30.9566300" lon="35.3616900">
<ele>-354.760010</ele>
<time>2022-12-14T12:44:25.067Z</time>
</trkpt>
<trkpt lat="30.9566600" lon="35.3619800">
<ele>-357.410004</ele>
<time>2022-12-14T12:44:25.067Z</time>
</trkpt>
<trkpt lat="30.9567200" lon="35.3621600">
<ele>-360.250000</ele>
<time>2022-12-14T12:44:25.067Z</time>
</trkpt>
<trkpt lat="30.9567600" lon="35.3622100">
<ele>-361.150024</ele>
<time>2022-12-14T12:44:25.067Z</time>
</trkpt>
<trkpt lat="30.9568000" lon="35.3622500">
<ele>-361.679993</ele>
<time>2022-12-14T12:44:25.067Z</time>
</trkpt>
<trkpt lat="30.9568400" lon="35.3623100">
<ele>-362.260010</ele>
<time>2022-12-14T12:44:25.067Z</time>
</trkpt>
<trkpt lat="30.9568500" lon="35.3623600">
<ele>-362.650024</ele>
<time>2022-12-14T12:44:25.067Z</time>
</trkpt>
<trkpt lat="30.9568200" lon="35.3624800">
<ele>-363.410004</ele>
<time>2022-12-14T12:44:25.067Z</time>
</trkpt>
<trkpt lat="30.9568100" lon="35.3625200">
<ele>-363.550018</ele>
<time>2022-12-14T12:44:25.067Z</time>
</trkpt>
<trkpt lat="30.9567800" lon="35.3626400">
<ele>-363.609985</ele>
<time>2022-12-14T12:44:25.067Z</time>
</trkpt>
<trkpt lat="30.9567800" lon="35.3627900">
<ele>-363.819977</ele>
<time>2022-12-14T12:44:25.067Z</time>
</trkpt>
<trkpt lat="30.9568500" lon="35.3629800">
<ele>-364.320007</ele>
<time>2022-12-14T12:44:25.067Z</time>
</trkpt>
<trkpt lat="30.9568800" lon="35.3631200">
<ele>-364.820007</ele>
<time>2022-12-14T12:44:25.067Z</time>
</trkpt>
<trkpt lat="30.9568800" lon="35.3631200">
<ele>-364.820007</ele>
<time>2022-12-14T12:44:25.067Z</time>
</trkpt>
<trkpt lat="30.9568100" lon="35.3631300">
<ele>-364.429993</ele>
<time>2022-12-14T12:44:25.067Z</time>
</trkpt>
<trkpt lat="30.9568400" lon="35.3632400">
<ele>-365.160004</ele>
<time>2022-12-14T12:44:25.067Z</time>
</trkpt>
<trkpt lat="30.9568700" lon="35.3633600">
<ele>-366.019989</ele>
<time>2022-12-14T12:44:25.067Z</time>
</trkpt>
<trkpt lat="30.9569400" lon="35.3634200">
<ele>-366.920013</ele>
<time>2022-12-14T12:44:25.067Z</time>
</trkpt>
<trkpt lat="30.9570400" lon="35.3634500">
<ele>-367.400024</ele>
<time>2022-12-14T12:44:25.067Z</time>
</trkpt>
<trkpt lat="30.9571000" lon="35.3635000">
<ele>-368.139984</ele>
<time>2022-12-14T12:44:25.067Z</time>
</trkpt>
<trkpt lat="30.9571200" lon="35.3636500">
<ele>-370.140015</ele>
<time>2022-12-14T12:44:25.067Z</time>
</trkpt>
<trkpt lat="30.9567900" lon="35.3636600">
<ele>-368.970001</ele>
<time>2022-12-14T12:44:25.067Z</time>
</trkpt>
<trkpt lat="30.9559800" lon="35.3636600">
<ele>-367.839996</ele>
<time>2022-12-14T12:44:25.067Z</time>
</trkpt>
<trkpt lat="30.9552500" lon="35.3636600">
<ele>-367.989990</ele>
<time>2022-12-14T12:44:25.067Z</time>
</trkpt>
<trkpt lat="30.9546100" lon="35.3636600">
<ele>-364.950012</ele>
<time>2022-12-14T12:44:25.067Z</time>
</trkpt>
<trkpt lat="30.9539700" lon="35.3636600">
<ele>-364.820007</ele>
<time>2022-12-14T12:44:25.067Z</time>
</trkpt>
<trkpt lat="30.9538700" lon="35.3636400">
<ele>-364.620026</ele>
<time>2022-12-14T12:44:25.067Z</time>
</trkpt>
<trkpt lat="30.9536100" lon="35.3635600">
<ele>-362.889984</ele>
<time>2022-12-14T12:44:25.067Z</time>
</trkpt>
<trkpt lat="30.9530900" lon="35.3633200">
<ele>-356.790009</ele>
<time>2022-12-14T12:44:25.067Z</time>
</trkpt>
<trkpt lat="30.9525700" lon="35.3630700">
<ele>-349.380005</ele>
<time>2022-12-14T12:44:25.067Z</time>
</trkpt>
<trkpt lat="30.9520500" lon="35.3628300">
<ele>-351.080017</ele>
<time>2022-12-14T12:44:25.067Z</time>
</trkpt>
<trkpt lat="30.9516500" lon="35.3627400">
<ele>-352.980011</ele>
<time>2022-12-14T12:44:25.067Z</time>
</trkpt>
<trkpt lat="30.9514800" lon="35.3627100">
<ele>-353.940002</ele>
<time>2022-12-14T12:44:25.067Z</time>
</trkpt>
<trkpt lat="30.9512900" lon="35.3627200">
<ele>-353.519989</ele>
<time>2022-12-14T12:44:25.067Z</time>
</trkpt>
<trkpt lat="30.9508400" lon="35.3627700">
<ele>-348.010010</ele>
<time>2022-12-14T12:44:25.067Z</time>
</trkpt>
<trkpt lat="30.9503800" lon="35.3628100">
<ele>-346.529999</ele>
<time>2022-12-14T12:44:25.067Z</time>
</trkpt>
<trkpt lat="30.9500400" lon="35.3628800">
<ele>-345.079987</ele>
<time>2022-12-14T12:44:25.067Z</time>
</trkpt>
<trkpt lat="30.9496200" lon="35.3630100">
<ele>-347.450012</ele>
<time>2022-12-14T12:44:25.067Z</time>
</trkpt>
<trkpt lat="30.9492600" lon="35.3631800">
<ele>-350.669983</ele>
<time>2022-12-14T12:44:25.067Z</time>
</trkpt>
<trkpt lat="30.9485300" lon="35.3636300">
<ele>-352.029999</ele>
<time>2022-12-14T12:44:25.067Z</time>
</trkpt>
<trkpt lat="30.9481100" lon="35.3638900">
<ele>-354.809998</ele>
<time>2022-12-14T12:44:25.067Z</time>
</trkpt>
<trkpt lat="30.9477000" lon="35.3641500">
<ele>-349.510010</ele>
<time>2022-12-14T12:44:25.067Z</time>
</trkpt>
<trkpt lat="30.9472800" lon="35.3644100">
<ele>-351.070007</ele>
<time>2022-12-14T12:44:25.067Z</time>
</trkpt>
<trkpt lat="30.9468600" lon="35.3646600">
<ele>-354.890015</ele>
<time>2022-12-14T12:44:25.067Z</time>
</trkpt>
<trkpt lat="30.9464400" lon="35.3649200">
<ele>-356.449982</ele>
<time>2022-12-14T12:44:25.067Z</time>
</trkpt>
<trkpt lat="30.9460300" lon="35.3651800">
<ele>-353.329987</ele>
<time>2022-12-14T12:44:25.067Z</time>
</trkpt>
<trkpt lat="30.9456100" lon="35.3654400">
<ele>-351.950012</ele>
<time>2022-12-14T12:44:25.067Z</time>
</trkpt>
<trkpt lat="30.9451100" lon="35.3658500">
<ele>-352.720001</ele>
<time>2022-12-14T12:44:25.067Z</time>
</trkpt>
<trkpt lat="30.9447400" lon="35.3662100">
<ele>-349.489990</ele>
<time>2022-12-14T12:44:25.067Z</time>
</trkpt>
<trkpt lat="30.9443700" lon="35.3665800">
<ele>-353.000000</ele>
<time>2022-12-14T12:44:25.067Z</time>
</trkpt>
<trkpt lat="30.9440000" lon="35.3669400">
<ele>-353.369995</ele>
<time>2022-12-14T12:44:25.067Z</time>
</trkpt>
<trkpt lat="30.9436500" lon="35.3672100">
<ele>-351.099976</ele>
<time>2022-12-14T12:44:25.067Z</time>
</trkpt>
<trkpt lat="30.9431100" lon="35.3676300">
<ele>-352.139984</ele>
<time>2022-12-14T12:44:25.067Z</time>
</trkpt>
<trkpt lat="30.9427100" lon="35.3679300">
<ele>-352.489990</ele>
<time>2022-12-14T12:44:25.067Z</time>
</trkpt>
<trkpt lat="30.9420600" lon="35.3685900">
<ele>-355.000000</ele>
<time>2022-12-14T12:44:25.067Z</time>
</trkpt>
<trkpt lat="30.9420700" lon="35.3684200">
<ele>-355.000000</ele>
<time>2022-12-14T12:44:25.067Z</time>
</trkpt>
<trkpt lat="30.9418700" lon="35.3680300">
<ele>-355.460022</ele>
<time>2022-12-14T12:44:25.067Z</time>
</trkpt>
<trkpt lat="30.9415100" lon="35.3675500">
<ele>-353.539978</ele>
<time>2022-12-14T12:44:25.067Z</time>
</trkpt>
</trkseg>
</trk>
</gpx>
